<?xml version="1.0" encoding="UTF-8" standalone="no" ?>
<gpx xmlns="http://www.topografix.com/GPX/1/1" xmlns:xsi="http://www.w3.org/2001/XMLSchema-instance" xsi:schemaLocation="http://www.topografix.com/GPX/1/1 http://www.topografix.com/GPX/1/1/gpx.xsd" version="1.1" creator="VisuGPX - https://www.visugpx.com">
  <metadata>
    <name>Les aresquiers</name>
  </metadata>
  <trk>
    <name><![CDATA[Les aresquiers]]></name>
    <extensions>
      <line xmlns="http://www.topografix.com/GPX/gpx_style/0/2">
        <color>0000FF</color>
        <width>4</width>
      </line>
    </extensions>
    <trkseg>
      <trkpt lat="43.46538" lon="3.81304">
        <ele>3</ele>
        <time>2020-01-14T08:28:33Z</time>
      </trkpt>
      <trkpt lat="43.46535" lon="3.81299">
        <ele>3</ele>
        <time>2020-01-14T08:28:35Z</time>
      </trkpt>
      <trkpt lat="43.46534" lon="3.81297">
        <ele>3</ele>
        <time>2020-01-14T08:28:37Z</time>
      </trkpt>
      <trkpt lat="43.46533" lon="3.81296">
        <ele>3</ele>
        <time>2020-01-14T08:28:39Z</time>
      </trkpt>
      <trkpt lat="43.46532" lon="3.81294">
        <ele>3</ele>
        <time>2020-01-14T08:28:40Z</time>
      </trkpt>
      <trkpt lat="43.46531" lon="3.81292">
        <ele>3</ele>
        <time>2020-01-14T08:28:41Z</time>
      </trkpt>
      <trkpt lat="43.4653" lon="3.81291">
        <ele>3</ele>
        <time>2020-01-14T08:28:43Z</time>
      </trkpt>
      <trkpt lat="43.46529" lon="3.81289">
        <ele>3</ele>
        <time>2020-01-14T08:28:45Z</time>
      </trkpt>
      <trkpt lat="43.46528" lon="3.81287">
        <ele>3</ele>
        <time>2020-01-14T08:28:47Z</time>
      </trkpt>
      <trkpt lat="43.46526" lon="3.81286">
        <ele>3</ele>
        <time>2020-01-14T08:28:49Z</time>
      </trkpt>
      <trkpt lat="43.46525" lon="3.81284">
        <ele>3</ele>
        <time>2020-01-14T08:28:50Z</time>
      </trkpt>
      <trkpt lat="43.46523" lon="3.81281">
        <ele>3</ele>
        <time>2020-01-14T08:28:51Z</time>
      </trkpt>
      <trkpt lat="43.46522" lon="3.81279">
        <ele>3</ele>
        <time>2020-01-14T08:28:53Z</time>
      </trkpt>
      <trkpt lat="43.4652" lon="3.81277">
        <ele>3</ele>
        <time>2020-01-14T08:28:55Z</time>
      </trkpt>
      <trkpt lat="43.46519" lon="3.81275">
        <ele>3</ele>
        <time>2020-01-14T08:28:57Z</time>
      </trkpt>
      <trkpt lat="43.46518" lon="3.81273">
        <ele>3</ele>
        <time>2020-01-14T08:28:59Z</time>
      </trkpt>
      <trkpt lat="43.46516" lon="3.81271">
        <ele>3</ele>
        <time>2020-01-14T08:29:00Z</time>
      </trkpt>
      <trkpt lat="43.46514" lon="3.81268">
        <ele>3</ele>
        <time>2020-01-14T08:29:01Z</time>
      </trkpt>
      <trkpt lat="43.46512" lon="3.81267">
        <ele>3</ele>
        <time>2020-01-14T08:29:03Z</time>
      </trkpt>
      <trkpt lat="43.46511" lon="3.81265">
        <ele>3</ele>
        <time>2020-01-14T08:29:05Z</time>
      </trkpt>
      <trkpt lat="43.46509" lon="3.81263">
        <ele>3</ele>
        <time>2020-01-14T08:29:07Z</time>
      </trkpt>
      <trkpt lat="43.46508" lon="3.81261">
        <ele>3</ele>
        <time>2020-01-14T08:29:09Z</time>
      </trkpt>
      <trkpt lat="43.46506" lon="3.8126">
        <ele>3</ele>
        <time>2020-01-14T08:29:10Z</time>
      </trkpt>
      <trkpt lat="43.46504" lon="3.81257">
        <ele>3</ele>
        <time>2020-01-14T08:29:11Z</time>
      </trkpt>
      <trkpt lat="43.46502" lon="3.81255">
        <ele>3</ele>
        <time>2020-01-14T08:29:13Z</time>
      </trkpt>
      <trkpt lat="43.46501" lon="3.81253">
        <ele>3</ele>
        <time>2020-01-14T08:29:15Z</time>
      </trkpt>
      <trkpt lat="43.46499" lon="3.81251">
        <ele>3</ele>
        <time>2020-01-14T08:29:17Z</time>
      </trkpt>
      <trkpt lat="43.46498" lon="3.8125">
        <ele>3</ele>
        <time>2020-01-14T08:29:19Z</time>
      </trkpt>
      <trkpt lat="43.46496" lon="3.81248">
        <ele>3</ele>
        <time>2020-01-14T08:29:20Z</time>
      </trkpt>
      <trkpt lat="43.46494" lon="3.81245">
        <ele>3</ele>
        <time>2020-01-14T08:29:21Z</time>
      </trkpt>
      <trkpt lat="43.46493" lon="3.81243">
        <ele>3</ele>
        <time>2020-01-14T08:29:23Z</time>
      </trkpt>
      <trkpt lat="43.46491" lon="3.81242">
        <ele>3</ele>
        <time>2020-01-14T08:29:25Z</time>
      </trkpt>
      <trkpt lat="43.4649" lon="3.8124">
        <ele>3</ele>
        <time>2020-01-14T08:29:27Z</time>
      </trkpt>
      <trkpt lat="43.46489" lon="3.81238">
        <ele>3</ele>
        <time>2020-01-14T08:29:29Z</time>
      </trkpt>
      <trkpt lat="43.46487" lon="3.81237">
        <ele>3</ele>
        <time>2020-01-14T08:29:30Z</time>
      </trkpt>
      <trkpt lat="43.46485" lon="3.81233">
        <ele>3</ele>
        <time>2020-01-14T08:29:31Z</time>
      </trkpt>
      <trkpt lat="43.46484" lon="3.81231">
        <ele>3</ele>
        <time>2020-01-14T08:29:33Z</time>
      </trkpt>
      <trkpt lat="43.46483" lon="3.81229">
        <ele>3</ele>
        <time>2020-01-14T08:29:35Z</time>
      </trkpt>
      <trkpt lat="43.46482" lon="3.81227">
        <ele>3</ele>
        <time>2020-01-14T08:29:37Z</time>
      </trkpt>
      <trkpt lat="43.46481" lon="3.81224">
        <ele>3</ele>
        <time>2020-01-14T08:29:39Z</time>
      </trkpt>
      <trkpt lat="43.4648" lon="3.81222">
        <ele>3</ele>
        <time>2020-01-14T08:29:40Z</time>
      </trkpt>
      <trkpt lat="43.46479" lon="3.81219">
        <ele>3</ele>
        <time>2020-01-14T08:29:41Z</time>
      </trkpt>
      <trkpt lat="43.46478" lon="3.81217">
        <ele>3</ele>
        <time>2020-01-14T08:29:43Z</time>
      </trkpt>
      <trkpt lat="43.46477" lon="3.81215">
        <ele>3</ele>
        <time>2020-01-14T08:29:46Z</time>
      </trkpt>
      <trkpt lat="43.46476" lon="3.81214">
        <ele>3</ele>
        <time>2020-01-14T08:29:50Z</time>
      </trkpt>
      <trkpt lat="43.46475" lon="3.81212">
        <ele>3</ele>
        <time>2020-01-14T08:29:52Z</time>
      </trkpt>
      <trkpt lat="43.46474" lon="3.8121">
        <ele>3</ele>
        <time>2020-01-14T08:29:53Z</time>
      </trkpt>
      <trkpt lat="43.46474" lon="3.81208">
        <ele>3</ele>
        <time>2020-01-14T08:30:02Z</time>
      </trkpt>
      <trkpt lat="43.46473" lon="3.81206">
        <ele>3</ele>
        <time>2020-01-14T08:30:03Z</time>
      </trkpt>
      <trkpt lat="43.46472" lon="3.81204">
        <ele>3</ele>
        <time>2020-01-14T08:30:09Z</time>
      </trkpt>
      <trkpt lat="43.46471" lon="3.81203">
        <ele>3</ele>
        <time>2020-01-14T08:30:10Z</time>
      </trkpt>
      <trkpt lat="43.4647" lon="3.81201">
        <ele>3</ele>
        <time>2020-01-14T08:30:18Z</time>
      </trkpt>
      <trkpt lat="43.46469" lon="3.81199">
        <ele>3</ele>
        <time>2020-01-14T08:30:19Z</time>
      </trkpt>
      <trkpt lat="43.46469" lon="3.81197">
        <ele>3</ele>
        <time>2020-01-14T08:30:20Z</time>
      </trkpt>
      <trkpt lat="43.46468" lon="3.81195">
        <ele>3</ele>
        <time>2020-01-14T08:30:22Z</time>
      </trkpt>
      <trkpt lat="43.46467" lon="3.81193">
        <ele>3</ele>
        <time>2020-01-14T08:30:24Z</time>
      </trkpt>
      <trkpt lat="43.46466" lon="3.81192">
        <ele>3</ele>
        <time>2020-01-14T08:30:26Z</time>
      </trkpt>
      <trkpt lat="43.46465" lon="3.8119">
        <ele>3</ele>
        <time>2020-01-14T08:30:27Z</time>
      </trkpt>
      <trkpt lat="43.46462" lon="3.81188">
        <ele>3</ele>
        <time>2020-01-14T08:30:29Z</time>
      </trkpt>
      <trkpt lat="43.46461" lon="3.81186">
        <ele>3</ele>
        <time>2020-01-14T08:30:31Z</time>
      </trkpt>
      <trkpt lat="43.46459" lon="3.81184">
        <ele>3</ele>
        <time>2020-01-14T08:30:33Z</time>
      </trkpt>
      <trkpt lat="43.46458" lon="3.81183">
        <ele>3</ele>
        <time>2020-01-14T08:30:35Z</time>
      </trkpt>
      <trkpt lat="43.46456" lon="3.81181">
        <ele>3</ele>
        <time>2020-01-14T08:30:37Z</time>
      </trkpt>
      <trkpt lat="43.46454" lon="3.81181">
        <ele>3</ele>
        <time>2020-01-14T08:30:41Z</time>
      </trkpt>
      <trkpt lat="43.46452" lon="3.81182">
        <ele>3</ele>
        <time>2020-01-14T08:30:43Z</time>
      </trkpt>
      <trkpt lat="43.4645" lon="3.81182">
        <ele>3</ele>
        <time>2020-01-14T08:30:45Z</time>
      </trkpt>
      <trkpt lat="43.46448" lon="3.81182">
        <ele>3</ele>
        <time>2020-01-14T08:30:47Z</time>
      </trkpt>
      <trkpt lat="43.46446" lon="3.81182">
        <ele>3</ele>
        <time>2020-01-14T08:30:49Z</time>
      </trkpt>
      <trkpt lat="43.46445" lon="3.81183">
        <ele>3</ele>
        <time>2020-01-14T08:30:52Z</time>
      </trkpt>
      <trkpt lat="43.46444" lon="3.81184">
        <ele>3</ele>
        <time>2020-01-14T08:30:54Z</time>
      </trkpt>
      <trkpt lat="43.46443" lon="3.81185">
        <ele>3</ele>
        <time>2020-01-14T08:30:56Z</time>
      </trkpt>
      <trkpt lat="43.46442" lon="3.81186">
        <ele>3</ele>
        <time>2020-01-14T08:30:57Z</time>
      </trkpt>
      <trkpt lat="43.4644" lon="3.81186">
        <ele>3</ele>
        <time>2020-01-14T08:30:58Z</time>
      </trkpt>
      <trkpt lat="43.46438" lon="3.81185">
        <ele>3</ele>
        <time>2020-01-14T08:31:00Z</time>
      </trkpt>
      <trkpt lat="43.46435" lon="3.81183">
        <ele>3</ele>
        <time>2020-01-14T08:31:03Z</time>
      </trkpt>
      <trkpt lat="43.46434" lon="3.81181">
        <ele>3</ele>
        <time>2020-01-14T08:31:05Z</time>
      </trkpt>
      <trkpt lat="43.46433" lon="3.81179">
        <ele>3</ele>
        <time>2020-01-14T08:31:07Z</time>
      </trkpt>
      <trkpt lat="43.46431" lon="3.81177">
        <ele>3</ele>
        <time>2020-01-14T08:31:11Z</time>
      </trkpt>
      <trkpt lat="43.4643" lon="3.81174">
        <ele>3</ele>
        <time>2020-01-14T08:31:14Z</time>
      </trkpt>
      <trkpt lat="43.46429" lon="3.81172">
        <ele>3</ele>
        <time>2020-01-14T08:31:17Z</time>
      </trkpt>
      <trkpt lat="43.46425" lon="3.81171">
        <ele>3</ele>
        <time>2020-01-14T08:31:24Z</time>
      </trkpt>
      <trkpt lat="43.46424" lon="3.8117">
        <ele>3</ele>
        <time>2020-01-14T08:31:27Z</time>
      </trkpt>
      <trkpt lat="43.46422" lon="3.81169">
        <ele>3</ele>
        <time>2020-01-14T08:31:30Z</time>
      </trkpt>
      <trkpt lat="43.46421" lon="3.81168">
        <ele>3</ele>
        <time>2020-01-14T08:31:32Z</time>
      </trkpt>
      <trkpt lat="43.46419" lon="3.81167">
        <ele>3</ele>
        <time>2020-01-14T08:31:34Z</time>
      </trkpt>
      <trkpt lat="43.46418" lon="3.81167">
        <ele>3</ele>
        <time>2020-01-14T08:31:36Z</time>
      </trkpt>
      <trkpt lat="43.46416" lon="3.81166">
        <ele>3</ele>
        <time>2020-01-14T08:31:37Z</time>
      </trkpt>
      <trkpt lat="43.46414" lon="3.81164">
        <ele>3</ele>
        <time>2020-01-14T08:31:38Z</time>
      </trkpt>
      <trkpt lat="43.46412" lon="3.81163">
        <ele>3</ele>
        <time>2020-01-14T08:31:40Z</time>
      </trkpt>
      <trkpt lat="43.46411" lon="3.81162">
        <ele>3</ele>
        <time>2020-01-14T08:31:42Z</time>
      </trkpt>
      <trkpt lat="43.4641" lon="3.81161">
        <ele>3</ele>
        <time>2020-01-14T08:31:44Z</time>
      </trkpt>
      <trkpt lat="43.46408" lon="3.8116">
        <ele>3</ele>
        <time>2020-01-14T08:31:46Z</time>
      </trkpt>
      <trkpt lat="43.46407" lon="3.81159">
        <ele>3</ele>
        <time>2020-01-14T08:31:47Z</time>
      </trkpt>
      <trkpt lat="43.46405" lon="3.81157">
        <ele>3</ele>
        <time>2020-01-14T08:31:48Z</time>
      </trkpt>
      <trkpt lat="43.46403" lon="3.81155">
        <ele>3</ele>
        <time>2020-01-14T08:31:50Z</time>
      </trkpt>
      <trkpt lat="43.46402" lon="3.81154">
        <ele>3</ele>
        <time>2020-01-14T08:31:52Z</time>
      </trkpt>
      <trkpt lat="43.46401" lon="3.81153">
        <ele>3</ele>
        <time>2020-01-14T08:31:54Z</time>
      </trkpt>
      <trkpt lat="43.46399" lon="3.81152">
        <ele>3</ele>
        <time>2020-01-14T08:31:56Z</time>
      </trkpt>
      <trkpt lat="43.46398" lon="3.81151">
        <ele>3</ele>
        <time>2020-01-14T08:31:57Z</time>
      </trkpt>
      <trkpt lat="43.46396" lon="3.81149">
        <ele>3</ele>
        <time>2020-01-14T08:31:58Z</time>
      </trkpt>
      <trkpt lat="43.46394" lon="3.81147">
        <ele>3</ele>
        <time>2020-01-14T08:32:00Z</time>
      </trkpt>
      <trkpt lat="43.46393" lon="3.81146">
        <ele>3</ele>
        <time>2020-01-14T08:32:02Z</time>
      </trkpt>
      <trkpt lat="43.46392" lon="3.81145">
        <ele>3</ele>
        <time>2020-01-14T08:32:04Z</time>
      </trkpt>
      <trkpt lat="43.4639" lon="3.81144">
        <ele>3</ele>
        <time>2020-01-14T08:32:06Z</time>
      </trkpt>
      <trkpt lat="43.46389" lon="3.81142">
        <ele>3</ele>
        <time>2020-01-14T08:32:07Z</time>
      </trkpt>
      <trkpt lat="43.46388" lon="3.81141">
        <ele>3</ele>
        <time>2020-01-14T08:32:08Z</time>
      </trkpt>
      <trkpt lat="43.46387" lon="3.81139">
        <ele>3</ele>
        <time>2020-01-14T08:32:10Z</time>
      </trkpt>
      <trkpt lat="43.46385" lon="3.81138">
        <ele>3</ele>
        <time>2020-01-14T08:32:12Z</time>
      </trkpt>
      <trkpt lat="43.46384" lon="3.81136">
        <ele>3</ele>
        <time>2020-01-14T08:32:14Z</time>
      </trkpt>
      <trkpt lat="43.46382" lon="3.81135">
        <ele>3</ele>
        <time>2020-01-14T08:32:17Z</time>
      </trkpt>
      <trkpt lat="43.46379" lon="3.81133">
        <ele>3</ele>
        <time>2020-01-14T08:32:20Z</time>
      </trkpt>
      <trkpt lat="43.46378" lon="3.81132">
        <ele>3</ele>
        <time>2020-01-14T08:32:22Z</time>
      </trkpt>
      <trkpt lat="43.46376" lon="3.8113">
        <ele>3</ele>
        <time>2020-01-14T08:32:24Z</time>
      </trkpt>
      <trkpt lat="43.46374" lon="3.81128">
        <ele>3</ele>
        <time>2020-01-14T08:32:27Z</time>
      </trkpt>
      <trkpt lat="43.46371" lon="3.81125">
        <ele>3</ele>
        <time>2020-01-14T08:32:30Z</time>
      </trkpt>
      <trkpt lat="43.4637" lon="3.81124">
        <ele>3</ele>
        <time>2020-01-14T08:32:33Z</time>
      </trkpt>
      <trkpt lat="43.46369" lon="3.81123">
        <ele>3</ele>
        <time>2020-01-14T08:32:36Z</time>
      </trkpt>
      <trkpt lat="43.46368" lon="3.81122">
        <ele>3</ele>
        <time>2020-01-14T08:32:37Z</time>
      </trkpt>
      <trkpt lat="43.46365" lon="3.8112">
        <ele>3</ele>
        <time>2020-01-14T08:32:39Z</time>
      </trkpt>
      <trkpt lat="43.46364" lon="3.81119">
        <ele>3</ele>
        <time>2020-01-14T08:32:41Z</time>
      </trkpt>
      <trkpt lat="43.46362" lon="3.81117">
        <ele>3</ele>
        <time>2020-01-14T08:32:43Z</time>
      </trkpt>
      <trkpt lat="43.4636" lon="3.81117">
        <ele>3</ele>
        <time>2020-01-14T08:32:45Z</time>
      </trkpt>
      <trkpt lat="43.46357" lon="3.81117">
        <ele>3</ele>
        <time>2020-01-14T08:32:47Z</time>
      </trkpt>
      <trkpt lat="43.46355" lon="3.81116">
        <ele>3</ele>
        <time>2020-01-14T08:32:49Z</time>
      </trkpt>
      <trkpt lat="43.46353" lon="3.81115">
        <ele>3</ele>
        <time>2020-01-14T08:32:51Z</time>
      </trkpt>
      <trkpt lat="43.46351" lon="3.81114">
        <ele>3</ele>
        <time>2020-01-14T08:32:54Z</time>
      </trkpt>
      <trkpt lat="43.46348" lon="3.81113">
        <ele>3</ele>
        <time>2020-01-14T08:32:57Z</time>
      </trkpt>
      <trkpt lat="43.46347" lon="3.81112">
        <ele>3</ele>
        <time>2020-01-14T08:32:59Z</time>
      </trkpt>
      <trkpt lat="43.46345" lon="3.8111">
        <ele>3</ele>
        <time>2020-01-14T08:33:01Z</time>
      </trkpt>
      <trkpt lat="43.46343" lon="3.81109">
        <ele>3</ele>
        <time>2020-01-14T08:33:03Z</time>
      </trkpt>
      <trkpt lat="43.46341" lon="3.81109">
        <ele>3</ele>
        <time>2020-01-14T08:33:05Z</time>
      </trkpt>
      <trkpt lat="43.46339" lon="3.81107">
        <ele>3</ele>
        <time>2020-01-14T08:33:07Z</time>
      </trkpt>
      <trkpt lat="43.46337" lon="3.81105">
        <ele>3</ele>
        <time>2020-01-14T08:33:09Z</time>
      </trkpt>
      <trkpt lat="43.46335" lon="3.81104">
        <ele>3</ele>
        <time>2020-01-14T08:33:11Z</time>
      </trkpt>
      <trkpt lat="43.46333" lon="3.81103">
        <ele>3</ele>
        <time>2020-01-14T08:33:13Z</time>
      </trkpt>
      <trkpt lat="43.46331" lon="3.81101">
        <ele>3</ele>
        <time>2020-01-14T08:33:15Z</time>
      </trkpt>
      <trkpt lat="43.46329" lon="3.81099">
        <ele>3</ele>
        <time>2020-01-14T08:33:17Z</time>
      </trkpt>
      <trkpt lat="43.46327" lon="3.81097">
        <ele>3</ele>
        <time>2020-01-14T08:33:19Z</time>
      </trkpt>
      <trkpt lat="43.46325" lon="3.81095">
        <ele>3</ele>
        <time>2020-01-14T08:33:21Z</time>
      </trkpt>
      <trkpt lat="43.46324" lon="3.81095">
        <ele>3</ele>
        <time>2020-01-14T08:33:23Z</time>
      </trkpt>
      <trkpt lat="43.46322" lon="3.81094">
        <ele>3</ele>
        <time>2020-01-14T08:33:25Z</time>
      </trkpt>
      <trkpt lat="43.46319" lon="3.81092">
        <ele>3</ele>
        <time>2020-01-14T08:33:27Z</time>
      </trkpt>
      <trkpt lat="43.46316" lon="3.8109">
        <ele>3</ele>
        <time>2020-01-14T08:33:29Z</time>
      </trkpt>
      <trkpt lat="43.46315" lon="3.81089">
        <ele>3</ele>
        <time>2020-01-14T08:33:32Z</time>
      </trkpt>
      <trkpt lat="43.46313" lon="3.81088">
        <ele>3</ele>
        <time>2020-01-14T08:33:34Z</time>
      </trkpt>
      <trkpt lat="43.46312" lon="3.81086">
        <ele>3</ele>
        <time>2020-01-14T08:33:36Z</time>
      </trkpt>
      <trkpt lat="43.46311" lon="3.81085">
        <ele>3</ele>
        <time>2020-01-14T08:33:37Z</time>
      </trkpt>
      <trkpt lat="43.46308" lon="3.81084">
        <ele>3</ele>
        <time>2020-01-14T08:33:38Z</time>
      </trkpt>
      <trkpt lat="43.46307" lon="3.81082">
        <ele>3</ele>
        <time>2020-01-14T08:33:40Z</time>
      </trkpt>
      <trkpt lat="43.46306" lon="3.81081">
        <ele>3</ele>
        <time>2020-01-14T08:33:42Z</time>
      </trkpt>
      <trkpt lat="43.46304" lon="3.81079">
        <ele>3</ele>
        <time>2020-01-14T08:33:44Z</time>
      </trkpt>
      <trkpt lat="43.46303" lon="3.81078">
        <ele>3</ele>
        <time>2020-01-14T08:33:46Z</time>
      </trkpt>
      <trkpt lat="43.46302" lon="3.81076">
        <ele>3</ele>
        <time>2020-01-14T08:33:47Z</time>
      </trkpt>
      <trkpt lat="43.463" lon="3.81074">
        <ele>3</ele>
        <time>2020-01-14T08:33:48Z</time>
      </trkpt>
      <trkpt lat="43.46299" lon="3.81073">
        <ele>3</ele>
        <time>2020-01-14T08:33:50Z</time>
      </trkpt>
      <trkpt lat="43.46297" lon="3.81072">
        <ele>3</ele>
        <time>2020-01-14T08:33:52Z</time>
      </trkpt>
      <trkpt lat="43.46296" lon="3.81071">
        <ele>3</ele>
        <time>2020-01-14T08:33:54Z</time>
      </trkpt>
      <trkpt lat="43.46294" lon="3.8107">
        <ele>3</ele>
        <time>2020-01-14T08:33:56Z</time>
      </trkpt>
      <trkpt lat="43.46293" lon="3.81069">
        <ele>3</ele>
        <time>2020-01-14T08:33:57Z</time>
      </trkpt>
      <trkpt lat="43.46291" lon="3.81067">
        <ele>3</ele>
        <time>2020-01-14T08:33:58Z</time>
      </trkpt>
      <trkpt lat="43.4629" lon="3.81066">
        <ele>3</ele>
        <time>2020-01-14T08:34:00Z</time>
      </trkpt>
      <trkpt lat="43.46289" lon="3.81065">
        <ele>3</ele>
        <time>2020-01-14T08:34:02Z</time>
      </trkpt>
      <trkpt lat="43.46287" lon="3.81064">
        <ele>3</ele>
        <time>2020-01-14T08:34:04Z</time>
      </trkpt>
      <trkpt lat="43.46286" lon="3.81063">
        <ele>3</ele>
        <time>2020-01-14T08:34:06Z</time>
      </trkpt>
      <trkpt lat="43.46285" lon="3.81063">
        <ele>3</ele>
        <time>2020-01-14T08:34:07Z</time>
      </trkpt>
      <trkpt lat="43.46281" lon="3.81062">
        <ele>3</ele>
        <time>2020-01-14T08:34:08Z</time>
      </trkpt>
      <trkpt lat="43.4628" lon="3.81062">
        <ele>3</ele>
        <time>2020-01-14T08:34:10Z</time>
      </trkpt>
      <trkpt lat="43.46278" lon="3.81061">
        <ele>3</ele>
        <time>2020-01-14T08:34:12Z</time>
      </trkpt>
      <trkpt lat="43.46277" lon="3.81061">
        <ele>3</ele>
        <time>2020-01-14T08:34:14Z</time>
      </trkpt>
      <trkpt lat="43.46275" lon="3.81061">
        <ele>3</ele>
        <time>2020-01-14T08:34:16Z</time>
      </trkpt>
      <trkpt lat="43.46274" lon="3.8106">
        <ele>3</ele>
        <time>2020-01-14T08:34:17Z</time>
      </trkpt>
      <trkpt lat="43.46271" lon="3.81058">
        <ele>3</ele>
        <time>2020-01-14T08:34:18Z</time>
      </trkpt>
      <trkpt lat="43.4627" lon="3.81057">
        <ele>3</ele>
        <time>2020-01-14T08:34:20Z</time>
      </trkpt>
      <trkpt lat="43.46268" lon="3.81056">
        <ele>3</ele>
        <time>2020-01-14T08:34:22Z</time>
      </trkpt>
      <trkpt lat="43.46267" lon="3.81055">
        <ele>3</ele>
        <time>2020-01-14T08:34:24Z</time>
      </trkpt>
      <trkpt lat="43.46265" lon="3.81054">
        <ele>3</ele>
        <time>2020-01-14T08:34:26Z</time>
      </trkpt>
      <trkpt lat="43.46264" lon="3.81053">
        <ele>3</ele>
        <time>2020-01-14T08:34:27Z</time>
      </trkpt>
      <trkpt lat="43.46262" lon="3.81051">
        <ele>3</ele>
        <time>2020-01-14T08:34:28Z</time>
      </trkpt>
      <trkpt lat="43.4626" lon="3.8105">
        <ele>3</ele>
        <time>2020-01-14T08:34:30Z</time>
      </trkpt>
      <trkpt lat="43.46259" lon="3.81048">
        <ele>3</ele>
        <time>2020-01-14T08:34:32Z</time>
      </trkpt>
      <trkpt lat="43.46258" lon="3.81047">
        <ele>3</ele>
        <time>2020-01-14T08:34:34Z</time>
      </trkpt>
      <trkpt lat="43.46257" lon="3.81045">
        <ele>3</ele>
        <time>2020-01-14T08:34:36Z</time>
      </trkpt>
      <trkpt lat="43.46255" lon="3.81044">
        <ele>3</ele>
        <time>2020-01-14T08:34:37Z</time>
      </trkpt>
      <trkpt lat="43.46253" lon="3.81042">
        <ele>3</ele>
        <time>2020-01-14T08:34:38Z</time>
      </trkpt>
      <trkpt lat="43.46252" lon="3.81041">
        <ele>3</ele>
        <time>2020-01-14T08:34:40Z</time>
      </trkpt>
      <trkpt lat="43.46251" lon="3.8104">
        <ele>3</ele>
        <time>2020-01-14T08:34:42Z</time>
      </trkpt>
      <trkpt lat="43.46249" lon="3.81039">
        <ele>3</ele>
        <time>2020-01-14T08:34:44Z</time>
      </trkpt>
      <trkpt lat="43.46248" lon="3.81038">
        <ele>3</ele>
        <time>2020-01-14T08:34:46Z</time>
      </trkpt>
      <trkpt lat="43.46247" lon="3.81038">
        <ele>3</ele>
        <time>2020-01-14T08:34:47Z</time>
      </trkpt>
      <trkpt lat="43.46244" lon="3.81036">
        <ele>3</ele>
        <time>2020-01-14T08:34:49Z</time>
      </trkpt>
      <trkpt lat="43.46242" lon="3.81034">
        <ele>3</ele>
        <time>2020-01-14T08:34:51Z</time>
      </trkpt>
      <trkpt lat="43.4624" lon="3.81032">
        <ele>3</ele>
        <time>2020-01-14T08:34:53Z</time>
      </trkpt>
      <trkpt lat="43.46239" lon="3.8103">
        <ele>3</ele>
        <time>2020-01-14T08:34:55Z</time>
      </trkpt>
      <trkpt lat="43.46237" lon="3.81029">
        <ele>3</ele>
        <time>2020-01-14T08:34:57Z</time>
      </trkpt>
      <trkpt lat="43.46235" lon="3.81028">
        <ele>3</ele>
        <time>2020-01-14T08:34:59Z</time>
      </trkpt>
      <trkpt lat="43.46233" lon="3.81027">
        <ele>3</ele>
        <time>2020-01-14T08:35:01Z</time>
      </trkpt>
      <trkpt lat="43.46231" lon="3.81026">
        <ele>3</ele>
        <time>2020-01-14T08:35:03Z</time>
      </trkpt>
      <trkpt lat="43.46229" lon="3.81025">
        <ele>3</ele>
        <time>2020-01-14T08:35:05Z</time>
      </trkpt>
      <trkpt lat="43.46227" lon="3.81024">
        <ele>3</ele>
        <time>2020-01-14T08:35:07Z</time>
      </trkpt>
      <trkpt lat="43.46224" lon="3.81021">
        <ele>3</ele>
        <time>2020-01-14T08:35:09Z</time>
      </trkpt>
      <trkpt lat="43.46223" lon="3.8102">
        <ele>3</ele>
        <time>2020-01-14T08:35:11Z</time>
      </trkpt>
      <trkpt lat="43.46221" lon="3.81019">
        <ele>3</ele>
        <time>2020-01-14T08:35:13Z</time>
      </trkpt>
      <trkpt lat="43.4622" lon="3.81017">
        <ele>3</ele>
        <time>2020-01-14T08:35:16Z</time>
      </trkpt>
      <trkpt lat="43.46219" lon="3.81016">
        <ele>3</ele>
        <time>2020-01-14T08:35:17Z</time>
      </trkpt>
      <trkpt lat="43.46216" lon="3.81015">
        <ele>3</ele>
        <time>2020-01-14T08:35:18Z</time>
      </trkpt>
      <trkpt lat="43.46214" lon="3.81014">
        <ele>3</ele>
        <time>2020-01-14T08:35:20Z</time>
      </trkpt>
      <trkpt lat="43.46213" lon="3.81013">
        <ele>3</ele>
        <time>2020-01-14T08:35:22Z</time>
      </trkpt>
      <trkpt lat="43.46211" lon="3.81012">
        <ele>3</ele>
        <time>2020-01-14T08:35:24Z</time>
      </trkpt>
      <trkpt lat="43.4621" lon="3.81012">
        <ele>3</ele>
        <time>2020-01-14T08:35:26Z</time>
      </trkpt>
      <trkpt lat="43.46208" lon="3.81011">
        <ele>3</ele>
        <time>2020-01-14T08:35:27Z</time>
      </trkpt>
      <trkpt lat="43.46206" lon="3.81009">
        <ele>3</ele>
        <time>2020-01-14T08:35:28Z</time>
      </trkpt>
      <trkpt lat="43.46204" lon="3.81009">
        <ele>3</ele>
        <time>2020-01-14T08:35:30Z</time>
      </trkpt>
      <trkpt lat="43.46203" lon="3.81008">
        <ele>3</ele>
        <time>2020-01-14T08:35:32Z</time>
      </trkpt>
      <trkpt lat="43.46202" lon="3.81007">
        <ele>3</ele>
        <time>2020-01-14T08:35:34Z</time>
      </trkpt>
      <trkpt lat="43.462" lon="3.81006">
        <ele>3</ele>
        <time>2020-01-14T08:35:36Z</time>
      </trkpt>
      <trkpt lat="43.46199" lon="3.81006">
        <ele>3</ele>
        <time>2020-01-14T08:35:37Z</time>
      </trkpt>
      <trkpt lat="43.46195" lon="3.81004">
        <ele>3</ele>
        <time>2020-01-14T08:35:39Z</time>
      </trkpt>
      <trkpt lat="43.46193" lon="3.81003">
        <ele>3</ele>
        <time>2020-01-14T08:35:41Z</time>
      </trkpt>
      <trkpt lat="43.46192" lon="3.81002">
        <ele>3</ele>
        <time>2020-01-14T08:35:43Z</time>
      </trkpt>
      <trkpt lat="43.4619" lon="3.81001">
        <ele>3</ele>
        <time>2020-01-14T08:35:46Z</time>
      </trkpt>
      <trkpt lat="43.46188" lon="3.81001">
        <ele>3</ele>
        <time>2020-01-14T08:35:47Z</time>
      </trkpt>
      <trkpt lat="43.46186" lon="3.80999">
        <ele>3</ele>
        <time>2020-01-14T08:35:48Z</time>
      </trkpt>
      <trkpt lat="43.46185" lon="3.80998">
        <ele>3</ele>
        <time>2020-01-14T08:35:50Z</time>
      </trkpt>
      <trkpt lat="43.46183" lon="3.80997">
        <ele>3</ele>
        <time>2020-01-14T08:35:52Z</time>
      </trkpt>
      <trkpt lat="43.46182" lon="3.80996">
        <ele>3</ele>
        <time>2020-01-14T08:35:54Z</time>
      </trkpt>
      <trkpt lat="43.4618" lon="3.80995">
        <ele>3</ele>
        <time>2020-01-14T08:35:56Z</time>
      </trkpt>
      <trkpt lat="43.46179" lon="3.80994">
        <ele>3</ele>
        <time>2020-01-14T08:35:57Z</time>
      </trkpt>
      <trkpt lat="43.46176" lon="3.80992">
        <ele>3</ele>
        <time>2020-01-14T08:35:58Z</time>
      </trkpt>
      <trkpt lat="43.46175" lon="3.80991">
        <ele>3</ele>
        <time>2020-01-14T08:36:00Z</time>
      </trkpt>
      <trkpt lat="43.46173" lon="3.8099">
        <ele>3</ele>
        <time>2020-01-14T08:36:02Z</time>
      </trkpt>
      <trkpt lat="43.46172" lon="3.80989">
        <ele>3</ele>
        <time>2020-01-14T08:36:04Z</time>
      </trkpt>
      <trkpt lat="43.4617" lon="3.80988">
        <ele>3</ele>
        <time>2020-01-14T08:36:06Z</time>
      </trkpt>
      <trkpt lat="43.46169" lon="3.80987">
        <ele>3</ele>
        <time>2020-01-14T08:36:07Z</time>
      </trkpt>
      <trkpt lat="43.46166" lon="3.80986">
        <ele>3</ele>
        <time>2020-01-14T08:36:08Z</time>
      </trkpt>
      <trkpt lat="43.46164" lon="3.80985">
        <ele>3</ele>
        <time>2020-01-14T08:36:10Z</time>
      </trkpt>
      <trkpt lat="43.46162" lon="3.80984">
        <ele>3</ele>
        <time>2020-01-14T08:36:12Z</time>
      </trkpt>
      <trkpt lat="43.46161" lon="3.80983">
        <ele>3</ele>
        <time>2020-01-14T08:36:14Z</time>
      </trkpt>
      <trkpt lat="43.46159" lon="3.80982">
        <ele>3</ele>
        <time>2020-01-14T08:36:16Z</time>
      </trkpt>
      <trkpt lat="43.46157" lon="3.80981">
        <ele>3</ele>
        <time>2020-01-14T08:36:17Z</time>
      </trkpt>
      <trkpt lat="43.46154" lon="3.8098">
        <ele>3</ele>
        <time>2020-01-14T08:36:18Z</time>
      </trkpt>
      <trkpt lat="43.46153" lon="3.80979">
        <ele>3</ele>
        <time>2020-01-14T08:36:20Z</time>
      </trkpt>
      <trkpt lat="43.46151" lon="3.80978">
        <ele>3</ele>
        <time>2020-01-14T08:36:22Z</time>
      </trkpt>
      <trkpt lat="43.46149" lon="3.80978">
        <ele>3</ele>
        <time>2020-01-14T08:36:24Z</time>
      </trkpt>
      <trkpt lat="43.46147" lon="3.80977">
        <ele>3</ele>
        <time>2020-01-14T08:36:26Z</time>
      </trkpt>
      <trkpt lat="43.46146" lon="3.80977">
        <ele>3</ele>
        <time>2020-01-14T08:36:27Z</time>
      </trkpt>
      <trkpt lat="43.46143" lon="3.80976">
        <ele>3</ele>
        <time>2020-01-14T08:36:28Z</time>
      </trkpt>
      <trkpt lat="43.46141" lon="3.80976">
        <ele>3</ele>
        <time>2020-01-14T08:36:30Z</time>
      </trkpt>
      <trkpt lat="43.46139" lon="3.80976">
        <ele>3</ele>
        <time>2020-01-14T08:36:32Z</time>
      </trkpt>
      <trkpt lat="43.46138" lon="3.80976">
        <ele>3</ele>
        <time>2020-01-14T08:36:34Z</time>
      </trkpt>
      <trkpt lat="43.46136" lon="3.80976">
        <ele>3</ele>
        <time>2020-01-14T08:36:36Z</time>
      </trkpt>
      <trkpt lat="43.46134" lon="3.80977">
        <ele>3</ele>
        <time>2020-01-14T08:36:37Z</time>
      </trkpt>
      <trkpt lat="43.46131" lon="3.80976">
        <ele>3</ele>
        <time>2020-01-14T08:36:38Z</time>
      </trkpt>
      <trkpt lat="43.46129" lon="3.80975">
        <ele>3</ele>
        <time>2020-01-14T08:36:40Z</time>
      </trkpt>
      <trkpt lat="43.46128" lon="3.80975">
        <ele>3</ele>
        <time>2020-01-14T08:36:42Z</time>
      </trkpt>
      <trkpt lat="43.46126" lon="3.80974">
        <ele>3</ele>
        <time>2020-01-14T08:36:44Z</time>
      </trkpt>
      <trkpt lat="43.46124" lon="3.80973">
        <ele>3</ele>
        <time>2020-01-14T08:36:46Z</time>
      </trkpt>
      <trkpt lat="43.46122" lon="3.80972">
        <ele>3</ele>
        <time>2020-01-14T08:36:47Z</time>
      </trkpt>
      <trkpt lat="43.4612" lon="3.80971">
        <ele>3</ele>
        <time>2020-01-14T08:36:48Z</time>
      </trkpt>
      <trkpt lat="43.46118" lon="3.8097">
        <ele>3</ele>
        <time>2020-01-14T08:36:50Z</time>
      </trkpt>
      <trkpt lat="43.46117" lon="3.80968">
        <ele>3</ele>
        <time>2020-01-14T08:36:52Z</time>
      </trkpt>
      <trkpt lat="43.46115" lon="3.80967">
        <ele>3</ele>
        <time>2020-01-14T08:36:54Z</time>
      </trkpt>
      <trkpt lat="43.46114" lon="3.80966">
        <ele>3</ele>
        <time>2020-01-14T08:36:56Z</time>
      </trkpt>
      <trkpt lat="43.46112" lon="3.80965">
        <ele>3</ele>
        <time>2020-01-14T08:36:57Z</time>
      </trkpt>
      <trkpt lat="43.46109" lon="3.80964">
        <ele>3</ele>
        <time>2020-01-14T08:36:58Z</time>
      </trkpt>
      <trkpt lat="43.46107" lon="3.80963">
        <ele>3</ele>
        <time>2020-01-14T08:37:00Z</time>
      </trkpt>
      <trkpt lat="43.46106" lon="3.80962">
        <ele>3</ele>
        <time>2020-01-14T08:37:02Z</time>
      </trkpt>
      <trkpt lat="43.46104" lon="3.80961">
        <ele>3</ele>
        <time>2020-01-14T08:37:04Z</time>
      </trkpt>
      <trkpt lat="43.46102" lon="3.8096">
        <ele>3</ele>
        <time>2020-01-14T08:37:06Z</time>
      </trkpt>
      <trkpt lat="43.461" lon="3.80959">
        <ele>3</ele>
        <time>2020-01-14T08:37:07Z</time>
      </trkpt>
      <trkpt lat="43.46097" lon="3.80958">
        <ele>3</ele>
        <time>2020-01-14T08:37:08Z</time>
      </trkpt>
      <trkpt lat="43.46096" lon="3.80957">
        <ele>3</ele>
        <time>2020-01-14T08:37:10Z</time>
      </trkpt>
      <trkpt lat="43.46094" lon="3.80956">
        <ele>3</ele>
        <time>2020-01-14T08:37:12Z</time>
      </trkpt>
      <trkpt lat="43.46092" lon="3.80956">
        <ele>3</ele>
        <time>2020-01-14T08:37:14Z</time>
      </trkpt>
      <trkpt lat="43.46091" lon="3.80955">
        <ele>3</ele>
        <time>2020-01-14T08:37:16Z</time>
      </trkpt>
      <trkpt lat="43.46089" lon="3.80954">
        <ele>3</ele>
        <time>2020-01-14T08:37:17Z</time>
      </trkpt>
      <trkpt lat="43.46086" lon="3.80952">
        <ele>3</ele>
        <time>2020-01-14T08:37:18Z</time>
      </trkpt>
      <trkpt lat="43.46085" lon="3.80951">
        <ele>3</ele>
        <time>2020-01-14T08:37:20Z</time>
      </trkpt>
      <trkpt lat="43.46084" lon="3.80949">
        <ele>3</ele>
        <time>2020-01-14T08:37:22Z</time>
      </trkpt>
      <trkpt lat="43.46082" lon="3.80948">
        <ele>3</ele>
        <time>2020-01-14T08:37:24Z</time>
      </trkpt>
      <trkpt lat="43.46081" lon="3.80947">
        <ele>3</ele>
        <time>2020-01-14T08:37:26Z</time>
      </trkpt>
      <trkpt lat="43.46079" lon="3.80945">
        <ele>3</ele>
        <time>2020-01-14T08:37:27Z</time>
      </trkpt>
      <trkpt lat="43.46077" lon="3.80942">
        <ele>3</ele>
        <time>2020-01-14T08:37:28Z</time>
      </trkpt>
      <trkpt lat="43.46076" lon="3.80941">
        <ele>3</ele>
        <time>2020-01-14T08:37:30Z</time>
      </trkpt>
      <trkpt lat="43.46074" lon="3.80939">
        <ele>3</ele>
        <time>2020-01-14T08:37:32Z</time>
      </trkpt>
      <trkpt lat="43.46073" lon="3.80938">
        <ele>3</ele>
        <time>2020-01-14T08:37:34Z</time>
      </trkpt>
      <trkpt lat="43.46072" lon="3.80936">
        <ele>3</ele>
        <time>2020-01-14T08:37:36Z</time>
      </trkpt>
      <trkpt lat="43.46071" lon="3.80934">
        <ele>3</ele>
        <time>2020-01-14T08:37:37Z</time>
      </trkpt>
      <trkpt lat="43.46068" lon="3.80931">
        <ele>3</ele>
        <time>2020-01-14T08:37:38Z</time>
      </trkpt>
      <trkpt lat="43.46067" lon="3.80929">
        <ele>3</ele>
        <time>2020-01-14T08:37:40Z</time>
      </trkpt>
      <trkpt lat="43.46066" lon="3.80927">
        <ele>3</ele>
        <time>2020-01-14T08:37:42Z</time>
      </trkpt>
      <trkpt lat="43.46064" lon="3.80926">
        <ele>3</ele>
        <time>2020-01-14T08:37:44Z</time>
      </trkpt>
      <trkpt lat="43.46063" lon="3.80924">
        <ele>3</ele>
        <time>2020-01-14T08:37:46Z</time>
      </trkpt>
      <trkpt lat="43.46062" lon="3.80922">
        <ele>3</ele>
        <time>2020-01-14T08:37:47Z</time>
      </trkpt>
      <trkpt lat="43.4606" lon="3.80918">
        <ele>3</ele>
        <time>2020-01-14T08:37:48Z</time>
      </trkpt>
      <trkpt lat="43.46059" lon="3.80916">
        <ele>3</ele>
        <time>2020-01-14T08:37:50Z</time>
      </trkpt>
      <trkpt lat="43.46059" lon="3.80913">
        <ele>3</ele>
        <time>2020-01-14T08:37:52Z</time>
      </trkpt>
      <trkpt lat="43.46058" lon="3.80911">
        <ele>3</ele>
        <time>2020-01-14T08:37:54Z</time>
      </trkpt>
      <trkpt lat="43.46057" lon="3.80908">
        <ele>3</ele>
        <time>2020-01-14T08:37:56Z</time>
      </trkpt>
      <trkpt lat="43.46056" lon="3.80906">
        <ele>3</ele>
        <time>2020-01-14T08:37:57Z</time>
      </trkpt>
      <trkpt lat="43.46055" lon="3.80902">
        <ele>3</ele>
        <time>2020-01-14T08:37:58Z</time>
      </trkpt>
      <trkpt lat="43.46054" lon="3.809">
        <ele>3</ele>
        <time>2020-01-14T08:38:00Z</time>
      </trkpt>
      <trkpt lat="43.46053" lon="3.80898">
        <ele>3</ele>
        <time>2020-01-14T08:38:02Z</time>
      </trkpt>
      <trkpt lat="43.46053" lon="3.80895">
        <ele>3</ele>
        <time>2020-01-14T08:38:04Z</time>
      </trkpt>
      <trkpt lat="43.46052" lon="3.80893">
        <ele>3</ele>
        <time>2020-01-14T08:38:06Z</time>
      </trkpt>
      <trkpt lat="43.46051" lon="3.80891">
        <ele>3</ele>
        <time>2020-01-14T08:38:07Z</time>
      </trkpt>
      <trkpt lat="43.4605" lon="3.80887">
        <ele>3</ele>
        <time>2020-01-14T08:38:08Z</time>
      </trkpt>
      <trkpt lat="43.4605" lon="3.80884">
        <ele>3</ele>
        <time>2020-01-14T08:38:10Z</time>
      </trkpt>
      <trkpt lat="43.4605" lon="3.80881">
        <ele>3</ele>
        <time>2020-01-14T08:38:12Z</time>
      </trkpt>
      <trkpt lat="43.46049" lon="3.80879">
        <ele>3</ele>
        <time>2020-01-14T08:38:14Z</time>
      </trkpt>
      <trkpt lat="43.46049" lon="3.80876">
        <ele>3</ele>
        <time>2020-01-14T08:38:16Z</time>
      </trkpt>
      <trkpt lat="43.46049" lon="3.80874">
        <ele>3</ele>
        <time>2020-01-14T08:38:17Z</time>
      </trkpt>
      <trkpt lat="43.46048" lon="3.80869">
        <ele>3</ele>
        <time>2020-01-14T08:38:18Z</time>
      </trkpt>
      <trkpt lat="43.46047" lon="3.80867">
        <ele>3</ele>
        <time>2020-01-14T08:38:20Z</time>
      </trkpt>
      <trkpt lat="43.46047" lon="3.80864">
        <ele>3</ele>
        <time>2020-01-14T08:38:22Z</time>
      </trkpt>
      <trkpt lat="43.46046" lon="3.80862">
        <ele>3</ele>
        <time>2020-01-14T08:38:24Z</time>
      </trkpt>
      <trkpt lat="43.46046" lon="3.80859">
        <ele>3</ele>
        <time>2020-01-14T08:38:26Z</time>
      </trkpt>
      <trkpt lat="43.46045" lon="3.80857">
        <ele>3</ele>
        <time>2020-01-14T08:38:27Z</time>
      </trkpt>
      <trkpt lat="43.46045" lon="3.80853">
        <ele>3</ele>
        <time>2020-01-14T08:38:28Z</time>
      </trkpt>
      <trkpt lat="43.46045" lon="3.8085">
        <ele>3</ele>
        <time>2020-01-14T08:38:30Z</time>
      </trkpt>
      <trkpt lat="43.46045" lon="3.80847">
        <ele>3</ele>
        <time>2020-01-14T08:38:32Z</time>
      </trkpt>
      <trkpt lat="43.46044" lon="3.80845">
        <ele>3</ele>
        <time>2020-01-14T08:38:34Z</time>
      </trkpt>
      <trkpt lat="43.46044" lon="3.80842">
        <ele>3</ele>
        <time>2020-01-14T08:38:36Z</time>
      </trkpt>
      <trkpt lat="43.46044" lon="3.80839">
        <ele>3</ele>
        <time>2020-01-14T08:38:37Z</time>
      </trkpt>
      <trkpt lat="43.46044" lon="3.80835">
        <ele>3</ele>
        <time>2020-01-14T08:38:38Z</time>
      </trkpt>
      <trkpt lat="43.46044" lon="3.80833">
        <ele>3</ele>
        <time>2020-01-14T08:38:40Z</time>
      </trkpt>
      <trkpt lat="43.46043" lon="3.8083">
        <ele>3</ele>
        <time>2020-01-14T08:38:42Z</time>
      </trkpt>
      <trkpt lat="43.46043" lon="3.80828">
        <ele>3</ele>
        <time>2020-01-14T08:38:44Z</time>
      </trkpt>
      <trkpt lat="43.46043" lon="3.80825">
        <ele>3</ele>
        <time>2020-01-14T08:38:46Z</time>
      </trkpt>
      <trkpt lat="43.46043" lon="3.80823">
        <ele>3</ele>
        <time>2020-01-14T08:38:47Z</time>
      </trkpt>
      <trkpt lat="43.46043" lon="3.80819">
        <ele>3</ele>
        <time>2020-01-14T08:38:48Z</time>
      </trkpt>
      <trkpt lat="43.46043" lon="3.80817">
        <ele>3</ele>
        <time>2020-01-14T08:38:50Z</time>
      </trkpt>
      <trkpt lat="43.46043" lon="3.80814">
        <ele>3</ele>
        <time>2020-01-14T08:38:52Z</time>
      </trkpt>
      <trkpt lat="43.46043" lon="3.80812">
        <ele>3</ele>
        <time>2020-01-14T08:38:54Z</time>
      </trkpt>
      <trkpt lat="43.46043" lon="3.8081">
        <ele>3</ele>
        <time>2020-01-14T08:38:56Z</time>
      </trkpt>
      <trkpt lat="43.46043" lon="3.80808">
        <ele>3</ele>
        <time>2020-01-14T08:38:57Z</time>
      </trkpt>
      <trkpt lat="43.46043" lon="3.80804">
        <ele>3</ele>
        <time>2020-01-14T08:38:58Z</time>
      </trkpt>
      <trkpt lat="43.46043" lon="3.80801">
        <ele>3</ele>
        <time>2020-01-14T08:39:00Z</time>
      </trkpt>
      <trkpt lat="43.46043" lon="3.80799">
        <ele>3</ele>
        <time>2020-01-14T08:39:02Z</time>
      </trkpt>
      <trkpt lat="43.46043" lon="3.80797">
        <ele>3</ele>
        <time>2020-01-14T08:39:04Z</time>
      </trkpt>
      <trkpt lat="43.46043" lon="3.80794">
        <ele>3</ele>
        <time>2020-01-14T08:39:06Z</time>
      </trkpt>
      <trkpt lat="43.46043" lon="3.80792">
        <ele>3</ele>
        <time>2020-01-14T08:39:07Z</time>
      </trkpt>
      <trkpt lat="43.46043" lon="3.80788">
        <ele>3</ele>
        <time>2020-01-14T08:39:08Z</time>
      </trkpt>
      <trkpt lat="43.46042" lon="3.80786">
        <ele>3</ele>
        <time>2020-01-14T08:39:10Z</time>
      </trkpt>
      <trkpt lat="43.46042" lon="3.80783">
        <ele>3</ele>
        <time>2020-01-14T08:39:12Z</time>
      </trkpt>
      <trkpt lat="43.46042" lon="3.80781">
        <ele>3</ele>
        <time>2020-01-14T08:39:14Z</time>
      </trkpt>
      <trkpt lat="43.46042" lon="3.80778">
        <ele>3</ele>
        <time>2020-01-14T08:39:16Z</time>
      </trkpt>
      <trkpt lat="43.46042" lon="3.80776">
        <ele>3</ele>
        <time>2020-01-14T08:39:17Z</time>
      </trkpt>
      <trkpt lat="43.46041" lon="3.80772">
        <ele>3</ele>
        <time>2020-01-14T08:39:18Z</time>
      </trkpt>
      <trkpt lat="43.46041" lon="3.80769">
        <ele>3</ele>
        <time>2020-01-14T08:39:20Z</time>
      </trkpt>
      <trkpt lat="43.46041" lon="3.80767">
        <ele>3</ele>
        <time>2020-01-14T08:39:22Z</time>
      </trkpt>
      <trkpt lat="43.4604" lon="3.80764">
        <ele>3</ele>
        <time>2020-01-14T08:39:24Z</time>
      </trkpt>
      <trkpt lat="43.4604" lon="3.80762">
        <ele>3</ele>
        <time>2020-01-14T08:39:26Z</time>
      </trkpt>
      <trkpt lat="43.4604" lon="3.8076">
        <ele>3</ele>
        <time>2020-01-14T08:39:27Z</time>
      </trkpt>
      <trkpt lat="43.46039" lon="3.80756">
        <ele>3</ele>
        <time>2020-01-14T08:39:28Z</time>
      </trkpt>
      <trkpt lat="43.46039" lon="3.80753">
        <ele>3</ele>
        <time>2020-01-14T08:39:30Z</time>
      </trkpt>
      <trkpt lat="43.46039" lon="3.8075">
        <ele>3</ele>
        <time>2020-01-14T08:39:32Z</time>
      </trkpt>
      <trkpt lat="43.46039" lon="3.80748">
        <ele>3</ele>
        <time>2020-01-14T08:39:34Z</time>
      </trkpt>
      <trkpt lat="43.46039" lon="3.80745">
        <ele>3</ele>
        <time>2020-01-14T08:39:36Z</time>
      </trkpt>
      <trkpt lat="43.46039" lon="3.80743">
        <ele>3</ele>
        <time>2020-01-14T08:39:37Z</time>
      </trkpt>
      <trkpt lat="43.46039" lon="3.80738">
        <ele>3</ele>
        <time>2020-01-14T08:39:38Z</time>
      </trkpt>
      <trkpt lat="43.46039" lon="3.80736">
        <ele>3</ele>
        <time>2020-01-14T08:39:40Z</time>
      </trkpt>
      <trkpt lat="43.46039" lon="3.80733">
        <ele>3</ele>
        <time>2020-01-14T08:39:42Z</time>
      </trkpt>
      <trkpt lat="43.4604" lon="3.8073">
        <ele>3</ele>
        <time>2020-01-14T08:39:44Z</time>
      </trkpt>
      <trkpt lat="43.4604" lon="3.80728">
        <ele>3</ele>
        <time>2020-01-14T08:39:46Z</time>
      </trkpt>
      <trkpt lat="43.4604" lon="3.80725">
        <ele>3</ele>
        <time>2020-01-14T08:39:47Z</time>
      </trkpt>
      <trkpt lat="43.46041" lon="3.80721">
        <ele>3</ele>
        <time>2020-01-14T08:39:48Z</time>
      </trkpt>
      <trkpt lat="43.46042" lon="3.80719">
        <ele>3</ele>
        <time>2020-01-14T08:39:50Z</time>
      </trkpt>
      <trkpt lat="43.46042" lon="3.80716">
        <ele>3</ele>
        <time>2020-01-14T08:39:52Z</time>
      </trkpt>
      <trkpt lat="43.46043" lon="3.80714">
        <ele>3</ele>
        <time>2020-01-14T08:39:54Z</time>
      </trkpt>
      <trkpt lat="43.46044" lon="3.80711">
        <ele>3</ele>
        <time>2020-01-14T08:39:56Z</time>
      </trkpt>
      <trkpt lat="43.46044" lon="3.80709">
        <ele>3</ele>
        <time>2020-01-14T08:39:57Z</time>
      </trkpt>
      <trkpt lat="43.46046" lon="3.80705">
        <ele>3</ele>
        <time>2020-01-14T08:39:58Z</time>
      </trkpt>
      <trkpt lat="43.46047" lon="3.80703">
        <ele>3</ele>
        <time>2020-01-14T08:40:00Z</time>
      </trkpt>
      <trkpt lat="43.46048" lon="3.80701">
        <ele>3</ele>
        <time>2020-01-14T08:40:02Z</time>
      </trkpt>
      <trkpt lat="43.46049" lon="3.80699">
        <ele>3</ele>
        <time>2020-01-14T08:40:04Z</time>
      </trkpt>
      <trkpt lat="43.4605" lon="3.80697">
        <ele>3</ele>
        <time>2020-01-14T08:40:06Z</time>
      </trkpt>
      <trkpt lat="43.46051" lon="3.80694">
        <ele>3</ele>
        <time>2020-01-14T08:40:07Z</time>
      </trkpt>
      <trkpt lat="43.46052" lon="3.80693">
        <ele>3</ele>
        <time>2020-01-14T08:40:08Z</time>
      </trkpt>
      <trkpt lat="43.46054" lon="3.80691">
        <ele>3</ele>
        <time>2020-01-14T08:40:10Z</time>
      </trkpt>
      <trkpt lat="43.46056" lon="3.8069">
        <ele>3</ele>
        <time>2020-01-14T08:40:12Z</time>
      </trkpt>
      <trkpt lat="43.46058" lon="3.80688">
        <ele>3</ele>
        <time>2020-01-14T08:40:15Z</time>
      </trkpt>
      <trkpt lat="43.4606" lon="3.80687">
        <ele>3</ele>
        <time>2020-01-14T08:40:17Z</time>
      </trkpt>
      <trkpt lat="43.46062" lon="3.80685">
        <ele>3</ele>
        <time>2020-01-14T08:40:19Z</time>
      </trkpt>
      <trkpt lat="43.46064" lon="3.80683">
        <ele>3</ele>
        <time>2020-01-14T08:40:21Z</time>
      </trkpt>
      <trkpt lat="43.46065" lon="3.80681">
        <ele>3</ele>
        <time>2020-01-14T08:40:23Z</time>
      </trkpt>
      <trkpt lat="43.46067" lon="3.80679">
        <ele>3</ele>
        <time>2020-01-14T08:40:25Z</time>
      </trkpt>
      <trkpt lat="43.46068" lon="3.80678">
        <ele>3</ele>
        <time>2020-01-14T08:40:27Z</time>
      </trkpt>
      <trkpt lat="43.4607" lon="3.80673">
        <ele>3</ele>
        <time>2020-01-14T08:40:29Z</time>
      </trkpt>
      <trkpt lat="43.4607" lon="3.80671">
        <ele>3</ele>
        <time>2020-01-14T08:40:31Z</time>
      </trkpt>
      <trkpt lat="43.4607" lon="3.80669">
        <ele>3</ele>
        <time>2020-01-14T08:40:33Z</time>
      </trkpt>
      <trkpt lat="43.46071" lon="3.80667">
        <ele>3</ele>
        <time>2020-01-14T08:40:36Z</time>
      </trkpt>
      <trkpt lat="43.46071" lon="3.80665">
        <ele>3</ele>
        <time>2020-01-14T08:40:37Z</time>
      </trkpt>
      <trkpt lat="43.46071" lon="3.80661">
        <ele>3</ele>
        <time>2020-01-14T08:40:38Z</time>
      </trkpt>
      <trkpt lat="43.46071" lon="3.80659">
        <ele>3</ele>
        <time>2020-01-14T08:40:40Z</time>
      </trkpt>
      <trkpt lat="43.46072" lon="3.80656">
        <ele>3</ele>
        <time>2020-01-14T08:40:42Z</time>
      </trkpt>
      <trkpt lat="43.46072" lon="3.80654">
        <ele>3</ele>
        <time>2020-01-14T08:40:44Z</time>
      </trkpt>
      <trkpt lat="43.46072" lon="3.80652">
        <ele>3</ele>
        <time>2020-01-14T08:40:46Z</time>
      </trkpt>
      <trkpt lat="43.46072" lon="3.8065">
        <ele>3</ele>
        <time>2020-01-14T08:40:47Z</time>
      </trkpt>
      <trkpt lat="43.46072" lon="3.80648">
        <ele>3</ele>
        <time>2020-01-14T08:40:48Z</time>
      </trkpt>
      <trkpt lat="43.46072" lon="3.80645">
        <ele>3</ele>
        <time>2020-01-14T08:40:50Z</time>
      </trkpt>
      <trkpt lat="43.46072" lon="3.80642">
        <ele>3</ele>
        <time>2020-01-14T08:40:52Z</time>
      </trkpt>
      <trkpt lat="43.46072" lon="3.80639">
        <ele>3</ele>
        <time>2020-01-14T08:40:54Z</time>
      </trkpt>
      <trkpt lat="43.46071" lon="3.80635">
        <ele>3</ele>
        <time>2020-01-14T08:40:57Z</time>
      </trkpt>
      <trkpt lat="43.46071" lon="3.80633">
        <ele>3</ele>
        <time>2020-01-14T08:40:59Z</time>
      </trkpt>
      <trkpt lat="43.4607" lon="3.80629">
        <ele>3</ele>
        <time>2020-01-14T08:41:01Z</time>
      </trkpt>
      <trkpt lat="43.4607" lon="3.80626">
        <ele>3</ele>
        <time>2020-01-14T08:41:03Z</time>
      </trkpt>
      <trkpt lat="43.46069" lon="3.80623">
        <ele>3</ele>
        <time>2020-01-14T08:41:05Z</time>
      </trkpt>
      <trkpt lat="43.46069" lon="3.8062">
        <ele>3</ele>
        <time>2020-01-14T08:41:07Z</time>
      </trkpt>
      <trkpt lat="43.4607" lon="3.80618">
        <ele>3</ele>
        <time>2020-01-14T08:41:09Z</time>
      </trkpt>
      <trkpt lat="43.4607" lon="3.80615">
        <ele>3</ele>
        <time>2020-01-14T08:41:11Z</time>
      </trkpt>
      <trkpt lat="43.4607" lon="3.80611">
        <ele>3</ele>
        <time>2020-01-14T08:41:14Z</time>
      </trkpt>
      <trkpt lat="43.4607" lon="3.80608">
        <ele>3</ele>
        <time>2020-01-14T08:41:17Z</time>
      </trkpt>
      <trkpt lat="43.4607" lon="3.80605">
        <ele>3</ele>
        <time>2020-01-14T08:41:20Z</time>
      </trkpt>
      <trkpt lat="43.4607" lon="3.80602">
        <ele>3</ele>
        <time>2020-01-14T08:41:22Z</time>
      </trkpt>
      <trkpt lat="43.4607" lon="3.806">
        <ele>3</ele>
        <time>2020-01-14T08:41:24Z</time>
      </trkpt>
      <trkpt lat="43.46073" lon="3.80598">
        <ele>3</ele>
        <time>2020-01-14T08:41:27Z</time>
      </trkpt>
      <trkpt lat="43.46076" lon="3.80594">
        <ele>3</ele>
        <time>2020-01-14T08:41:30Z</time>
      </trkpt>
      <trkpt lat="43.46076" lon="3.80592">
        <ele>3</ele>
        <time>2020-01-14T08:41:32Z</time>
      </trkpt>
      <trkpt lat="43.46077" lon="3.8059">
        <ele>3</ele>
        <time>2020-01-14T08:41:34Z</time>
      </trkpt>
      <trkpt lat="43.46078" lon="3.80589">
        <ele>3</ele>
        <time>2020-01-14T08:41:36Z</time>
      </trkpt>
      <trkpt lat="43.46078" lon="3.80587">
        <ele>3</ele>
        <time>2020-01-14T08:41:37Z</time>
      </trkpt>
      <trkpt lat="43.46078" lon="3.80583">
        <ele>3</ele>
        <time>2020-01-14T08:41:38Z</time>
      </trkpt>
      <trkpt lat="43.46078" lon="3.8058">
        <ele>3</ele>
        <time>2020-01-14T08:41:40Z</time>
      </trkpt>
      <trkpt lat="43.46078" lon="3.80578">
        <ele>3</ele>
        <time>2020-01-14T08:41:42Z</time>
      </trkpt>
      <trkpt lat="43.46078" lon="3.80575">
        <ele>3</ele>
        <time>2020-01-14T08:41:44Z</time>
      </trkpt>
      <trkpt lat="43.46078" lon="3.80573">
        <ele>3</ele>
        <time>2020-01-14T08:41:46Z</time>
      </trkpt>
      <trkpt lat="43.46078" lon="3.8057">
        <ele>3</ele>
        <time>2020-01-14T08:41:47Z</time>
      </trkpt>
      <trkpt lat="43.46078" lon="3.80566">
        <ele>3</ele>
        <time>2020-01-14T08:41:48Z</time>
      </trkpt>
      <trkpt lat="43.46078" lon="3.80564">
        <ele>3</ele>
        <time>2020-01-14T08:41:50Z</time>
      </trkpt>
      <trkpt lat="43.46078" lon="3.80561">
        <ele>3</ele>
        <time>2020-01-14T08:41:52Z</time>
      </trkpt>
      <trkpt lat="43.46078" lon="3.80559">
        <ele>3</ele>
        <time>2020-01-14T08:41:54Z</time>
      </trkpt>
      <trkpt lat="43.46078" lon="3.80556">
        <ele>3</ele>
        <time>2020-01-14T08:41:56Z</time>
      </trkpt>
      <trkpt lat="43.46078" lon="3.80554">
        <ele>3</ele>
        <time>2020-01-14T08:41:57Z</time>
      </trkpt>
      <trkpt lat="43.46077" lon="3.8055">
        <ele>3</ele>
        <time>2020-01-14T08:41:58Z</time>
      </trkpt>
      <trkpt lat="43.46077" lon="3.80547">
        <ele>3</ele>
        <time>2020-01-14T08:42:00Z</time>
      </trkpt>
      <trkpt lat="43.46076" lon="3.80545">
        <ele>3</ele>
        <time>2020-01-14T08:42:02Z</time>
      </trkpt>
      <trkpt lat="43.46076" lon="3.80542">
        <ele>3</ele>
        <time>2020-01-14T08:42:04Z</time>
      </trkpt>
      <trkpt lat="43.46076" lon="3.80539">
        <ele>3</ele>
        <time>2020-01-14T08:42:06Z</time>
      </trkpt>
      <trkpt lat="43.46076" lon="3.80537">
        <ele>3</ele>
        <time>2020-01-14T08:42:07Z</time>
      </trkpt>
      <trkpt lat="43.46075" lon="3.80533">
        <ele>3</ele>
        <time>2020-01-14T08:42:08Z</time>
      </trkpt>
      <trkpt lat="43.46074" lon="3.8053">
        <ele>3</ele>
        <time>2020-01-14T08:42:10Z</time>
      </trkpt>
      <trkpt lat="43.46074" lon="3.80528">
        <ele>3</ele>
        <time>2020-01-14T08:42:12Z</time>
      </trkpt>
      <trkpt lat="43.46073" lon="3.80526">
        <ele>3</ele>
        <time>2020-01-14T08:42:14Z</time>
      </trkpt>
      <trkpt lat="43.46073" lon="3.80523">
        <ele>3</ele>
        <time>2020-01-14T08:42:16Z</time>
      </trkpt>
      <trkpt lat="43.46072" lon="3.80521">
        <ele>3</ele>
        <time>2020-01-14T08:42:17Z</time>
      </trkpt>
      <trkpt lat="43.46072" lon="3.80517">
        <ele>3</ele>
        <time>2020-01-14T08:42:18Z</time>
      </trkpt>
      <trkpt lat="43.46071" lon="3.80514">
        <ele>3</ele>
        <time>2020-01-14T08:42:20Z</time>
      </trkpt>
      <trkpt lat="43.46071" lon="3.80512">
        <ele>3</ele>
        <time>2020-01-14T08:42:22Z</time>
      </trkpt>
      <trkpt lat="43.46071" lon="3.80509">
        <ele>3</ele>
        <time>2020-01-14T08:42:24Z</time>
      </trkpt>
      <trkpt lat="43.46071" lon="3.80507">
        <ele>3</ele>
        <time>2020-01-14T08:42:26Z</time>
      </trkpt>
      <trkpt lat="43.46071" lon="3.80504">
        <ele>3</ele>
        <time>2020-01-14T08:42:27Z</time>
      </trkpt>
      <trkpt lat="43.46071" lon="3.80503">
        <ele>3</ele>
        <time>2020-01-14T08:42:28Z</time>
      </trkpt>
      <trkpt lat="43.46072" lon="3.80499">
        <ele>3</ele>
        <time>2020-01-14T08:42:30Z</time>
      </trkpt>
      <trkpt lat="43.46072" lon="3.80497">
        <ele>3</ele>
        <time>2020-01-14T08:42:32Z</time>
      </trkpt>
      <trkpt lat="43.46072" lon="3.80492">
        <ele>3</ele>
        <time>2020-01-14T08:42:35Z</time>
      </trkpt>
      <trkpt lat="43.46072" lon="3.80489">
        <ele>3</ele>
        <time>2020-01-14T08:42:37Z</time>
      </trkpt>
      <trkpt lat="43.46072" lon="3.80486">
        <ele>3</ele>
        <time>2020-01-14T08:42:39Z</time>
      </trkpt>
      <trkpt lat="43.46072" lon="3.80483">
        <ele>3</ele>
        <time>2020-01-14T08:42:41Z</time>
      </trkpt>
      <trkpt lat="43.46073" lon="3.8048">
        <ele>3</ele>
        <time>2020-01-14T08:42:43Z</time>
      </trkpt>
      <trkpt lat="43.46072" lon="3.80476">
        <ele>3</ele>
        <time>2020-01-14T08:42:45Z</time>
      </trkpt>
      <trkpt lat="43.46072" lon="3.80473">
        <ele>3</ele>
        <time>2020-01-14T08:42:47Z</time>
      </trkpt>
      <trkpt lat="43.46071" lon="3.80471">
        <ele>3</ele>
        <time>2020-01-14T08:42:49Z</time>
      </trkpt>
      <trkpt lat="43.4607" lon="3.80468">
        <ele>3</ele>
        <time>2020-01-14T08:42:51Z</time>
      </trkpt>
      <trkpt lat="43.4607" lon="3.80465">
        <ele>3</ele>
        <time>2020-01-14T08:42:53Z</time>
      </trkpt>
      <trkpt lat="43.4607" lon="3.80462">
        <ele>3</ele>
        <time>2020-01-14T08:42:55Z</time>
      </trkpt>
      <trkpt lat="43.4607" lon="3.80462">
        <ele>3</ele>
        <time>2020-01-14T08:42:57Z</time>
      </trkpt>
      <trkpt lat="43.4607" lon="3.80458">
        <ele>3</ele>
        <time>2020-01-14T08:42:58Z</time>
      </trkpt>
      <trkpt lat="43.4607" lon="3.80454">
        <ele>3</ele>
        <time>2020-01-14T08:43:01Z</time>
      </trkpt>
      <trkpt lat="43.4607" lon="3.80451">
        <ele>3</ele>
        <time>2020-01-14T08:43:03Z</time>
      </trkpt>
      <trkpt lat="43.4607" lon="3.80448">
        <ele>3</ele>
        <time>2020-01-14T08:43:05Z</time>
      </trkpt>
      <trkpt lat="43.46071" lon="3.80446">
        <ele>3</ele>
        <time>2020-01-14T08:43:07Z</time>
      </trkpt>
      <trkpt lat="43.4607" lon="3.80441">
        <ele>3</ele>
        <time>2020-01-14T08:43:09Z</time>
      </trkpt>
      <trkpt lat="43.4607" lon="3.80438">
        <ele>3</ele>
        <time>2020-01-14T08:43:11Z</time>
      </trkpt>
      <trkpt lat="43.4607" lon="3.80436">
        <ele>3</ele>
        <time>2020-01-14T08:43:14Z</time>
      </trkpt>
      <trkpt lat="43.4607" lon="3.80434">
        <ele>3</ele>
        <time>2020-01-14T08:43:16Z</time>
      </trkpt>
      <trkpt lat="43.46069" lon="3.80432">
        <ele>3</ele>
        <time>2020-01-14T08:43:17Z</time>
      </trkpt>
      <trkpt lat="43.4607" lon="3.80428">
        <ele>3</ele>
        <time>2020-01-14T08:43:18Z</time>
      </trkpt>
      <trkpt lat="43.4607" lon="3.80427">
        <ele>3</ele>
        <time>2020-01-14T08:43:20Z</time>
      </trkpt>
      <trkpt lat="43.46071" lon="3.80425">
        <ele>3</ele>
        <time>2020-01-14T08:43:22Z</time>
      </trkpt>
      <trkpt lat="43.46071" lon="3.80423">
        <ele>3</ele>
        <time>2020-01-14T08:43:24Z</time>
      </trkpt>
      <trkpt lat="43.46071" lon="3.80421">
        <ele>3</ele>
        <time>2020-01-14T08:43:26Z</time>
      </trkpt>
      <trkpt lat="43.46072" lon="3.8042">
        <ele>3</ele>
        <time>2020-01-14T08:43:27Z</time>
      </trkpt>
      <trkpt lat="43.46072" lon="3.80414">
        <ele>3</ele>
        <time>2020-01-14T08:43:28Z</time>
      </trkpt>
      <trkpt lat="43.46072" lon="3.80412">
        <ele>3</ele>
        <time>2020-01-14T08:43:30Z</time>
      </trkpt>
      <trkpt lat="43.46072" lon="3.8041">
        <ele>3</ele>
        <time>2020-01-14T08:43:32Z</time>
      </trkpt>
      <trkpt lat="43.46072" lon="3.80408">
        <ele>3</ele>
        <time>2020-01-14T08:43:34Z</time>
      </trkpt>
      <trkpt lat="43.46072" lon="3.80406">
        <ele>3</ele>
        <time>2020-01-14T08:43:36Z</time>
      </trkpt>
      <trkpt lat="43.46072" lon="3.80404">
        <ele>3</ele>
        <time>2020-01-14T08:43:37Z</time>
      </trkpt>
      <trkpt lat="43.46072" lon="3.804">
        <ele>3</ele>
        <time>2020-01-14T08:43:38Z</time>
      </trkpt>
      <trkpt lat="43.46072" lon="3.80397">
        <ele>3</ele>
        <time>2020-01-14T08:43:40Z</time>
      </trkpt>
      <trkpt lat="43.46072" lon="3.80395">
        <ele>3</ele>
        <time>2020-01-14T08:43:42Z</time>
      </trkpt>
      <trkpt lat="43.46072" lon="3.80392">
        <ele>3</ele>
        <time>2020-01-14T08:43:44Z</time>
      </trkpt>
      <trkpt lat="43.46072" lon="3.8039">
        <ele>3</ele>
        <time>2020-01-14T08:43:46Z</time>
      </trkpt>
      <trkpt lat="43.46072" lon="3.80388">
        <ele>3</ele>
        <time>2020-01-14T08:43:47Z</time>
      </trkpt>
      <trkpt lat="43.46072" lon="3.80383">
        <ele>3</ele>
        <time>2020-01-14T08:43:48Z</time>
      </trkpt>
      <trkpt lat="43.46071" lon="3.80381">
        <ele>3</ele>
        <time>2020-01-14T08:43:50Z</time>
      </trkpt>
      <trkpt lat="43.46071" lon="3.80379">
        <ele>3</ele>
        <time>2020-01-14T08:43:52Z</time>
      </trkpt>
      <trkpt lat="43.46071" lon="3.80376">
        <ele>3</ele>
        <time>2020-01-14T08:43:54Z</time>
      </trkpt>
      <trkpt lat="43.4607" lon="3.80374">
        <ele>3</ele>
        <time>2020-01-14T08:43:56Z</time>
      </trkpt>
      <trkpt lat="43.4607" lon="3.80372">
        <ele>3</ele>
        <time>2020-01-14T08:43:57Z</time>
      </trkpt>
      <trkpt lat="43.46068" lon="3.80368">
        <ele>3</ele>
        <time>2020-01-14T08:43:58Z</time>
      </trkpt>
      <trkpt lat="43.46067" lon="3.80366">
        <ele>3</ele>
        <time>2020-01-14T08:44:00Z</time>
      </trkpt>
      <trkpt lat="43.46066" lon="3.80364">
        <ele>3</ele>
        <time>2020-01-14T08:44:02Z</time>
      </trkpt>
      <trkpt lat="43.46065" lon="3.80362">
        <ele>3</ele>
        <time>2020-01-14T08:44:04Z</time>
      </trkpt>
      <trkpt lat="43.46064" lon="3.8036">
        <ele>3</ele>
        <time>2020-01-14T08:44:06Z</time>
      </trkpt>
      <trkpt lat="43.46063" lon="3.80357">
        <ele>3</ele>
        <time>2020-01-14T08:44:07Z</time>
      </trkpt>
      <trkpt lat="43.46063" lon="3.80356">
        <ele>3</ele>
        <time>2020-01-14T08:44:08Z</time>
      </trkpt>
      <trkpt lat="43.46062" lon="3.80353">
        <ele>3</ele>
        <time>2020-01-14T08:44:10Z</time>
      </trkpt>
      <trkpt lat="43.46061" lon="3.8035">
        <ele>3</ele>
        <time>2020-01-14T08:44:12Z</time>
      </trkpt>
      <trkpt lat="43.46061" lon="3.80347">
        <ele>3</ele>
        <time>2020-01-14T08:44:14Z</time>
      </trkpt>
      <trkpt lat="43.4606" lon="3.80344">
        <ele>3</ele>
        <time>2020-01-14T08:44:17Z</time>
      </trkpt>
      <trkpt lat="43.46059" lon="3.80341">
        <ele>3</ele>
        <time>2020-01-14T08:44:19Z</time>
      </trkpt>
      <trkpt lat="43.46058" lon="3.80339">
        <ele>3</ele>
        <time>2020-01-14T08:44:21Z</time>
      </trkpt>
      <trkpt lat="43.46057" lon="3.80336">
        <ele>3</ele>
        <time>2020-01-14T08:44:23Z</time>
      </trkpt>
      <trkpt lat="43.46056" lon="3.80334">
        <ele>3</ele>
        <time>2020-01-14T08:44:25Z</time>
      </trkpt>
      <trkpt lat="43.46054" lon="3.80332">
        <ele>3</ele>
        <time>2020-01-14T08:44:27Z</time>
      </trkpt>
      <trkpt lat="43.46053" lon="3.80329">
        <ele>3</ele>
        <time>2020-01-14T08:44:29Z</time>
      </trkpt>
      <trkpt lat="43.46052" lon="3.80326">
        <ele>3</ele>
        <time>2020-01-14T08:44:31Z</time>
      </trkpt>
      <trkpt lat="43.46051" lon="3.80324">
        <ele>3</ele>
        <time>2020-01-14T08:44:33Z</time>
      </trkpt>
      <trkpt lat="43.46049" lon="3.80321">
        <ele>3</ele>
        <time>2020-01-14T08:44:35Z</time>
      </trkpt>
      <trkpt lat="43.46048" lon="3.80319">
        <ele>3</ele>
        <time>2020-01-14T08:44:37Z</time>
      </trkpt>
      <trkpt lat="43.46046" lon="3.80317">
        <ele>3</ele>
        <time>2020-01-14T08:44:39Z</time>
      </trkpt>
      <trkpt lat="43.46045" lon="3.80314">
        <ele>3</ele>
        <time>2020-01-14T08:44:41Z</time>
      </trkpt>
      <trkpt lat="43.46044" lon="3.80312">
        <ele>3</ele>
        <time>2020-01-14T08:44:43Z</time>
      </trkpt>
      <trkpt lat="43.46042" lon="3.80309">
        <ele>3</ele>
        <time>2020-01-14T08:44:45Z</time>
      </trkpt>
      <trkpt lat="43.46041" lon="3.80307">
        <ele>2</ele>
        <time>2020-01-14T08:44:47Z</time>
      </trkpt>
      <trkpt lat="43.46039" lon="3.80304">
        <ele>2</ele>
        <time>2020-01-14T08:44:49Z</time>
      </trkpt>
      <trkpt lat="43.46038" lon="3.80302">
        <ele>2</ele>
        <time>2020-01-14T08:44:51Z</time>
      </trkpt>
      <trkpt lat="43.46037" lon="3.803">
        <ele>2</ele>
        <time>2020-01-14T08:44:53Z</time>
      </trkpt>
      <trkpt lat="43.46035" lon="3.80297">
        <ele>2</ele>
        <time>2020-01-14T08:44:55Z</time>
      </trkpt>
      <trkpt lat="43.46034" lon="3.80295">
        <ele>2</ele>
        <time>2020-01-14T08:44:57Z</time>
      </trkpt>
      <trkpt lat="43.46032" lon="3.80293">
        <ele>2</ele>
        <time>2020-01-14T08:44:59Z</time>
      </trkpt>
      <trkpt lat="43.4603" lon="3.80292">
        <ele>2</ele>
        <time>2020-01-14T08:45:01Z</time>
      </trkpt>
      <trkpt lat="43.46029" lon="3.8029">
        <ele>2</ele>
        <time>2020-01-14T08:45:03Z</time>
      </trkpt>
      <trkpt lat="43.46027" lon="3.80286">
        <ele>2</ele>
        <time>2020-01-14T08:45:05Z</time>
      </trkpt>
      <trkpt lat="43.46026" lon="3.80283">
        <ele>2</ele>
        <time>2020-01-14T08:45:07Z</time>
      </trkpt>
      <trkpt lat="43.46024" lon="3.80281">
        <ele>2</ele>
        <time>2020-01-14T08:45:09Z</time>
      </trkpt>
      <trkpt lat="43.46023" lon="3.80279">
        <ele>2</ele>
        <time>2020-01-14T08:45:11Z</time>
      </trkpt>
      <trkpt lat="43.46022" lon="3.80276">
        <ele>2</ele>
        <time>2020-01-14T08:45:14Z</time>
      </trkpt>
      <trkpt lat="43.46021" lon="3.80273">
        <ele>2</ele>
        <time>2020-01-14T08:45:17Z</time>
      </trkpt>
      <trkpt lat="43.46019" lon="3.8027">
        <ele>2</ele>
        <time>2020-01-14T08:45:20Z</time>
      </trkpt>
      <trkpt lat="43.46018" lon="3.80269">
        <ele>2</ele>
        <time>2020-01-14T08:45:22Z</time>
      </trkpt>
      <trkpt lat="43.46018" lon="3.80268">
        <ele>2</ele>
        <time>2020-01-14T08:45:24Z</time>
      </trkpt>
      <trkpt lat="43.46017" lon="3.80266">
        <ele>2</ele>
        <time>2020-01-14T08:45:26Z</time>
      </trkpt>
      <trkpt lat="43.46016" lon="3.80265">
        <ele>2</ele>
        <time>2020-01-14T08:45:27Z</time>
      </trkpt>
      <trkpt lat="43.46016" lon="3.80261">
        <ele>2</ele>
        <time>2020-01-14T08:45:29Z</time>
      </trkpt>
      <trkpt lat="43.46016" lon="3.80258">
        <ele>2</ele>
        <time>2020-01-14T08:45:31Z</time>
      </trkpt>
      <trkpt lat="43.46017" lon="3.80255">
        <ele>2</ele>
        <time>2020-01-14T08:45:33Z</time>
      </trkpt>
      <trkpt lat="43.46017" lon="3.80253">
        <ele>2</ele>
        <time>2020-01-14T08:45:35Z</time>
      </trkpt>
      <trkpt lat="43.46017" lon="3.80249">
        <ele>2</ele>
        <time>2020-01-14T08:45:37Z</time>
      </trkpt>
      <trkpt lat="43.46018" lon="3.80246">
        <ele>2</ele>
        <time>2020-01-14T08:45:39Z</time>
      </trkpt>
      <trkpt lat="43.46018" lon="3.80243">
        <ele>2</ele>
        <time>2020-01-14T08:45:42Z</time>
      </trkpt>
      <trkpt lat="43.46017" lon="3.8024">
        <ele>2</ele>
        <time>2020-01-14T08:45:45Z</time>
      </trkpt>
      <trkpt lat="43.46017" lon="3.80237">
        <ele>2</ele>
        <time>2020-01-14T08:45:47Z</time>
      </trkpt>
      <trkpt lat="43.46016" lon="3.80233">
        <ele>2</ele>
        <time>2020-01-14T08:45:49Z</time>
      </trkpt>
      <trkpt lat="43.46015" lon="3.80229">
        <ele>2</ele>
        <time>2020-01-14T08:45:51Z</time>
      </trkpt>
      <trkpt lat="43.46014" lon="3.80226">
        <ele>2</ele>
        <time>2020-01-14T08:45:53Z</time>
      </trkpt>
      <trkpt lat="43.46013" lon="3.80224">
        <ele>2</ele>
        <time>2020-01-14T08:45:55Z</time>
      </trkpt>
      <trkpt lat="43.46012" lon="3.80221">
        <ele>2</ele>
        <time>2020-01-14T08:45:57Z</time>
      </trkpt>
      <trkpt lat="43.4601" lon="3.80218">
        <ele>2</ele>
        <time>2020-01-14T08:45:59Z</time>
      </trkpt>
      <trkpt lat="43.46008" lon="3.80215">
        <ele>2</ele>
        <time>2020-01-14T08:46:01Z</time>
      </trkpt>
      <trkpt lat="43.46007" lon="3.80212">
        <ele>2</ele>
        <time>2020-01-14T08:46:03Z</time>
      </trkpt>
      <trkpt lat="43.46004" lon="3.8021">
        <ele>2</ele>
        <time>2020-01-14T08:46:05Z</time>
      </trkpt>
      <trkpt lat="43.46002" lon="3.80208">
        <ele>2</ele>
        <time>2020-01-14T08:46:07Z</time>
      </trkpt>
      <trkpt lat="43.46" lon="3.80205">
        <ele>2</ele>
        <time>2020-01-14T08:46:09Z</time>
      </trkpt>
      <trkpt lat="43.45999" lon="3.80203">
        <ele>2</ele>
        <time>2020-01-14T08:46:11Z</time>
      </trkpt>
      <trkpt lat="43.45997" lon="3.80201">
        <ele>2</ele>
        <time>2020-01-14T08:46:13Z</time>
      </trkpt>
      <trkpt lat="43.45995" lon="3.802">
        <ele>2</ele>
        <time>2020-01-14T08:46:15Z</time>
      </trkpt>
      <trkpt lat="43.45992" lon="3.80198">
        <ele>2</ele>
        <time>2020-01-14T08:46:17Z</time>
      </trkpt>
      <trkpt lat="43.4599" lon="3.80196">
        <ele>2</ele>
        <time>2020-01-14T08:46:19Z</time>
      </trkpt>
      <trkpt lat="43.45988" lon="3.80194">
        <ele>2</ele>
        <time>2020-01-14T08:46:21Z</time>
      </trkpt>
      <trkpt lat="43.45986" lon="3.80193">
        <ele>2</ele>
        <time>2020-01-14T08:46:23Z</time>
      </trkpt>
      <trkpt lat="43.45985" lon="3.80192">
        <ele>2</ele>
        <time>2020-01-14T08:46:25Z</time>
      </trkpt>
      <trkpt lat="43.45982" lon="3.8019">
        <ele>2</ele>
        <time>2020-01-14T08:46:27Z</time>
      </trkpt>
      <trkpt lat="43.4598" lon="3.80189">
        <ele>2</ele>
        <time>2020-01-14T08:46:29Z</time>
      </trkpt>
      <trkpt lat="43.45978" lon="3.80188">
        <ele>2</ele>
        <time>2020-01-14T08:46:33Z</time>
      </trkpt>
      <trkpt lat="43.45975" lon="3.80186">
        <ele>2</ele>
        <time>2020-01-14T08:46:35Z</time>
      </trkpt>
      <trkpt lat="43.45973" lon="3.80186">
        <ele>2</ele>
        <time>2020-01-14T08:46:37Z</time>
      </trkpt>
      <trkpt lat="43.4597" lon="3.80185">
        <ele>2</ele>
        <time>2020-01-14T08:46:39Z</time>
      </trkpt>
      <trkpt lat="43.45968" lon="3.80184">
        <ele>2</ele>
        <time>2020-01-14T08:46:41Z</time>
      </trkpt>
      <trkpt lat="43.45966" lon="3.80183">
        <ele>2</ele>
        <time>2020-01-14T08:46:43Z</time>
      </trkpt>
      <trkpt lat="43.45963" lon="3.80182">
        <ele>2</ele>
        <time>2020-01-14T08:46:45Z</time>
      </trkpt>
      <trkpt lat="43.45962" lon="3.8018">
        <ele>2</ele>
        <time>2020-01-14T08:46:47Z</time>
      </trkpt>
      <trkpt lat="43.45961" lon="3.80177">
        <ele>2</ele>
        <time>2020-01-14T08:46:49Z</time>
      </trkpt>
      <trkpt lat="43.4596" lon="3.80173">
        <ele>2</ele>
        <time>2020-01-14T08:46:51Z</time>
      </trkpt>
      <trkpt lat="43.45959" lon="3.80169">
        <ele>2</ele>
        <time>2020-01-14T08:46:53Z</time>
      </trkpt>
      <trkpt lat="43.45958" lon="3.80166">
        <ele>2</ele>
        <time>2020-01-14T08:46:55Z</time>
      </trkpt>
      <trkpt lat="43.45957" lon="3.80162">
        <ele>2</ele>
        <time>2020-01-14T08:46:57Z</time>
      </trkpt>
      <trkpt lat="43.45956" lon="3.80159">
        <ele>2</ele>
        <time>2020-01-14T08:46:59Z</time>
      </trkpt>
      <trkpt lat="43.45955" lon="3.80157">
        <ele>2</ele>
        <time>2020-01-14T08:47:01Z</time>
      </trkpt>
      <trkpt lat="43.45954" lon="3.80154">
        <ele>2</ele>
        <time>2020-01-14T08:47:03Z</time>
      </trkpt>
      <trkpt lat="43.45953" lon="3.80151">
        <ele>2</ele>
        <time>2020-01-14T08:47:05Z</time>
      </trkpt>
      <trkpt lat="43.45952" lon="3.80148">
        <ele>2</ele>
        <time>2020-01-14T08:47:07Z</time>
      </trkpt>
      <trkpt lat="43.45949" lon="3.80145">
        <ele>2</ele>
        <time>2020-01-14T08:47:09Z</time>
      </trkpt>
      <trkpt lat="43.45948" lon="3.80143">
        <ele>2</ele>
        <time>2020-01-14T08:47:11Z</time>
      </trkpt>
      <trkpt lat="43.45947" lon="3.80142">
        <ele>2</ele>
        <time>2020-01-14T08:47:13Z</time>
      </trkpt>
      <trkpt lat="43.45946" lon="3.8014">
        <ele>2</ele>
        <time>2020-01-14T08:47:16Z</time>
      </trkpt>
      <trkpt lat="43.45944" lon="3.80139">
        <ele>2</ele>
        <time>2020-01-14T08:47:17Z</time>
      </trkpt>
      <trkpt lat="43.45942" lon="3.80137">
        <ele>2</ele>
        <time>2020-01-14T08:47:18Z</time>
      </trkpt>
      <trkpt lat="43.45941" lon="3.80135">
        <ele>2</ele>
        <time>2020-01-14T08:47:20Z</time>
      </trkpt>
      <trkpt lat="43.4594" lon="3.80134">
        <ele>2</ele>
        <time>2020-01-14T08:47:22Z</time>
      </trkpt>
      <trkpt lat="43.45939" lon="3.80132">
        <ele>2</ele>
        <time>2020-01-14T08:47:24Z</time>
      </trkpt>
      <trkpt lat="43.45938" lon="3.80131">
        <ele>2</ele>
        <time>2020-01-14T08:47:26Z</time>
      </trkpt>
      <trkpt lat="43.45937" lon="3.8013">
        <ele>2</ele>
        <time>2020-01-14T08:47:27Z</time>
      </trkpt>
      <trkpt lat="43.45934" lon="3.80127">
        <ele>2</ele>
        <time>2020-01-14T08:47:28Z</time>
      </trkpt>
      <trkpt lat="43.45933" lon="3.80124">
        <ele>2</ele>
        <time>2020-01-14T08:47:30Z</time>
      </trkpt>
      <trkpt lat="43.45932" lon="3.80122">
        <ele>2</ele>
        <time>2020-01-14T08:47:32Z</time>
      </trkpt>
      <trkpt lat="43.45931" lon="3.8012">
        <ele>2</ele>
        <time>2020-01-14T08:47:34Z</time>
      </trkpt>
      <trkpt lat="43.4593" lon="3.80117">
        <ele>2</ele>
        <time>2020-01-14T08:47:36Z</time>
      </trkpt>
      <trkpt lat="43.45929" lon="3.80115">
        <ele>2</ele>
        <time>2020-01-14T08:47:37Z</time>
      </trkpt>
      <trkpt lat="43.45928" lon="3.80111">
        <ele>2</ele>
        <time>2020-01-14T08:47:38Z</time>
      </trkpt>
      <trkpt lat="43.45928" lon="3.80109">
        <ele>2</ele>
        <time>2020-01-14T08:47:40Z</time>
      </trkpt>
      <trkpt lat="43.45928" lon="3.80107">
        <ele>2</ele>
        <time>2020-01-14T08:47:42Z</time>
      </trkpt>
      <trkpt lat="43.45927" lon="3.80105">
        <ele>2</ele>
        <time>2020-01-14T08:47:44Z</time>
      </trkpt>
      <trkpt lat="43.45927" lon="3.80102">
        <ele>2</ele>
        <time>2020-01-14T08:47:46Z</time>
      </trkpt>
      <trkpt lat="43.45926" lon="3.801">
        <ele>2</ele>
        <time>2020-01-14T08:47:47Z</time>
      </trkpt>
      <trkpt lat="43.45925" lon="3.80096">
        <ele>2</ele>
        <time>2020-01-14T08:47:48Z</time>
      </trkpt>
      <trkpt lat="43.45925" lon="3.80094">
        <ele>2</ele>
        <time>2020-01-14T08:47:50Z</time>
      </trkpt>
      <trkpt lat="43.45925" lon="3.80091">
        <ele>2</ele>
        <time>2020-01-14T08:47:52Z</time>
      </trkpt>
      <trkpt lat="43.45924" lon="3.80089">
        <ele>2</ele>
        <time>2020-01-14T08:47:54Z</time>
      </trkpt>
      <trkpt lat="43.45924" lon="3.80087">
        <ele>2</ele>
        <time>2020-01-14T08:47:56Z</time>
      </trkpt>
      <trkpt lat="43.45924" lon="3.80084">
        <ele>2</ele>
        <time>2020-01-14T08:47:57Z</time>
      </trkpt>
      <trkpt lat="43.45924" lon="3.80083">
        <ele>2</ele>
        <time>2020-01-14T08:47:58Z</time>
      </trkpt>
      <trkpt lat="43.45923" lon="3.80079">
        <ele>2</ele>
        <time>2020-01-14T08:48:00Z</time>
      </trkpt>
      <trkpt lat="43.45924" lon="3.80076">
        <ele>2</ele>
        <time>2020-01-14T08:48:02Z</time>
      </trkpt>
      <trkpt lat="43.45924" lon="3.80073">
        <ele>2</ele>
        <time>2020-01-14T08:48:05Z</time>
      </trkpt>
      <trkpt lat="43.45925" lon="3.80069">
        <ele>2</ele>
        <time>2020-01-14T08:48:07Z</time>
      </trkpt>
      <trkpt lat="43.45925" lon="3.80066">
        <ele>2</ele>
        <time>2020-01-14T08:48:09Z</time>
      </trkpt>
      <trkpt lat="43.45926" lon="3.80062">
        <ele>2</ele>
        <time>2020-01-14T08:48:11Z</time>
      </trkpt>
      <trkpt lat="43.45926" lon="3.80059">
        <ele>2</ele>
        <time>2020-01-14T08:48:13Z</time>
      </trkpt>
      <trkpt lat="43.45927" lon="3.80056">
        <ele>2</ele>
        <time>2020-01-14T08:48:15Z</time>
      </trkpt>
      <trkpt lat="43.45927" lon="3.80053">
        <ele>2</ele>
        <time>2020-01-14T08:48:17Z</time>
      </trkpt>
      <trkpt lat="43.45928" lon="3.8005">
        <ele>2</ele>
        <time>2020-01-14T08:48:19Z</time>
      </trkpt>
      <trkpt lat="43.45929" lon="3.80046">
        <ele>2</ele>
        <time>2020-01-14T08:48:21Z</time>
      </trkpt>
      <trkpt lat="43.4593" lon="3.80043">
        <ele>2</ele>
        <time>2020-01-14T08:48:23Z</time>
      </trkpt>
      <trkpt lat="43.45931" lon="3.8004">
        <ele>2</ele>
        <time>2020-01-14T08:48:25Z</time>
      </trkpt>
      <trkpt lat="43.45932" lon="3.80037">
        <ele>2</ele>
        <time>2020-01-14T08:48:27Z</time>
      </trkpt>
      <trkpt lat="43.45932" lon="3.80034">
        <ele>2</ele>
        <time>2020-01-14T08:48:29Z</time>
      </trkpt>
      <trkpt lat="43.45933" lon="3.80031">
        <ele>2</ele>
        <time>2020-01-14T08:48:31Z</time>
      </trkpt>
      <trkpt lat="43.45933" lon="3.80028">
        <ele>2</ele>
        <time>2020-01-14T08:48:33Z</time>
      </trkpt>
      <trkpt lat="43.45934" lon="3.80025">
        <ele>2</ele>
        <time>2020-01-14T08:48:35Z</time>
      </trkpt>
      <trkpt lat="43.45934" lon="3.80025">
        <ele>2</ele>
        <time>2020-01-14T08:48:37Z</time>
      </trkpt>
      <trkpt lat="43.45937" lon="3.80021">
        <ele>2</ele>
        <time>2020-01-14T08:48:38Z</time>
      </trkpt>
      <trkpt lat="43.45937" lon="3.80018">
        <ele>2</ele>
        <time>2020-01-14T08:48:40Z</time>
      </trkpt>
      <trkpt lat="43.45938" lon="3.80016">
        <ele>2</ele>
        <time>2020-01-14T08:48:42Z</time>
      </trkpt>
      <trkpt lat="43.45939" lon="3.80014">
        <ele>2</ele>
        <time>2020-01-14T08:48:44Z</time>
      </trkpt>
      <trkpt lat="43.4594" lon="3.80012">
        <ele>2</ele>
        <time>2020-01-14T08:48:46Z</time>
      </trkpt>
      <trkpt lat="43.4594" lon="3.8001">
        <ele>2</ele>
        <time>2020-01-14T08:48:47Z</time>
      </trkpt>
      <trkpt lat="43.45941" lon="3.80009">
        <ele>2</ele>
        <time>2020-01-14T08:48:48Z</time>
      </trkpt>
      <trkpt lat="43.45943" lon="3.80006">
        <ele>2</ele>
        <time>2020-01-14T08:48:50Z</time>
      </trkpt>
      <trkpt lat="43.45945" lon="3.80004">
        <ele>2</ele>
        <time>2020-01-14T08:48:52Z</time>
      </trkpt>
      <trkpt lat="43.45946" lon="3.80001">
        <ele>2</ele>
        <time>2020-01-14T08:48:55Z</time>
      </trkpt>
      <trkpt lat="43.45948" lon="3.79999">
        <ele>2</ele>
        <time>2020-01-14T08:48:57Z</time>
      </trkpt>
      <trkpt lat="43.4595" lon="3.79996">
        <ele>2</ele>
        <time>2020-01-14T08:48:59Z</time>
      </trkpt>
      <trkpt lat="43.45951" lon="3.79993">
        <ele>2</ele>
        <time>2020-01-14T08:49:01Z</time>
      </trkpt>
      <trkpt lat="43.45953" lon="3.7999">
        <ele>2</ele>
        <time>2020-01-14T08:49:03Z</time>
      </trkpt>
      <trkpt lat="43.45953" lon="3.79987">
        <ele>2</ele>
        <time>2020-01-14T08:49:05Z</time>
      </trkpt>
      <trkpt lat="43.45955" lon="3.79985">
        <ele>2</ele>
        <time>2020-01-14T08:49:07Z</time>
      </trkpt>
      <trkpt lat="43.45956" lon="3.79982">
        <ele>2</ele>
        <time>2020-01-14T08:49:09Z</time>
      </trkpt>
      <trkpt lat="43.45957" lon="3.79979">
        <ele>2</ele>
        <time>2020-01-14T08:49:11Z</time>
      </trkpt>
      <trkpt lat="43.45957" lon="3.79976">
        <ele>2</ele>
        <time>2020-01-14T08:49:13Z</time>
      </trkpt>
      <trkpt lat="43.45957" lon="3.79973">
        <ele>2</ele>
        <time>2020-01-14T08:49:15Z</time>
      </trkpt>
      <trkpt lat="43.45956" lon="3.7997">
        <ele>2</ele>
        <time>2020-01-14T08:49:17Z</time>
      </trkpt>
      <trkpt lat="43.45956" lon="3.79967">
        <ele>2</ele>
        <time>2020-01-14T08:49:19Z</time>
      </trkpt>
      <trkpt lat="43.45957" lon="3.79964">
        <ele>2</ele>
        <time>2020-01-14T08:49:21Z</time>
      </trkpt>
      <trkpt lat="43.45957" lon="3.79961">
        <ele>2</ele>
        <time>2020-01-14T08:49:23Z</time>
      </trkpt>
      <trkpt lat="43.45957" lon="3.79958">
        <ele>2</ele>
        <time>2020-01-14T08:49:25Z</time>
      </trkpt>
      <trkpt lat="43.45957" lon="3.79958">
        <ele>2</ele>
        <time>2020-01-14T08:49:27Z</time>
      </trkpt>
      <trkpt lat="43.45958" lon="3.79953">
        <ele>2</ele>
        <time>2020-01-14T08:49:28Z</time>
      </trkpt>
      <trkpt lat="43.45958" lon="3.79951">
        <ele>2</ele>
        <time>2020-01-14T08:49:30Z</time>
      </trkpt>
      <trkpt lat="43.45959" lon="3.79949">
        <ele>2</ele>
        <time>2020-01-14T08:49:32Z</time>
      </trkpt>
      <trkpt lat="43.45959" lon="3.79947">
        <ele>2</ele>
        <time>2020-01-14T08:49:34Z</time>
      </trkpt>
      <trkpt lat="43.4596" lon="3.79945">
        <ele>2</ele>
        <time>2020-01-14T08:49:36Z</time>
      </trkpt>
      <trkpt lat="43.45961" lon="3.79943">
        <ele>2</ele>
        <time>2020-01-14T08:49:37Z</time>
      </trkpt>
      <trkpt lat="43.45961" lon="3.79939">
        <ele>2</ele>
        <time>2020-01-14T08:49:38Z</time>
      </trkpt>
      <trkpt lat="43.45961" lon="3.79936">
        <ele>2</ele>
        <time>2020-01-14T08:49:40Z</time>
      </trkpt>
      <trkpt lat="43.45961" lon="3.79934">
        <ele>2</ele>
        <time>2020-01-14T08:49:42Z</time>
      </trkpt>
      <trkpt lat="43.45962" lon="3.79932">
        <ele>2</ele>
        <time>2020-01-14T08:49:44Z</time>
      </trkpt>
      <trkpt lat="43.45962" lon="3.7993">
        <ele>2</ele>
        <time>2020-01-14T08:49:46Z</time>
      </trkpt>
      <trkpt lat="43.45962" lon="3.79927">
        <ele>2</ele>
        <time>2020-01-14T08:49:47Z</time>
      </trkpt>
      <trkpt lat="43.45963" lon="3.79924">
        <ele>2</ele>
        <time>2020-01-14T08:49:48Z</time>
      </trkpt>
      <trkpt lat="43.45964" lon="3.79922">
        <ele>2</ele>
        <time>2020-01-14T08:49:50Z</time>
      </trkpt>
      <trkpt lat="43.45965" lon="3.79919">
        <ele>2</ele>
        <time>2020-01-14T08:49:52Z</time>
      </trkpt>
      <trkpt lat="43.45966" lon="3.79917">
        <ele>2</ele>
        <time>2020-01-14T08:49:54Z</time>
      </trkpt>
      <trkpt lat="43.45966" lon="3.79915">
        <ele>2</ele>
        <time>2020-01-14T08:49:56Z</time>
      </trkpt>
      <trkpt lat="43.45967" lon="3.79913">
        <ele>2</ele>
        <time>2020-01-14T08:49:57Z</time>
      </trkpt>
      <trkpt lat="43.45968" lon="3.79909">
        <ele>2</ele>
        <time>2020-01-14T08:49:58Z</time>
      </trkpt>
      <trkpt lat="43.45969" lon="3.79907">
        <ele>2</ele>
        <time>2020-01-14T08:50:00Z</time>
      </trkpt>
      <trkpt lat="43.4597" lon="3.79905">
        <ele>2</ele>
        <time>2020-01-14T08:50:02Z</time>
      </trkpt>
      <trkpt lat="43.45971" lon="3.79902">
        <ele>2</ele>
        <time>2020-01-14T08:50:04Z</time>
      </trkpt>
      <trkpt lat="43.45972" lon="3.799">
        <ele>2</ele>
        <time>2020-01-14T08:50:06Z</time>
      </trkpt>
      <trkpt lat="43.45972" lon="3.79898">
        <ele>2</ele>
        <time>2020-01-14T08:50:07Z</time>
      </trkpt>
      <trkpt lat="43.45974" lon="3.79894">
        <ele>2</ele>
        <time>2020-01-14T08:50:08Z</time>
      </trkpt>
      <trkpt lat="43.45974" lon="3.79892">
        <ele>2</ele>
        <time>2020-01-14T08:50:10Z</time>
      </trkpt>
      <trkpt lat="43.45975" lon="3.7989">
        <ele>2</ele>
        <time>2020-01-14T08:50:12Z</time>
      </trkpt>
      <trkpt lat="43.45976" lon="3.79888">
        <ele>2</ele>
        <time>2020-01-14T08:50:14Z</time>
      </trkpt>
      <trkpt lat="43.45976" lon="3.79886">
        <ele>2</ele>
        <time>2020-01-14T08:50:16Z</time>
      </trkpt>
      <trkpt lat="43.45977" lon="3.79884">
        <ele>2</ele>
        <time>2020-01-14T08:50:17Z</time>
      </trkpt>
      <trkpt lat="43.45979" lon="3.79881">
        <ele>2</ele>
        <time>2020-01-14T08:50:18Z</time>
      </trkpt>
      <trkpt lat="43.45979" lon="3.79879">
        <ele>2</ele>
        <time>2020-01-14T08:50:20Z</time>
      </trkpt>
      <trkpt lat="43.4598" lon="3.79877">
        <ele>2</ele>
        <time>2020-01-14T08:50:22Z</time>
      </trkpt>
      <trkpt lat="43.45981" lon="3.79875">
        <ele>2</ele>
        <time>2020-01-14T08:50:24Z</time>
      </trkpt>
      <trkpt lat="43.45982" lon="3.79872">
        <ele>2</ele>
        <time>2020-01-14T08:50:26Z</time>
      </trkpt>
      <trkpt lat="43.45982" lon="3.7987">
        <ele>2</ele>
        <time>2020-01-14T08:50:27Z</time>
      </trkpt>
      <trkpt lat="43.45983" lon="3.79867">
        <ele>2</ele>
        <time>2020-01-14T08:50:28Z</time>
      </trkpt>
      <trkpt lat="43.45984" lon="3.79865">
        <ele>2</ele>
        <time>2020-01-14T08:50:30Z</time>
      </trkpt>
      <trkpt lat="43.45985" lon="3.79862">
        <ele>2</ele>
        <time>2020-01-14T08:50:32Z</time>
      </trkpt>
      <trkpt lat="43.45986" lon="3.7986">
        <ele>2</ele>
        <time>2020-01-14T08:50:34Z</time>
      </trkpt>
      <trkpt lat="43.45987" lon="3.79858">
        <ele>2</ele>
        <time>2020-01-14T08:50:36Z</time>
      </trkpt>
      <trkpt lat="43.45988" lon="3.79856">
        <ele>2</ele>
        <time>2020-01-14T08:50:37Z</time>
      </trkpt>
      <trkpt lat="43.45989" lon="3.79852">
        <ele>2</ele>
        <time>2020-01-14T08:50:38Z</time>
      </trkpt>
      <trkpt lat="43.4599" lon="3.7985">
        <ele>2</ele>
        <time>2020-01-14T08:50:40Z</time>
      </trkpt>
      <trkpt lat="43.45991" lon="3.79848">
        <ele>2</ele>
        <time>2020-01-14T08:50:42Z</time>
      </trkpt>
      <trkpt lat="43.45992" lon="3.79846">
        <ele>2</ele>
        <time>2020-01-14T08:50:44Z</time>
      </trkpt>
      <trkpt lat="43.45993" lon="3.79844">
        <ele>2</ele>
        <time>2020-01-14T08:50:46Z</time>
      </trkpt>
      <trkpt lat="43.45994" lon="3.79842">
        <ele>2</ele>
        <time>2020-01-14T08:50:47Z</time>
      </trkpt>
      <trkpt lat="43.45995" lon="3.79839">
        <ele>2</ele>
        <time>2020-01-14T08:50:48Z</time>
      </trkpt>
      <trkpt lat="43.45996" lon="3.79836">
        <ele>2</ele>
        <time>2020-01-14T08:50:50Z</time>
      </trkpt>
      <trkpt lat="43.45997" lon="3.79834">
        <ele>2</ele>
        <time>2020-01-14T08:50:52Z</time>
      </trkpt>
      <trkpt lat="43.45998" lon="3.79832">
        <ele>2</ele>
        <time>2020-01-14T08:50:54Z</time>
      </trkpt>
      <trkpt lat="43.45999" lon="3.7983">
        <ele>2</ele>
        <time>2020-01-14T08:50:56Z</time>
      </trkpt>
      <trkpt lat="43.46" lon="3.79827">
        <ele>2</ele>
        <time>2020-01-14T08:50:57Z</time>
      </trkpt>
      <trkpt lat="43.46001" lon="3.79823">
        <ele>2</ele>
        <time>2020-01-14T08:50:58Z</time>
      </trkpt>
      <trkpt lat="43.46001" lon="3.79821">
        <ele>2</ele>
        <time>2020-01-14T08:51:00Z</time>
      </trkpt>
      <trkpt lat="43.46002" lon="3.79819">
        <ele>2</ele>
        <time>2020-01-14T08:51:02Z</time>
      </trkpt>
      <trkpt lat="43.46002" lon="3.79817">
        <ele>2</ele>
        <time>2020-01-14T08:51:04Z</time>
      </trkpt>
      <trkpt lat="43.46003" lon="3.79815">
        <ele>2</ele>
        <time>2020-01-14T08:51:06Z</time>
      </trkpt>
      <trkpt lat="43.46003" lon="3.79812">
        <ele>2</ele>
        <time>2020-01-14T08:51:07Z</time>
      </trkpt>
      <trkpt lat="43.46004" lon="3.79809">
        <ele>2</ele>
        <time>2020-01-14T08:51:08Z</time>
      </trkpt>
      <trkpt lat="43.46004" lon="3.79806">
        <ele>2</ele>
        <time>2020-01-14T08:51:10Z</time>
      </trkpt>
      <trkpt lat="43.46003" lon="3.79804">
        <ele>2</ele>
        <time>2020-01-14T08:51:12Z</time>
      </trkpt>
      <trkpt lat="43.46003" lon="3.79802">
        <ele>2</ele>
        <time>2020-01-14T08:51:14Z</time>
      </trkpt>
      <trkpt lat="43.46003" lon="3.798">
        <ele>2</ele>
        <time>2020-01-14T08:51:16Z</time>
      </trkpt>
      <trkpt lat="43.46003" lon="3.79797">
        <ele>2</ele>
        <time>2020-01-14T08:51:17Z</time>
      </trkpt>
      <trkpt lat="43.46003" lon="3.79793">
        <ele>2</ele>
        <time>2020-01-14T08:51:18Z</time>
      </trkpt>
      <trkpt lat="43.46003" lon="3.79791">
        <ele>2</ele>
        <time>2020-01-14T08:51:20Z</time>
      </trkpt>
      <trkpt lat="43.46003" lon="3.79788">
        <ele>2</ele>
        <time>2020-01-14T08:51:22Z</time>
      </trkpt>
      <trkpt lat="43.46003" lon="3.79785">
        <ele>2</ele>
        <time>2020-01-14T08:51:24Z</time>
      </trkpt>
      <trkpt lat="43.46004" lon="3.79783">
        <ele>2</ele>
        <time>2020-01-14T08:51:26Z</time>
      </trkpt>
      <trkpt lat="43.46004" lon="3.7978">
        <ele>2</ele>
        <time>2020-01-14T08:51:27Z</time>
      </trkpt>
      <trkpt lat="43.46004" lon="3.79776">
        <ele>2</ele>
        <time>2020-01-14T08:51:28Z</time>
      </trkpt>
      <trkpt lat="43.46004" lon="3.79774">
        <ele>2</ele>
        <time>2020-01-14T08:51:30Z</time>
      </trkpt>
      <trkpt lat="43.46004" lon="3.79771">
        <ele>2</ele>
        <time>2020-01-14T08:51:32Z</time>
      </trkpt>
      <trkpt lat="43.46005" lon="3.79769">
        <ele>2</ele>
        <time>2020-01-14T08:51:34Z</time>
      </trkpt>
      <trkpt lat="43.46005" lon="3.79766">
        <ele>2</ele>
        <time>2020-01-14T08:51:36Z</time>
      </trkpt>
      <trkpt lat="43.46005" lon="3.79764">
        <ele>2</ele>
        <time>2020-01-14T08:51:37Z</time>
      </trkpt>
      <trkpt lat="43.46004" lon="3.7976">
        <ele>2</ele>
        <time>2020-01-14T08:51:38Z</time>
      </trkpt>
      <trkpt lat="43.46002" lon="3.79758">
        <ele>2</ele>
        <time>2020-01-14T08:51:40Z</time>
      </trkpt>
      <trkpt lat="43.46001" lon="3.79757">
        <ele>2</ele>
        <time>2020-01-14T08:51:42Z</time>
      </trkpt>
      <trkpt lat="43.46" lon="3.79755">
        <ele>2</ele>
        <time>2020-01-14T08:51:44Z</time>
      </trkpt>
      <trkpt lat="43.45998" lon="3.79753">
        <ele>2</ele>
        <time>2020-01-14T08:51:46Z</time>
      </trkpt>
      <trkpt lat="43.45997" lon="3.79751">
        <ele>2</ele>
        <time>2020-01-14T08:51:47Z</time>
      </trkpt>
      <trkpt lat="43.45995" lon="3.79747">
        <ele>2</ele>
        <time>2020-01-14T08:51:48Z</time>
      </trkpt>
      <trkpt lat="43.45995" lon="3.79745">
        <ele>2</ele>
        <time>2020-01-14T08:51:50Z</time>
      </trkpt>
      <trkpt lat="43.45994" lon="3.79742">
        <ele>2</ele>
        <time>2020-01-14T08:51:52Z</time>
      </trkpt>
      <trkpt lat="43.45993" lon="3.7974">
        <ele>2</ele>
        <time>2020-01-14T08:51:54Z</time>
      </trkpt>
      <trkpt lat="43.45992" lon="3.79738">
        <ele>2</ele>
        <time>2020-01-14T08:51:56Z</time>
      </trkpt>
      <trkpt lat="43.45991" lon="3.79735">
        <ele>2</ele>
        <time>2020-01-14T08:51:57Z</time>
      </trkpt>
      <trkpt lat="43.45991" lon="3.79731">
        <ele>2</ele>
        <time>2020-01-14T08:51:58Z</time>
      </trkpt>
      <trkpt lat="43.4599" lon="3.79729">
        <ele>2</ele>
        <time>2020-01-14T08:52:00Z</time>
      </trkpt>
      <trkpt lat="43.4599" lon="3.79726">
        <ele>2</ele>
        <time>2020-01-14T08:52:02Z</time>
      </trkpt>
      <trkpt lat="43.4599" lon="3.79723">
        <ele>2</ele>
        <time>2020-01-14T08:52:04Z</time>
      </trkpt>
      <trkpt lat="43.4599" lon="3.79721">
        <ele>2</ele>
        <time>2020-01-14T08:52:06Z</time>
      </trkpt>
      <trkpt lat="43.4599" lon="3.79718">
        <ele>2</ele>
        <time>2020-01-14T08:52:07Z</time>
      </trkpt>
      <trkpt lat="43.4599" lon="3.79714">
        <ele>2</ele>
        <time>2020-01-14T08:52:08Z</time>
      </trkpt>
      <trkpt lat="43.45989" lon="3.79712">
        <ele>2</ele>
        <time>2020-01-14T08:52:10Z</time>
      </trkpt>
      <trkpt lat="43.45989" lon="3.7971">
        <ele>2</ele>
        <time>2020-01-14T08:52:12Z</time>
      </trkpt>
      <trkpt lat="43.45989" lon="3.79707">
        <ele>2</ele>
        <time>2020-01-14T08:52:14Z</time>
      </trkpt>
      <trkpt lat="43.45989" lon="3.79705">
        <ele>2</ele>
        <time>2020-01-14T08:52:16Z</time>
      </trkpt>
      <trkpt lat="43.45989" lon="3.79703">
        <ele>2</ele>
        <time>2020-01-14T08:52:17Z</time>
      </trkpt>
      <trkpt lat="43.45988" lon="3.79699">
        <ele>2</ele>
        <time>2020-01-14T08:52:18Z</time>
      </trkpt>
      <trkpt lat="43.45987" lon="3.79697">
        <ele>2</ele>
        <time>2020-01-14T08:52:20Z</time>
      </trkpt>
      <trkpt lat="43.45987" lon="3.79695">
        <ele>2</ele>
        <time>2020-01-14T08:52:22Z</time>
      </trkpt>
      <trkpt lat="43.45986" lon="3.79693">
        <ele>2</ele>
        <time>2020-01-14T08:52:24Z</time>
      </trkpt>
      <trkpt lat="43.45985" lon="3.79691">
        <ele>2</ele>
        <time>2020-01-14T08:52:26Z</time>
      </trkpt>
      <trkpt lat="43.45984" lon="3.79689">
        <ele>2</ele>
        <time>2020-01-14T08:52:27Z</time>
      </trkpt>
      <trkpt lat="43.45983" lon="3.79686">
        <ele>2</ele>
        <time>2020-01-14T08:52:28Z</time>
      </trkpt>
      <trkpt lat="43.45982" lon="3.79684">
        <ele>2</ele>
        <time>2020-01-14T08:52:30Z</time>
      </trkpt>
      <trkpt lat="43.45981" lon="3.79682">
        <ele>2</ele>
        <time>2020-01-14T08:52:32Z</time>
      </trkpt>
      <trkpt lat="43.4598" lon="3.7968">
        <ele>2</ele>
        <time>2020-01-14T08:52:34Z</time>
      </trkpt>
      <trkpt lat="43.45978" lon="3.79678">
        <ele>2</ele>
        <time>2020-01-14T08:52:36Z</time>
      </trkpt>
      <trkpt lat="43.45977" lon="3.79677">
        <ele>2</ele>
        <time>2020-01-14T08:52:37Z</time>
      </trkpt>
      <trkpt lat="43.45976" lon="3.79673">
        <ele>2</ele>
        <time>2020-01-14T08:52:38Z</time>
      </trkpt>
      <trkpt lat="43.45975" lon="3.79671">
        <ele>2</ele>
        <time>2020-01-14T08:52:40Z</time>
      </trkpt>
      <trkpt lat="43.45974" lon="3.79669">
        <ele>2</ele>
        <time>2020-01-14T08:52:42Z</time>
      </trkpt>
      <trkpt lat="43.45973" lon="3.79666">
        <ele>2</ele>
        <time>2020-01-14T08:52:44Z</time>
      </trkpt>
      <trkpt lat="43.45973" lon="3.79664">
        <ele>2</ele>
        <time>2020-01-14T08:52:46Z</time>
      </trkpt>
      <trkpt lat="43.45972" lon="3.79662">
        <ele>2</ele>
        <time>2020-01-14T08:52:47Z</time>
      </trkpt>
      <trkpt lat="43.4597" lon="3.79659">
        <ele>2</ele>
        <time>2020-01-14T08:52:48Z</time>
      </trkpt>
      <trkpt lat="43.45969" lon="3.79657">
        <ele>2</ele>
        <time>2020-01-14T08:52:50Z</time>
      </trkpt>
      <trkpt lat="43.45968" lon="3.79655">
        <ele>2</ele>
        <time>2020-01-14T08:52:52Z</time>
      </trkpt>
      <trkpt lat="43.45967" lon="3.79654">
        <ele>2</ele>
        <time>2020-01-14T08:52:54Z</time>
      </trkpt>
      <trkpt lat="43.45966" lon="3.79652">
        <ele>2</ele>
        <time>2020-01-14T08:52:56Z</time>
      </trkpt>
      <trkpt lat="43.45965" lon="3.7965">
        <ele>2</ele>
        <time>2020-01-14T08:52:57Z</time>
      </trkpt>
      <trkpt lat="43.45963" lon="3.79647">
        <ele>2</ele>
        <time>2020-01-14T08:52:58Z</time>
      </trkpt>
      <trkpt lat="43.45962" lon="3.79645">
        <ele>2</ele>
        <time>2020-01-14T08:53:00Z</time>
      </trkpt>
      <trkpt lat="43.45962" lon="3.79643">
        <ele>2</ele>
        <time>2020-01-14T08:53:02Z</time>
      </trkpt>
      <trkpt lat="43.45961" lon="3.79641">
        <ele>2</ele>
        <time>2020-01-14T08:53:04Z</time>
      </trkpt>
      <trkpt lat="43.4596" lon="3.79639">
        <ele>2</ele>
        <time>2020-01-14T08:53:06Z</time>
      </trkpt>
      <trkpt lat="43.45959" lon="3.79637">
        <ele>1</ele>
        <time>2020-01-14T08:53:07Z</time>
      </trkpt>
      <trkpt lat="43.45959" lon="3.79633">
        <ele>1</ele>
        <time>2020-01-14T08:53:08Z</time>
      </trkpt>
      <trkpt lat="43.45959" lon="3.79631">
        <ele>1</ele>
        <time>2020-01-14T08:53:10Z</time>
      </trkpt>
      <trkpt lat="43.45959" lon="3.79629">
        <ele>1</ele>
        <time>2020-01-14T08:53:12Z</time>
      </trkpt>
      <trkpt lat="43.45959" lon="3.79626">
        <ele>1</ele>
        <time>2020-01-14T08:53:14Z</time>
      </trkpt>
      <trkpt lat="43.45958" lon="3.79624">
        <ele>1</ele>
        <time>2020-01-14T08:53:16Z</time>
      </trkpt>
      <trkpt lat="43.45958" lon="3.79622">
        <ele>1</ele>
        <time>2020-01-14T08:53:17Z</time>
      </trkpt>
      <trkpt lat="43.45959" lon="3.79618">
        <ele>1</ele>
        <time>2020-01-14T08:53:18Z</time>
      </trkpt>
      <trkpt lat="43.45959" lon="3.79615">
        <ele>1</ele>
        <time>2020-01-14T08:53:20Z</time>
      </trkpt>
      <trkpt lat="43.4596" lon="3.79613">
        <ele>1</ele>
        <time>2020-01-14T08:53:22Z</time>
      </trkpt>
      <trkpt lat="43.4596" lon="3.79611">
        <ele>1</ele>
        <time>2020-01-14T08:53:24Z</time>
      </trkpt>
      <trkpt lat="43.45961" lon="3.79608">
        <ele>1</ele>
        <time>2020-01-14T08:53:26Z</time>
      </trkpt>
      <trkpt lat="43.45961" lon="3.79606">
        <ele>1</ele>
        <time>2020-01-14T08:53:27Z</time>
      </trkpt>
      <trkpt lat="43.45963" lon="3.79602">
        <ele>1</ele>
        <time>2020-01-14T08:53:28Z</time>
      </trkpt>
      <trkpt lat="43.45964" lon="3.79601">
        <ele>1</ele>
        <time>2020-01-14T08:53:30Z</time>
      </trkpt>
      <trkpt lat="43.45965" lon="3.79599">
        <ele>1</ele>
        <time>2020-01-14T08:53:32Z</time>
      </trkpt>
      <trkpt lat="43.45966" lon="3.79597">
        <ele>1</ele>
        <time>2020-01-14T08:53:34Z</time>
      </trkpt>
      <trkpt lat="43.45968" lon="3.79595">
        <ele>1</ele>
        <time>2020-01-14T08:53:36Z</time>
      </trkpt>
      <trkpt lat="43.45969" lon="3.79594">
        <ele>1</ele>
        <time>2020-01-14T08:53:37Z</time>
      </trkpt>
      <trkpt lat="43.45971" lon="3.79591">
        <ele>1</ele>
        <time>2020-01-14T08:53:38Z</time>
      </trkpt>
      <trkpt lat="43.45972" lon="3.7959">
        <ele>1</ele>
        <time>2020-01-14T08:53:40Z</time>
      </trkpt>
      <trkpt lat="43.45973" lon="3.79588">
        <ele>1</ele>
        <time>2020-01-14T08:53:42Z</time>
      </trkpt>
      <trkpt lat="43.45974" lon="3.79587">
        <ele>1</ele>
        <time>2020-01-14T08:53:44Z</time>
      </trkpt>
      <trkpt lat="43.45976" lon="3.79586">
        <ele>1</ele>
        <time>2020-01-14T08:53:46Z</time>
      </trkpt>
      <trkpt lat="43.45977" lon="3.79584">
        <ele>1</ele>
        <time>2020-01-14T08:53:47Z</time>
      </trkpt>
      <trkpt lat="43.45979" lon="3.79581">
        <ele>1</ele>
        <time>2020-01-14T08:53:48Z</time>
      </trkpt>
      <trkpt lat="43.4598" lon="3.79579">
        <ele>1</ele>
        <time>2020-01-14T08:53:50Z</time>
      </trkpt>
      <trkpt lat="43.45982" lon="3.79577">
        <ele>1</ele>
        <time>2020-01-14T08:53:52Z</time>
      </trkpt>
      <trkpt lat="43.45983" lon="3.79575">
        <ele>1</ele>
        <time>2020-01-14T08:53:54Z</time>
      </trkpt>
      <trkpt lat="43.45984" lon="3.79573">
        <ele>1</ele>
        <time>2020-01-14T08:53:56Z</time>
      </trkpt>
      <trkpt lat="43.45985" lon="3.79571">
        <ele>1</ele>
        <time>2020-01-14T08:53:57Z</time>
      </trkpt>
      <trkpt lat="43.45986" lon="3.79567">
        <ele>1</ele>
        <time>2020-01-14T08:53:58Z</time>
      </trkpt>
      <trkpt lat="43.45986" lon="3.79564">
        <ele>1</ele>
        <time>2020-01-14T08:54:00Z</time>
      </trkpt>
      <trkpt lat="43.45987" lon="3.79561">
        <ele>1</ele>
        <time>2020-01-14T08:54:02Z</time>
      </trkpt>
      <trkpt lat="43.45987" lon="3.79559">
        <ele>1</ele>
        <time>2020-01-14T08:54:04Z</time>
      </trkpt>
      <trkpt lat="43.45987" lon="3.79556">
        <ele>1</ele>
        <time>2020-01-14T08:54:06Z</time>
      </trkpt>
      <trkpt lat="43.45987" lon="3.79554">
        <ele>1</ele>
        <time>2020-01-14T08:54:07Z</time>
      </trkpt>
      <trkpt lat="43.45987" lon="3.79549">
        <ele>1</ele>
        <time>2020-01-14T08:54:08Z</time>
      </trkpt>
      <trkpt lat="43.45987" lon="3.79547">
        <ele>1</ele>
        <time>2020-01-14T08:54:10Z</time>
      </trkpt>
      <trkpt lat="43.45987" lon="3.79544">
        <ele>1</ele>
        <time>2020-01-14T08:54:12Z</time>
      </trkpt>
      <trkpt lat="43.45987" lon="3.79542">
        <ele>1</ele>
        <time>2020-01-14T08:54:14Z</time>
      </trkpt>
      <trkpt lat="43.45987" lon="3.7954">
        <ele>1</ele>
        <time>2020-01-14T08:54:16Z</time>
      </trkpt>
      <trkpt lat="43.45987" lon="3.79537">
        <ele>1</ele>
        <time>2020-01-14T08:54:17Z</time>
      </trkpt>
      <trkpt lat="43.45986" lon="3.79533">
        <ele>1</ele>
        <time>2020-01-14T08:54:18Z</time>
      </trkpt>
      <trkpt lat="43.45986" lon="3.79531">
        <ele>1</ele>
        <time>2020-01-14T08:54:20Z</time>
      </trkpt>
      <trkpt lat="43.45986" lon="3.79529">
        <ele>1</ele>
        <time>2020-01-14T08:54:22Z</time>
      </trkpt>
      <trkpt lat="43.45986" lon="3.79527">
        <ele>1</ele>
        <time>2020-01-14T08:54:24Z</time>
      </trkpt>
      <trkpt lat="43.45985" lon="3.79524">
        <ele>1</ele>
        <time>2020-01-14T08:54:26Z</time>
      </trkpt>
      <trkpt lat="43.45985" lon="3.79522">
        <ele>1</ele>
        <time>2020-01-14T08:54:27Z</time>
      </trkpt>
      <trkpt lat="43.45984" lon="3.79518">
        <ele>1</ele>
        <time>2020-01-14T08:54:28Z</time>
      </trkpt>
      <trkpt lat="43.45984" lon="3.79516">
        <ele>1</ele>
        <time>2020-01-14T08:54:30Z</time>
      </trkpt>
      <trkpt lat="43.45984" lon="3.79514">
        <ele>1</ele>
        <time>2020-01-14T08:54:32Z</time>
      </trkpt>
      <trkpt lat="43.45983" lon="3.79511">
        <ele>1</ele>
        <time>2020-01-14T08:54:34Z</time>
      </trkpt>
      <trkpt lat="43.45983" lon="3.79509">
        <ele>1</ele>
        <time>2020-01-14T08:54:36Z</time>
      </trkpt>
      <trkpt lat="43.45982" lon="3.79507">
        <ele>1</ele>
        <time>2020-01-14T08:54:37Z</time>
      </trkpt>
      <trkpt lat="43.45982" lon="3.79503">
        <ele>1</ele>
        <time>2020-01-14T08:54:38Z</time>
      </trkpt>
      <trkpt lat="43.45981" lon="3.79501">
        <ele>1</ele>
        <time>2020-01-14T08:54:40Z</time>
      </trkpt>
      <trkpt lat="43.45981" lon="3.79499">
        <ele>1</ele>
        <time>2020-01-14T08:54:42Z</time>
      </trkpt>
      <trkpt lat="43.4598" lon="3.79497">
        <ele>1</ele>
        <time>2020-01-14T08:54:44Z</time>
      </trkpt>
      <trkpt lat="43.4598" lon="3.79494">
        <ele>1</ele>
        <time>2020-01-14T08:54:46Z</time>
      </trkpt>
      <trkpt lat="43.4598" lon="3.79492">
        <ele>1</ele>
        <time>2020-01-14T08:54:47Z</time>
      </trkpt>
      <trkpt lat="43.45979" lon="3.79488">
        <ele>1</ele>
        <time>2020-01-14T08:54:48Z</time>
      </trkpt>
      <trkpt lat="43.45979" lon="3.79486">
        <ele>1</ele>
        <time>2020-01-14T08:54:50Z</time>
      </trkpt>
      <trkpt lat="43.45978" lon="3.79484">
        <ele>1</ele>
        <time>2020-01-14T08:54:52Z</time>
      </trkpt>
      <trkpt lat="43.45978" lon="3.79482">
        <ele>1</ele>
        <time>2020-01-14T08:54:54Z</time>
      </trkpt>
      <trkpt lat="43.45978" lon="3.79479">
        <ele>1</ele>
        <time>2020-01-14T08:54:56Z</time>
      </trkpt>
      <trkpt lat="43.45977" lon="3.79477">
        <ele>1</ele>
        <time>2020-01-14T08:54:57Z</time>
      </trkpt>
      <trkpt lat="43.45976" lon="3.79473">
        <ele>1</ele>
        <time>2020-01-14T08:54:58Z</time>
      </trkpt>
      <trkpt lat="43.45976" lon="3.79471">
        <ele>1</ele>
        <time>2020-01-14T08:55:00Z</time>
      </trkpt>
      <trkpt lat="43.45975" lon="3.79468">
        <ele>1</ele>
        <time>2020-01-14T08:55:02Z</time>
      </trkpt>
      <trkpt lat="43.45975" lon="3.79466">
        <ele>1</ele>
        <time>2020-01-14T08:55:04Z</time>
      </trkpt>
      <trkpt lat="43.45974" lon="3.79463">
        <ele>1</ele>
        <time>2020-01-14T08:55:06Z</time>
      </trkpt>
      <trkpt lat="43.45974" lon="3.79461">
        <ele>1</ele>
        <time>2020-01-14T08:55:07Z</time>
      </trkpt>
      <trkpt lat="43.45973" lon="3.79457">
        <ele>1</ele>
        <time>2020-01-14T08:55:08Z</time>
      </trkpt>
      <trkpt lat="43.45972" lon="3.79455">
        <ele>1</ele>
        <time>2020-01-14T08:55:10Z</time>
      </trkpt>
      <trkpt lat="43.45971" lon="3.79452">
        <ele>1</ele>
        <time>2020-01-14T08:55:12Z</time>
      </trkpt>
      <trkpt lat="43.45971" lon="3.7945">
        <ele>1</ele>
        <time>2020-01-14T08:55:14Z</time>
      </trkpt>
      <trkpt lat="43.4597" lon="3.79448">
        <ele>1</ele>
        <time>2020-01-14T08:55:16Z</time>
      </trkpt>
      <trkpt lat="43.45969" lon="3.79445">
        <ele>1</ele>
        <time>2020-01-14T08:55:17Z</time>
      </trkpt>
      <trkpt lat="43.45968" lon="3.79442">
        <ele>1</ele>
        <time>2020-01-14T08:55:18Z</time>
      </trkpt>
      <trkpt lat="43.45967" lon="3.7944">
        <ele>1</ele>
        <time>2020-01-14T08:55:20Z</time>
      </trkpt>
      <trkpt lat="43.45966" lon="3.79437">
        <ele>1</ele>
        <time>2020-01-14T08:55:22Z</time>
      </trkpt>
      <trkpt lat="43.45965" lon="3.79435">
        <ele>1</ele>
        <time>2020-01-14T08:55:24Z</time>
      </trkpt>
      <trkpt lat="43.45964" lon="3.79433">
        <ele>1</ele>
        <time>2020-01-14T08:55:26Z</time>
      </trkpt>
      <trkpt lat="43.45963" lon="3.79431">
        <ele>1</ele>
        <time>2020-01-14T08:55:27Z</time>
      </trkpt>
      <trkpt lat="43.45962" lon="3.79427">
        <ele>1</ele>
        <time>2020-01-14T08:55:28Z</time>
      </trkpt>
      <trkpt lat="43.45961" lon="3.79425">
        <ele>1</ele>
        <time>2020-01-14T08:55:30Z</time>
      </trkpt>
      <trkpt lat="43.4596" lon="3.79422">
        <ele>1</ele>
        <time>2020-01-14T08:55:32Z</time>
      </trkpt>
      <trkpt lat="43.45959" lon="3.7942">
        <ele>1</ele>
        <time>2020-01-14T08:55:34Z</time>
      </trkpt>
      <trkpt lat="43.45958" lon="3.79418">
        <ele>1</ele>
        <time>2020-01-14T08:55:36Z</time>
      </trkpt>
      <trkpt lat="43.45957" lon="3.79416">
        <ele>1</ele>
        <time>2020-01-14T08:55:37Z</time>
      </trkpt>
      <trkpt lat="43.45956" lon="3.79412">
        <ele>1</ele>
        <time>2020-01-14T08:55:38Z</time>
      </trkpt>
      <trkpt lat="43.45955" lon="3.7941">
        <ele>1</ele>
        <time>2020-01-14T08:55:40Z</time>
      </trkpt>
      <trkpt lat="43.45954" lon="3.79408">
        <ele>1</ele>
        <time>2020-01-14T08:55:42Z</time>
      </trkpt>
      <trkpt lat="43.45953" lon="3.79405">
        <ele>1</ele>
        <time>2020-01-14T08:55:44Z</time>
      </trkpt>
      <trkpt lat="43.45952" lon="3.79403">
        <ele>1</ele>
        <time>2020-01-14T08:55:46Z</time>
      </trkpt>
      <trkpt lat="43.45951" lon="3.79401">
        <ele>1</ele>
        <time>2020-01-14T08:55:47Z</time>
      </trkpt>
      <trkpt lat="43.45949" lon="3.79398">
        <ele>1</ele>
        <time>2020-01-14T08:55:48Z</time>
      </trkpt>
      <trkpt lat="43.45948" lon="3.79396">
        <ele>1</ele>
        <time>2020-01-14T08:55:50Z</time>
      </trkpt>
      <trkpt lat="43.45946" lon="3.79394">
        <ele>1</ele>
        <time>2020-01-14T08:55:52Z</time>
      </trkpt>
      <trkpt lat="43.45945" lon="3.79392">
        <ele>1</ele>
        <time>2020-01-14T08:55:54Z</time>
      </trkpt>
      <trkpt lat="43.45944" lon="3.79391">
        <ele>1</ele>
        <time>2020-01-14T08:55:56Z</time>
      </trkpt>
      <trkpt lat="43.45943" lon="3.79389">
        <ele>1</ele>
        <time>2020-01-14T08:55:57Z</time>
      </trkpt>
      <trkpt lat="43.45941" lon="3.79385">
        <ele>1</ele>
        <time>2020-01-14T08:55:58Z</time>
      </trkpt>
      <trkpt lat="43.4594" lon="3.79383">
        <ele>1</ele>
        <time>2020-01-14T08:56:00Z</time>
      </trkpt>
      <trkpt lat="43.45939" lon="3.79381">
        <ele>1</ele>
        <time>2020-01-14T08:56:02Z</time>
      </trkpt>
      <trkpt lat="43.45938" lon="3.79379">
        <ele>1</ele>
        <time>2020-01-14T08:56:04Z</time>
      </trkpt>
      <trkpt lat="43.45937" lon="3.79377">
        <ele>1</ele>
        <time>2020-01-14T08:56:06Z</time>
      </trkpt>
      <trkpt lat="43.45936" lon="3.79374">
        <ele>1</ele>
        <time>2020-01-14T08:56:07Z</time>
      </trkpt>
      <trkpt lat="43.45935" lon="3.79371">
        <ele>1</ele>
        <time>2020-01-14T08:56:08Z</time>
      </trkpt>
      <trkpt lat="43.45934" lon="3.79369">
        <ele>1</ele>
        <time>2020-01-14T08:56:10Z</time>
      </trkpt>
      <trkpt lat="43.45933" lon="3.79366">
        <ele>1</ele>
        <time>2020-01-14T08:56:12Z</time>
      </trkpt>
      <trkpt lat="43.45932" lon="3.79364">
        <ele>1</ele>
        <time>2020-01-14T08:56:14Z</time>
      </trkpt>
      <trkpt lat="43.45931" lon="3.79362">
        <ele>1</ele>
        <time>2020-01-14T08:56:16Z</time>
      </trkpt>
      <trkpt lat="43.4593" lon="3.7936">
        <ele>1</ele>
        <time>2020-01-14T08:56:17Z</time>
      </trkpt>
      <trkpt lat="43.45929" lon="3.79356">
        <ele>1</ele>
        <time>2020-01-14T08:56:18Z</time>
      </trkpt>
      <trkpt lat="43.45928" lon="3.79354">
        <ele>1</ele>
        <time>2020-01-14T08:56:20Z</time>
      </trkpt>
      <trkpt lat="43.45928" lon="3.79351">
        <ele>1</ele>
        <time>2020-01-14T08:56:22Z</time>
      </trkpt>
      <trkpt lat="43.45927" lon="3.79349">
        <ele>1</ele>
        <time>2020-01-14T08:56:24Z</time>
      </trkpt>
      <trkpt lat="43.45926" lon="3.79347">
        <ele>1</ele>
        <time>2020-01-14T08:56:26Z</time>
      </trkpt>
      <trkpt lat="43.45926" lon="3.79344">
        <ele>1</ele>
        <time>2020-01-14T08:56:27Z</time>
      </trkpt>
      <trkpt lat="43.45925" lon="3.7934">
        <ele>1</ele>
        <time>2020-01-14T08:56:28Z</time>
      </trkpt>
      <trkpt lat="43.45924" lon="3.79338">
        <ele>1</ele>
        <time>2020-01-14T08:56:30Z</time>
      </trkpt>
      <trkpt lat="43.45923" lon="3.79336">
        <ele>1</ele>
        <time>2020-01-14T08:56:32Z</time>
      </trkpt>
      <trkpt lat="43.45923" lon="3.79333">
        <ele>1</ele>
        <time>2020-01-14T08:56:34Z</time>
      </trkpt>
      <trkpt lat="43.45922" lon="3.79331">
        <ele>1</ele>
        <time>2020-01-14T08:56:36Z</time>
      </trkpt>
      <trkpt lat="43.45921" lon="3.79329">
        <ele>1</ele>
        <time>2020-01-14T08:56:37Z</time>
      </trkpt>
      <trkpt lat="43.45921" lon="3.79325">
        <ele>1</ele>
        <time>2020-01-14T08:56:38Z</time>
      </trkpt>
      <trkpt lat="43.4592" lon="3.79323">
        <ele>1</ele>
        <time>2020-01-14T08:56:40Z</time>
      </trkpt>
      <trkpt lat="43.4592" lon="3.7932">
        <ele>1</ele>
        <time>2020-01-14T08:56:42Z</time>
      </trkpt>
      <trkpt lat="43.45919" lon="3.79318">
        <ele>1</ele>
        <time>2020-01-14T08:56:44Z</time>
      </trkpt>
      <trkpt lat="43.45918" lon="3.79316">
        <ele>1</ele>
        <time>2020-01-14T08:56:46Z</time>
      </trkpt>
      <trkpt lat="43.45918" lon="3.79313">
        <ele>1</ele>
        <time>2020-01-14T08:56:47Z</time>
      </trkpt>
      <trkpt lat="43.45917" lon="3.7931">
        <ele>1</ele>
        <time>2020-01-14T08:56:48Z</time>
      </trkpt>
      <trkpt lat="43.45916" lon="3.79308">
        <ele>1</ele>
        <time>2020-01-14T08:56:50Z</time>
      </trkpt>
      <trkpt lat="43.45915" lon="3.79306">
        <ele>1</ele>
        <time>2020-01-14T08:56:52Z</time>
      </trkpt>
      <trkpt lat="43.45915" lon="3.79304">
        <ele>1</ele>
        <time>2020-01-14T08:56:54Z</time>
      </trkpt>
      <trkpt lat="43.45914" lon="3.79301">
        <ele>1</ele>
        <time>2020-01-14T08:56:56Z</time>
      </trkpt>
      <trkpt lat="43.45913" lon="3.79299">
        <ele>1</ele>
        <time>2020-01-14T08:56:57Z</time>
      </trkpt>
      <trkpt lat="43.45911" lon="3.79297">
        <ele>1</ele>
        <time>2020-01-14T08:56:58Z</time>
      </trkpt>
      <trkpt lat="43.4591" lon="3.79295">
        <ele>1</ele>
        <time>2020-01-14T08:57:00Z</time>
      </trkpt>
      <trkpt lat="43.45909" lon="3.79293">
        <ele>1</ele>
        <time>2020-01-14T08:57:02Z</time>
      </trkpt>
      <trkpt lat="43.45908" lon="3.79291">
        <ele>1</ele>
        <time>2020-01-14T08:57:04Z</time>
      </trkpt>
      <trkpt lat="43.45907" lon="3.7929">
        <ele>1</ele>
        <time>2020-01-14T08:57:06Z</time>
      </trkpt>
      <trkpt lat="43.45905" lon="3.79288">
        <ele>1</ele>
        <time>2020-01-14T08:57:07Z</time>
      </trkpt>
      <trkpt lat="43.45904" lon="3.79285">
        <ele>1</ele>
        <time>2020-01-14T08:57:08Z</time>
      </trkpt>
      <trkpt lat="43.45902" lon="3.79283">
        <ele>1</ele>
        <time>2020-01-14T08:57:10Z</time>
      </trkpt>
      <trkpt lat="43.45901" lon="3.79282">
        <ele>1</ele>
        <time>2020-01-14T08:57:12Z</time>
      </trkpt>
      <trkpt lat="43.459" lon="3.7928">
        <ele>1</ele>
        <time>2020-01-14T08:57:14Z</time>
      </trkpt>
      <trkpt lat="43.45899" lon="3.79278">
        <ele>1</ele>
        <time>2020-01-14T08:57:16Z</time>
      </trkpt>
      <trkpt lat="43.45898" lon="3.79276">
        <ele>1</ele>
        <time>2020-01-14T08:57:17Z</time>
      </trkpt>
      <trkpt lat="43.45896" lon="3.79273">
        <ele>1</ele>
        <time>2020-01-14T08:57:18Z</time>
      </trkpt>
      <trkpt lat="43.45895" lon="3.79271">
        <ele>1</ele>
        <time>2020-01-14T08:57:20Z</time>
      </trkpt>
      <trkpt lat="43.45894" lon="3.79269">
        <ele>1</ele>
        <time>2020-01-14T08:57:22Z</time>
      </trkpt>
      <trkpt lat="43.45893" lon="3.79267">
        <ele>1</ele>
        <time>2020-01-14T08:57:24Z</time>
      </trkpt>
      <trkpt lat="43.45892" lon="3.79265">
        <ele>1</ele>
        <time>2020-01-14T08:57:26Z</time>
      </trkpt>
      <trkpt lat="43.45891" lon="3.79263">
        <ele>1</ele>
        <time>2020-01-14T08:57:27Z</time>
      </trkpt>
      <trkpt lat="43.45889" lon="3.7926">
        <ele>1</ele>
        <time>2020-01-14T08:57:28Z</time>
      </trkpt>
      <trkpt lat="43.45888" lon="3.79258">
        <ele>1</ele>
        <time>2020-01-14T08:57:30Z</time>
      </trkpt>
      <trkpt lat="43.45887" lon="3.79256">
        <ele>1</ele>
        <time>2020-01-14T08:57:32Z</time>
      </trkpt>
      <trkpt lat="43.45886" lon="3.79254">
        <ele>1</ele>
        <time>2020-01-14T08:57:34Z</time>
      </trkpt>
      <trkpt lat="43.45885" lon="3.79252">
        <ele>1</ele>
        <time>2020-01-14T08:57:36Z</time>
      </trkpt>
      <trkpt lat="43.45884" lon="3.7925">
        <ele>1</ele>
        <time>2020-01-14T08:57:37Z</time>
      </trkpt>
      <trkpt lat="43.45882" lon="3.79247">
        <ele>1</ele>
        <time>2020-01-14T08:57:38Z</time>
      </trkpt>
      <trkpt lat="43.45881" lon="3.79245">
        <ele>1</ele>
        <time>2020-01-14T08:57:40Z</time>
      </trkpt>
      <trkpt lat="43.4588" lon="3.79243">
        <ele>1</ele>
        <time>2020-01-14T08:57:42Z</time>
      </trkpt>
      <trkpt lat="43.45879" lon="3.79241">
        <ele>1</ele>
        <time>2020-01-14T08:57:44Z</time>
      </trkpt>
      <trkpt lat="43.45878" lon="3.7924">
        <ele>1</ele>
        <time>2020-01-14T08:57:46Z</time>
      </trkpt>
      <trkpt lat="43.45876" lon="3.79238">
        <ele>1</ele>
        <time>2020-01-14T08:57:47Z</time>
      </trkpt>
      <trkpt lat="43.45874" lon="3.79235">
        <ele>1</ele>
        <time>2020-01-14T08:57:48Z</time>
      </trkpt>
      <trkpt lat="43.45873" lon="3.79234">
        <ele>1</ele>
        <time>2020-01-14T08:57:50Z</time>
      </trkpt>
      <trkpt lat="43.45872" lon="3.79232">
        <ele>1</ele>
        <time>2020-01-14T08:57:52Z</time>
      </trkpt>
      <trkpt lat="43.45871" lon="3.79231">
        <ele>1</ele>
        <time>2020-01-14T08:57:54Z</time>
      </trkpt>
      <trkpt lat="43.45869" lon="3.79229">
        <ele>1</ele>
        <time>2020-01-14T08:57:56Z</time>
      </trkpt>
      <trkpt lat="43.45868" lon="3.79227">
        <ele>1</ele>
        <time>2020-01-14T08:57:57Z</time>
      </trkpt>
      <trkpt lat="43.45866" lon="3.79225">
        <ele>1</ele>
        <time>2020-01-14T08:57:58Z</time>
      </trkpt>
      <trkpt lat="43.45865" lon="3.79223">
        <ele>1</ele>
        <time>2020-01-14T08:58:00Z</time>
      </trkpt>
      <trkpt lat="43.45864" lon="3.79222">
        <ele>1</ele>
        <time>2020-01-14T08:58:02Z</time>
      </trkpt>
      <trkpt lat="43.45862" lon="3.7922">
        <ele>1</ele>
        <time>2020-01-14T08:58:04Z</time>
      </trkpt>
      <trkpt lat="43.45861" lon="3.79219">
        <ele>1</ele>
        <time>2020-01-14T08:58:06Z</time>
      </trkpt>
      <trkpt lat="43.4586" lon="3.79217">
        <ele>1</ele>
        <time>2020-01-14T08:58:07Z</time>
      </trkpt>
      <trkpt lat="43.45858" lon="3.79215">
        <ele>1</ele>
        <time>2020-01-14T08:58:08Z</time>
      </trkpt>
      <trkpt lat="43.45857" lon="3.79213">
        <ele>1</ele>
        <time>2020-01-14T08:58:10Z</time>
      </trkpt>
      <trkpt lat="43.45856" lon="3.79212">
        <ele>1</ele>
        <time>2020-01-14T08:58:12Z</time>
      </trkpt>
      <trkpt lat="43.45855" lon="3.7921">
        <ele>1</ele>
        <time>2020-01-14T08:58:14Z</time>
      </trkpt>
      <trkpt lat="43.45854" lon="3.79209">
        <ele>1</ele>
        <time>2020-01-14T08:58:16Z</time>
      </trkpt>
      <trkpt lat="43.45853" lon="3.79207">
        <ele>1</ele>
        <time>2020-01-14T08:58:17Z</time>
      </trkpt>
      <trkpt lat="43.45851" lon="3.79205">
        <ele>1</ele>
        <time>2020-01-14T08:58:18Z</time>
      </trkpt>
      <trkpt lat="43.4585" lon="3.79204">
        <ele>1</ele>
        <time>2020-01-14T08:58:20Z</time>
      </trkpt>
      <trkpt lat="43.45849" lon="3.79202">
        <ele>1</ele>
        <time>2020-01-14T08:58:22Z</time>
      </trkpt>
      <trkpt lat="43.45848" lon="3.79201">
        <ele>1</ele>
        <time>2020-01-14T08:58:24Z</time>
      </trkpt>
      <trkpt lat="43.45847" lon="3.792">
        <ele>1</ele>
        <time>2020-01-14T08:58:26Z</time>
      </trkpt>
      <trkpt lat="43.45846" lon="3.79198">
        <ele>1</ele>
        <time>2020-01-14T08:58:27Z</time>
      </trkpt>
      <trkpt lat="43.45844" lon="3.79194">
        <ele>1</ele>
        <time>2020-01-14T08:58:28Z</time>
      </trkpt>
      <trkpt lat="43.45843" lon="3.79192">
        <ele>1</ele>
        <time>2020-01-14T08:58:30Z</time>
      </trkpt>
      <trkpt lat="43.45842" lon="3.7919">
        <ele>1</ele>
        <time>2020-01-14T08:58:32Z</time>
      </trkpt>
      <trkpt lat="43.45841" lon="3.79188">
        <ele>1</ele>
        <time>2020-01-14T08:58:34Z</time>
      </trkpt>
      <trkpt lat="43.4584" lon="3.79186">
        <ele>1</ele>
        <time>2020-01-14T08:58:36Z</time>
      </trkpt>
      <trkpt lat="43.4584" lon="3.79184">
        <ele>1</ele>
        <time>2020-01-14T08:58:37Z</time>
      </trkpt>
      <trkpt lat="43.45839" lon="3.79181">
        <ele>1</ele>
        <time>2020-01-14T08:58:38Z</time>
      </trkpt>
      <trkpt lat="43.45839" lon="3.79178">
        <ele>1</ele>
        <time>2020-01-14T08:58:40Z</time>
      </trkpt>
      <trkpt lat="43.45838" lon="3.79176">
        <ele>1</ele>
        <time>2020-01-14T08:58:42Z</time>
      </trkpt>
      <trkpt lat="43.45838" lon="3.79174">
        <ele>1</ele>
        <time>2020-01-14T08:58:44Z</time>
      </trkpt>
      <trkpt lat="43.45837" lon="3.79172">
        <ele>1</ele>
        <time>2020-01-14T08:58:46Z</time>
      </trkpt>
      <trkpt lat="43.45837" lon="3.79169">
        <ele>1</ele>
        <time>2020-01-14T08:58:47Z</time>
      </trkpt>
      <trkpt lat="43.45837" lon="3.79166">
        <ele>1</ele>
        <time>2020-01-14T08:58:48Z</time>
      </trkpt>
      <trkpt lat="43.45837" lon="3.79163">
        <ele>1</ele>
        <time>2020-01-14T08:58:50Z</time>
      </trkpt>
      <trkpt lat="43.45837" lon="3.79161">
        <ele>1</ele>
        <time>2020-01-14T08:58:52Z</time>
      </trkpt>
      <trkpt lat="43.45837" lon="3.79159">
        <ele>1</ele>
        <time>2020-01-14T08:58:54Z</time>
      </trkpt>
      <trkpt lat="43.45836" lon="3.79156">
        <ele>1</ele>
        <time>2020-01-14T08:58:56Z</time>
      </trkpt>
      <trkpt lat="43.45836" lon="3.79154">
        <ele>1</ele>
        <time>2020-01-14T08:58:57Z</time>
      </trkpt>
      <trkpt lat="43.45836" lon="3.7915">
        <ele>1</ele>
        <time>2020-01-14T08:58:58Z</time>
      </trkpt>
      <trkpt lat="43.45836" lon="3.79148">
        <ele>1</ele>
        <time>2020-01-14T08:59:00Z</time>
      </trkpt>
      <trkpt lat="43.45836" lon="3.79145">
        <ele>1</ele>
        <time>2020-01-14T08:59:02Z</time>
      </trkpt>
      <trkpt lat="43.45836" lon="3.79143">
        <ele>1</ele>
        <time>2020-01-14T08:59:04Z</time>
      </trkpt>
      <trkpt lat="43.45836" lon="3.79141">
        <ele>1</ele>
        <time>2020-01-14T08:59:06Z</time>
      </trkpt>
      <trkpt lat="43.45836" lon="3.79138">
        <ele>1</ele>
        <time>2020-01-14T08:59:07Z</time>
      </trkpt>
      <trkpt lat="43.45836" lon="3.79134">
        <ele>1</ele>
        <time>2020-01-14T08:59:08Z</time>
      </trkpt>
      <trkpt lat="43.45836" lon="3.79132">
        <ele>1</ele>
        <time>2020-01-14T08:59:10Z</time>
      </trkpt>
      <trkpt lat="43.45836" lon="3.7913">
        <ele>1</ele>
        <time>2020-01-14T08:59:12Z</time>
      </trkpt>
      <trkpt lat="43.45835" lon="3.79127">
        <ele>1</ele>
        <time>2020-01-14T08:59:14Z</time>
      </trkpt>
      <trkpt lat="43.45835" lon="3.79125">
        <ele>1</ele>
        <time>2020-01-14T08:59:16Z</time>
      </trkpt>
      <trkpt lat="43.45835" lon="3.79123">
        <ele>1</ele>
        <time>2020-01-14T08:59:17Z</time>
      </trkpt>
      <trkpt lat="43.45834" lon="3.79118">
        <ele>1</ele>
        <time>2020-01-14T08:59:18Z</time>
      </trkpt>
      <trkpt lat="43.45834" lon="3.79116">
        <ele>1</ele>
        <time>2020-01-14T08:59:20Z</time>
      </trkpt>
      <trkpt lat="43.45833" lon="3.79113">
        <ele>1</ele>
        <time>2020-01-14T08:59:22Z</time>
      </trkpt>
      <trkpt lat="43.45832" lon="3.79111">
        <ele>1</ele>
        <time>2020-01-14T08:59:24Z</time>
      </trkpt>
      <trkpt lat="43.45832" lon="3.79109">
        <ele>1</ele>
        <time>2020-01-14T08:59:26Z</time>
      </trkpt>
      <trkpt lat="43.45831" lon="3.79106">
        <ele>1</ele>
        <time>2020-01-14T08:59:27Z</time>
      </trkpt>
      <trkpt lat="43.45831" lon="3.79103">
        <ele>1</ele>
        <time>2020-01-14T08:59:28Z</time>
      </trkpt>
      <trkpt lat="43.45831" lon="3.79101">
        <ele>1</ele>
        <time>2020-01-14T08:59:30Z</time>
      </trkpt>
      <trkpt lat="43.45831" lon="3.79099">
        <ele>1</ele>
        <time>2020-01-14T08:59:33Z</time>
      </trkpt>
      <trkpt lat="43.45831" lon="3.79097">
        <ele>1</ele>
        <time>2020-01-14T08:59:36Z</time>
      </trkpt>
      <trkpt lat="43.4583" lon="3.79096">
        <ele>1</ele>
        <time>2020-01-14T08:59:37Z</time>
      </trkpt>
      <trkpt lat="43.4583" lon="3.7909">
        <ele>1</ele>
        <time>2020-01-14T08:59:38Z</time>
      </trkpt>
      <trkpt lat="43.4583" lon="3.79088">
        <ele>1</ele>
        <time>2020-01-14T08:59:40Z</time>
      </trkpt>
      <trkpt lat="43.45829" lon="3.79085">
        <ele>1</ele>
        <time>2020-01-14T08:59:42Z</time>
      </trkpt>
      <trkpt lat="43.45829" lon="3.79083">
        <ele>1</ele>
        <time>2020-01-14T08:59:44Z</time>
      </trkpt>
      <trkpt lat="43.45829" lon="3.7908">
        <ele>1</ele>
        <time>2020-01-14T08:59:46Z</time>
      </trkpt>
      <trkpt lat="43.45828" lon="3.79078">
        <ele>1</ele>
        <time>2020-01-14T08:59:47Z</time>
      </trkpt>
      <trkpt lat="43.45827" lon="3.79075">
        <ele>1</ele>
        <time>2020-01-14T08:59:48Z</time>
      </trkpt>
      <trkpt lat="43.45826" lon="3.79073">
        <ele>1</ele>
        <time>2020-01-14T08:59:50Z</time>
      </trkpt>
      <trkpt lat="43.45825" lon="3.79071">
        <ele>1</ele>
        <time>2020-01-14T08:59:52Z</time>
      </trkpt>
      <trkpt lat="43.45824" lon="3.79069">
        <ele>1</ele>
        <time>2020-01-14T08:59:54Z</time>
      </trkpt>
      <trkpt lat="43.45823" lon="3.79067">
        <ele>1</ele>
        <time>2020-01-14T08:59:56Z</time>
      </trkpt>
      <trkpt lat="43.45823" lon="3.79065">
        <ele>1</ele>
        <time>2020-01-14T08:59:57Z</time>
      </trkpt>
      <trkpt lat="43.45821" lon="3.79062">
        <ele>1</ele>
        <time>2020-01-14T08:59:58Z</time>
      </trkpt>
      <trkpt lat="43.45819" lon="3.7906">
        <ele>1</ele>
        <time>2020-01-14T09:00:00Z</time>
      </trkpt>
      <trkpt lat="43.45818" lon="3.79058">
        <ele>1</ele>
        <time>2020-01-14T09:00:02Z</time>
      </trkpt>
      <trkpt lat="43.45817" lon="3.79057">
        <ele>1</ele>
        <time>2020-01-14T09:00:04Z</time>
      </trkpt>
      <trkpt lat="43.45816" lon="3.79055">
        <ele>1</ele>
        <time>2020-01-14T09:00:06Z</time>
      </trkpt>
      <trkpt lat="43.45814" lon="3.79053">
        <ele>1</ele>
        <time>2020-01-14T09:00:07Z</time>
      </trkpt>
      <trkpt lat="43.45813" lon="3.79049">
        <ele>1</ele>
        <time>2020-01-14T09:00:08Z</time>
      </trkpt>
      <trkpt lat="43.45813" lon="3.79046">
        <ele>1</ele>
        <time>2020-01-14T09:00:10Z</time>
      </trkpt>
      <trkpt lat="43.45812" lon="3.79044">
        <ele>1</ele>
        <time>2020-01-14T09:00:12Z</time>
      </trkpt>
      <trkpt lat="43.45812" lon="3.79041">
        <ele>1</ele>
        <time>2020-01-14T09:00:14Z</time>
      </trkpt>
      <trkpt lat="43.45811" lon="3.79038">
        <ele>1</ele>
        <time>2020-01-14T09:00:16Z</time>
      </trkpt>
      <trkpt lat="43.45811" lon="3.79036">
        <ele>1</ele>
        <time>2020-01-14T09:00:17Z</time>
      </trkpt>
      <trkpt lat="43.4581" lon="3.79034">
        <ele>1</ele>
        <time>2020-01-14T09:00:18Z</time>
      </trkpt>
      <trkpt lat="43.4581" lon="3.7903">
        <ele>1</ele>
        <time>2020-01-14T09:00:20Z</time>
      </trkpt>
      <trkpt lat="43.4581" lon="3.79026">
        <ele>1</ele>
        <time>2020-01-14T09:00:22Z</time>
      </trkpt>
      <trkpt lat="43.45811" lon="3.79024">
        <ele>1</ele>
        <time>2020-01-14T09:00:24Z</time>
      </trkpt>
      <trkpt lat="43.45811" lon="3.7902">
        <ele>1</ele>
        <time>2020-01-14T09:00:27Z</time>
      </trkpt>
      <trkpt lat="43.45811" lon="3.79015">
        <ele>1</ele>
        <time>2020-01-14T09:00:29Z</time>
      </trkpt>
      <trkpt lat="43.4581" lon="3.79013">
        <ele>1</ele>
        <time>2020-01-14T09:00:31Z</time>
      </trkpt>
      <trkpt lat="43.4581" lon="3.79011">
        <ele>1</ele>
        <time>2020-01-14T09:00:34Z</time>
      </trkpt>
      <trkpt lat="43.4581" lon="3.79009">
        <ele>1</ele>
        <time>2020-01-14T09:00:36Z</time>
      </trkpt>
      <trkpt lat="43.4581" lon="3.79007">
        <ele>1</ele>
        <time>2020-01-14T09:00:37Z</time>
      </trkpt>
      <trkpt lat="43.45808" lon="3.79003">
        <ele>1</ele>
        <time>2020-01-14T09:00:38Z</time>
      </trkpt>
      <trkpt lat="43.45808" lon="3.79">
        <ele>1</ele>
        <time>2020-01-14T09:00:40Z</time>
      </trkpt>
      <trkpt lat="43.45807" lon="3.78998">
        <ele>1</ele>
        <time>2020-01-14T09:00:42Z</time>
      </trkpt>
      <trkpt lat="43.45806" lon="3.78995">
        <ele>1</ele>
        <time>2020-01-14T09:00:44Z</time>
      </trkpt>
      <trkpt lat="43.45805" lon="3.78992">
        <ele>1</ele>
        <time>2020-01-14T09:00:46Z</time>
      </trkpt>
      <trkpt lat="43.45805" lon="3.7899">
        <ele>1</ele>
        <time>2020-01-14T09:00:47Z</time>
      </trkpt>
      <trkpt lat="43.45804" lon="3.78985">
        <ele>1</ele>
        <time>2020-01-14T09:00:48Z</time>
      </trkpt>
      <trkpt lat="43.45804" lon="3.78983">
        <ele>1</ele>
        <time>2020-01-14T09:00:50Z</time>
      </trkpt>
      <trkpt lat="43.45804" lon="3.7898">
        <ele>1</ele>
        <time>2020-01-14T09:00:52Z</time>
      </trkpt>
      <trkpt lat="43.45804" lon="3.78977">
        <ele>1</ele>
        <time>2020-01-14T09:00:54Z</time>
      </trkpt>
      <trkpt lat="43.45804" lon="3.78975">
        <ele>1</ele>
        <time>2020-01-14T09:00:56Z</time>
      </trkpt>
      <trkpt lat="43.45804" lon="3.78972">
        <ele>1</ele>
        <time>2020-01-14T09:00:57Z</time>
      </trkpt>
      <trkpt lat="43.45804" lon="3.78968">
        <ele>1</ele>
        <time>2020-01-14T09:00:58Z</time>
      </trkpt>
      <trkpt lat="43.45804" lon="3.78965">
        <ele>1</ele>
        <time>2020-01-14T09:01:00Z</time>
      </trkpt>
      <trkpt lat="43.45804" lon="3.78963">
        <ele>1</ele>
        <time>2020-01-14T09:01:02Z</time>
      </trkpt>
      <trkpt lat="43.45804" lon="3.7896">
        <ele>1</ele>
        <time>2020-01-14T09:01:04Z</time>
      </trkpt>
      <trkpt lat="43.45804" lon="3.78958">
        <ele>1</ele>
        <time>2020-01-14T09:01:06Z</time>
      </trkpt>
      <trkpt lat="43.45805" lon="3.78955">
        <ele>1</ele>
        <time>2020-01-14T09:01:07Z</time>
      </trkpt>
      <trkpt lat="43.45807" lon="3.78952">
        <ele>1</ele>
        <time>2020-01-14T09:01:08Z</time>
      </trkpt>
      <trkpt lat="43.45808" lon="3.7895">
        <ele>1</ele>
        <time>2020-01-14T09:01:10Z</time>
      </trkpt>
      <trkpt lat="43.4581" lon="3.78949">
        <ele>1</ele>
        <time>2020-01-14T09:01:12Z</time>
      </trkpt>
      <trkpt lat="43.45811" lon="3.78947">
        <ele>1</ele>
        <time>2020-01-14T09:01:14Z</time>
      </trkpt>
      <trkpt lat="43.45812" lon="3.78945">
        <ele>1</ele>
        <time>2020-01-14T09:01:16Z</time>
      </trkpt>
      <trkpt lat="43.45814" lon="3.78944">
        <ele>1</ele>
        <time>2020-01-14T09:01:17Z</time>
      </trkpt>
      <trkpt lat="43.45816" lon="3.7894">
        <ele>1</ele>
        <time>2020-01-14T09:01:18Z</time>
      </trkpt>
      <trkpt lat="43.45817" lon="3.78938">
        <ele>1</ele>
        <time>2020-01-14T09:01:20Z</time>
      </trkpt>
      <trkpt lat="43.45818" lon="3.78936">
        <ele>1</ele>
        <time>2020-01-14T09:01:22Z</time>
      </trkpt>
      <trkpt lat="43.45819" lon="3.78935">
        <ele>1</ele>
        <time>2020-01-14T09:01:24Z</time>
      </trkpt>
      <trkpt lat="43.4582" lon="3.78933">
        <ele>1</ele>
        <time>2020-01-14T09:01:26Z</time>
      </trkpt>
      <trkpt lat="43.45822" lon="3.78931">
        <ele>1</ele>
        <time>2020-01-14T09:01:27Z</time>
      </trkpt>
      <trkpt lat="43.45823" lon="3.78927">
        <ele>1</ele>
        <time>2020-01-14T09:01:28Z</time>
      </trkpt>
      <trkpt lat="43.45824" lon="3.78925">
        <ele>1</ele>
        <time>2020-01-14T09:01:30Z</time>
      </trkpt>
      <trkpt lat="43.45825" lon="3.78923">
        <ele>1</ele>
        <time>2020-01-14T09:01:32Z</time>
      </trkpt>
      <trkpt lat="43.45827" lon="3.78921">
        <ele>1</ele>
        <time>2020-01-14T09:01:34Z</time>
      </trkpt>
      <trkpt lat="43.45828" lon="3.78919">
        <ele>1</ele>
        <time>2020-01-14T09:01:36Z</time>
      </trkpt>
      <trkpt lat="43.45829" lon="3.78917">
        <ele>1</ele>
        <time>2020-01-14T09:01:37Z</time>
      </trkpt>
      <trkpt lat="43.4583" lon="3.78914">
        <ele>1</ele>
        <time>2020-01-14T09:01:38Z</time>
      </trkpt>
      <trkpt lat="43.45831" lon="3.78912">
        <ele>1</ele>
        <time>2020-01-14T09:01:40Z</time>
      </trkpt>
      <trkpt lat="43.45832" lon="3.7891">
        <ele>1</ele>
        <time>2020-01-14T09:01:42Z</time>
      </trkpt>
      <trkpt lat="43.45833" lon="3.78908">
        <ele>1</ele>
        <time>2020-01-14T09:01:44Z</time>
      </trkpt>
      <trkpt lat="43.45834" lon="3.78906">
        <ele>1</ele>
        <time>2020-01-14T09:01:46Z</time>
      </trkpt>
      <trkpt lat="43.45835" lon="3.78904">
        <ele>1</ele>
        <time>2020-01-14T09:01:47Z</time>
      </trkpt>
      <trkpt lat="43.45837" lon="3.78901">
        <ele>1</ele>
        <time>2020-01-14T09:01:48Z</time>
      </trkpt>
      <trkpt lat="43.45838" lon="3.78899">
        <ele>1</ele>
        <time>2020-01-14T09:01:50Z</time>
      </trkpt>
      <trkpt lat="43.45839" lon="3.78897">
        <ele>1</ele>
        <time>2020-01-14T09:01:52Z</time>
      </trkpt>
      <trkpt lat="43.4584" lon="3.78896">
        <ele>1</ele>
        <time>2020-01-14T09:01:54Z</time>
      </trkpt>
      <trkpt lat="43.45841" lon="3.78894">
        <ele>1</ele>
        <time>2020-01-14T09:01:56Z</time>
      </trkpt>
      <trkpt lat="43.45842" lon="3.78892">
        <ele>1</ele>
        <time>2020-01-14T09:01:57Z</time>
      </trkpt>
      <trkpt lat="43.45844" lon="3.78888">
        <ele>1</ele>
        <time>2020-01-14T09:01:58Z</time>
      </trkpt>
      <trkpt lat="43.45845" lon="3.78886">
        <ele>1</ele>
        <time>2020-01-14T09:02:00Z</time>
      </trkpt>
      <trkpt lat="43.45846" lon="3.78884">
        <ele>1</ele>
        <time>2020-01-14T09:02:02Z</time>
      </trkpt>
      <trkpt lat="43.45847" lon="3.78882">
        <ele>1</ele>
        <time>2020-01-14T09:02:04Z</time>
      </trkpt>
      <trkpt lat="43.45847" lon="3.7888">
        <ele>1</ele>
        <time>2020-01-14T09:02:06Z</time>
      </trkpt>
      <trkpt lat="43.45848" lon="3.78878">
        <ele>1</ele>
        <time>2020-01-14T09:02:07Z</time>
      </trkpt>
      <trkpt lat="43.4585" lon="3.78874">
        <ele>1</ele>
        <time>2020-01-14T09:02:08Z</time>
      </trkpt>
      <trkpt lat="43.45851" lon="3.78872">
        <ele>1</ele>
        <time>2020-01-14T09:02:10Z</time>
      </trkpt>
      <trkpt lat="43.45852" lon="3.7887">
        <ele>1</ele>
        <time>2020-01-14T09:02:12Z</time>
      </trkpt>
      <trkpt lat="43.45853" lon="3.78868">
        <ele>1</ele>
        <time>2020-01-14T09:02:14Z</time>
      </trkpt>
      <trkpt lat="43.45853" lon="3.78866">
        <ele>1</ele>
        <time>2020-01-14T09:02:16Z</time>
      </trkpt>
      <trkpt lat="43.45854" lon="3.78864">
        <ele>1</ele>
        <time>2020-01-14T09:02:17Z</time>
      </trkpt>
      <trkpt lat="43.45855" lon="3.7886">
        <ele>1</ele>
        <time>2020-01-14T09:02:18Z</time>
      </trkpt>
      <trkpt lat="43.45855" lon="3.78858">
        <ele>1</ele>
        <time>2020-01-14T09:02:20Z</time>
      </trkpt>
      <trkpt lat="43.45856" lon="3.78856">
        <ele>1</ele>
        <time>2020-01-14T09:02:22Z</time>
      </trkpt>
      <trkpt lat="43.45856" lon="3.78853">
        <ele>1</ele>
        <time>2020-01-14T09:02:24Z</time>
      </trkpt>
      <trkpt lat="43.45857" lon="3.78851">
        <ele>1</ele>
        <time>2020-01-14T09:02:26Z</time>
      </trkpt>
      <trkpt lat="43.45857" lon="3.78849">
        <ele>1</ele>
        <time>2020-01-14T09:02:27Z</time>
      </trkpt>
      <trkpt lat="43.45858" lon="3.78845">
        <ele>1</ele>
        <time>2020-01-14T09:02:28Z</time>
      </trkpt>
      <trkpt lat="43.45858" lon="3.78842">
        <ele>1</ele>
        <time>2020-01-14T09:02:30Z</time>
      </trkpt>
      <trkpt lat="43.45858" lon="3.7884">
        <ele>1</ele>
        <time>2020-01-14T09:02:32Z</time>
      </trkpt>
      <trkpt lat="43.45858" lon="3.78838">
        <ele>1</ele>
        <time>2020-01-14T09:02:34Z</time>
      </trkpt>
      <trkpt lat="43.45858" lon="3.78835">
        <ele>1</ele>
        <time>2020-01-14T09:02:36Z</time>
      </trkpt>
      <trkpt lat="43.45858" lon="3.78833">
        <ele>1</ele>
        <time>2020-01-14T09:02:37Z</time>
      </trkpt>
      <trkpt lat="43.45859" lon="3.78829">
        <ele>1</ele>
        <time>2020-01-14T09:02:38Z</time>
      </trkpt>
      <trkpt lat="43.45859" lon="3.78826">
        <ele>1</ele>
        <time>2020-01-14T09:02:40Z</time>
      </trkpt>
      <trkpt lat="43.45859" lon="3.78824">
        <ele>1</ele>
        <time>2020-01-14T09:02:42Z</time>
      </trkpt>
      <trkpt lat="43.45859" lon="3.78822">
        <ele>1</ele>
        <time>2020-01-14T09:02:44Z</time>
      </trkpt>
      <trkpt lat="43.45859" lon="3.7882">
        <ele>1</ele>
        <time>2020-01-14T09:02:46Z</time>
      </trkpt>
      <trkpt lat="43.4586" lon="3.78817">
        <ele>1</ele>
        <time>2020-01-14T09:02:47Z</time>
      </trkpt>
      <trkpt lat="43.4586" lon="3.78814">
        <ele>1</ele>
        <time>2020-01-14T09:02:48Z</time>
      </trkpt>
      <trkpt lat="43.4586" lon="3.78812">
        <ele>1</ele>
        <time>2020-01-14T09:02:50Z</time>
      </trkpt>
      <trkpt lat="43.4586" lon="3.78809">
        <ele>1</ele>
        <time>2020-01-14T09:02:52Z</time>
      </trkpt>
      <trkpt lat="43.4586" lon="3.78807">
        <ele>1</ele>
        <time>2020-01-14T09:02:54Z</time>
      </trkpt>
      <trkpt lat="43.4586" lon="3.78805">
        <ele>1</ele>
        <time>2020-01-14T09:02:56Z</time>
      </trkpt>
      <trkpt lat="43.4586" lon="3.78803">
        <ele>1</ele>
        <time>2020-01-14T09:02:57Z</time>
      </trkpt>
      <trkpt lat="43.4586" lon="3.78799">
        <ele>1</ele>
        <time>2020-01-14T09:02:58Z</time>
      </trkpt>
      <trkpt lat="43.4586" lon="3.78797">
        <ele>1</ele>
        <time>2020-01-14T09:03:00Z</time>
      </trkpt>
      <trkpt lat="43.4586" lon="3.78794">
        <ele>1</ele>
        <time>2020-01-14T09:03:02Z</time>
      </trkpt>
      <trkpt lat="43.4586" lon="3.78792">
        <ele>1</ele>
        <time>2020-01-14T09:03:04Z</time>
      </trkpt>
      <trkpt lat="43.45859" lon="3.7879">
        <ele>1</ele>
        <time>2020-01-14T09:03:06Z</time>
      </trkpt>
      <trkpt lat="43.45859" lon="3.78788">
        <ele>1</ele>
        <time>2020-01-14T09:03:07Z</time>
      </trkpt>
      <trkpt lat="43.45859" lon="3.78784">
        <ele>1</ele>
        <time>2020-01-14T09:03:08Z</time>
      </trkpt>
      <trkpt lat="43.45859" lon="3.78781">
        <ele>1</ele>
        <time>2020-01-14T09:03:10Z</time>
      </trkpt>
      <trkpt lat="43.45859" lon="3.78779">
        <ele>1</ele>
        <time>2020-01-14T09:03:12Z</time>
      </trkpt>
      <trkpt lat="43.45859" lon="3.78777">
        <ele>1</ele>
        <time>2020-01-14T09:03:14Z</time>
      </trkpt>
      <trkpt lat="43.45859" lon="3.78774">
        <ele>1</ele>
        <time>2020-01-14T09:03:16Z</time>
      </trkpt>
      <trkpt lat="43.45859" lon="3.78772">
        <ele>1</ele>
        <time>2020-01-14T09:03:17Z</time>
      </trkpt>
      <trkpt lat="43.45858" lon="3.78768">
        <ele>1</ele>
        <time>2020-01-14T09:03:18Z</time>
      </trkpt>
      <trkpt lat="43.45858" lon="3.78766">
        <ele>1</ele>
        <time>2020-01-14T09:03:20Z</time>
      </trkpt>
      <trkpt lat="43.45858" lon="3.78763">
        <ele>1</ele>
        <time>2020-01-14T09:03:22Z</time>
      </trkpt>
      <trkpt lat="43.45858" lon="3.78761">
        <ele>1</ele>
        <time>2020-01-14T09:03:24Z</time>
      </trkpt>
      <trkpt lat="43.45858" lon="3.78758">
        <ele>1</ele>
        <time>2020-01-14T09:03:26Z</time>
      </trkpt>
      <trkpt lat="43.45858" lon="3.78756">
        <ele>1</ele>
        <time>2020-01-14T09:03:27Z</time>
      </trkpt>
      <trkpt lat="43.45858" lon="3.78752">
        <ele>1</ele>
        <time>2020-01-14T09:03:28Z</time>
      </trkpt>
      <trkpt lat="43.45857" lon="3.7875">
        <ele>1</ele>
        <time>2020-01-14T09:03:30Z</time>
      </trkpt>
      <trkpt lat="43.45857" lon="3.78747">
        <ele>1</ele>
        <time>2020-01-14T09:03:32Z</time>
      </trkpt>
      <trkpt lat="43.45857" lon="3.78745">
        <ele>1</ele>
        <time>2020-01-14T09:03:34Z</time>
      </trkpt>
      <trkpt lat="43.45857" lon="3.78742">
        <ele>1</ele>
        <time>2020-01-14T09:03:36Z</time>
      </trkpt>
      <trkpt lat="43.45857" lon="3.7874">
        <ele>1</ele>
        <time>2020-01-14T09:03:37Z</time>
      </trkpt>
      <trkpt lat="43.45857" lon="3.78736">
        <ele>1</ele>
        <time>2020-01-14T09:03:38Z</time>
      </trkpt>
      <trkpt lat="43.45857" lon="3.78734">
        <ele>1</ele>
        <time>2020-01-14T09:03:40Z</time>
      </trkpt>
      <trkpt lat="43.45858" lon="3.78731">
        <ele>1</ele>
        <time>2020-01-14T09:03:42Z</time>
      </trkpt>
      <trkpt lat="43.45858" lon="3.78729">
        <ele>1</ele>
        <time>2020-01-14T09:03:44Z</time>
      </trkpt>
      <trkpt lat="43.45858" lon="3.78727">
        <ele>1</ele>
        <time>2020-01-14T09:03:46Z</time>
      </trkpt>
      <trkpt lat="43.45858" lon="3.78725">
        <ele>1</ele>
        <time>2020-01-14T09:03:47Z</time>
      </trkpt>
      <trkpt lat="43.45858" lon="3.78721">
        <ele>1</ele>
        <time>2020-01-14T09:03:48Z</time>
      </trkpt>
      <trkpt lat="43.45858" lon="3.78719">
        <ele>1</ele>
        <time>2020-01-14T09:03:50Z</time>
      </trkpt>
      <trkpt lat="43.45857" lon="3.78716">
        <ele>1</ele>
        <time>2020-01-14T09:03:52Z</time>
      </trkpt>
      <trkpt lat="43.45857" lon="3.78714">
        <ele>1</ele>
        <time>2020-01-14T09:03:54Z</time>
      </trkpt>
      <trkpt lat="43.45857" lon="3.78712">
        <ele>1</ele>
        <time>2020-01-14T09:03:56Z</time>
      </trkpt>
      <trkpt lat="43.45856" lon="3.7871">
        <ele>1</ele>
        <time>2020-01-14T09:03:57Z</time>
      </trkpt>
      <trkpt lat="43.45855" lon="3.78706">
        <ele>1</ele>
        <time>2020-01-14T09:03:58Z</time>
      </trkpt>
      <trkpt lat="43.45855" lon="3.78704">
        <ele>1</ele>
        <time>2020-01-14T09:04:00Z</time>
      </trkpt>
      <trkpt lat="43.45854" lon="3.78702">
        <ele>1</ele>
        <time>2020-01-14T09:04:02Z</time>
      </trkpt>
      <trkpt lat="43.45853" lon="3.787">
        <ele>1</ele>
        <time>2020-01-14T09:04:04Z</time>
      </trkpt>
      <trkpt lat="43.45852" lon="3.78698">
        <ele>1</ele>
        <time>2020-01-14T09:04:06Z</time>
      </trkpt>
      <trkpt lat="43.45852" lon="3.78695">
        <ele>1</ele>
        <time>2020-01-14T09:04:07Z</time>
      </trkpt>
      <trkpt lat="43.45851" lon="3.78692">
        <ele>1</ele>
        <time>2020-01-14T09:04:08Z</time>
      </trkpt>
      <trkpt lat="43.45851" lon="3.7869">
        <ele>1</ele>
        <time>2020-01-14T09:04:10Z</time>
      </trkpt>
      <trkpt lat="43.4585" lon="3.78687">
        <ele>1</ele>
        <time>2020-01-14T09:04:12Z</time>
      </trkpt>
      <trkpt lat="43.4585" lon="3.78685">
        <ele>1</ele>
        <time>2020-01-14T09:04:14Z</time>
      </trkpt>
      <trkpt lat="43.45849" lon="3.78683">
        <ele>1</ele>
        <time>2020-01-14T09:04:16Z</time>
      </trkpt>
      <trkpt lat="43.45849" lon="3.78681">
        <ele>1</ele>
        <time>2020-01-14T09:04:17Z</time>
      </trkpt>
      <trkpt lat="43.45849" lon="3.78677">
        <ele>1</ele>
        <time>2020-01-14T09:04:18Z</time>
      </trkpt>
      <trkpt lat="43.4585" lon="3.78675">
        <ele>1</ele>
        <time>2020-01-14T09:04:20Z</time>
      </trkpt>
      <trkpt lat="43.4585" lon="3.78673">
        <ele>1</ele>
        <time>2020-01-14T09:04:22Z</time>
      </trkpt>
      <trkpt lat="43.45851" lon="3.78671">
        <ele>1</ele>
        <time>2020-01-14T09:04:24Z</time>
      </trkpt>
      <trkpt lat="43.45851" lon="3.78669">
        <ele>1</ele>
        <time>2020-01-14T09:04:26Z</time>
      </trkpt>
      <trkpt lat="43.45851" lon="3.78667">
        <ele>1</ele>
        <time>2020-01-14T09:04:27Z</time>
      </trkpt>
      <trkpt lat="43.45852" lon="3.78664">
        <ele>1</ele>
        <time>2020-01-14T09:04:28Z</time>
      </trkpt>
      <trkpt lat="43.45853" lon="3.78661">
        <ele>1</ele>
        <time>2020-01-14T09:04:30Z</time>
      </trkpt>
      <trkpt lat="43.45853" lon="3.78659">
        <ele>1</ele>
        <time>2020-01-14T09:04:32Z</time>
      </trkpt>
      <trkpt lat="43.45853" lon="3.78657">
        <ele>1</ele>
        <time>2020-01-14T09:04:34Z</time>
      </trkpt>
      <trkpt lat="43.45854" lon="3.78655">
        <ele>1</ele>
        <time>2020-01-14T09:04:36Z</time>
      </trkpt>
      <trkpt lat="43.45854" lon="3.78653">
        <ele>1</ele>
        <time>2020-01-14T09:04:37Z</time>
      </trkpt>
      <trkpt lat="43.45855" lon="3.78649">
        <ele>1</ele>
        <time>2020-01-14T09:04:38Z</time>
      </trkpt>
      <trkpt lat="43.45856" lon="3.78647">
        <ele>1</ele>
        <time>2020-01-14T09:04:40Z</time>
      </trkpt>
      <trkpt lat="43.45856" lon="3.78645">
        <ele>1</ele>
        <time>2020-01-14T09:04:42Z</time>
      </trkpt>
      <trkpt lat="43.45857" lon="3.78643">
        <ele>1</ele>
        <time>2020-01-14T09:04:44Z</time>
      </trkpt>
      <trkpt lat="43.45857" lon="3.78641">
        <ele>1</ele>
        <time>2020-01-14T09:04:46Z</time>
      </trkpt>
      <trkpt lat="43.45858" lon="3.78639">
        <ele>1</ele>
        <time>2020-01-14T09:04:47Z</time>
      </trkpt>
      <trkpt lat="43.45859" lon="3.78635">
        <ele>1</ele>
        <time>2020-01-14T09:04:48Z</time>
      </trkpt>
      <trkpt lat="43.4586" lon="3.78634">
        <ele>1</ele>
        <time>2020-01-14T09:04:50Z</time>
      </trkpt>
      <trkpt lat="43.45861" lon="3.78632">
        <ele>1</ele>
        <time>2020-01-14T09:04:52Z</time>
      </trkpt>
      <trkpt lat="43.45863" lon="3.7863">
        <ele>1</ele>
        <time>2020-01-14T09:04:54Z</time>
      </trkpt>
      <trkpt lat="43.45864" lon="3.78629">
        <ele>1</ele>
        <time>2020-01-14T09:04:56Z</time>
      </trkpt>
      <trkpt lat="43.45865" lon="3.78627">
        <ele>1</ele>
        <time>2020-01-14T09:04:57Z</time>
      </trkpt>
      <trkpt lat="43.45866" lon="3.78624">
        <ele>1</ele>
        <time>2020-01-14T09:04:58Z</time>
      </trkpt>
      <trkpt lat="43.45866" lon="3.78621">
        <ele>1</ele>
        <time>2020-01-14T09:05:00Z</time>
      </trkpt>
      <trkpt lat="43.45867" lon="3.78619">
        <ele>1</ele>
        <time>2020-01-14T09:05:02Z</time>
      </trkpt>
      <trkpt lat="43.45868" lon="3.78617">
        <ele>1</ele>
        <time>2020-01-14T09:05:04Z</time>
      </trkpt>
      <trkpt lat="43.45868" lon="3.78614">
        <ele>1</ele>
        <time>2020-01-14T09:05:06Z</time>
      </trkpt>
      <trkpt lat="43.45869" lon="3.78612">
        <ele>1</ele>
        <time>2020-01-14T09:05:07Z</time>
      </trkpt>
      <trkpt lat="43.4587" lon="3.78609">
        <ele>1</ele>
        <time>2020-01-14T09:05:08Z</time>
      </trkpt>
      <trkpt lat="43.45872" lon="3.78607">
        <ele>1</ele>
        <time>2020-01-14T09:05:10Z</time>
      </trkpt>
      <trkpt lat="43.45873" lon="3.78605">
        <ele>1</ele>
        <time>2020-01-14T09:05:12Z</time>
      </trkpt>
      <trkpt lat="43.45874" lon="3.78603">
        <ele>1</ele>
        <time>2020-01-14T09:05:14Z</time>
      </trkpt>
      <trkpt lat="43.45875" lon="3.78602">
        <ele>1</ele>
        <time>2020-01-14T09:05:16Z</time>
      </trkpt>
      <trkpt lat="43.45877" lon="3.786">
        <ele>1</ele>
        <time>2020-01-14T09:05:17Z</time>
      </trkpt>
      <trkpt lat="43.45878" lon="3.78596">
        <ele>1</ele>
        <time>2020-01-14T09:05:18Z</time>
      </trkpt>
      <trkpt lat="43.45879" lon="3.78594">
        <ele>1</ele>
        <time>2020-01-14T09:05:20Z</time>
      </trkpt>
      <trkpt lat="43.4588" lon="3.78592">
        <ele>1</ele>
        <time>2020-01-14T09:05:22Z</time>
      </trkpt>
      <trkpt lat="43.45881" lon="3.7859">
        <ele>1</ele>
        <time>2020-01-14T09:05:24Z</time>
      </trkpt>
      <trkpt lat="43.45881" lon="3.78588">
        <ele>1</ele>
        <time>2020-01-14T09:05:26Z</time>
      </trkpt>
      <trkpt lat="43.45882" lon="3.78586">
        <ele>1</ele>
        <time>2020-01-14T09:05:27Z</time>
      </trkpt>
      <trkpt lat="43.45884" lon="3.78583">
        <ele>1</ele>
        <time>2020-01-14T09:05:28Z</time>
      </trkpt>
      <trkpt lat="43.45885" lon="3.78581">
        <ele>1</ele>
        <time>2020-01-14T09:05:30Z</time>
      </trkpt>
      <trkpt lat="43.45885" lon="3.78579">
        <ele>1</ele>
        <time>2020-01-14T09:05:32Z</time>
      </trkpt>
      <trkpt lat="43.45886" lon="3.78577">
        <ele>1</ele>
        <time>2020-01-14T09:05:34Z</time>
      </trkpt>
      <trkpt lat="43.45887" lon="3.78575">
        <ele>1</ele>
        <time>2020-01-14T09:05:36Z</time>
      </trkpt>
      <trkpt lat="43.45888" lon="3.78573">
        <ele>1</ele>
        <time>2020-01-14T09:05:37Z</time>
      </trkpt>
      <trkpt lat="43.45889" lon="3.7857">
        <ele>1</ele>
        <time>2020-01-14T09:05:38Z</time>
      </trkpt>
      <trkpt lat="43.4589" lon="3.78568">
        <ele>1</ele>
        <time>2020-01-14T09:05:40Z</time>
      </trkpt>
      <trkpt lat="43.45891" lon="3.78567">
        <ele>1</ele>
        <time>2020-01-14T09:05:42Z</time>
      </trkpt>
      <trkpt lat="43.45892" lon="3.78565">
        <ele>1</ele>
        <time>2020-01-14T09:05:44Z</time>
      </trkpt>
      <trkpt lat="43.45893" lon="3.78563">
        <ele>1</ele>
        <time>2020-01-14T09:05:46Z</time>
      </trkpt>
      <trkpt lat="43.45894" lon="3.78561">
        <ele>1</ele>
        <time>2020-01-14T09:05:47Z</time>
      </trkpt>
      <trkpt lat="43.45896" lon="3.78558">
        <ele>1</ele>
        <time>2020-01-14T09:05:48Z</time>
      </trkpt>
      <trkpt lat="43.45897" lon="3.78556">
        <ele>1</ele>
        <time>2020-01-14T09:05:50Z</time>
      </trkpt>
      <trkpt lat="43.45898" lon="3.78554">
        <ele>1</ele>
        <time>2020-01-14T09:05:52Z</time>
      </trkpt>
      <trkpt lat="43.45899" lon="3.78552">
        <ele>1</ele>
        <time>2020-01-14T09:05:54Z</time>
      </trkpt>
      <trkpt lat="43.459" lon="3.7855">
        <ele>1</ele>
        <time>2020-01-14T09:05:56Z</time>
      </trkpt>
      <trkpt lat="43.45901" lon="3.78548">
        <ele>1</ele>
        <time>2020-01-14T09:05:57Z</time>
      </trkpt>
      <trkpt lat="43.45903" lon="3.78546">
        <ele>1</ele>
        <time>2020-01-14T09:05:58Z</time>
      </trkpt>
      <trkpt lat="43.45905" lon="3.78544">
        <ele>1</ele>
        <time>2020-01-14T09:06:00Z</time>
      </trkpt>
      <trkpt lat="43.45906" lon="3.78543">
        <ele>1</ele>
        <time>2020-01-14T09:06:02Z</time>
      </trkpt>
      <trkpt lat="43.45907" lon="3.78541">
        <ele>1</ele>
        <time>2020-01-14T09:06:04Z</time>
      </trkpt>
      <trkpt lat="43.45909" lon="3.7854">
        <ele>1</ele>
        <time>2020-01-14T09:06:06Z</time>
      </trkpt>
      <trkpt lat="43.4591" lon="3.78538">
        <ele>1</ele>
        <time>2020-01-14T09:06:07Z</time>
      </trkpt>
      <trkpt lat="43.45912" lon="3.78536">
        <ele>1</ele>
        <time>2020-01-14T09:06:08Z</time>
      </trkpt>
      <trkpt lat="43.45914" lon="3.78534">
        <ele>1</ele>
        <time>2020-01-14T09:06:10Z</time>
      </trkpt>
      <trkpt lat="43.45915" lon="3.78533">
        <ele>1</ele>
        <time>2020-01-14T09:06:12Z</time>
      </trkpt>
      <trkpt lat="43.45916" lon="3.78532">
        <ele>1</ele>
        <time>2020-01-14T09:06:14Z</time>
      </trkpt>
      <trkpt lat="43.45918" lon="3.7853">
        <ele>1</ele>
        <time>2020-01-14T09:06:16Z</time>
      </trkpt>
      <trkpt lat="43.45919" lon="3.78529">
        <ele>1</ele>
        <time>2020-01-14T09:06:17Z</time>
      </trkpt>
      <trkpt lat="43.45921" lon="3.78526">
        <ele>1</ele>
        <time>2020-01-14T09:06:18Z</time>
      </trkpt>
      <trkpt lat="43.45923" lon="3.78525">
        <ele>1</ele>
        <time>2020-01-14T09:06:20Z</time>
      </trkpt>
      <trkpt lat="43.45924" lon="3.78523">
        <ele>1</ele>
        <time>2020-01-14T09:06:22Z</time>
      </trkpt>
      <trkpt lat="43.45926" lon="3.78522">
        <ele>1</ele>
        <time>2020-01-14T09:06:24Z</time>
      </trkpt>
      <trkpt lat="43.45927" lon="3.7852">
        <ele>1</ele>
        <time>2020-01-14T09:06:26Z</time>
      </trkpt>
      <trkpt lat="43.45928" lon="3.78518">
        <ele>1</ele>
        <time>2020-01-14T09:06:27Z</time>
      </trkpt>
      <trkpt lat="43.45931" lon="3.78516">
        <ele>1</ele>
        <time>2020-01-14T09:06:28Z</time>
      </trkpt>
      <trkpt lat="43.45932" lon="3.78515">
        <ele>1</ele>
        <time>2020-01-14T09:06:30Z</time>
      </trkpt>
      <trkpt lat="43.45934" lon="3.78513">
        <ele>1</ele>
        <time>2020-01-14T09:06:32Z</time>
      </trkpt>
      <trkpt lat="43.45935" lon="3.78512">
        <ele>1</ele>
        <time>2020-01-14T09:06:34Z</time>
      </trkpt>
      <trkpt lat="43.45937" lon="3.78511">
        <ele>1</ele>
        <time>2020-01-14T09:06:36Z</time>
      </trkpt>
      <trkpt lat="43.45938" lon="3.78509">
        <ele>1</ele>
        <time>2020-01-14T09:06:37Z</time>
      </trkpt>
      <trkpt lat="43.45941" lon="3.78507">
        <ele>1</ele>
        <time>2020-01-14T09:06:38Z</time>
      </trkpt>
      <trkpt lat="43.45942" lon="3.78506">
        <ele>1</ele>
        <time>2020-01-14T09:06:40Z</time>
      </trkpt>
      <trkpt lat="43.45944" lon="3.78505">
        <ele>1</ele>
        <time>2020-01-14T09:06:42Z</time>
      </trkpt>
      <trkpt lat="43.45945" lon="3.78503">
        <ele>1</ele>
        <time>2020-01-14T09:06:44Z</time>
      </trkpt>
      <trkpt lat="43.45947" lon="3.78502">
        <ele>1</ele>
        <time>2020-01-14T09:06:46Z</time>
      </trkpt>
      <trkpt lat="43.45949" lon="3.78501">
        <ele>1</ele>
        <time>2020-01-14T09:06:47Z</time>
      </trkpt>
      <trkpt lat="43.45951" lon="3.78498">
        <ele>1</ele>
        <time>2020-01-14T09:06:48Z</time>
      </trkpt>
      <trkpt lat="43.45953" lon="3.78496">
        <ele>1</ele>
        <time>2020-01-14T09:06:50Z</time>
      </trkpt>
      <trkpt lat="43.45954" lon="3.78495">
        <ele>1</ele>
        <time>2020-01-14T09:06:52Z</time>
      </trkpt>
      <trkpt lat="43.45956" lon="3.78493">
        <ele>1</ele>
        <time>2020-01-14T09:06:54Z</time>
      </trkpt>
      <trkpt lat="43.45957" lon="3.78492">
        <ele>1</ele>
        <time>2020-01-14T09:06:56Z</time>
      </trkpt>
      <trkpt lat="43.45959" lon="3.7849">
        <ele>1</ele>
        <time>2020-01-14T09:06:57Z</time>
      </trkpt>
      <trkpt lat="43.45961" lon="3.78487">
        <ele>1</ele>
        <time>2020-01-14T09:06:58Z</time>
      </trkpt>
      <trkpt lat="43.45962" lon="3.78486">
        <ele>1</ele>
        <time>2020-01-14T09:07:00Z</time>
      </trkpt>
      <trkpt lat="43.45964" lon="3.78484">
        <ele>1</ele>
        <time>2020-01-14T09:07:02Z</time>
      </trkpt>
      <trkpt lat="43.45965" lon="3.78482">
        <ele>1</ele>
        <time>2020-01-14T09:07:04Z</time>
      </trkpt>
      <trkpt lat="43.45966" lon="3.78481">
        <ele>1</ele>
        <time>2020-01-14T09:07:06Z</time>
      </trkpt>
      <trkpt lat="43.45968" lon="3.78479">
        <ele>1</ele>
        <time>2020-01-14T09:07:07Z</time>
      </trkpt>
      <trkpt lat="43.4597" lon="3.78476">
        <ele>1</ele>
        <time>2020-01-14T09:07:08Z</time>
      </trkpt>
      <trkpt lat="43.45971" lon="3.78475">
        <ele>1</ele>
        <time>2020-01-14T09:07:10Z</time>
      </trkpt>
      <trkpt lat="43.45973" lon="3.78473">
        <ele>1</ele>
        <time>2020-01-14T09:07:12Z</time>
      </trkpt>
      <trkpt lat="43.45974" lon="3.78471">
        <ele>1</ele>
        <time>2020-01-14T09:07:14Z</time>
      </trkpt>
      <trkpt lat="43.45975" lon="3.78469">
        <ele>1</ele>
        <time>2020-01-14T09:07:16Z</time>
      </trkpt>
      <trkpt lat="43.45977" lon="3.78468">
        <ele>1</ele>
        <time>2020-01-14T09:07:17Z</time>
      </trkpt>
      <trkpt lat="43.45979" lon="3.78465">
        <ele>1</ele>
        <time>2020-01-14T09:07:18Z</time>
      </trkpt>
      <trkpt lat="43.4598" lon="3.78463">
        <ele>1</ele>
        <time>2020-01-14T09:07:20Z</time>
      </trkpt>
      <trkpt lat="43.45981" lon="3.78461">
        <ele>1</ele>
        <time>2020-01-14T09:07:22Z</time>
      </trkpt>
      <trkpt lat="43.45983" lon="3.78459">
        <ele>1</ele>
        <time>2020-01-14T09:07:24Z</time>
      </trkpt>
      <trkpt lat="43.45984" lon="3.78457">
        <ele>1</ele>
        <time>2020-01-14T09:07:26Z</time>
      </trkpt>
      <trkpt lat="43.45985" lon="3.78456">
        <ele>1</ele>
        <time>2020-01-14T09:07:27Z</time>
      </trkpt>
      <trkpt lat="43.45987" lon="3.78452">
        <ele>1</ele>
        <time>2020-01-14T09:07:28Z</time>
      </trkpt>
      <trkpt lat="43.45988" lon="3.7845">
        <ele>1</ele>
        <time>2020-01-14T09:07:30Z</time>
      </trkpt>
      <trkpt lat="43.45989" lon="3.78449">
        <ele>1</ele>
        <time>2020-01-14T09:07:32Z</time>
      </trkpt>
      <trkpt lat="43.45991" lon="3.78447">
        <ele>1</ele>
        <time>2020-01-14T09:07:34Z</time>
      </trkpt>
      <trkpt lat="43.45992" lon="3.78445">
        <ele>1</ele>
        <time>2020-01-14T09:07:36Z</time>
      </trkpt>
      <trkpt lat="43.45993" lon="3.78443">
        <ele>1</ele>
        <time>2020-01-14T09:07:37Z</time>
      </trkpt>
      <trkpt lat="43.45995" lon="3.7844">
        <ele>1</ele>
        <time>2020-01-14T09:07:38Z</time>
      </trkpt>
      <trkpt lat="43.45997" lon="3.78439">
        <ele>1</ele>
        <time>2020-01-14T09:07:40Z</time>
      </trkpt>
      <trkpt lat="43.45998" lon="3.78437">
        <ele>1</ele>
        <time>2020-01-14T09:07:42Z</time>
      </trkpt>
      <trkpt lat="43.45999" lon="3.78435">
        <ele>1</ele>
        <time>2020-01-14T09:07:44Z</time>
      </trkpt>
      <trkpt lat="43.46" lon="3.78433">
        <ele>1</ele>
        <time>2020-01-14T09:07:46Z</time>
      </trkpt>
      <trkpt lat="43.46002" lon="3.78432">
        <ele>1</ele>
        <time>2020-01-14T09:07:47Z</time>
      </trkpt>
      <trkpt lat="43.46004" lon="3.78428">
        <ele>1</ele>
        <time>2020-01-14T09:07:48Z</time>
      </trkpt>
      <trkpt lat="43.46005" lon="3.78426">
        <ele>1</ele>
        <time>2020-01-14T09:07:50Z</time>
      </trkpt>
      <trkpt lat="43.46007" lon="3.78425">
        <ele>1</ele>
        <time>2020-01-14T09:07:52Z</time>
      </trkpt>
      <trkpt lat="43.46008" lon="3.78423">
        <ele>1</ele>
        <time>2020-01-14T09:07:54Z</time>
      </trkpt>
      <trkpt lat="43.46009" lon="3.78421">
        <ele>1</ele>
        <time>2020-01-14T09:07:56Z</time>
      </trkpt>
      <trkpt lat="43.46011" lon="3.78419">
        <ele>1</ele>
        <time>2020-01-14T09:07:57Z</time>
      </trkpt>
      <trkpt lat="43.46013" lon="3.78416">
        <ele>1</ele>
        <time>2020-01-14T09:07:58Z</time>
      </trkpt>
      <trkpt lat="43.46015" lon="3.78414">
        <ele>1</ele>
        <time>2020-01-14T09:08:00Z</time>
      </trkpt>
      <trkpt lat="43.46016" lon="3.78412">
        <ele>1</ele>
        <time>2020-01-14T09:08:02Z</time>
      </trkpt>
      <trkpt lat="43.46018" lon="3.7841">
        <ele>1</ele>
        <time>2020-01-14T09:08:04Z</time>
      </trkpt>
      <trkpt lat="43.46019" lon="3.78409">
        <ele>1</ele>
        <time>2020-01-14T09:08:06Z</time>
      </trkpt>
      <trkpt lat="43.4602" lon="3.78407">
        <ele>1</ele>
        <time>2020-01-14T09:08:07Z</time>
      </trkpt>
      <trkpt lat="43.46023" lon="3.78405">
        <ele>1</ele>
        <time>2020-01-14T09:08:08Z</time>
      </trkpt>
      <trkpt lat="43.46025" lon="3.78404">
        <ele>1</ele>
        <time>2020-01-14T09:08:10Z</time>
      </trkpt>
      <trkpt lat="43.46026" lon="3.78403">
        <ele>1</ele>
        <time>2020-01-14T09:08:12Z</time>
      </trkpt>
      <trkpt lat="43.46028" lon="3.78401">
        <ele>1</ele>
        <time>2020-01-14T09:08:14Z</time>
      </trkpt>
      <trkpt lat="43.46029" lon="3.784">
        <ele>1</ele>
        <time>2020-01-14T09:08:16Z</time>
      </trkpt>
      <trkpt lat="43.46031" lon="3.78399">
        <ele>1</ele>
        <time>2020-01-14T09:08:17Z</time>
      </trkpt>
      <trkpt lat="43.46033" lon="3.78397">
        <ele>1</ele>
        <time>2020-01-14T09:08:18Z</time>
      </trkpt>
      <trkpt lat="43.46035" lon="3.78395">
        <ele>1</ele>
        <time>2020-01-14T09:08:20Z</time>
      </trkpt>
      <trkpt lat="43.46036" lon="3.78394">
        <ele>1</ele>
        <time>2020-01-14T09:08:22Z</time>
      </trkpt>
      <trkpt lat="43.46038" lon="3.78392">
        <ele>1</ele>
        <time>2020-01-14T09:08:24Z</time>
      </trkpt>
      <trkpt lat="43.4604" lon="3.78391">
        <ele>1</ele>
        <time>2020-01-14T09:08:26Z</time>
      </trkpt>
      <trkpt lat="43.46041" lon="3.78389">
        <ele>1</ele>
        <time>2020-01-14T09:08:27Z</time>
      </trkpt>
      <trkpt lat="43.46044" lon="3.78388">
        <ele>1</ele>
        <time>2020-01-14T09:08:29Z</time>
      </trkpt>
      <trkpt lat="43.46046" lon="3.78387">
        <ele>1</ele>
        <time>2020-01-14T09:08:31Z</time>
      </trkpt>
      <trkpt lat="43.46048" lon="3.78386">
        <ele>1</ele>
        <time>2020-01-14T09:08:33Z</time>
      </trkpt>
      <trkpt lat="43.4605" lon="3.78385">
        <ele>1</ele>
        <time>2020-01-14T09:08:35Z</time>
      </trkpt>
      <trkpt lat="43.46052" lon="3.78383">
        <ele>1</ele>
        <time>2020-01-14T09:08:37Z</time>
      </trkpt>
      <trkpt lat="43.46054" lon="3.78382">
        <ele>1</ele>
        <time>2020-01-14T09:08:39Z</time>
      </trkpt>
      <trkpt lat="43.46056" lon="3.78381">
        <ele>1</ele>
        <time>2020-01-14T09:08:41Z</time>
      </trkpt>
      <trkpt lat="43.46058" lon="3.7838">
        <ele>1</ele>
        <time>2020-01-14T09:08:43Z</time>
      </trkpt>
      <trkpt lat="43.4606" lon="3.7838">
        <ele>1</ele>
        <time>2020-01-14T09:08:45Z</time>
      </trkpt>
      <trkpt lat="43.46062" lon="3.7838">
        <ele>1</ele>
        <time>2020-01-14T09:08:47Z</time>
      </trkpt>
      <trkpt lat="43.46064" lon="3.78379">
        <ele>1</ele>
        <time>2020-01-14T09:08:49Z</time>
      </trkpt>
      <trkpt lat="43.46066" lon="3.78377">
        <ele>1</ele>
        <time>2020-01-14T09:08:51Z</time>
      </trkpt>
      <trkpt lat="43.46068" lon="3.78376">
        <ele>1</ele>
        <time>2020-01-14T09:08:53Z</time>
      </trkpt>
      <trkpt lat="43.46069" lon="3.78373">
        <ele>1</ele>
        <time>2020-01-14T09:08:55Z</time>
      </trkpt>
      <trkpt lat="43.46069" lon="3.7837">
        <ele>1</ele>
        <time>2020-01-14T09:08:57Z</time>
      </trkpt>
      <trkpt lat="43.46069" lon="3.78367">
        <ele>1</ele>
        <time>2020-01-14T09:08:59Z</time>
      </trkpt>
      <trkpt lat="43.46069" lon="3.78364">
        <ele>1</ele>
        <time>2020-01-14T09:09:01Z</time>
      </trkpt>
      <trkpt lat="43.46069" lon="3.78361">
        <ele>1</ele>
        <time>2020-01-14T09:09:03Z</time>
      </trkpt>
      <trkpt lat="43.4607" lon="3.78358">
        <ele>1</ele>
        <time>2020-01-14T09:09:05Z</time>
      </trkpt>
      <trkpt lat="43.4607" lon="3.78355">
        <ele>1</ele>
        <time>2020-01-14T09:09:07Z</time>
      </trkpt>
      <trkpt lat="43.4607" lon="3.78352">
        <ele>1</ele>
        <time>2020-01-14T09:09:09Z</time>
      </trkpt>
      <trkpt lat="43.4607" lon="3.78349">
        <ele>1</ele>
        <time>2020-01-14T09:09:11Z</time>
      </trkpt>
      <trkpt lat="43.46071" lon="3.78346">
        <ele>1</ele>
        <time>2020-01-14T09:09:13Z</time>
      </trkpt>
      <trkpt lat="43.46071" lon="3.78343">
        <ele>1</ele>
        <time>2020-01-14T09:09:15Z</time>
      </trkpt>
      <trkpt lat="43.46071" lon="3.7834">
        <ele>1</ele>
        <time>2020-01-14T09:09:17Z</time>
      </trkpt>
      <trkpt lat="43.46071" lon="3.78337">
        <ele>1</ele>
        <time>2020-01-14T09:09:19Z</time>
      </trkpt>
      <trkpt lat="43.46071" lon="3.78334">
        <ele>1</ele>
        <time>2020-01-14T09:09:21Z</time>
      </trkpt>
      <trkpt lat="43.46071" lon="3.7833">
        <ele>1</ele>
        <time>2020-01-14T09:09:23Z</time>
      </trkpt>
      <trkpt lat="43.46071" lon="3.78327">
        <ele>1</ele>
        <time>2020-01-14T09:09:25Z</time>
      </trkpt>
      <trkpt lat="43.46072" lon="3.78324">
        <ele>1</ele>
        <time>2020-01-14T09:09:27Z</time>
      </trkpt>
      <trkpt lat="43.46072" lon="3.7832">
        <ele>1</ele>
        <time>2020-01-14T09:09:29Z</time>
      </trkpt>
      <trkpt lat="43.46072" lon="3.78317">
        <ele>1</ele>
        <time>2020-01-14T09:09:31Z</time>
      </trkpt>
      <trkpt lat="43.46072" lon="3.78314">
        <ele>1</ele>
        <time>2020-01-14T09:09:33Z</time>
      </trkpt>
      <trkpt lat="43.46072" lon="3.7831">
        <ele>1</ele>
        <time>2020-01-14T09:09:35Z</time>
      </trkpt>
      <trkpt lat="43.46072" lon="3.78307">
        <ele>1</ele>
        <time>2020-01-14T09:09:37Z</time>
      </trkpt>
      <trkpt lat="43.46073" lon="3.78304">
        <ele>1</ele>
        <time>2020-01-14T09:09:39Z</time>
      </trkpt>
      <trkpt lat="43.46073" lon="3.783">
        <ele>1</ele>
        <time>2020-01-14T09:09:41Z</time>
      </trkpt>
      <trkpt lat="43.46073" lon="3.78297">
        <ele>1</ele>
        <time>2020-01-14T09:09:43Z</time>
      </trkpt>
      <trkpt lat="43.46073" lon="3.78294">
        <ele>1</ele>
        <time>2020-01-14T09:09:45Z</time>
      </trkpt>
      <trkpt lat="43.46073" lon="3.7829">
        <ele>1</ele>
        <time>2020-01-14T09:09:47Z</time>
      </trkpt>
      <trkpt lat="43.46074" lon="3.78287">
        <ele>1</ele>
        <time>2020-01-14T09:09:49Z</time>
      </trkpt>
      <trkpt lat="43.46074" lon="3.78284">
        <ele>1</ele>
        <time>2020-01-14T09:09:51Z</time>
      </trkpt>
      <trkpt lat="43.46074" lon="3.78281">
        <ele>1</ele>
        <time>2020-01-14T09:09:53Z</time>
      </trkpt>
      <trkpt lat="43.46074" lon="3.78278">
        <ele>1</ele>
        <time>2020-01-14T09:09:55Z</time>
      </trkpt>
      <trkpt lat="43.46074" lon="3.78274">
        <ele>1</ele>
        <time>2020-01-14T09:09:57Z</time>
      </trkpt>
      <trkpt lat="43.46074" lon="3.78271">
        <ele>1</ele>
        <time>2020-01-14T09:09:59Z</time>
      </trkpt>
      <trkpt lat="43.46074" lon="3.78268">
        <ele>1</ele>
        <time>2020-01-14T09:10:01Z</time>
      </trkpt>
      <trkpt lat="43.46074" lon="3.78265">
        <ele>1</ele>
        <time>2020-01-14T09:10:03Z</time>
      </trkpt>
      <trkpt lat="43.46074" lon="3.78262">
        <ele>1</ele>
        <time>2020-01-14T09:10:05Z</time>
      </trkpt>
      <trkpt lat="43.46074" lon="3.78259">
        <ele>1</ele>
        <time>2020-01-14T09:10:07Z</time>
      </trkpt>
      <trkpt lat="43.46073" lon="3.78254">
        <ele>1</ele>
        <time>2020-01-14T09:10:09Z</time>
      </trkpt>
      <trkpt lat="43.46073" lon="3.78252">
        <ele>1</ele>
        <time>2020-01-14T09:10:12Z</time>
      </trkpt>
      <trkpt lat="43.46073" lon="3.78249">
        <ele>1</ele>
        <time>2020-01-14T09:10:14Z</time>
      </trkpt>
      <trkpt lat="43.46073" lon="3.78247">
        <ele>1</ele>
        <time>2020-01-14T09:10:16Z</time>
      </trkpt>
      <trkpt lat="43.46073" lon="3.78245">
        <ele>1</ele>
        <time>2020-01-14T09:10:17Z</time>
      </trkpt>
      <trkpt lat="43.46072" lon="3.78241">
        <ele>1</ele>
        <time>2020-01-14T09:10:18Z</time>
      </trkpt>
      <trkpt lat="43.46071" lon="3.78239">
        <ele>1</ele>
        <time>2020-01-14T09:10:20Z</time>
      </trkpt>
      <trkpt lat="43.46071" lon="3.78236">
        <ele>1</ele>
        <time>2020-01-14T09:10:22Z</time>
      </trkpt>
      <trkpt lat="43.4607" lon="3.78234">
        <ele>1</ele>
        <time>2020-01-14T09:10:24Z</time>
      </trkpt>
      <trkpt lat="43.4607" lon="3.78232">
        <ele>1</ele>
        <time>2020-01-14T09:10:26Z</time>
      </trkpt>
      <trkpt lat="43.46069" lon="3.7823">
        <ele>1</ele>
        <time>2020-01-14T09:10:27Z</time>
      </trkpt>
      <trkpt lat="43.46069" lon="3.78226">
        <ele>1</ele>
        <time>2020-01-14T09:10:28Z</time>
      </trkpt>
      <trkpt lat="43.46068" lon="3.78224">
        <ele>1</ele>
        <time>2020-01-14T09:10:30Z</time>
      </trkpt>
      <trkpt lat="43.46068" lon="3.78221">
        <ele>1</ele>
        <time>2020-01-14T09:10:32Z</time>
      </trkpt>
      <trkpt lat="43.46068" lon="3.78219">
        <ele>1</ele>
        <time>2020-01-14T09:10:34Z</time>
      </trkpt>
      <trkpt lat="43.46067" lon="3.78217">
        <ele>1</ele>
        <time>2020-01-14T09:10:36Z</time>
      </trkpt>
      <trkpt lat="43.46067" lon="3.78215">
        <ele>1</ele>
        <time>2020-01-14T09:10:37Z</time>
      </trkpt>
      <trkpt lat="43.46067" lon="3.78211">
        <ele>1</ele>
        <time>2020-01-14T09:10:38Z</time>
      </trkpt>
      <trkpt lat="43.46067" lon="3.78208">
        <ele>1</ele>
        <time>2020-01-14T09:10:40Z</time>
      </trkpt>
      <trkpt lat="43.46067" lon="3.78206">
        <ele>1</ele>
        <time>2020-01-14T09:10:42Z</time>
      </trkpt>
      <trkpt lat="43.46067" lon="3.78204">
        <ele>1</ele>
        <time>2020-01-14T09:10:44Z</time>
      </trkpt>
      <trkpt lat="43.46067" lon="3.78201">
        <ele>1</ele>
        <time>2020-01-14T09:10:46Z</time>
      </trkpt>
      <trkpt lat="43.46067" lon="3.78199">
        <ele>1</ele>
        <time>2020-01-14T09:10:47Z</time>
      </trkpt>
      <trkpt lat="43.46067" lon="3.78195">
        <ele>1</ele>
        <time>2020-01-14T09:10:48Z</time>
      </trkpt>
      <trkpt lat="43.46067" lon="3.78193">
        <ele>1</ele>
        <time>2020-01-14T09:10:50Z</time>
      </trkpt>
      <trkpt lat="43.46067" lon="3.78191">
        <ele>1</ele>
        <time>2020-01-14T09:10:52Z</time>
      </trkpt>
      <trkpt lat="43.46067" lon="3.78188">
        <ele>1</ele>
        <time>2020-01-14T09:10:54Z</time>
      </trkpt>
      <trkpt lat="43.46068" lon="3.78186">
        <ele>1</ele>
        <time>2020-01-14T09:10:56Z</time>
      </trkpt>
      <trkpt lat="43.46068" lon="3.78184">
        <ele>1</ele>
        <time>2020-01-14T09:10:57Z</time>
      </trkpt>
      <trkpt lat="43.46068" lon="3.78182">
        <ele>1</ele>
        <time>2020-01-14T09:10:58Z</time>
      </trkpt>
      <trkpt lat="43.46067" lon="3.7818">
        <ele>1</ele>
        <time>2020-01-14T09:11:00Z</time>
      </trkpt>
      <trkpt lat="43.46065" lon="3.78177">
        <ele>1</ele>
        <time>2020-01-14T09:11:02Z</time>
      </trkpt>
      <trkpt lat="43.46063" lon="3.78176">
        <ele>1</ele>
        <time>2020-01-14T09:11:05Z</time>
      </trkpt>
      <trkpt lat="43.46061" lon="3.78174">
        <ele>1</ele>
        <time>2020-01-14T09:11:07Z</time>
      </trkpt>
      <trkpt lat="43.46058" lon="3.78173">
        <ele>1</ele>
        <time>2020-01-14T09:11:09Z</time>
      </trkpt>
      <trkpt lat="43.46057" lon="3.7817">
        <ele>1</ele>
        <time>2020-01-14T09:11:11Z</time>
      </trkpt>
      <trkpt lat="43.46057" lon="3.78167">
        <ele>1</ele>
        <time>2020-01-14T09:11:13Z</time>
      </trkpt>
      <trkpt lat="43.46057" lon="3.78164">
        <ele>1</ele>
        <time>2020-01-14T09:11:15Z</time>
      </trkpt>
      <trkpt lat="43.46058" lon="3.78161">
        <ele>1</ele>
        <time>2020-01-14T09:11:17Z</time>
      </trkpt>
      <trkpt lat="43.46058" lon="3.78158">
        <ele>1</ele>
        <time>2020-01-14T09:11:19Z</time>
      </trkpt>
      <trkpt lat="43.46059" lon="3.78156">
        <ele>1</ele>
        <time>2020-01-14T09:11:21Z</time>
      </trkpt>
      <trkpt lat="43.46059" lon="3.78153">
        <ele>1</ele>
        <time>2020-01-14T09:11:23Z</time>
      </trkpt>
      <trkpt lat="43.4606" lon="3.7815">
        <ele>1</ele>
        <time>2020-01-14T09:11:25Z</time>
      </trkpt>
      <trkpt lat="43.46061" lon="3.78148">
        <ele>1</ele>
        <time>2020-01-14T09:11:27Z</time>
      </trkpt>
      <trkpt lat="43.46062" lon="3.78142">
        <ele>1</ele>
        <time>2020-01-14T09:11:30Z</time>
      </trkpt>
      <trkpt lat="43.46062" lon="3.7814">
        <ele>1</ele>
        <time>2020-01-14T09:11:32Z</time>
      </trkpt>
      <trkpt lat="43.46063" lon="3.78139">
        <ele>1</ele>
        <time>2020-01-14T09:11:34Z</time>
      </trkpt>
      <trkpt lat="43.46063" lon="3.78137">
        <ele>1</ele>
        <time>2020-01-14T09:11:36Z</time>
      </trkpt>
      <trkpt lat="43.46063" lon="3.78135">
        <ele>1</ele>
        <time>2020-01-14T09:11:37Z</time>
      </trkpt>
      <trkpt lat="43.46064" lon="3.78131">
        <ele>1</ele>
        <time>2020-01-14T09:11:38Z</time>
      </trkpt>
      <trkpt lat="43.46065" lon="3.78129">
        <ele>1</ele>
        <time>2020-01-14T09:11:40Z</time>
      </trkpt>
      <trkpt lat="43.46065" lon="3.78127">
        <ele>1</ele>
        <time>2020-01-14T09:11:42Z</time>
      </trkpt>
      <trkpt lat="43.46066" lon="3.78125">
        <ele>1</ele>
        <time>2020-01-14T09:11:44Z</time>
      </trkpt>
      <trkpt lat="43.46066" lon="3.78123">
        <ele>1</ele>
        <time>2020-01-14T09:11:46Z</time>
      </trkpt>
      <trkpt lat="43.46067" lon="3.78121">
        <ele>1</ele>
        <time>2020-01-14T09:11:47Z</time>
      </trkpt>
      <trkpt lat="43.46068" lon="3.78118">
        <ele>1</ele>
        <time>2020-01-14T09:11:48Z</time>
      </trkpt>
      <trkpt lat="43.46068" lon="3.78116">
        <ele>1</ele>
        <time>2020-01-14T09:11:50Z</time>
      </trkpt>
      <trkpt lat="43.46069" lon="3.78114">
        <ele>1</ele>
        <time>2020-01-14T09:11:52Z</time>
      </trkpt>
      <trkpt lat="43.46069" lon="3.78112">
        <ele>1</ele>
        <time>2020-01-14T09:11:54Z</time>
      </trkpt>
      <trkpt lat="43.4607" lon="3.78109">
        <ele>1</ele>
        <time>2020-01-14T09:11:56Z</time>
      </trkpt>
      <trkpt lat="43.4607" lon="3.78107">
        <ele>1</ele>
        <time>2020-01-14T09:11:57Z</time>
      </trkpt>
      <trkpt lat="43.46071" lon="3.78104">
        <ele>1</ele>
        <time>2020-01-14T09:11:58Z</time>
      </trkpt>
      <trkpt lat="43.46072" lon="3.78102">
        <ele>1</ele>
        <time>2020-01-14T09:12:00Z</time>
      </trkpt>
      <trkpt lat="43.46073" lon="3.781">
        <ele>1</ele>
        <time>2020-01-14T09:12:02Z</time>
      </trkpt>
      <trkpt lat="43.46074" lon="3.78098">
        <ele>1</ele>
        <time>2020-01-14T09:12:04Z</time>
      </trkpt>
      <trkpt lat="43.46075" lon="3.78096">
        <ele>1</ele>
        <time>2020-01-14T09:12:06Z</time>
      </trkpt>
      <trkpt lat="43.46076" lon="3.78094">
        <ele>1</ele>
        <time>2020-01-14T09:12:07Z</time>
      </trkpt>
      <trkpt lat="43.46077" lon="3.78091">
        <ele>1</ele>
        <time>2020-01-14T09:12:08Z</time>
      </trkpt>
      <trkpt lat="43.46077" lon="3.78089">
        <ele>1</ele>
        <time>2020-01-14T09:12:10Z</time>
      </trkpt>
      <trkpt lat="43.46078" lon="3.78086">
        <ele>1</ele>
        <time>2020-01-14T09:12:12Z</time>
      </trkpt>
      <trkpt lat="43.46078" lon="3.78084">
        <ele>1</ele>
        <time>2020-01-14T09:12:14Z</time>
      </trkpt>
      <trkpt lat="43.46079" lon="3.78082">
        <ele>1</ele>
        <time>2020-01-14T09:12:16Z</time>
      </trkpt>
      <trkpt lat="43.4608" lon="3.7808">
        <ele>1</ele>
        <time>2020-01-14T09:12:17Z</time>
      </trkpt>
      <trkpt lat="43.46081" lon="3.78077">
        <ele>1</ele>
        <time>2020-01-14T09:12:18Z</time>
      </trkpt>
      <trkpt lat="43.46082" lon="3.78075">
        <ele>1</ele>
        <time>2020-01-14T09:12:20Z</time>
      </trkpt>
      <trkpt lat="43.46082" lon="3.78072">
        <ele>1</ele>
        <time>2020-01-14T09:12:22Z</time>
      </trkpt>
      <trkpt lat="43.46083" lon="3.7807">
        <ele>1</ele>
        <time>2020-01-14T09:12:24Z</time>
      </trkpt>
      <trkpt lat="43.46084" lon="3.78068">
        <ele>1</ele>
        <time>2020-01-14T09:12:26Z</time>
      </trkpt>
      <trkpt lat="43.46085" lon="3.78066">
        <ele>1</ele>
        <time>2020-01-14T09:12:27Z</time>
      </trkpt>
      <trkpt lat="43.46086" lon="3.78063">
        <ele>1</ele>
        <time>2020-01-14T09:12:28Z</time>
      </trkpt>
      <trkpt lat="43.46087" lon="3.7806">
        <ele>1</ele>
        <time>2020-01-14T09:12:30Z</time>
      </trkpt>
      <trkpt lat="43.46087" lon="3.78058">
        <ele>1</ele>
        <time>2020-01-14T09:12:32Z</time>
      </trkpt>
      <trkpt lat="43.46088" lon="3.78056">
        <ele>1</ele>
        <time>2020-01-14T09:12:34Z</time>
      </trkpt>
      <trkpt lat="43.46088" lon="3.78054">
        <ele>1</ele>
        <time>2020-01-14T09:12:36Z</time>
      </trkpt>
      <trkpt lat="43.46089" lon="3.78052">
        <ele>1</ele>
        <time>2020-01-14T09:12:37Z</time>
      </trkpt>
      <trkpt lat="43.46089" lon="3.78048">
        <ele>1</ele>
        <time>2020-01-14T09:12:38Z</time>
      </trkpt>
      <trkpt lat="43.4609" lon="3.78047">
        <ele>1</ele>
        <time>2020-01-14T09:12:40Z</time>
      </trkpt>
      <trkpt lat="43.4609" lon="3.78045">
        <ele>1</ele>
        <time>2020-01-14T09:12:42Z</time>
      </trkpt>
      <trkpt lat="43.46091" lon="3.78043">
        <ele>1</ele>
        <time>2020-01-14T09:12:44Z</time>
      </trkpt>
      <trkpt lat="43.46091" lon="3.78041">
        <ele>1</ele>
        <time>2020-01-14T09:12:46Z</time>
      </trkpt>
      <trkpt lat="43.46092" lon="3.7804">
        <ele>1</ele>
        <time>2020-01-14T09:12:47Z</time>
      </trkpt>
      <trkpt lat="43.46093" lon="3.78037">
        <ele>1</ele>
        <time>2020-01-14T09:12:48Z</time>
      </trkpt>
      <trkpt lat="43.46093" lon="3.78034">
        <ele>1</ele>
        <time>2020-01-14T09:12:50Z</time>
      </trkpt>
      <trkpt lat="43.46094" lon="3.78031">
        <ele>1</ele>
        <time>2020-01-14T09:12:52Z</time>
      </trkpt>
      <trkpt lat="43.46095" lon="3.78028">
        <ele>1</ele>
        <time>2020-01-14T09:12:54Z</time>
      </trkpt>
      <trkpt lat="43.46096" lon="3.78025">
        <ele>1</ele>
        <time>2020-01-14T09:12:57Z</time>
      </trkpt>
      <trkpt lat="43.46097" lon="3.78023">
        <ele>1</ele>
        <time>2020-01-14T09:12:59Z</time>
      </trkpt>
      <trkpt lat="43.46097" lon="3.78019">
        <ele>1</ele>
        <time>2020-01-14T09:13:01Z</time>
      </trkpt>
      <trkpt lat="43.46099" lon="3.78016">
        <ele>1</ele>
        <time>2020-01-14T09:13:03Z</time>
      </trkpt>
      <trkpt lat="43.461" lon="3.78013">
        <ele>1</ele>
        <time>2020-01-14T09:13:05Z</time>
      </trkpt>
      <trkpt lat="43.46101" lon="3.7801">
        <ele>1</ele>
        <time>2020-01-14T09:13:07Z</time>
      </trkpt>
      <trkpt lat="43.46103" lon="3.78007">
        <ele>1</ele>
        <time>2020-01-14T09:13:09Z</time>
      </trkpt>
      <trkpt lat="43.46105" lon="3.78004">
        <ele>1</ele>
        <time>2020-01-14T09:13:11Z</time>
      </trkpt>
      <trkpt lat="43.46107" lon="3.78002">
        <ele>1</ele>
        <time>2020-01-14T09:13:13Z</time>
      </trkpt>
      <trkpt lat="43.46109" lon="3.78001">
        <ele>1</ele>
        <time>2020-01-14T09:13:15Z</time>
      </trkpt>
      <trkpt lat="43.46111" lon="3.78">
        <ele>1</ele>
        <time>2020-01-14T09:13:17Z</time>
      </trkpt>
      <trkpt lat="43.46112" lon="3.77997">
        <ele>1</ele>
        <time>2020-01-14T09:13:19Z</time>
      </trkpt>
      <trkpt lat="43.46114" lon="3.77995">
        <ele>1</ele>
        <time>2020-01-14T09:13:21Z</time>
      </trkpt>
      <trkpt lat="43.46115" lon="3.77992">
        <ele>1</ele>
        <time>2020-01-14T09:13:23Z</time>
      </trkpt>
      <trkpt lat="43.46117" lon="3.7799">
        <ele>1</ele>
        <time>2020-01-14T09:13:25Z</time>
      </trkpt>
      <trkpt lat="43.46118" lon="3.77988">
        <ele>1</ele>
        <time>2020-01-14T09:13:27Z</time>
      </trkpt>
      <trkpt lat="43.4612" lon="3.77985">
        <ele>1</ele>
        <time>2020-01-14T09:13:29Z</time>
      </trkpt>
      <trkpt lat="43.46121" lon="3.77983">
        <ele>1</ele>
        <time>2020-01-14T09:13:31Z</time>
      </trkpt>
      <trkpt lat="43.46123" lon="3.77981">
        <ele>1</ele>
        <time>2020-01-14T09:13:33Z</time>
      </trkpt>
      <trkpt lat="43.46125" lon="3.77978">
        <ele>1</ele>
        <time>2020-01-14T09:13:35Z</time>
      </trkpt>
      <trkpt lat="43.46126" lon="3.77976">
        <ele>1</ele>
        <time>2020-01-14T09:13:37Z</time>
      </trkpt>
      <trkpt lat="43.46128" lon="3.77973">
        <ele>1</ele>
        <time>2020-01-14T09:13:39Z</time>
      </trkpt>
      <trkpt lat="43.46129" lon="3.7797">
        <ele>1</ele>
        <time>2020-01-14T09:13:41Z</time>
      </trkpt>
      <trkpt lat="43.4613" lon="3.77967">
        <ele>1</ele>
        <time>2020-01-14T09:13:43Z</time>
      </trkpt>
      <trkpt lat="43.46132" lon="3.77965">
        <ele>1</ele>
        <time>2020-01-14T09:13:45Z</time>
      </trkpt>
      <trkpt lat="43.46134" lon="3.77963">
        <ele>1</ele>
        <time>2020-01-14T09:13:47Z</time>
      </trkpt>
      <trkpt lat="43.46136" lon="3.77961">
        <ele>1</ele>
        <time>2020-01-14T09:13:49Z</time>
      </trkpt>
      <trkpt lat="43.46137" lon="3.77958">
        <ele>1</ele>
        <time>2020-01-14T09:13:51Z</time>
      </trkpt>
      <trkpt lat="43.46139" lon="3.77956">
        <ele>1</ele>
        <time>2020-01-14T09:13:53Z</time>
      </trkpt>
      <trkpt lat="43.46141" lon="3.77953">
        <ele>1</ele>
        <time>2020-01-14T09:13:55Z</time>
      </trkpt>
      <trkpt lat="43.46142" lon="3.7795">
        <ele>1</ele>
        <time>2020-01-14T09:13:57Z</time>
      </trkpt>
      <trkpt lat="43.46143" lon="3.77948">
        <ele>1</ele>
        <time>2020-01-14T09:13:59Z</time>
      </trkpt>
      <trkpt lat="43.46144" lon="3.77945">
        <ele>1</ele>
        <time>2020-01-14T09:14:01Z</time>
      </trkpt>
      <trkpt lat="43.46146" lon="3.77942">
        <ele>1</ele>
        <time>2020-01-14T09:14:03Z</time>
      </trkpt>
      <trkpt lat="43.46148" lon="3.7794">
        <ele>1</ele>
        <time>2020-01-14T09:14:05Z</time>
      </trkpt>
      <trkpt lat="43.4615" lon="3.77938">
        <ele>1</ele>
        <time>2020-01-14T09:14:07Z</time>
      </trkpt>
      <trkpt lat="43.46151" lon="3.77936">
        <ele>1</ele>
        <time>2020-01-14T09:14:09Z</time>
      </trkpt>
      <trkpt lat="43.46153" lon="3.77933">
        <ele>1</ele>
        <time>2020-01-14T09:14:11Z</time>
      </trkpt>
      <trkpt lat="43.46155" lon="3.7793">
        <ele>1</ele>
        <time>2020-01-14T09:14:13Z</time>
      </trkpt>
      <trkpt lat="43.46157" lon="3.77928">
        <ele>1</ele>
        <time>2020-01-14T09:14:15Z</time>
      </trkpt>
      <trkpt lat="43.46159" lon="3.77925">
        <ele>1</ele>
        <time>2020-01-14T09:14:17Z</time>
      </trkpt>
      <trkpt lat="43.4616" lon="3.77923">
        <ele>1</ele>
        <time>2020-01-14T09:14:19Z</time>
      </trkpt>
      <trkpt lat="43.46162" lon="3.7792">
        <ele>1</ele>
        <time>2020-01-14T09:14:21Z</time>
      </trkpt>
      <trkpt lat="43.46164" lon="3.77918">
        <ele>1</ele>
        <time>2020-01-14T09:14:23Z</time>
      </trkpt>
      <trkpt lat="43.46166" lon="3.77916">
        <ele>1</ele>
        <time>2020-01-14T09:14:25Z</time>
      </trkpt>
      <trkpt lat="43.46166" lon="3.77916">
        <ele>1</ele>
        <time>2020-01-14T09:14:27Z</time>
      </trkpt>
      <trkpt lat="43.46168" lon="3.77914">
        <ele>1</ele>
        <time>2020-01-14T09:14:28Z</time>
      </trkpt>
      <trkpt lat="43.46171" lon="3.77912">
        <ele>1</ele>
        <time>2020-01-14T09:14:30Z</time>
      </trkpt>
      <trkpt lat="43.46173" lon="3.77909">
        <ele>1</ele>
        <time>2020-01-14T09:14:32Z</time>
      </trkpt>
      <trkpt lat="43.46174" lon="3.77907">
        <ele>1</ele>
        <time>2020-01-14T09:14:35Z</time>
      </trkpt>
      <trkpt lat="43.46174" lon="3.77907">
        <ele>1</ele>
        <time>2020-01-14T09:14:37Z</time>
      </trkpt>
      <trkpt lat="43.46176" lon="3.77905">
        <ele>1</ele>
        <time>2020-01-14T09:14:40Z</time>
      </trkpt>
      <trkpt lat="43.46176" lon="3.77905">
        <ele>1</ele>
        <time>2020-01-14T09:14:46Z</time>
      </trkpt>
      <trkpt lat="43.46176" lon="3.77904">
        <ele>1</ele>
        <time>2020-01-14T09:14:47Z</time>
      </trkpt>
      <trkpt lat="43.46176" lon="3.77904">
        <ele>1</ele>
        <time>2020-01-14T09:15:26Z</time>
      </trkpt>
      <trkpt lat="43.46173" lon="3.77895">
        <ele>1</ele>
        <time>2020-01-14T09:15:27Z</time>
      </trkpt>
      <trkpt lat="43.46173" lon="3.77894">
        <ele>1</ele>
        <time>2020-01-14T09:15:28Z</time>
      </trkpt>
      <trkpt lat="43.46172" lon="3.77891">
        <ele>1</ele>
        <time>2020-01-14T09:15:30Z</time>
      </trkpt>
      <trkpt lat="43.46171" lon="3.77888">
        <ele>1</ele>
        <time>2020-01-14T09:15:32Z</time>
      </trkpt>
      <trkpt lat="43.46171" lon="3.77888">
        <ele>1</ele>
        <time>2020-01-14T09:15:36Z</time>
      </trkpt>
      <trkpt lat="43.46171" lon="3.77885">
        <ele>1</ele>
        <time>2020-01-14T09:15:38Z</time>
      </trkpt>
      <trkpt lat="43.4617" lon="3.77883">
        <ele>1</ele>
        <time>2020-01-14T09:15:40Z</time>
      </trkpt>
      <trkpt lat="43.46169" lon="3.7788">
        <ele>1</ele>
        <time>2020-01-14T09:15:42Z</time>
      </trkpt>
      <trkpt lat="43.46168" lon="3.77876">
        <ele>1</ele>
        <time>2020-01-14T09:15:44Z</time>
      </trkpt>
      <trkpt lat="43.46168" lon="3.77873">
        <ele>1</ele>
        <time>2020-01-14T09:15:46Z</time>
      </trkpt>
      <trkpt lat="43.46167" lon="3.7787">
        <ele>1</ele>
        <time>2020-01-14T09:15:48Z</time>
      </trkpt>
      <trkpt lat="43.46165" lon="3.77868">
        <ele>1</ele>
        <time>2020-01-14T09:15:50Z</time>
      </trkpt>
      <trkpt lat="43.46164" lon="3.77865">
        <ele>1</ele>
        <time>2020-01-14T09:15:52Z</time>
      </trkpt>
      <trkpt lat="43.46164" lon="3.77861">
        <ele>1</ele>
        <time>2020-01-14T09:15:54Z</time>
      </trkpt>
      <trkpt lat="43.46163" lon="3.77858">
        <ele>1</ele>
        <time>2020-01-14T09:15:56Z</time>
      </trkpt>
      <trkpt lat="43.46163" lon="3.77854">
        <ele>1</ele>
        <time>2020-01-14T09:15:58Z</time>
      </trkpt>
      <trkpt lat="43.46161" lon="3.77851">
        <ele>1</ele>
        <time>2020-01-14T09:16:00Z</time>
      </trkpt>
      <trkpt lat="43.4616" lon="3.77849">
        <ele>1</ele>
        <time>2020-01-14T09:16:02Z</time>
      </trkpt>
      <trkpt lat="43.46159" lon="3.77846">
        <ele>1</ele>
        <time>2020-01-14T09:16:04Z</time>
      </trkpt>
      <trkpt lat="43.46157" lon="3.77843">
        <ele>1</ele>
        <time>2020-01-14T09:16:06Z</time>
      </trkpt>
      <trkpt lat="43.46155" lon="3.77838">
        <ele>1</ele>
        <time>2020-01-14T09:16:08Z</time>
      </trkpt>
      <trkpt lat="43.46154" lon="3.77836">
        <ele>1</ele>
        <time>2020-01-14T09:16:10Z</time>
      </trkpt>
      <trkpt lat="43.46153" lon="3.77834">
        <ele>1</ele>
        <time>2020-01-14T09:16:12Z</time>
      </trkpt>
      <trkpt lat="43.46152" lon="3.77832">
        <ele>1</ele>
        <time>2020-01-14T09:16:15Z</time>
      </trkpt>
      <trkpt lat="43.46151" lon="3.77831">
        <ele>1</ele>
        <time>2020-01-14T09:16:16Z</time>
      </trkpt>
      <trkpt lat="43.4615" lon="3.77826">
        <ele>1</ele>
        <time>2020-01-14T09:16:17Z</time>
      </trkpt>
      <trkpt lat="43.46149" lon="3.77824">
        <ele>1</ele>
        <time>2020-01-14T09:16:19Z</time>
      </trkpt>
      <trkpt lat="43.46148" lon="3.77821">
        <ele>1</ele>
        <time>2020-01-14T09:16:21Z</time>
      </trkpt>
      <trkpt lat="43.46147" lon="3.77819">
        <ele>1</ele>
        <time>2020-01-14T09:16:23Z</time>
      </trkpt>
      <trkpt lat="43.46147" lon="3.77816">
        <ele>1</ele>
        <time>2020-01-14T09:16:25Z</time>
      </trkpt>
      <trkpt lat="43.46146" lon="3.77814">
        <ele>1</ele>
        <time>2020-01-14T09:16:26Z</time>
      </trkpt>
      <trkpt lat="43.46144" lon="3.7781">
        <ele>1</ele>
        <time>2020-01-14T09:16:27Z</time>
      </trkpt>
      <trkpt lat="43.46144" lon="3.77807">
        <ele>1</ele>
        <time>2020-01-14T09:16:29Z</time>
      </trkpt>
      <trkpt lat="43.46143" lon="3.77805">
        <ele>1</ele>
        <time>2020-01-14T09:16:31Z</time>
      </trkpt>
      <trkpt lat="43.46142" lon="3.77802">
        <ele>1</ele>
        <time>2020-01-14T09:16:33Z</time>
      </trkpt>
      <trkpt lat="43.46141" lon="3.778">
        <ele>1</ele>
        <time>2020-01-14T09:16:35Z</time>
      </trkpt>
      <trkpt lat="43.4614" lon="3.77797">
        <ele>1</ele>
        <time>2020-01-14T09:16:36Z</time>
      </trkpt>
      <trkpt lat="43.46138" lon="3.77794">
        <ele>1</ele>
        <time>2020-01-14T09:16:37Z</time>
      </trkpt>
      <trkpt lat="43.46137" lon="3.77792">
        <ele>1</ele>
        <time>2020-01-14T09:16:41Z</time>
      </trkpt>
      <trkpt lat="43.46136" lon="3.77789">
        <ele>1</ele>
        <time>2020-01-14T09:16:43Z</time>
      </trkpt>
      <trkpt lat="43.46136" lon="3.77787">
        <ele>1</ele>
        <time>2020-01-14T09:16:45Z</time>
      </trkpt>
      <trkpt lat="43.46135" lon="3.77785">
        <ele>1</ele>
        <time>2020-01-14T09:16:46Z</time>
      </trkpt>
      <trkpt lat="43.46133" lon="3.77782">
        <ele>1</ele>
        <time>2020-01-14T09:16:47Z</time>
      </trkpt>
      <trkpt lat="43.46133" lon="3.7778">
        <ele>1</ele>
        <time>2020-01-14T09:16:49Z</time>
      </trkpt>
      <trkpt lat="43.46132" lon="3.77777">
        <ele>1</ele>
        <time>2020-01-14T09:16:51Z</time>
      </trkpt>
      <trkpt lat="43.46131" lon="3.77775">
        <ele>1</ele>
        <time>2020-01-14T09:16:53Z</time>
      </trkpt>
      <trkpt lat="43.4613" lon="3.77773">
        <ele>1</ele>
        <time>2020-01-14T09:16:55Z</time>
      </trkpt>
      <trkpt lat="43.4613" lon="3.77771">
        <ele>1</ele>
        <time>2020-01-14T09:16:56Z</time>
      </trkpt>
      <trkpt lat="43.46128" lon="3.77767">
        <ele>1</ele>
        <time>2020-01-14T09:16:57Z</time>
      </trkpt>
      <trkpt lat="43.46128" lon="3.77765">
        <ele>1</ele>
        <time>2020-01-14T09:16:59Z</time>
      </trkpt>
      <trkpt lat="43.46127" lon="3.77762">
        <ele>1</ele>
        <time>2020-01-14T09:17:01Z</time>
      </trkpt>
      <trkpt lat="43.46126" lon="3.7776">
        <ele>1</ele>
        <time>2020-01-14T09:17:03Z</time>
      </trkpt>
      <trkpt lat="43.46126" lon="3.77758">
        <ele>1</ele>
        <time>2020-01-14T09:17:05Z</time>
      </trkpt>
      <trkpt lat="43.46125" lon="3.77755">
        <ele>1</ele>
        <time>2020-01-14T09:17:06Z</time>
      </trkpt>
      <trkpt lat="43.46124" lon="3.77751">
        <ele>1</ele>
        <time>2020-01-14T09:17:07Z</time>
      </trkpt>
      <trkpt lat="43.46123" lon="3.77749">
        <ele>1</ele>
        <time>2020-01-14T09:17:09Z</time>
      </trkpt>
      <trkpt lat="43.46122" lon="3.77746">
        <ele>1</ele>
        <time>2020-01-14T09:17:11Z</time>
      </trkpt>
      <trkpt lat="43.46121" lon="3.77744">
        <ele>1</ele>
        <time>2020-01-14T09:17:13Z</time>
      </trkpt>
      <trkpt lat="43.4612" lon="3.77742">
        <ele>1</ele>
        <time>2020-01-14T09:17:15Z</time>
      </trkpt>
      <trkpt lat="43.46119" lon="3.7774">
        <ele>1</ele>
        <time>2020-01-14T09:17:16Z</time>
      </trkpt>
      <trkpt lat="43.46118" lon="3.77736">
        <ele>1</ele>
        <time>2020-01-14T09:17:17Z</time>
      </trkpt>
      <trkpt lat="43.46117" lon="3.77734">
        <ele>1</ele>
        <time>2020-01-14T09:17:19Z</time>
      </trkpt>
      <trkpt lat="43.46116" lon="3.77732">
        <ele>1</ele>
        <time>2020-01-14T09:17:21Z</time>
      </trkpt>
      <trkpt lat="43.46115" lon="3.7773">
        <ele>1</ele>
        <time>2020-01-14T09:17:23Z</time>
      </trkpt>
      <trkpt lat="43.46114" lon="3.77728">
        <ele>1</ele>
        <time>2020-01-14T09:17:25Z</time>
      </trkpt>
      <trkpt lat="43.46113" lon="3.77726">
        <ele>1</ele>
        <time>2020-01-14T09:17:26Z</time>
      </trkpt>
      <trkpt lat="43.46112" lon="3.77722">
        <ele>1</ele>
        <time>2020-01-14T09:17:27Z</time>
      </trkpt>
      <trkpt lat="43.46111" lon="3.7772">
        <ele>1</ele>
        <time>2020-01-14T09:17:29Z</time>
      </trkpt>
      <trkpt lat="43.4611" lon="3.77717">
        <ele>1</ele>
        <time>2020-01-14T09:17:31Z</time>
      </trkpt>
      <trkpt lat="43.46109" lon="3.77715">
        <ele>1</ele>
        <time>2020-01-14T09:17:33Z</time>
      </trkpt>
      <trkpt lat="43.46108" lon="3.77712">
        <ele>1</ele>
        <time>2020-01-14T09:17:35Z</time>
      </trkpt>
      <trkpt lat="43.46107" lon="3.7771">
        <ele>1</ele>
        <time>2020-01-14T09:17:36Z</time>
      </trkpt>
      <trkpt lat="43.46106" lon="3.77706">
        <ele>1</ele>
        <time>2020-01-14T09:17:37Z</time>
      </trkpt>
      <trkpt lat="43.46105" lon="3.77704">
        <ele>1</ele>
        <time>2020-01-14T09:17:39Z</time>
      </trkpt>
      <trkpt lat="43.46104" lon="3.77702">
        <ele>1</ele>
        <time>2020-01-14T09:17:41Z</time>
      </trkpt>
      <trkpt lat="43.46103" lon="3.777">
        <ele>1</ele>
        <time>2020-01-14T09:17:43Z</time>
      </trkpt>
      <trkpt lat="43.46103" lon="3.77698">
        <ele>1</ele>
        <time>2020-01-14T09:17:45Z</time>
      </trkpt>
      <trkpt lat="43.46102" lon="3.77696">
        <ele>1</ele>
        <time>2020-01-14T09:17:46Z</time>
      </trkpt>
      <trkpt lat="43.461" lon="3.77693">
        <ele>1</ele>
        <time>2020-01-14T09:17:47Z</time>
      </trkpt>
      <trkpt lat="43.46099" lon="3.77691">
        <ele>1</ele>
        <time>2020-01-14T09:17:49Z</time>
      </trkpt>
      <trkpt lat="43.46098" lon="3.77688">
        <ele>1</ele>
        <time>2020-01-14T09:17:51Z</time>
      </trkpt>
      <trkpt lat="43.46097" lon="3.77686">
        <ele>1</ele>
        <time>2020-01-14T09:17:53Z</time>
      </trkpt>
      <trkpt lat="43.46096" lon="3.77684">
        <ele>1</ele>
        <time>2020-01-14T09:17:55Z</time>
      </trkpt>
      <trkpt lat="43.46095" lon="3.77682">
        <ele>1</ele>
        <time>2020-01-14T09:17:56Z</time>
      </trkpt>
      <trkpt lat="43.46094" lon="3.77678">
        <ele>1</ele>
        <time>2020-01-14T09:17:57Z</time>
      </trkpt>
      <trkpt lat="43.46093" lon="3.77676">
        <ele>1</ele>
        <time>2020-01-14T09:17:59Z</time>
      </trkpt>
      <trkpt lat="43.46092" lon="3.77674">
        <ele>1</ele>
        <time>2020-01-14T09:18:01Z</time>
      </trkpt>
      <trkpt lat="43.46091" lon="3.77671">
        <ele>1</ele>
        <time>2020-01-14T09:18:03Z</time>
      </trkpt>
      <trkpt lat="43.4609" lon="3.77669">
        <ele>1</ele>
        <time>2020-01-14T09:18:05Z</time>
      </trkpt>
      <trkpt lat="43.46089" lon="3.77667">
        <ele>1</ele>
        <time>2020-01-14T09:18:06Z</time>
      </trkpt>
      <trkpt lat="43.46088" lon="3.77666">
        <ele>1</ele>
        <time>2020-01-14T09:18:07Z</time>
      </trkpt>
      <trkpt lat="43.46087" lon="3.77662">
        <ele>1</ele>
        <time>2020-01-14T09:18:10Z</time>
      </trkpt>
      <trkpt lat="43.46086" lon="3.77658">
        <ele>1</ele>
        <time>2020-01-14T09:18:12Z</time>
      </trkpt>
      <trkpt lat="43.46085" lon="3.77654">
        <ele>1</ele>
        <time>2020-01-14T09:18:14Z</time>
      </trkpt>
      <trkpt lat="43.46085" lon="3.7765">
        <ele>1</ele>
        <time>2020-01-14T09:18:16Z</time>
      </trkpt>
      <trkpt lat="43.46083" lon="3.77648">
        <ele>1</ele>
        <time>2020-01-14T09:18:18Z</time>
      </trkpt>
      <trkpt lat="43.46081" lon="3.77645">
        <ele>1</ele>
        <time>2020-01-14T09:18:20Z</time>
      </trkpt>
      <trkpt lat="43.4608" lon="3.77642">
        <ele>1</ele>
        <time>2020-01-14T09:18:22Z</time>
      </trkpt>
      <trkpt lat="43.46079" lon="3.77638">
        <ele>1</ele>
        <time>2020-01-14T09:18:24Z</time>
      </trkpt>
      <trkpt lat="43.46079" lon="3.77635">
        <ele>1</ele>
        <time>2020-01-14T09:18:26Z</time>
      </trkpt>
      <trkpt lat="43.46078" lon="3.77632">
        <ele>1</ele>
        <time>2020-01-14T09:18:28Z</time>
      </trkpt>
      <trkpt lat="43.46076" lon="3.77629">
        <ele>1</ele>
        <time>2020-01-14T09:18:30Z</time>
      </trkpt>
      <trkpt lat="43.46075" lon="3.77627">
        <ele>1</ele>
        <time>2020-01-14T09:18:32Z</time>
      </trkpt>
      <trkpt lat="43.46073" lon="3.77624">
        <ele>1</ele>
        <time>2020-01-14T09:18:34Z</time>
      </trkpt>
      <trkpt lat="43.46072" lon="3.7762">
        <ele>1</ele>
        <time>2020-01-14T09:18:36Z</time>
      </trkpt>
      <trkpt lat="43.46072" lon="3.77616">
        <ele>1</ele>
        <time>2020-01-14T09:18:38Z</time>
      </trkpt>
      <trkpt lat="43.46071" lon="3.77613">
        <ele>1</ele>
        <time>2020-01-14T09:18:40Z</time>
      </trkpt>
      <trkpt lat="43.4607" lon="3.7761">
        <ele>1</ele>
        <time>2020-01-14T09:18:42Z</time>
      </trkpt>
      <trkpt lat="43.46069" lon="3.77606">
        <ele>1</ele>
        <time>2020-01-14T09:18:44Z</time>
      </trkpt>
      <trkpt lat="43.46068" lon="3.77603">
        <ele>1</ele>
        <time>2020-01-14T09:18:46Z</time>
      </trkpt>
      <trkpt lat="43.46067" lon="3.776">
        <ele>1</ele>
        <time>2020-01-14T09:18:48Z</time>
      </trkpt>
      <trkpt lat="43.46066" lon="3.77597">
        <ele>1</ele>
        <time>2020-01-14T09:18:50Z</time>
      </trkpt>
      <trkpt lat="43.46065" lon="3.77594">
        <ele>1</ele>
        <time>2020-01-14T09:18:52Z</time>
      </trkpt>
      <trkpt lat="43.46063" lon="3.77591">
        <ele>1</ele>
        <time>2020-01-14T09:18:54Z</time>
      </trkpt>
      <trkpt lat="43.46062" lon="3.77588">
        <ele>1</ele>
        <time>2020-01-14T09:18:56Z</time>
      </trkpt>
      <trkpt lat="43.46061" lon="3.77584">
        <ele>1</ele>
        <time>2020-01-14T09:18:58Z</time>
      </trkpt>
      <trkpt lat="43.4606" lon="3.77582">
        <ele>1</ele>
        <time>2020-01-14T09:19:00Z</time>
      </trkpt>
      <trkpt lat="43.46059" lon="3.77579">
        <ele>1</ele>
        <time>2020-01-14T09:19:02Z</time>
      </trkpt>
      <trkpt lat="43.46057" lon="3.77577">
        <ele>1</ele>
        <time>2020-01-14T09:19:04Z</time>
      </trkpt>
      <trkpt lat="43.46055" lon="3.77575">
        <ele>1</ele>
        <time>2020-01-14T09:19:06Z</time>
      </trkpt>
      <trkpt lat="43.46053" lon="3.77573">
        <ele>1</ele>
        <time>2020-01-14T09:19:08Z</time>
      </trkpt>
      <trkpt lat="43.46052" lon="3.7757">
        <ele>1</ele>
        <time>2020-01-14T09:19:10Z</time>
      </trkpt>
      <trkpt lat="43.46052" lon="3.77567">
        <ele>1</ele>
        <time>2020-01-14T09:19:12Z</time>
      </trkpt>
      <trkpt lat="43.4605" lon="3.77564">
        <ele>1</ele>
        <time>2020-01-14T09:19:14Z</time>
      </trkpt>
      <trkpt lat="43.46049" lon="3.77562">
        <ele>1</ele>
        <time>2020-01-14T09:19:16Z</time>
      </trkpt>
      <trkpt lat="43.46047" lon="3.77559">
        <ele>1</ele>
        <time>2020-01-14T09:19:18Z</time>
      </trkpt>
      <trkpt lat="43.46046" lon="3.77557">
        <ele>1</ele>
        <time>2020-01-14T09:19:20Z</time>
      </trkpt>
      <trkpt lat="43.46044" lon="3.77555">
        <ele>1</ele>
        <time>2020-01-14T09:19:22Z</time>
      </trkpt>
      <trkpt lat="43.46042" lon="3.77553">
        <ele>1</ele>
        <time>2020-01-14T09:19:24Z</time>
      </trkpt>
      <trkpt lat="43.4604" lon="3.77551">
        <ele>1</ele>
        <time>2020-01-14T09:19:26Z</time>
      </trkpt>
      <trkpt lat="43.46037" lon="3.77548">
        <ele>1</ele>
        <time>2020-01-14T09:19:29Z</time>
      </trkpt>
      <trkpt lat="43.46036" lon="3.77547">
        <ele>1</ele>
        <time>2020-01-14T09:19:31Z</time>
      </trkpt>
      <trkpt lat="43.46035" lon="3.77545">
        <ele>1</ele>
        <time>2020-01-14T09:19:33Z</time>
      </trkpt>
      <trkpt lat="43.46033" lon="3.77544">
        <ele>1</ele>
        <time>2020-01-14T09:19:35Z</time>
      </trkpt>
      <trkpt lat="43.46032" lon="3.77543">
        <ele>1</ele>
        <time>2020-01-14T09:19:36Z</time>
      </trkpt>
      <trkpt lat="43.4603" lon="3.77541">
        <ele>1</ele>
        <time>2020-01-14T09:19:37Z</time>
      </trkpt>
      <trkpt lat="43.46029" lon="3.77539">
        <ele>1</ele>
        <time>2020-01-14T09:19:39Z</time>
      </trkpt>
      <trkpt lat="43.46027" lon="3.77537">
        <ele>1</ele>
        <time>2020-01-14T09:19:41Z</time>
      </trkpt>
      <trkpt lat="43.46026" lon="3.77536">
        <ele>1</ele>
        <time>2020-01-14T09:19:43Z</time>
      </trkpt>
      <trkpt lat="43.46025" lon="3.77534">
        <ele>1</ele>
        <time>2020-01-14T09:19:45Z</time>
      </trkpt>
      <trkpt lat="43.46024" lon="3.77533">
        <ele>1</ele>
        <time>2020-01-14T09:19:46Z</time>
      </trkpt>
      <trkpt lat="43.46022" lon="3.7753">
        <ele>1</ele>
        <time>2020-01-14T09:19:47Z</time>
      </trkpt>
      <trkpt lat="43.46021" lon="3.77527">
        <ele>1</ele>
        <time>2020-01-14T09:19:49Z</time>
      </trkpt>
      <trkpt lat="43.4602" lon="3.77525">
        <ele>1</ele>
        <time>2020-01-14T09:19:51Z</time>
      </trkpt>
      <trkpt lat="43.46019" lon="3.77523">
        <ele>1</ele>
        <time>2020-01-14T09:19:53Z</time>
      </trkpt>
      <trkpt lat="43.46018" lon="3.77521">
        <ele>1</ele>
        <time>2020-01-14T09:19:55Z</time>
      </trkpt>
      <trkpt lat="43.46017" lon="3.77518">
        <ele>1</ele>
        <time>2020-01-14T09:19:56Z</time>
      </trkpt>
      <trkpt lat="43.46015" lon="3.77514">
        <ele>1</ele>
        <time>2020-01-14T09:19:57Z</time>
      </trkpt>
      <trkpt lat="43.46014" lon="3.77512">
        <ele>1</ele>
        <time>2020-01-14T09:19:59Z</time>
      </trkpt>
      <trkpt lat="43.46013" lon="3.77509">
        <ele>1</ele>
        <time>2020-01-14T09:20:01Z</time>
      </trkpt>
      <trkpt lat="43.46012" lon="3.77507">
        <ele>1</ele>
        <time>2020-01-14T09:20:03Z</time>
      </trkpt>
      <trkpt lat="43.46012" lon="3.77505">
        <ele>1</ele>
        <time>2020-01-14T09:20:05Z</time>
      </trkpt>
      <trkpt lat="43.46011" lon="3.77502">
        <ele>1</ele>
        <time>2020-01-14T09:20:06Z</time>
      </trkpt>
      <trkpt lat="43.46009" lon="3.77498">
        <ele>1</ele>
        <time>2020-01-14T09:20:07Z</time>
      </trkpt>
      <trkpt lat="43.46009" lon="3.77496">
        <ele>1</ele>
        <time>2020-01-14T09:20:09Z</time>
      </trkpt>
      <trkpt lat="43.46008" lon="3.77493">
        <ele>1</ele>
        <time>2020-01-14T09:20:11Z</time>
      </trkpt>
      <trkpt lat="43.46008" lon="3.77491">
        <ele>1</ele>
        <time>2020-01-14T09:20:13Z</time>
      </trkpt>
      <trkpt lat="43.46007" lon="3.77488">
        <ele>1</ele>
        <time>2020-01-14T09:20:15Z</time>
      </trkpt>
      <trkpt lat="43.46007" lon="3.77486">
        <ele>1</ele>
        <time>2020-01-14T09:20:16Z</time>
      </trkpt>
      <trkpt lat="43.46006" lon="3.77482">
        <ele>1</ele>
        <time>2020-01-14T09:20:17Z</time>
      </trkpt>
      <trkpt lat="43.46006" lon="3.7748">
        <ele>1</ele>
        <time>2020-01-14T09:20:19Z</time>
      </trkpt>
      <trkpt lat="43.46005" lon="3.77478">
        <ele>1</ele>
        <time>2020-01-14T09:20:21Z</time>
      </trkpt>
      <trkpt lat="43.46005" lon="3.77476">
        <ele>1</ele>
        <time>2020-01-14T09:20:23Z</time>
      </trkpt>
      <trkpt lat="43.46005" lon="3.77474">
        <ele>1</ele>
        <time>2020-01-14T09:20:25Z</time>
      </trkpt>
      <trkpt lat="43.46004" lon="3.77472">
        <ele>1</ele>
        <time>2020-01-14T09:20:26Z</time>
      </trkpt>
      <trkpt lat="43.46003" lon="3.77468">
        <ele>1</ele>
        <time>2020-01-14T09:20:28Z</time>
      </trkpt>
      <trkpt lat="43.46003" lon="3.77466">
        <ele>1</ele>
        <time>2020-01-14T09:20:30Z</time>
      </trkpt>
      <trkpt lat="43.46002" lon="3.77462">
        <ele>1</ele>
        <time>2020-01-14T09:20:33Z</time>
      </trkpt>
      <trkpt lat="43.46002" lon="3.77459">
        <ele>1</ele>
        <time>2020-01-14T09:20:36Z</time>
      </trkpt>
      <trkpt lat="43.46001" lon="3.77457">
        <ele>1</ele>
        <time>2020-01-14T09:20:38Z</time>
      </trkpt>
      <trkpt lat="43.46001" lon="3.77453">
        <ele>1</ele>
        <time>2020-01-14T09:20:40Z</time>
      </trkpt>
      <trkpt lat="43.46" lon="3.7745">
        <ele>1</ele>
        <time>2020-01-14T09:20:42Z</time>
      </trkpt>
      <trkpt lat="43.46001" lon="3.77447">
        <ele>1</ele>
        <time>2020-01-14T09:20:44Z</time>
      </trkpt>
      <trkpt lat="43.46002" lon="3.77444">
        <ele>1</ele>
        <time>2020-01-14T09:20:46Z</time>
      </trkpt>
      <trkpt lat="43.46003" lon="3.77441">
        <ele>1</ele>
        <time>2020-01-14T09:20:48Z</time>
      </trkpt>
      <trkpt lat="43.46002" lon="3.77437">
        <ele>1</ele>
        <time>2020-01-14T09:20:50Z</time>
      </trkpt>
      <trkpt lat="43.46002" lon="3.77434">
        <ele>1</ele>
        <time>2020-01-14T09:20:52Z</time>
      </trkpt>
      <trkpt lat="43.46001" lon="3.77432">
        <ele>1</ele>
        <time>2020-01-14T09:20:54Z</time>
      </trkpt>
      <trkpt lat="43.46" lon="3.77429">
        <ele>1</ele>
        <time>2020-01-14T09:20:56Z</time>
      </trkpt>
      <trkpt lat="43.45999" lon="3.77426">
        <ele>1</ele>
        <time>2020-01-14T09:20:58Z</time>
      </trkpt>
      <trkpt lat="43.45998" lon="3.77422">
        <ele>1</ele>
        <time>2020-01-14T09:21:00Z</time>
      </trkpt>
      <trkpt lat="43.45997" lon="3.77419">
        <ele>1</ele>
        <time>2020-01-14T09:21:02Z</time>
      </trkpt>
      <trkpt lat="43.45996" lon="3.77416">
        <ele>1</ele>
        <time>2020-01-14T09:21:04Z</time>
      </trkpt>
      <trkpt lat="43.45995" lon="3.77413">
        <ele>1</ele>
        <time>2020-01-14T09:21:06Z</time>
      </trkpt>
      <trkpt lat="43.45995" lon="3.7741">
        <ele>1</ele>
        <time>2020-01-14T09:21:08Z</time>
      </trkpt>
      <trkpt lat="43.45994" lon="3.77406">
        <ele>1</ele>
        <time>2020-01-14T09:21:10Z</time>
      </trkpt>
      <trkpt lat="43.45993" lon="3.77403">
        <ele>1</ele>
        <time>2020-01-14T09:21:12Z</time>
      </trkpt>
      <trkpt lat="43.45991" lon="3.77401">
        <ele>1</ele>
        <time>2020-01-14T09:21:14Z</time>
      </trkpt>
      <trkpt lat="43.4599" lon="3.77397">
        <ele>1</ele>
        <time>2020-01-14T09:21:16Z</time>
      </trkpt>
      <trkpt lat="43.45989" lon="3.77394">
        <ele>1</ele>
        <time>2020-01-14T09:21:18Z</time>
      </trkpt>
      <trkpt lat="43.45988" lon="3.77391">
        <ele>1</ele>
        <time>2020-01-14T09:21:20Z</time>
      </trkpt>
      <trkpt lat="43.45988" lon="3.77389">
        <ele>1</ele>
        <time>2020-01-14T09:21:22Z</time>
      </trkpt>
      <trkpt lat="43.45986" lon="3.77386">
        <ele>1</ele>
        <time>2020-01-14T09:21:24Z</time>
      </trkpt>
      <trkpt lat="43.45985" lon="3.77383">
        <ele>1</ele>
        <time>2020-01-14T09:21:26Z</time>
      </trkpt>
      <trkpt lat="43.45984" lon="3.77378">
        <ele>1</ele>
        <time>2020-01-14T09:21:28Z</time>
      </trkpt>
      <trkpt lat="43.45983" lon="3.77375">
        <ele>1</ele>
        <time>2020-01-14T09:21:30Z</time>
      </trkpt>
      <trkpt lat="43.45982" lon="3.77373">
        <ele>1</ele>
        <time>2020-01-14T09:21:33Z</time>
      </trkpt>
      <trkpt lat="43.45982" lon="3.77371">
        <ele>1</ele>
        <time>2020-01-14T09:21:35Z</time>
      </trkpt>
      <trkpt lat="43.45981" lon="3.77369">
        <ele>1</ele>
        <time>2020-01-14T09:21:36Z</time>
      </trkpt>
      <trkpt lat="43.4598" lon="3.77368">
        <ele>1</ele>
        <time>2020-01-14T09:21:37Z</time>
      </trkpt>
      <trkpt lat="43.45979" lon="3.77366">
        <ele>1</ele>
        <time>2020-01-14T09:21:39Z</time>
      </trkpt>
      <trkpt lat="43.45978" lon="3.77363">
        <ele>1</ele>
        <time>2020-01-14T09:21:42Z</time>
      </trkpt>
      <trkpt lat="43.45977" lon="3.7736">
        <ele>1</ele>
        <time>2020-01-14T09:21:44Z</time>
      </trkpt>
      <trkpt lat="43.45976" lon="3.77356">
        <ele>1</ele>
        <time>2020-01-14T09:21:46Z</time>
      </trkpt>
      <trkpt lat="43.45976" lon="3.77351">
        <ele>1</ele>
        <time>2020-01-14T09:21:48Z</time>
      </trkpt>
      <trkpt lat="43.45975" lon="3.77348">
        <ele>1</ele>
        <time>2020-01-14T09:21:51Z</time>
      </trkpt>
      <trkpt lat="43.45975" lon="3.77346">
        <ele>1</ele>
        <time>2020-01-14T09:21:53Z</time>
      </trkpt>
      <trkpt lat="43.45975" lon="3.77343">
        <ele>1</ele>
        <time>2020-01-14T09:21:55Z</time>
      </trkpt>
      <trkpt lat="43.45975" lon="3.77341">
        <ele>1</ele>
        <time>2020-01-14T09:21:56Z</time>
      </trkpt>
      <trkpt lat="43.45973" lon="3.77337">
        <ele>1</ele>
        <time>2020-01-14T09:21:57Z</time>
      </trkpt>
      <trkpt lat="43.45973" lon="3.77335">
        <ele>1</ele>
        <time>2020-01-14T09:21:59Z</time>
      </trkpt>
      <trkpt lat="43.45972" lon="3.77332">
        <ele>1</ele>
        <time>2020-01-14T09:22:01Z</time>
      </trkpt>
      <trkpt lat="43.45971" lon="3.7733">
        <ele>1</ele>
        <time>2020-01-14T09:22:03Z</time>
      </trkpt>
      <trkpt lat="43.45971" lon="3.77328">
        <ele>1</ele>
        <time>2020-01-14T09:22:05Z</time>
      </trkpt>
      <trkpt lat="43.4597" lon="3.77326">
        <ele>1</ele>
        <time>2020-01-14T09:22:06Z</time>
      </trkpt>
      <trkpt lat="43.45969" lon="3.77322">
        <ele>1</ele>
        <time>2020-01-14T09:22:07Z</time>
      </trkpt>
      <trkpt lat="43.45968" lon="3.7732">
        <ele>1</ele>
        <time>2020-01-14T09:22:09Z</time>
      </trkpt>
      <trkpt lat="43.45968" lon="3.77317">
        <ele>1</ele>
        <time>2020-01-14T09:22:11Z</time>
      </trkpt>
      <trkpt lat="43.45967" lon="3.77315">
        <ele>1</ele>
        <time>2020-01-14T09:22:13Z</time>
      </trkpt>
      <trkpt lat="43.45967" lon="3.77313">
        <ele>1</ele>
        <time>2020-01-14T09:22:15Z</time>
      </trkpt>
      <trkpt lat="43.45966" lon="3.77311">
        <ele>1</ele>
        <time>2020-01-14T09:22:16Z</time>
      </trkpt>
      <trkpt lat="43.45965" lon="3.77307">
        <ele>1</ele>
        <time>2020-01-14T09:22:17Z</time>
      </trkpt>
      <trkpt lat="43.45964" lon="3.77305">
        <ele>1</ele>
        <time>2020-01-14T09:22:19Z</time>
      </trkpt>
      <trkpt lat="43.45963" lon="3.77302">
        <ele>1</ele>
        <time>2020-01-14T09:22:21Z</time>
      </trkpt>
      <trkpt lat="43.45962" lon="3.773">
        <ele>1</ele>
        <time>2020-01-14T09:22:23Z</time>
      </trkpt>
      <trkpt lat="43.45962" lon="3.77298">
        <ele>1</ele>
        <time>2020-01-14T09:22:25Z</time>
      </trkpt>
      <trkpt lat="43.45961" lon="3.77296">
        <ele>1</ele>
        <time>2020-01-14T09:22:26Z</time>
      </trkpt>
      <trkpt lat="43.45959" lon="3.77292">
        <ele>1</ele>
        <time>2020-01-14T09:22:27Z</time>
      </trkpt>
      <trkpt lat="43.45959" lon="3.77289">
        <ele>1</ele>
        <time>2020-01-14T09:22:29Z</time>
      </trkpt>
      <trkpt lat="43.45958" lon="3.77287">
        <ele>1</ele>
        <time>2020-01-14T09:22:31Z</time>
      </trkpt>
      <trkpt lat="43.45958" lon="3.77284">
        <ele>1</ele>
        <time>2020-01-14T09:22:33Z</time>
      </trkpt>
      <trkpt lat="43.45957" lon="3.77282">
        <ele>1</ele>
        <time>2020-01-14T09:22:35Z</time>
      </trkpt>
      <trkpt lat="43.45957" lon="3.7728">
        <ele>1</ele>
        <time>2020-01-14T09:22:36Z</time>
      </trkpt>
      <trkpt lat="43.45956" lon="3.77277">
        <ele>1</ele>
        <time>2020-01-14T09:22:38Z</time>
      </trkpt>
      <trkpt lat="43.45956" lon="3.77274">
        <ele>1</ele>
        <time>2020-01-14T09:22:40Z</time>
      </trkpt>
      <trkpt lat="43.45955" lon="3.7727">
        <ele>1</ele>
        <time>2020-01-14T09:22:42Z</time>
      </trkpt>
      <trkpt lat="43.45954" lon="3.77267">
        <ele>1</ele>
        <time>2020-01-14T09:22:44Z</time>
      </trkpt>
      <trkpt lat="43.45953" lon="3.77264">
        <ele>1</ele>
        <time>2020-01-14T09:22:46Z</time>
      </trkpt>
      <trkpt lat="43.45952" lon="3.77261">
        <ele>1</ele>
        <time>2020-01-14T09:22:48Z</time>
      </trkpt>
      <trkpt lat="43.45951" lon="3.77258">
        <ele>1</ele>
        <time>2020-01-14T09:22:50Z</time>
      </trkpt>
      <trkpt lat="43.4595" lon="3.77255">
        <ele>1</ele>
        <time>2020-01-14T09:22:52Z</time>
      </trkpt>
      <trkpt lat="43.4595" lon="3.77252">
        <ele>1</ele>
        <time>2020-01-14T09:22:54Z</time>
      </trkpt>
      <trkpt lat="43.45949" lon="3.77249">
        <ele>1</ele>
        <time>2020-01-14T09:22:56Z</time>
      </trkpt>
      <trkpt lat="43.45948" lon="3.77246">
        <ele>1</ele>
        <time>2020-01-14T09:22:58Z</time>
      </trkpt>
      <trkpt lat="43.45948" lon="3.77243">
        <ele>1</ele>
        <time>2020-01-14T09:23:00Z</time>
      </trkpt>
      <trkpt lat="43.45947" lon="3.77239">
        <ele>1</ele>
        <time>2020-01-14T09:23:02Z</time>
      </trkpt>
      <trkpt lat="43.45946" lon="3.77236">
        <ele>1</ele>
        <time>2020-01-14T09:23:04Z</time>
      </trkpt>
      <trkpt lat="43.45945" lon="3.77233">
        <ele>1</ele>
        <time>2020-01-14T09:23:06Z</time>
      </trkpt>
      <trkpt lat="43.45945" lon="3.7723">
        <ele>1</ele>
        <time>2020-01-14T09:23:08Z</time>
      </trkpt>
      <trkpt lat="43.45944" lon="3.77226">
        <ele>1</ele>
        <time>2020-01-14T09:23:10Z</time>
      </trkpt>
      <trkpt lat="43.45944" lon="3.77223">
        <ele>1</ele>
        <time>2020-01-14T09:23:12Z</time>
      </trkpt>
      <trkpt lat="43.45944" lon="3.77219">
        <ele>1</ele>
        <time>2020-01-14T09:23:14Z</time>
      </trkpt>
      <trkpt lat="43.45944" lon="3.77216">
        <ele>1</ele>
        <time>2020-01-14T09:23:16Z</time>
      </trkpt>
      <trkpt lat="43.45943" lon="3.77214">
        <ele>1</ele>
        <time>2020-01-14T09:23:18Z</time>
      </trkpt>
      <trkpt lat="43.45943" lon="3.77211">
        <ele>1</ele>
        <time>2020-01-14T09:23:20Z</time>
      </trkpt>
      <trkpt lat="43.45942" lon="3.77209">
        <ele>1</ele>
        <time>2020-01-14T09:23:22Z</time>
      </trkpt>
      <trkpt lat="43.4594" lon="3.77207">
        <ele>1</ele>
        <time>2020-01-14T09:23:24Z</time>
      </trkpt>
      <trkpt lat="43.45939" lon="3.77204">
        <ele>1</ele>
        <time>2020-01-14T09:23:26Z</time>
      </trkpt>
      <trkpt lat="43.45938" lon="3.77202">
        <ele>1</ele>
        <time>2020-01-14T09:23:28Z</time>
      </trkpt>
      <trkpt lat="43.45937" lon="3.77199">
        <ele>1</ele>
        <time>2020-01-14T09:23:30Z</time>
      </trkpt>
      <trkpt lat="43.45938" lon="3.77195">
        <ele>1</ele>
        <time>2020-01-14T09:23:32Z</time>
      </trkpt>
      <trkpt lat="43.45938" lon="3.77192">
        <ele>1</ele>
        <time>2020-01-14T09:23:34Z</time>
      </trkpt>
      <trkpt lat="43.45938" lon="3.77189">
        <ele>1</ele>
        <time>2020-01-14T09:23:36Z</time>
      </trkpt>
      <trkpt lat="43.45937" lon="3.77186">
        <ele>1</ele>
        <time>2020-01-14T09:23:38Z</time>
      </trkpt>
      <trkpt lat="43.45937" lon="3.77183">
        <ele>1</ele>
        <time>2020-01-14T09:23:40Z</time>
      </trkpt>
      <trkpt lat="43.45937" lon="3.7718">
        <ele>1</ele>
        <time>2020-01-14T09:23:42Z</time>
      </trkpt>
      <trkpt lat="43.45937" lon="3.77176">
        <ele>1</ele>
        <time>2020-01-14T09:23:44Z</time>
      </trkpt>
      <trkpt lat="43.45936" lon="3.77173">
        <ele>1</ele>
        <time>2020-01-14T09:23:46Z</time>
      </trkpt>
      <trkpt lat="43.45936" lon="3.7717">
        <ele>1</ele>
        <time>2020-01-14T09:23:48Z</time>
      </trkpt>
      <trkpt lat="43.45936" lon="3.77167">
        <ele>1</ele>
        <time>2020-01-14T09:23:50Z</time>
      </trkpt>
      <trkpt lat="43.45936" lon="3.77164">
        <ele>1</ele>
        <time>2020-01-14T09:23:52Z</time>
      </trkpt>
      <trkpt lat="43.45937" lon="3.77161">
        <ele>1</ele>
        <time>2020-01-14T09:23:54Z</time>
      </trkpt>
      <trkpt lat="43.45938" lon="3.77158">
        <ele>1</ele>
        <time>2020-01-14T09:23:56Z</time>
      </trkpt>
      <trkpt lat="43.45938" lon="3.77153">
        <ele>1</ele>
        <time>2020-01-14T09:23:58Z</time>
      </trkpt>
      <trkpt lat="43.45938" lon="3.77151">
        <ele>1</ele>
        <time>2020-01-14T09:24:00Z</time>
      </trkpt>
      <trkpt lat="43.45938" lon="3.77149">
        <ele>1</ele>
        <time>2020-01-14T09:24:02Z</time>
      </trkpt>
      <trkpt lat="43.45937" lon="3.77147">
        <ele>1</ele>
        <time>2020-01-14T09:24:05Z</time>
      </trkpt>
      <trkpt lat="43.45937" lon="3.77145">
        <ele>1</ele>
        <time>2020-01-14T09:24:06Z</time>
      </trkpt>
      <trkpt lat="43.45936" lon="3.77142">
        <ele>1</ele>
        <time>2020-01-14T09:24:07Z</time>
      </trkpt>
      <trkpt lat="43.45935" lon="3.7714">
        <ele>1</ele>
        <time>2020-01-14T09:24:09Z</time>
      </trkpt>
      <trkpt lat="43.45935" lon="3.77138">
        <ele>1</ele>
        <time>2020-01-14T09:24:11Z</time>
      </trkpt>
      <trkpt lat="43.45934" lon="3.77136">
        <ele>1</ele>
        <time>2020-01-14T09:24:13Z</time>
      </trkpt>
      <trkpt lat="43.45933" lon="3.77134">
        <ele>1</ele>
        <time>2020-01-14T09:24:15Z</time>
      </trkpt>
      <trkpt lat="43.45932" lon="3.77133">
        <ele>1</ele>
        <time>2020-01-14T09:24:16Z</time>
      </trkpt>
      <trkpt lat="43.45932" lon="3.77129">
        <ele>1</ele>
        <time>2020-01-14T09:24:17Z</time>
      </trkpt>
      <trkpt lat="43.45932" lon="3.77126">
        <ele>1</ele>
        <time>2020-01-14T09:24:19Z</time>
      </trkpt>
      <trkpt lat="43.45932" lon="3.77124">
        <ele>1</ele>
        <time>2020-01-14T09:24:21Z</time>
      </trkpt>
      <trkpt lat="43.45931" lon="3.77121">
        <ele>1</ele>
        <time>2020-01-14T09:24:23Z</time>
      </trkpt>
      <trkpt lat="43.45931" lon="3.77119">
        <ele>1</ele>
        <time>2020-01-14T09:24:25Z</time>
      </trkpt>
      <trkpt lat="43.45931" lon="3.77117">
        <ele>1</ele>
        <time>2020-01-14T09:24:26Z</time>
      </trkpt>
      <trkpt lat="43.45931" lon="3.77113">
        <ele>1</ele>
        <time>2020-01-14T09:24:27Z</time>
      </trkpt>
      <trkpt lat="43.4593" lon="3.7711">
        <ele>1</ele>
        <time>2020-01-14T09:24:29Z</time>
      </trkpt>
      <trkpt lat="43.4593" lon="3.77108">
        <ele>1</ele>
        <time>2020-01-14T09:24:31Z</time>
      </trkpt>
      <trkpt lat="43.4593" lon="3.77106">
        <ele>1</ele>
        <time>2020-01-14T09:24:33Z</time>
      </trkpt>
      <trkpt lat="43.4593" lon="3.77103">
        <ele>1</ele>
        <time>2020-01-14T09:24:35Z</time>
      </trkpt>
      <trkpt lat="43.45929" lon="3.77101">
        <ele>1</ele>
        <time>2020-01-14T09:24:36Z</time>
      </trkpt>
      <trkpt lat="43.45929" lon="3.77097">
        <ele>1</ele>
        <time>2020-01-14T09:24:37Z</time>
      </trkpt>
      <trkpt lat="43.4593" lon="3.77095">
        <ele>1</ele>
        <time>2020-01-14T09:24:39Z</time>
      </trkpt>
      <trkpt lat="43.4593" lon="3.77093">
        <ele>1</ele>
        <time>2020-01-14T09:24:41Z</time>
      </trkpt>
      <trkpt lat="43.4593" lon="3.7709">
        <ele>1</ele>
        <time>2020-01-14T09:24:43Z</time>
      </trkpt>
      <trkpt lat="43.45931" lon="3.77088">
        <ele>1</ele>
        <time>2020-01-14T09:24:45Z</time>
      </trkpt>
      <trkpt lat="43.45931" lon="3.77086">
        <ele>1</ele>
        <time>2020-01-14T09:24:46Z</time>
      </trkpt>
      <trkpt lat="43.45931" lon="3.77082">
        <ele>1</ele>
        <time>2020-01-14T09:24:47Z</time>
      </trkpt>
      <trkpt lat="43.45931" lon="3.7708">
        <ele>1</ele>
        <time>2020-01-14T09:24:49Z</time>
      </trkpt>
      <trkpt lat="43.45931" lon="3.77077">
        <ele>1</ele>
        <time>2020-01-14T09:24:51Z</time>
      </trkpt>
      <trkpt lat="43.45931" lon="3.77075">
        <ele>1</ele>
        <time>2020-01-14T09:24:53Z</time>
      </trkpt>
      <trkpt lat="43.45931" lon="3.77073">
        <ele>1</ele>
        <time>2020-01-14T09:24:55Z</time>
      </trkpt>
      <trkpt lat="43.45931" lon="3.77071">
        <ele>1</ele>
        <time>2020-01-14T09:24:56Z</time>
      </trkpt>
      <trkpt lat="43.4593" lon="3.77067">
        <ele>1</ele>
        <time>2020-01-14T09:24:57Z</time>
      </trkpt>
      <trkpt lat="43.4593" lon="3.77064">
        <ele>1</ele>
        <time>2020-01-14T09:24:59Z</time>
      </trkpt>
      <trkpt lat="43.4593" lon="3.77062">
        <ele>1</ele>
        <time>2020-01-14T09:25:01Z</time>
      </trkpt>
      <trkpt lat="43.45929" lon="3.7706">
        <ele>1</ele>
        <time>2020-01-14T09:25:03Z</time>
      </trkpt>
      <trkpt lat="43.45929" lon="3.77058">
        <ele>1</ele>
        <time>2020-01-14T09:25:05Z</time>
      </trkpt>
      <trkpt lat="43.45929" lon="3.77056">
        <ele>1</ele>
        <time>2020-01-14T09:25:06Z</time>
      </trkpt>
      <trkpt lat="43.45929" lon="3.77052">
        <ele>1</ele>
        <time>2020-01-14T09:25:07Z</time>
      </trkpt>
      <trkpt lat="43.45928" lon="3.77049">
        <ele>1</ele>
        <time>2020-01-14T09:25:09Z</time>
      </trkpt>
      <trkpt lat="43.45928" lon="3.77047">
        <ele>1</ele>
        <time>2020-01-14T09:25:11Z</time>
      </trkpt>
      <trkpt lat="43.45928" lon="3.77045">
        <ele>1</ele>
        <time>2020-01-14T09:25:13Z</time>
      </trkpt>
      <trkpt lat="43.45928" lon="3.77043">
        <ele>1</ele>
        <time>2020-01-14T09:25:15Z</time>
      </trkpt>
      <trkpt lat="43.45928" lon="3.7704">
        <ele>1</ele>
        <time>2020-01-14T09:25:16Z</time>
      </trkpt>
      <trkpt lat="43.45928" lon="3.77037">
        <ele>1</ele>
        <time>2020-01-14T09:25:17Z</time>
      </trkpt>
      <trkpt lat="43.45927" lon="3.77035">
        <ele>1</ele>
        <time>2020-01-14T09:25:19Z</time>
      </trkpt>
      <trkpt lat="43.45927" lon="3.77032">
        <ele>1</ele>
        <time>2020-01-14T09:25:21Z</time>
      </trkpt>
      <trkpt lat="43.45927" lon="3.7703">
        <ele>1</ele>
        <time>2020-01-14T09:25:23Z</time>
      </trkpt>
      <trkpt lat="43.45927" lon="3.77028">
        <ele>1</ele>
        <time>2020-01-14T09:25:25Z</time>
      </trkpt>
      <trkpt lat="43.45927" lon="3.77025">
        <ele>1</ele>
        <time>2020-01-14T09:25:26Z</time>
      </trkpt>
      <trkpt lat="43.45928" lon="3.77022">
        <ele>1</ele>
        <time>2020-01-14T09:25:27Z</time>
      </trkpt>
      <trkpt lat="43.45929" lon="3.7702">
        <ele>1</ele>
        <time>2020-01-14T09:25:29Z</time>
      </trkpt>
      <trkpt lat="43.4593" lon="3.77017">
        <ele>1</ele>
        <time>2020-01-14T09:25:31Z</time>
      </trkpt>
      <trkpt lat="43.4593" lon="3.77015">
        <ele>1</ele>
        <time>2020-01-14T09:25:33Z</time>
      </trkpt>
      <trkpt lat="43.45931" lon="3.77013">
        <ele>1</ele>
        <time>2020-01-14T09:25:35Z</time>
      </trkpt>
      <trkpt lat="43.45932" lon="3.77011">
        <ele>1</ele>
        <time>2020-01-14T09:25:36Z</time>
      </trkpt>
      <trkpt lat="43.45933" lon="3.77007">
        <ele>1</ele>
        <time>2020-01-14T09:25:37Z</time>
      </trkpt>
      <trkpt lat="43.45934" lon="3.77005">
        <ele>1</ele>
        <time>2020-01-14T09:25:39Z</time>
      </trkpt>
      <trkpt lat="43.45935" lon="3.77003">
        <ele>1</ele>
        <time>2020-01-14T09:25:41Z</time>
      </trkpt>
      <trkpt lat="43.45936" lon="3.77001">
        <ele>1</ele>
        <time>2020-01-14T09:25:43Z</time>
      </trkpt>
      <trkpt lat="43.45937" lon="3.76999">
        <ele>1</ele>
        <time>2020-01-14T09:25:45Z</time>
      </trkpt>
      <trkpt lat="43.45938" lon="3.76997">
        <ele>1</ele>
        <time>2020-01-14T09:25:46Z</time>
      </trkpt>
      <trkpt lat="43.45938" lon="3.76995">
        <ele>1</ele>
        <time>2020-01-14T09:25:47Z</time>
      </trkpt>
      <trkpt lat="43.45939" lon="3.76992">
        <ele>1</ele>
        <time>2020-01-14T09:25:49Z</time>
      </trkpt>
      <trkpt lat="43.4594" lon="3.7699">
        <ele>1</ele>
        <time>2020-01-14T09:25:51Z</time>
      </trkpt>
      <trkpt lat="43.45941" lon="3.76987">
        <ele>1</ele>
        <time>2020-01-14T09:25:53Z</time>
      </trkpt>
      <trkpt lat="43.45941" lon="3.76987">
        <ele>1</ele>
        <time>2020-01-14T09:25:56Z</time>
      </trkpt>
      <trkpt lat="43.45942" lon="3.76985">
        <ele>1</ele>
        <time>2020-01-14T09:25:59Z</time>
      </trkpt>
      <trkpt lat="43.45943" lon="3.76983">
        <ele>1</ele>
        <time>2020-01-14T09:26:00Z</time>
      </trkpt>
      <trkpt lat="43.45943" lon="3.76981">
        <ele>1</ele>
        <time>2020-01-14T09:26:06Z</time>
      </trkpt>
      <trkpt lat="43.45944" lon="3.76978">
        <ele>1</ele>
        <time>2020-01-14T09:26:07Z</time>
      </trkpt>
      <trkpt lat="43.45944" lon="3.76976">
        <ele>1</ele>
        <time>2020-01-14T09:26:08Z</time>
      </trkpt>
      <trkpt lat="43.45945" lon="3.76974">
        <ele>1</ele>
        <time>2020-01-14T09:26:10Z</time>
      </trkpt>
      <trkpt lat="43.45945" lon="3.76971">
        <ele>1</ele>
        <time>2020-01-14T09:26:12Z</time>
      </trkpt>
      <trkpt lat="43.45946" lon="3.76969">
        <ele>1</ele>
        <time>2020-01-14T09:26:14Z</time>
      </trkpt>
      <trkpt lat="43.45947" lon="3.76967">
        <ele>1</ele>
        <time>2020-01-14T09:26:15Z</time>
      </trkpt>
      <trkpt lat="43.45948" lon="3.76963">
        <ele>1</ele>
        <time>2020-01-14T09:26:16Z</time>
      </trkpt>
      <trkpt lat="43.45949" lon="3.76961">
        <ele>1</ele>
        <time>2020-01-14T09:26:18Z</time>
      </trkpt>
      <trkpt lat="43.4595" lon="3.76958">
        <ele>1</ele>
        <time>2020-01-14T09:26:20Z</time>
      </trkpt>
      <trkpt lat="43.4595" lon="3.76956">
        <ele>1</ele>
        <time>2020-01-14T09:26:22Z</time>
      </trkpt>
      <trkpt lat="43.45951" lon="3.76954">
        <ele>1</ele>
        <time>2020-01-14T09:26:24Z</time>
      </trkpt>
      <trkpt lat="43.45952" lon="3.76952">
        <ele>1</ele>
        <time>2020-01-14T09:26:25Z</time>
      </trkpt>
      <trkpt lat="43.45953" lon="3.76948">
        <ele>1</ele>
        <time>2020-01-14T09:26:26Z</time>
      </trkpt>
      <trkpt lat="43.45954" lon="3.76946">
        <ele>1</ele>
        <time>2020-01-14T09:26:28Z</time>
      </trkpt>
      <trkpt lat="43.45955" lon="3.76943">
        <ele>1</ele>
        <time>2020-01-14T09:26:30Z</time>
      </trkpt>
      <trkpt lat="43.45956" lon="3.76941">
        <ele>1</ele>
        <time>2020-01-14T09:26:32Z</time>
      </trkpt>
      <trkpt lat="43.45956" lon="3.76939">
        <ele>1</ele>
        <time>2020-01-14T09:26:34Z</time>
      </trkpt>
      <trkpt lat="43.45957" lon="3.76937">
        <ele>1</ele>
        <time>2020-01-14T09:26:35Z</time>
      </trkpt>
      <trkpt lat="43.4596" lon="3.76935">
        <ele>1</ele>
        <time>2020-01-14T09:26:36Z</time>
      </trkpt>
      <trkpt lat="43.45961" lon="3.76934">
        <ele>1</ele>
        <time>2020-01-14T09:26:38Z</time>
      </trkpt>
      <trkpt lat="43.45963" lon="3.76933">
        <ele>1</ele>
        <time>2020-01-14T09:26:40Z</time>
      </trkpt>
      <trkpt lat="43.45964" lon="3.76932">
        <ele>1</ele>
        <time>2020-01-14T09:26:42Z</time>
      </trkpt>
      <trkpt lat="43.45966" lon="3.76931">
        <ele>1</ele>
        <time>2020-01-14T09:26:44Z</time>
      </trkpt>
      <trkpt lat="43.45967" lon="3.7693">
        <ele>1</ele>
        <time>2020-01-14T09:26:45Z</time>
      </trkpt>
      <trkpt lat="43.4597" lon="3.76929">
        <ele>1</ele>
        <time>2020-01-14T09:26:46Z</time>
      </trkpt>
      <trkpt lat="43.45971" lon="3.76928">
        <ele>1</ele>
        <time>2020-01-14T09:26:48Z</time>
      </trkpt>
      <trkpt lat="43.45973" lon="3.76927">
        <ele>1</ele>
        <time>2020-01-14T09:26:50Z</time>
      </trkpt>
      <trkpt lat="43.45975" lon="3.76926">
        <ele>1</ele>
        <time>2020-01-14T09:26:52Z</time>
      </trkpt>
      <trkpt lat="43.45976" lon="3.76926">
        <ele>1</ele>
        <time>2020-01-14T09:26:54Z</time>
      </trkpt>
      <trkpt lat="43.45978" lon="3.76925">
        <ele>1</ele>
        <time>2020-01-14T09:26:55Z</time>
      </trkpt>
      <trkpt lat="43.45981" lon="3.76925">
        <ele>1</ele>
        <time>2020-01-14T09:26:56Z</time>
      </trkpt>
      <trkpt lat="43.45982" lon="3.76924">
        <ele>1</ele>
        <time>2020-01-14T09:26:58Z</time>
      </trkpt>
      <trkpt lat="43.45984" lon="3.76924">
        <ele>1</ele>
        <time>2020-01-14T09:27:00Z</time>
      </trkpt>
      <trkpt lat="43.45986" lon="3.76924">
        <ele>1</ele>
        <time>2020-01-14T09:27:02Z</time>
      </trkpt>
      <trkpt lat="43.45988" lon="3.76924">
        <ele>1</ele>
        <time>2020-01-14T09:27:04Z</time>
      </trkpt>
      <trkpt lat="43.4599" lon="3.76923">
        <ele>1</ele>
        <time>2020-01-14T09:27:05Z</time>
      </trkpt>
      <trkpt lat="43.45993" lon="3.76923">
        <ele>1</ele>
        <time>2020-01-14T09:27:06Z</time>
      </trkpt>
      <trkpt lat="43.45994" lon="3.76923">
        <ele>1</ele>
        <time>2020-01-14T09:27:08Z</time>
      </trkpt>
      <trkpt lat="43.45996" lon="3.76923">
        <ele>1</ele>
        <time>2020-01-14T09:27:10Z</time>
      </trkpt>
      <trkpt lat="43.45998" lon="3.76923">
        <ele>1</ele>
        <time>2020-01-14T09:27:12Z</time>
      </trkpt>
      <trkpt lat="43.46" lon="3.76922">
        <ele>1</ele>
        <time>2020-01-14T09:27:14Z</time>
      </trkpt>
      <trkpt lat="43.46001" lon="3.76922">
        <ele>1</ele>
        <time>2020-01-14T09:27:15Z</time>
      </trkpt>
      <trkpt lat="43.46004" lon="3.76922">
        <ele>1</ele>
        <time>2020-01-14T09:27:16Z</time>
      </trkpt>
      <trkpt lat="43.46006" lon="3.76922">
        <ele>1</ele>
        <time>2020-01-14T09:27:18Z</time>
      </trkpt>
      <trkpt lat="43.46008" lon="3.76922">
        <ele>1</ele>
        <time>2020-01-14T09:27:20Z</time>
      </trkpt>
      <trkpt lat="43.4601" lon="3.76922">
        <ele>1</ele>
        <time>2020-01-14T09:27:22Z</time>
      </trkpt>
      <trkpt lat="43.46012" lon="3.76922">
        <ele>1</ele>
        <time>2020-01-14T09:27:24Z</time>
      </trkpt>
      <trkpt lat="43.46014" lon="3.76922">
        <ele>1</ele>
        <time>2020-01-14T09:27:25Z</time>
      </trkpt>
      <trkpt lat="43.46017" lon="3.76921">
        <ele>1</ele>
        <time>2020-01-14T09:27:26Z</time>
      </trkpt>
      <trkpt lat="43.46019" lon="3.76921">
        <ele>1</ele>
        <time>2020-01-14T09:27:28Z</time>
      </trkpt>
      <trkpt lat="43.46021" lon="3.7692">
        <ele>1</ele>
        <time>2020-01-14T09:27:30Z</time>
      </trkpt>
      <trkpt lat="43.46022" lon="3.7692">
        <ele>1</ele>
        <time>2020-01-14T09:27:32Z</time>
      </trkpt>
      <trkpt lat="43.46024" lon="3.7692">
        <ele>1</ele>
        <time>2020-01-14T09:27:34Z</time>
      </trkpt>
      <trkpt lat="43.46026" lon="3.76919">
        <ele>1</ele>
        <time>2020-01-14T09:27:35Z</time>
      </trkpt>
      <trkpt lat="43.46029" lon="3.76919">
        <ele>1</ele>
        <time>2020-01-14T09:27:36Z</time>
      </trkpt>
      <trkpt lat="43.46031" lon="3.76919">
        <ele>1</ele>
        <time>2020-01-14T09:27:38Z</time>
      </trkpt>
      <trkpt lat="43.46033" lon="3.76918">
        <ele>1</ele>
        <time>2020-01-14T09:27:40Z</time>
      </trkpt>
      <trkpt lat="43.46034" lon="3.76918">
        <ele>1</ele>
        <time>2020-01-14T09:27:42Z</time>
      </trkpt>
      <trkpt lat="43.46036" lon="3.76918">
        <ele>1</ele>
        <time>2020-01-14T09:27:44Z</time>
      </trkpt>
      <trkpt lat="43.46038" lon="3.76917">
        <ele>1</ele>
        <time>2020-01-14T09:27:45Z</time>
      </trkpt>
      <trkpt lat="43.46041" lon="3.76917">
        <ele>1</ele>
        <time>2020-01-14T09:27:46Z</time>
      </trkpt>
      <trkpt lat="43.46043" lon="3.76917">
        <ele>1</ele>
        <time>2020-01-14T09:27:48Z</time>
      </trkpt>
      <trkpt lat="43.46045" lon="3.76916">
        <ele>1</ele>
        <time>2020-01-14T09:27:50Z</time>
      </trkpt>
      <trkpt lat="43.46046" lon="3.76916">
        <ele>1</ele>
        <time>2020-01-14T09:27:52Z</time>
      </trkpt>
      <trkpt lat="43.46048" lon="3.76916">
        <ele>1</ele>
        <time>2020-01-14T09:27:54Z</time>
      </trkpt>
      <trkpt lat="43.4605" lon="3.76915">
        <ele>1</ele>
        <time>2020-01-14T09:27:55Z</time>
      </trkpt>
      <trkpt lat="43.46053" lon="3.76915">
        <ele>1</ele>
        <time>2020-01-14T09:27:56Z</time>
      </trkpt>
      <trkpt lat="43.46055" lon="3.76914">
        <ele>1</ele>
        <time>2020-01-14T09:27:58Z</time>
      </trkpt>
      <trkpt lat="43.46056" lon="3.76914">
        <ele>1</ele>
        <time>2020-01-14T09:28:00Z</time>
      </trkpt>
      <trkpt lat="43.46058" lon="3.76913">
        <ele>1</ele>
        <time>2020-01-14T09:28:02Z</time>
      </trkpt>
      <trkpt lat="43.4606" lon="3.76913">
        <ele>1</ele>
        <time>2020-01-14T09:28:04Z</time>
      </trkpt>
      <trkpt lat="43.46061" lon="3.76913">
        <ele>2</ele>
        <time>2020-01-14T09:28:05Z</time>
      </trkpt>
      <trkpt lat="43.46064" lon="3.76912">
        <ele>2</ele>
        <time>2020-01-14T09:28:06Z</time>
      </trkpt>
      <trkpt lat="43.46066" lon="3.76912">
        <ele>2</ele>
        <time>2020-01-14T09:28:08Z</time>
      </trkpt>
      <trkpt lat="43.46068" lon="3.76912">
        <ele>2</ele>
        <time>2020-01-14T09:28:10Z</time>
      </trkpt>
      <trkpt lat="43.4607" lon="3.76911">
        <ele>2</ele>
        <time>2020-01-14T09:28:12Z</time>
      </trkpt>
      <trkpt lat="43.46071" lon="3.76911">
        <ele>2</ele>
        <time>2020-01-14T09:28:14Z</time>
      </trkpt>
      <trkpt lat="43.46073" lon="3.76911">
        <ele>2</ele>
        <time>2020-01-14T09:28:15Z</time>
      </trkpt>
      <trkpt lat="43.46076" lon="3.76911">
        <ele>2</ele>
        <time>2020-01-14T09:28:16Z</time>
      </trkpt>
      <trkpt lat="43.46078" lon="3.7691">
        <ele>2</ele>
        <time>2020-01-14T09:28:18Z</time>
      </trkpt>
      <trkpt lat="43.46079" lon="3.7691">
        <ele>2</ele>
        <time>2020-01-14T09:28:20Z</time>
      </trkpt>
      <trkpt lat="43.46081" lon="3.7691">
        <ele>2</ele>
        <time>2020-01-14T09:28:22Z</time>
      </trkpt>
      <trkpt lat="43.46083" lon="3.76909">
        <ele>2</ele>
        <time>2020-01-14T09:28:24Z</time>
      </trkpt>
      <trkpt lat="43.46084" lon="3.76909">
        <ele>2</ele>
        <time>2020-01-14T09:28:25Z</time>
      </trkpt>
      <trkpt lat="43.46087" lon="3.76909">
        <ele>2</ele>
        <time>2020-01-14T09:28:26Z</time>
      </trkpt>
      <trkpt lat="43.46089" lon="3.76908">
        <ele>2</ele>
        <time>2020-01-14T09:28:28Z</time>
      </trkpt>
      <trkpt lat="43.46091" lon="3.76908">
        <ele>2</ele>
        <time>2020-01-14T09:28:30Z</time>
      </trkpt>
      <trkpt lat="43.46093" lon="3.76908">
        <ele>2</ele>
        <time>2020-01-14T09:28:32Z</time>
      </trkpt>
      <trkpt lat="43.46094" lon="3.76908">
        <ele>2</ele>
        <time>2020-01-14T09:28:34Z</time>
      </trkpt>
      <trkpt lat="43.46096" lon="3.76908">
        <ele>2</ele>
        <time>2020-01-14T09:28:35Z</time>
      </trkpt>
      <trkpt lat="43.46099" lon="3.76909">
        <ele>2</ele>
        <time>2020-01-14T09:28:36Z</time>
      </trkpt>
      <trkpt lat="43.461" lon="3.7691">
        <ele>2</ele>
        <time>2020-01-14T09:28:38Z</time>
      </trkpt>
      <trkpt lat="43.46102" lon="3.76912">
        <ele>2</ele>
        <time>2020-01-14T09:28:40Z</time>
      </trkpt>
      <trkpt lat="43.46103" lon="3.76913">
        <ele>2</ele>
        <time>2020-01-14T09:28:42Z</time>
      </trkpt>
      <trkpt lat="43.46105" lon="3.76914">
        <ele>2</ele>
        <time>2020-01-14T09:28:44Z</time>
      </trkpt>
      <trkpt lat="43.46106" lon="3.76915">
        <ele>2</ele>
        <time>2020-01-14T09:28:45Z</time>
      </trkpt>
      <trkpt lat="43.46107" lon="3.76917">
        <ele>2</ele>
        <time>2020-01-14T09:28:46Z</time>
      </trkpt>
      <trkpt lat="43.46109" lon="3.76919">
        <ele>2</ele>
        <time>2020-01-14T09:28:48Z</time>
      </trkpt>
      <trkpt lat="43.4611" lon="3.76922">
        <ele>2</ele>
        <time>2020-01-14T09:28:50Z</time>
      </trkpt>
      <trkpt lat="43.46111" lon="3.76924">
        <ele>2</ele>
        <time>2020-01-14T09:28:52Z</time>
      </trkpt>
      <trkpt lat="43.46113" lon="3.76927">
        <ele>2</ele>
        <time>2020-01-14T09:28:54Z</time>
      </trkpt>
      <trkpt lat="43.46114" lon="3.76929">
        <ele>2</ele>
        <time>2020-01-14T09:28:56Z</time>
      </trkpt>
      <trkpt lat="43.46116" lon="3.76932">
        <ele>2</ele>
        <time>2020-01-14T09:28:58Z</time>
      </trkpt>
      <trkpt lat="43.46118" lon="3.76934">
        <ele>2</ele>
        <time>2020-01-14T09:29:00Z</time>
      </trkpt>
      <trkpt lat="43.46119" lon="3.76936">
        <ele>2</ele>
        <time>2020-01-14T09:29:02Z</time>
      </trkpt>
      <trkpt lat="43.46121" lon="3.76939">
        <ele>2</ele>
        <time>2020-01-14T09:29:04Z</time>
      </trkpt>
      <trkpt lat="43.46122" lon="3.76942">
        <ele>2</ele>
        <time>2020-01-14T09:29:06Z</time>
      </trkpt>
      <trkpt lat="43.46124" lon="3.76944">
        <ele>2</ele>
        <time>2020-01-14T09:29:08Z</time>
      </trkpt>
      <trkpt lat="43.46125" lon="3.76947">
        <ele>2</ele>
        <time>2020-01-14T09:29:10Z</time>
      </trkpt>
      <trkpt lat="43.46127" lon="3.76949">
        <ele>2</ele>
        <time>2020-01-14T09:29:12Z</time>
      </trkpt>
      <trkpt lat="43.46128" lon="3.76951">
        <ele>2</ele>
        <time>2020-01-14T09:29:14Z</time>
      </trkpt>
      <trkpt lat="43.4613" lon="3.76953">
        <ele>2</ele>
        <time>2020-01-14T09:29:16Z</time>
      </trkpt>
      <trkpt lat="43.46132" lon="3.76956">
        <ele>2</ele>
        <time>2020-01-14T09:29:18Z</time>
      </trkpt>
      <trkpt lat="43.46133" lon="3.76959">
        <ele>2</ele>
        <time>2020-01-14T09:29:20Z</time>
      </trkpt>
      <trkpt lat="43.46134" lon="3.76961">
        <ele>2</ele>
        <time>2020-01-14T09:29:22Z</time>
      </trkpt>
      <trkpt lat="43.46136" lon="3.76963">
        <ele>2</ele>
        <time>2020-01-14T09:29:24Z</time>
      </trkpt>
      <trkpt lat="43.46138" lon="3.76966">
        <ele>2</ele>
        <time>2020-01-14T09:29:26Z</time>
      </trkpt>
      <trkpt lat="43.46139" lon="3.76969">
        <ele>2</ele>
        <time>2020-01-14T09:29:28Z</time>
      </trkpt>
      <trkpt lat="43.46141" lon="3.76971">
        <ele>2</ele>
        <time>2020-01-14T09:29:30Z</time>
      </trkpt>
      <trkpt lat="43.46142" lon="3.76973">
        <ele>2</ele>
        <time>2020-01-14T09:29:32Z</time>
      </trkpt>
      <trkpt lat="43.46144" lon="3.76976">
        <ele>2</ele>
        <time>2020-01-14T09:29:34Z</time>
      </trkpt>
      <trkpt lat="43.46146" lon="3.76978">
        <ele>2</ele>
        <time>2020-01-14T09:29:36Z</time>
      </trkpt>
      <trkpt lat="43.46147" lon="3.7698">
        <ele>2</ele>
        <time>2020-01-14T09:29:38Z</time>
      </trkpt>
      <trkpt lat="43.46149" lon="3.76982">
        <ele>2</ele>
        <time>2020-01-14T09:29:40Z</time>
      </trkpt>
      <trkpt lat="43.4615" lon="3.76985">
        <ele>2</ele>
        <time>2020-01-14T09:29:42Z</time>
      </trkpt>
      <trkpt lat="43.46152" lon="3.76987">
        <ele>2</ele>
        <time>2020-01-14T09:29:44Z</time>
      </trkpt>
      <trkpt lat="43.46153" lon="3.76989">
        <ele>2</ele>
        <time>2020-01-14T09:29:46Z</time>
      </trkpt>
      <trkpt lat="43.46155" lon="3.76991">
        <ele>2</ele>
        <time>2020-01-14T09:29:48Z</time>
      </trkpt>
      <trkpt lat="43.46157" lon="3.76993">
        <ele>2</ele>
        <time>2020-01-14T09:29:50Z</time>
      </trkpt>
      <trkpt lat="43.46158" lon="3.76995">
        <ele>2</ele>
        <time>2020-01-14T09:29:52Z</time>
      </trkpt>
      <trkpt lat="43.4616" lon="3.76997">
        <ele>2</ele>
        <time>2020-01-14T09:29:54Z</time>
      </trkpt>
      <trkpt lat="43.46162" lon="3.76999">
        <ele>2</ele>
        <time>2020-01-14T09:29:56Z</time>
      </trkpt>
      <trkpt lat="43.46164" lon="3.77">
        <ele>2</ele>
        <time>2020-01-14T09:29:58Z</time>
      </trkpt>
      <trkpt lat="43.46166" lon="3.77002">
        <ele>2</ele>
        <time>2020-01-14T09:30:00Z</time>
      </trkpt>
      <trkpt lat="43.46168" lon="3.77005">
        <ele>2</ele>
        <time>2020-01-14T09:30:02Z</time>
      </trkpt>
      <trkpt lat="43.4617" lon="3.77007">
        <ele>2</ele>
        <time>2020-01-14T09:30:04Z</time>
      </trkpt>
      <trkpt lat="43.46172" lon="3.77009">
        <ele>2</ele>
        <time>2020-01-14T09:30:06Z</time>
      </trkpt>
      <trkpt lat="43.46174" lon="3.77011">
        <ele>2</ele>
        <time>2020-01-14T09:30:08Z</time>
      </trkpt>
      <trkpt lat="43.46175" lon="3.77014">
        <ele>2</ele>
        <time>2020-01-14T09:30:10Z</time>
      </trkpt>
      <trkpt lat="43.46177" lon="3.77016">
        <ele>2</ele>
        <time>2020-01-14T09:30:12Z</time>
      </trkpt>
      <trkpt lat="43.46179" lon="3.77018">
        <ele>2</ele>
        <time>2020-01-14T09:30:14Z</time>
      </trkpt>
      <trkpt lat="43.46181" lon="3.7702">
        <ele>2</ele>
        <time>2020-01-14T09:30:16Z</time>
      </trkpt>
      <trkpt lat="43.46183" lon="3.77022">
        <ele>2</ele>
        <time>2020-01-14T09:30:18Z</time>
      </trkpt>
      <trkpt lat="43.46185" lon="3.77024">
        <ele>2</ele>
        <time>2020-01-14T09:30:20Z</time>
      </trkpt>
      <trkpt lat="43.46187" lon="3.77026">
        <ele>2</ele>
        <time>2020-01-14T09:30:22Z</time>
      </trkpt>
      <trkpt lat="43.46188" lon="3.77028">
        <ele>2</ele>
        <time>2020-01-14T09:30:24Z</time>
      </trkpt>
      <trkpt lat="43.4619" lon="3.7703">
        <ele>2</ele>
        <time>2020-01-14T09:30:26Z</time>
      </trkpt>
      <trkpt lat="43.46192" lon="3.77032">
        <ele>2</ele>
        <time>2020-01-14T09:30:28Z</time>
      </trkpt>
      <trkpt lat="43.46193" lon="3.77034">
        <ele>2</ele>
        <time>2020-01-14T09:30:30Z</time>
      </trkpt>
      <trkpt lat="43.46195" lon="3.77036">
        <ele>2</ele>
        <time>2020-01-14T09:30:32Z</time>
      </trkpt>
      <trkpt lat="43.46197" lon="3.77039">
        <ele>2</ele>
        <time>2020-01-14T09:30:34Z</time>
      </trkpt>
      <trkpt lat="43.46199" lon="3.77041">
        <ele>2</ele>
        <time>2020-01-14T09:30:36Z</time>
      </trkpt>
      <trkpt lat="43.46201" lon="3.77042">
        <ele>2</ele>
        <time>2020-01-14T09:30:38Z</time>
      </trkpt>
      <trkpt lat="43.46203" lon="3.77045">
        <ele>2</ele>
        <time>2020-01-14T09:30:40Z</time>
      </trkpt>
      <trkpt lat="43.46204" lon="3.77047">
        <ele>2</ele>
        <time>2020-01-14T09:30:42Z</time>
      </trkpt>
      <trkpt lat="43.46206" lon="3.7705">
        <ele>2</ele>
        <time>2020-01-14T09:30:44Z</time>
      </trkpt>
      <trkpt lat="43.46207" lon="3.77052">
        <ele>2</ele>
        <time>2020-01-14T09:30:46Z</time>
      </trkpt>
      <trkpt lat="43.46209" lon="3.77053">
        <ele>2</ele>
        <time>2020-01-14T09:30:48Z</time>
      </trkpt>
      <trkpt lat="43.46211" lon="3.77055">
        <ele>2</ele>
        <time>2020-01-14T09:30:50Z</time>
      </trkpt>
      <trkpt lat="43.46214" lon="3.77057">
        <ele>2</ele>
        <time>2020-01-14T09:30:52Z</time>
      </trkpt>
      <trkpt lat="43.46215" lon="3.77058">
        <ele>2</ele>
        <time>2020-01-14T09:30:54Z</time>
      </trkpt>
      <trkpt lat="43.46217" lon="3.77059">
        <ele>2</ele>
        <time>2020-01-14T09:30:56Z</time>
      </trkpt>
      <trkpt lat="43.46219" lon="3.7706">
        <ele>2</ele>
        <time>2020-01-14T09:30:58Z</time>
      </trkpt>
      <trkpt lat="43.46221" lon="3.77061">
        <ele>2</ele>
        <time>2020-01-14T09:31:00Z</time>
      </trkpt>
      <trkpt lat="43.46224" lon="3.77061">
        <ele>2</ele>
        <time>2020-01-14T09:31:02Z</time>
      </trkpt>
      <trkpt lat="43.46226" lon="3.77062">
        <ele>2</ele>
        <time>2020-01-14T09:31:04Z</time>
      </trkpt>
      <trkpt lat="43.46229" lon="3.77062">
        <ele>2</ele>
        <time>2020-01-14T09:31:06Z</time>
      </trkpt>
      <trkpt lat="43.46231" lon="3.77063">
        <ele>2</ele>
        <time>2020-01-14T09:31:08Z</time>
      </trkpt>
      <trkpt lat="43.46233" lon="3.77064">
        <ele>2</ele>
        <time>2020-01-14T09:31:10Z</time>
      </trkpt>
      <trkpt lat="43.46235" lon="3.77065">
        <ele>2</ele>
        <time>2020-01-14T09:31:12Z</time>
      </trkpt>
      <trkpt lat="43.46237" lon="3.77065">
        <ele>2</ele>
        <time>2020-01-14T09:31:14Z</time>
      </trkpt>
      <trkpt lat="43.46239" lon="3.77065">
        <ele>2</ele>
        <time>2020-01-14T09:31:16Z</time>
      </trkpt>
      <trkpt lat="43.46241" lon="3.77065">
        <ele>2</ele>
        <time>2020-01-14T09:31:18Z</time>
      </trkpt>
      <trkpt lat="43.46244" lon="3.77066">
        <ele>2</ele>
        <time>2020-01-14T09:31:20Z</time>
      </trkpt>
      <trkpt lat="43.46246" lon="3.77066">
        <ele>2</ele>
        <time>2020-01-14T09:31:22Z</time>
      </trkpt>
      <trkpt lat="43.46248" lon="3.77068">
        <ele>2</ele>
        <time>2020-01-14T09:31:24Z</time>
      </trkpt>
      <trkpt lat="43.4625" lon="3.77069">
        <ele>2</ele>
        <time>2020-01-14T09:31:26Z</time>
      </trkpt>
      <trkpt lat="43.46252" lon="3.77069">
        <ele>2</ele>
        <time>2020-01-14T09:31:28Z</time>
      </trkpt>
      <trkpt lat="43.46254" lon="3.77069">
        <ele>2</ele>
        <time>2020-01-14T09:31:30Z</time>
      </trkpt>
      <trkpt lat="43.46256" lon="3.7707">
        <ele>2</ele>
        <time>2020-01-14T09:31:32Z</time>
      </trkpt>
      <trkpt lat="43.46259" lon="3.7707">
        <ele>2</ele>
        <time>2020-01-14T09:31:34Z</time>
      </trkpt>
      <trkpt lat="43.46261" lon="3.77071">
        <ele>2</ele>
        <time>2020-01-14T09:31:36Z</time>
      </trkpt>
      <trkpt lat="43.46263" lon="3.77072">
        <ele>2</ele>
        <time>2020-01-14T09:31:38Z</time>
      </trkpt>
      <trkpt lat="43.46265" lon="3.77073">
        <ele>2</ele>
        <time>2020-01-14T09:31:40Z</time>
      </trkpt>
      <trkpt lat="43.46268" lon="3.77073">
        <ele>2</ele>
        <time>2020-01-14T09:31:42Z</time>
      </trkpt>
      <trkpt lat="43.4627" lon="3.77074">
        <ele>2</ele>
        <time>2020-01-14T09:31:44Z</time>
      </trkpt>
      <trkpt lat="43.46272" lon="3.77075">
        <ele>2</ele>
        <time>2020-01-14T09:31:46Z</time>
      </trkpt>
      <trkpt lat="43.46274" lon="3.77075">
        <ele>2</ele>
        <time>2020-01-14T09:31:48Z</time>
      </trkpt>
      <trkpt lat="43.46277" lon="3.77076">
        <ele>2</ele>
        <time>2020-01-14T09:31:50Z</time>
      </trkpt>
      <trkpt lat="43.46279" lon="3.77077">
        <ele>2</ele>
        <time>2020-01-14T09:31:52Z</time>
      </trkpt>
      <trkpt lat="43.46281" lon="3.77078">
        <ele>2</ele>
        <time>2020-01-14T09:31:54Z</time>
      </trkpt>
      <trkpt lat="43.46283" lon="3.77079">
        <ele>2</ele>
        <time>2020-01-14T09:31:56Z</time>
      </trkpt>
      <trkpt lat="43.46285" lon="3.7708">
        <ele>2</ele>
        <time>2020-01-14T09:31:58Z</time>
      </trkpt>
      <trkpt lat="43.46288" lon="3.77081">
        <ele>2</ele>
        <time>2020-01-14T09:32:00Z</time>
      </trkpt>
      <trkpt lat="43.4629" lon="3.77081">
        <ele>2</ele>
        <time>2020-01-14T09:32:02Z</time>
      </trkpt>
      <trkpt lat="43.46292" lon="3.77081">
        <ele>2</ele>
        <time>2020-01-14T09:32:04Z</time>
      </trkpt>
      <trkpt lat="43.46295" lon="3.77082">
        <ele>2</ele>
        <time>2020-01-14T09:32:06Z</time>
      </trkpt>
      <trkpt lat="43.46297" lon="3.77083">
        <ele>2</ele>
        <time>2020-01-14T09:32:08Z</time>
      </trkpt>
      <trkpt lat="43.463" lon="3.77083">
        <ele>2</ele>
        <time>2020-01-14T09:32:10Z</time>
      </trkpt>
      <trkpt lat="43.46302" lon="3.77082">
        <ele>2</ele>
        <time>2020-01-14T09:32:12Z</time>
      </trkpt>
      <trkpt lat="43.46304" lon="3.77082">
        <ele>2</ele>
        <time>2020-01-14T09:32:14Z</time>
      </trkpt>
      <trkpt lat="43.46306" lon="3.77081">
        <ele>2</ele>
        <time>2020-01-14T09:32:16Z</time>
      </trkpt>
      <trkpt lat="43.46309" lon="3.77081">
        <ele>2</ele>
        <time>2020-01-14T09:32:18Z</time>
      </trkpt>
      <trkpt lat="43.46311" lon="3.77081">
        <ele>2</ele>
        <time>2020-01-14T09:32:20Z</time>
      </trkpt>
      <trkpt lat="43.46314" lon="3.77082">
        <ele>2</ele>
        <time>2020-01-14T09:32:22Z</time>
      </trkpt>
      <trkpt lat="43.46316" lon="3.77082">
        <ele>2</ele>
        <time>2020-01-14T09:32:24Z</time>
      </trkpt>
      <trkpt lat="43.46318" lon="3.77082">
        <ele>2</ele>
        <time>2020-01-14T09:32:26Z</time>
      </trkpt>
      <trkpt lat="43.46321" lon="3.77082">
        <ele>2</ele>
        <time>2020-01-14T09:32:28Z</time>
      </trkpt>
      <trkpt lat="43.46323" lon="3.77083">
        <ele>2</ele>
        <time>2020-01-14T09:32:30Z</time>
      </trkpt>
      <trkpt lat="43.46326" lon="3.77083">
        <ele>2</ele>
        <time>2020-01-14T09:32:32Z</time>
      </trkpt>
      <trkpt lat="43.46328" lon="3.77083">
        <ele>2</ele>
        <time>2020-01-14T09:32:34Z</time>
      </trkpt>
      <trkpt lat="43.46331" lon="3.77083">
        <ele>2</ele>
        <time>2020-01-14T09:32:36Z</time>
      </trkpt>
      <trkpt lat="43.46333" lon="3.77084">
        <ele>2</ele>
        <time>2020-01-14T09:32:38Z</time>
      </trkpt>
      <trkpt lat="43.46336" lon="3.77084">
        <ele>2</ele>
        <time>2020-01-14T09:32:40Z</time>
      </trkpt>
      <trkpt lat="43.46338" lon="3.77085">
        <ele>2</ele>
        <time>2020-01-14T09:32:42Z</time>
      </trkpt>
      <trkpt lat="43.4634" lon="3.77084">
        <ele>2</ele>
        <time>2020-01-14T09:32:44Z</time>
      </trkpt>
      <trkpt lat="43.46343" lon="3.77084">
        <ele>2</ele>
        <time>2020-01-14T09:32:46Z</time>
      </trkpt>
      <trkpt lat="43.46345" lon="3.77085">
        <ele>2</ele>
        <time>2020-01-14T09:32:48Z</time>
      </trkpt>
      <trkpt lat="43.46348" lon="3.77085">
        <ele>2</ele>
        <time>2020-01-14T09:32:50Z</time>
      </trkpt>
      <trkpt lat="43.4635" lon="3.77085">
        <ele>2</ele>
        <time>2020-01-14T09:32:52Z</time>
      </trkpt>
      <trkpt lat="43.46352" lon="3.77085">
        <ele>2</ele>
        <time>2020-01-14T09:32:54Z</time>
      </trkpt>
      <trkpt lat="43.46354" lon="3.77086">
        <ele>2</ele>
        <time>2020-01-14T09:32:56Z</time>
      </trkpt>
      <trkpt lat="43.46357" lon="3.77087">
        <ele>2</ele>
        <time>2020-01-14T09:32:58Z</time>
      </trkpt>
      <trkpt lat="43.46359" lon="3.77087">
        <ele>2</ele>
        <time>2020-01-14T09:33:00Z</time>
      </trkpt>
      <trkpt lat="43.46362" lon="3.77088">
        <ele>2</ele>
        <time>2020-01-14T09:33:02Z</time>
      </trkpt>
      <trkpt lat="43.46364" lon="3.77088">
        <ele>2</ele>
        <time>2020-01-14T09:33:04Z</time>
      </trkpt>
      <trkpt lat="43.46366" lon="3.77089">
        <ele>2</ele>
        <time>2020-01-14T09:33:06Z</time>
      </trkpt>
      <trkpt lat="43.46369" lon="3.77091">
        <ele>2</ele>
        <time>2020-01-14T09:33:08Z</time>
      </trkpt>
      <trkpt lat="43.46371" lon="3.77094">
        <ele>2</ele>
        <time>2020-01-14T09:33:10Z</time>
      </trkpt>
      <trkpt lat="43.46373" lon="3.77096">
        <ele>2</ele>
        <time>2020-01-14T09:33:12Z</time>
      </trkpt>
      <trkpt lat="43.46374" lon="3.77099">
        <ele>2</ele>
        <time>2020-01-14T09:33:14Z</time>
      </trkpt>
      <trkpt lat="43.46375" lon="3.77102">
        <ele>2</ele>
        <time>2020-01-14T09:33:16Z</time>
      </trkpt>
      <trkpt lat="43.46376" lon="3.77104">
        <ele>2</ele>
        <time>2020-01-14T09:33:18Z</time>
      </trkpt>
      <trkpt lat="43.46377" lon="3.77106">
        <ele>2</ele>
        <time>2020-01-14T09:33:20Z</time>
      </trkpt>
      <trkpt lat="43.46377" lon="3.77109">
        <ele>2</ele>
        <time>2020-01-14T09:33:22Z</time>
      </trkpt>
      <trkpt lat="43.46378" lon="3.77112">
        <ele>2</ele>
        <time>2020-01-14T09:33:24Z</time>
      </trkpt>
      <trkpt lat="43.46378" lon="3.77115">
        <ele>2</ele>
        <time>2020-01-14T09:33:26Z</time>
      </trkpt>
      <trkpt lat="43.46378" lon="3.77118">
        <ele>2</ele>
        <time>2020-01-14T09:33:28Z</time>
      </trkpt>
      <trkpt lat="43.46378" lon="3.77121">
        <ele>2</ele>
        <time>2020-01-14T09:33:30Z</time>
      </trkpt>
      <trkpt lat="43.46378" lon="3.77123">
        <ele>2</ele>
        <time>2020-01-14T09:33:32Z</time>
      </trkpt>
      <trkpt lat="43.46379" lon="3.77126">
        <ele>2</ele>
        <time>2020-01-14T09:33:34Z</time>
      </trkpt>
      <trkpt lat="43.46379" lon="3.77129">
        <ele>2</ele>
        <time>2020-01-14T09:33:36Z</time>
      </trkpt>
      <trkpt lat="43.46381" lon="3.77134">
        <ele>2</ele>
        <time>2020-01-14T09:33:38Z</time>
      </trkpt>
      <trkpt lat="43.46382" lon="3.77136">
        <ele>2</ele>
        <time>2020-01-14T09:33:41Z</time>
      </trkpt>
      <trkpt lat="43.46383" lon="3.77138">
        <ele>2</ele>
        <time>2020-01-14T09:33:43Z</time>
      </trkpt>
      <trkpt lat="43.46384" lon="3.7714">
        <ele>2</ele>
        <time>2020-01-14T09:33:45Z</time>
      </trkpt>
      <trkpt lat="43.46385" lon="3.77143">
        <ele>2</ele>
        <time>2020-01-14T09:33:46Z</time>
      </trkpt>
      <trkpt lat="43.46388" lon="3.77145">
        <ele>2</ele>
        <time>2020-01-14T09:33:47Z</time>
      </trkpt>
      <trkpt lat="43.46389" lon="3.77147">
        <ele>2</ele>
        <time>2020-01-14T09:33:49Z</time>
      </trkpt>
      <trkpt lat="43.4639" lon="3.77149">
        <ele>2</ele>
        <time>2020-01-14T09:33:51Z</time>
      </trkpt>
      <trkpt lat="43.46391" lon="3.7715">
        <ele>2</ele>
        <time>2020-01-14T09:33:53Z</time>
      </trkpt>
      <trkpt lat="43.46393" lon="3.77152">
        <ele>2</ele>
        <time>2020-01-14T09:33:55Z</time>
      </trkpt>
      <trkpt lat="43.46394" lon="3.77153">
        <ele>2</ele>
        <time>2020-01-14T09:33:56Z</time>
      </trkpt>
      <trkpt lat="43.46396" lon="3.77156">
        <ele>2</ele>
        <time>2020-01-14T09:33:57Z</time>
      </trkpt>
      <trkpt lat="43.46397" lon="3.77158">
        <ele>2</ele>
        <time>2020-01-14T09:33:59Z</time>
      </trkpt>
      <trkpt lat="43.46398" lon="3.7716">
        <ele>2</ele>
        <time>2020-01-14T09:34:01Z</time>
      </trkpt>
      <trkpt lat="43.46399" lon="3.77162">
        <ele>2</ele>
        <time>2020-01-14T09:34:03Z</time>
      </trkpt>
      <trkpt lat="43.464" lon="3.77164">
        <ele>2</ele>
        <time>2020-01-14T09:34:05Z</time>
      </trkpt>
      <trkpt lat="43.46402" lon="3.77166">
        <ele>2</ele>
        <time>2020-01-14T09:34:06Z</time>
      </trkpt>
      <trkpt lat="43.46404" lon="3.77169">
        <ele>2</ele>
        <time>2020-01-14T09:34:07Z</time>
      </trkpt>
      <trkpt lat="43.46405" lon="3.77171">
        <ele>2</ele>
        <time>2020-01-14T09:34:09Z</time>
      </trkpt>
      <trkpt lat="43.46406" lon="3.77173">
        <ele>2</ele>
        <time>2020-01-14T09:34:11Z</time>
      </trkpt>
      <trkpt lat="43.46407" lon="3.77175">
        <ele>2</ele>
        <time>2020-01-14T09:34:13Z</time>
      </trkpt>
      <trkpt lat="43.46408" lon="3.77177">
        <ele>2</ele>
        <time>2020-01-14T09:34:15Z</time>
      </trkpt>
      <trkpt lat="43.46409" lon="3.77178">
        <ele>2</ele>
        <time>2020-01-14T09:34:16Z</time>
      </trkpt>
      <trkpt lat="43.46411" lon="3.77182">
        <ele>2</ele>
        <time>2020-01-14T09:34:17Z</time>
      </trkpt>
      <trkpt lat="43.46412" lon="3.77183">
        <ele>2</ele>
        <time>2020-01-14T09:34:19Z</time>
      </trkpt>
      <trkpt lat="43.46413" lon="3.77185">
        <ele>2</ele>
        <time>2020-01-14T09:34:21Z</time>
      </trkpt>
      <trkpt lat="43.46414" lon="3.77187">
        <ele>2</ele>
        <time>2020-01-14T09:34:23Z</time>
      </trkpt>
      <trkpt lat="43.46415" lon="3.77189">
        <ele>2</ele>
        <time>2020-01-14T09:34:25Z</time>
      </trkpt>
      <trkpt lat="43.46417" lon="3.77191">
        <ele>2</ele>
        <time>2020-01-14T09:34:26Z</time>
      </trkpt>
      <trkpt lat="43.46417" lon="3.77192">
        <ele>2</ele>
        <time>2020-01-14T09:34:27Z</time>
      </trkpt>
      <trkpt lat="43.46419" lon="3.77193">
        <ele>2</ele>
        <time>2020-01-14T09:34:29Z</time>
      </trkpt>
      <trkpt lat="43.46421" lon="3.77195">
        <ele>2</ele>
        <time>2020-01-14T09:34:31Z</time>
      </trkpt>
      <trkpt lat="43.46422" lon="3.77197">
        <ele>2</ele>
        <time>2020-01-14T09:34:33Z</time>
      </trkpt>
      <trkpt lat="43.46422" lon="3.77197">
        <ele>2</ele>
        <time>2020-01-14T09:34:36Z</time>
      </trkpt>
      <trkpt lat="43.46424" lon="3.77198">
        <ele>2</ele>
        <time>2020-01-14T09:34:37Z</time>
      </trkpt>
      <trkpt lat="43.46426" lon="3.77202">
        <ele>2</ele>
        <time>2020-01-14T09:34:40Z</time>
      </trkpt>
      <trkpt lat="43.46427" lon="3.77204">
        <ele>2</ele>
        <time>2020-01-14T09:34:42Z</time>
      </trkpt>
      <trkpt lat="43.46429" lon="3.77206">
        <ele>2</ele>
        <time>2020-01-14T09:34:44Z</time>
      </trkpt>
      <trkpt lat="43.4643" lon="3.77208">
        <ele>2</ele>
        <time>2020-01-14T09:34:46Z</time>
      </trkpt>
      <trkpt lat="43.46431" lon="3.77211">
        <ele>2</ele>
        <time>2020-01-14T09:34:48Z</time>
      </trkpt>
      <trkpt lat="43.46433" lon="3.77213">
        <ele>2</ele>
        <time>2020-01-14T09:34:50Z</time>
      </trkpt>
      <trkpt lat="43.46434" lon="3.77214">
        <ele>2</ele>
        <time>2020-01-14T09:34:52Z</time>
      </trkpt>
      <trkpt lat="43.46436" lon="3.77217">
        <ele>2</ele>
        <time>2020-01-14T09:34:54Z</time>
      </trkpt>
      <trkpt lat="43.46437" lon="3.77219">
        <ele>2</ele>
        <time>2020-01-14T09:34:56Z</time>
      </trkpt>
      <trkpt lat="43.46439" lon="3.77221">
        <ele>2</ele>
        <time>2020-01-14T09:34:58Z</time>
      </trkpt>
      <trkpt lat="43.4644" lon="3.77223">
        <ele>2</ele>
        <time>2020-01-14T09:35:00Z</time>
      </trkpt>
      <trkpt lat="43.46442" lon="3.77225">
        <ele>2</ele>
        <time>2020-01-14T09:35:02Z</time>
      </trkpt>
      <trkpt lat="43.46443" lon="3.77228">
        <ele>2</ele>
        <time>2020-01-14T09:35:04Z</time>
      </trkpt>
      <trkpt lat="43.46445" lon="3.7723">
        <ele>2</ele>
        <time>2020-01-14T09:35:06Z</time>
      </trkpt>
      <trkpt lat="43.46448" lon="3.77234">
        <ele>2</ele>
        <time>2020-01-14T09:35:09Z</time>
      </trkpt>
      <trkpt lat="43.46449" lon="3.77236">
        <ele>2</ele>
        <time>2020-01-14T09:35:11Z</time>
      </trkpt>
      <trkpt lat="43.4645" lon="3.77237">
        <ele>2</ele>
        <time>2020-01-14T09:35:13Z</time>
      </trkpt>
      <trkpt lat="43.46451" lon="3.77239">
        <ele>2</ele>
        <time>2020-01-14T09:35:15Z</time>
      </trkpt>
      <trkpt lat="43.46452" lon="3.77241">
        <ele>2</ele>
        <time>2020-01-14T09:35:16Z</time>
      </trkpt>
      <trkpt lat="43.46454" lon="3.77243">
        <ele>2</ele>
        <time>2020-01-14T09:35:17Z</time>
      </trkpt>
      <trkpt lat="43.46455" lon="3.77245">
        <ele>2</ele>
        <time>2020-01-14T09:35:19Z</time>
      </trkpt>
      <trkpt lat="43.46456" lon="3.77246">
        <ele>2</ele>
        <time>2020-01-14T09:35:21Z</time>
      </trkpt>
      <trkpt lat="43.46458" lon="3.77248">
        <ele>2</ele>
        <time>2020-01-14T09:35:23Z</time>
      </trkpt>
      <trkpt lat="43.46459" lon="3.77249">
        <ele>2</ele>
        <time>2020-01-14T09:35:25Z</time>
      </trkpt>
      <trkpt lat="43.4646" lon="3.77251">
        <ele>2</ele>
        <time>2020-01-14T09:35:26Z</time>
      </trkpt>
      <trkpt lat="43.46461" lon="3.77252">
        <ele>2</ele>
        <time>2020-01-14T09:35:27Z</time>
      </trkpt>
      <trkpt lat="43.46463" lon="3.77252">
        <ele>2</ele>
        <time>2020-01-14T09:35:30Z</time>
      </trkpt>
      <trkpt lat="43.46463" lon="3.77252">
        <ele>2</ele>
        <time>2020-01-14T09:35:36Z</time>
      </trkpt>
      <trkpt lat="43.46463" lon="3.77252">
        <ele>2</ele>
        <time>2020-01-14T09:35:38Z</time>
      </trkpt>
      <trkpt lat="43.46463" lon="3.77252">
        <ele>2</ele>
        <time>2020-01-14T09:40:03Z</time>
      </trkpt>
      <trkpt lat="43.46469" lon="3.77246">
        <ele>2</ele>
        <time>2020-01-14T09:40:04Z</time>
      </trkpt>
      <trkpt lat="43.4647" lon="3.77245">
        <ele>2</ele>
        <time>2020-01-14T09:40:09Z</time>
      </trkpt>
      <trkpt lat="43.4647" lon="3.77245">
        <ele>2</ele>
        <time>2020-01-14T09:40:12Z</time>
      </trkpt>
      <trkpt lat="43.46471" lon="3.77244">
        <ele>2</ele>
        <time>2020-01-14T09:40:13Z</time>
      </trkpt>
      <trkpt lat="43.46477" lon="3.7724">
        <ele>2</ele>
        <time>2020-01-14T09:40:19Z</time>
      </trkpt>
      <trkpt lat="43.46477" lon="3.77239">
        <ele>2</ele>
        <time>2020-01-14T09:40:20Z</time>
      </trkpt>
      <trkpt lat="43.46479" lon="3.77237">
        <ele>2</ele>
        <time>2020-01-14T09:40:22Z</time>
      </trkpt>
      <trkpt lat="43.46481" lon="3.77236">
        <ele>2</ele>
        <time>2020-01-14T09:40:24Z</time>
      </trkpt>
      <trkpt lat="43.46482" lon="3.77234">
        <ele>2</ele>
        <time>2020-01-14T09:40:26Z</time>
      </trkpt>
      <trkpt lat="43.46484" lon="3.77233">
        <ele>2</ele>
        <time>2020-01-14T09:40:28Z</time>
      </trkpt>
      <trkpt lat="43.46488" lon="3.77231">
        <ele>2</ele>
        <time>2020-01-14T09:40:31Z</time>
      </trkpt>
      <trkpt lat="43.4649" lon="3.77231">
        <ele>2</ele>
        <time>2020-01-14T09:40:33Z</time>
      </trkpt>
      <trkpt lat="43.46491" lon="3.77231">
        <ele>2</ele>
        <time>2020-01-14T09:40:35Z</time>
      </trkpt>
      <trkpt lat="43.46493" lon="3.77231">
        <ele>2</ele>
        <time>2020-01-14T09:40:37Z</time>
      </trkpt>
      <trkpt lat="43.46494" lon="3.77231">
        <ele>2</ele>
        <time>2020-01-14T09:40:38Z</time>
      </trkpt>
      <trkpt lat="43.46495" lon="3.77232">
        <ele>2</ele>
        <time>2020-01-14T09:40:39Z</time>
      </trkpt>
      <trkpt lat="43.46498" lon="3.77233">
        <ele>2</ele>
        <time>2020-01-14T09:40:42Z</time>
      </trkpt>
      <trkpt lat="43.46499" lon="3.77234">
        <ele>2</ele>
        <time>2020-01-14T09:40:44Z</time>
      </trkpt>
      <trkpt lat="43.46502" lon="3.77236">
        <ele>2</ele>
        <time>2020-01-14T09:40:46Z</time>
      </trkpt>
      <trkpt lat="43.46504" lon="3.77238">
        <ele>2</ele>
        <time>2020-01-14T09:40:48Z</time>
      </trkpt>
      <trkpt lat="43.46506" lon="3.77239">
        <ele>2</ele>
        <time>2020-01-14T09:40:50Z</time>
      </trkpt>
      <trkpt lat="43.46508" lon="3.77241">
        <ele>2</ele>
        <time>2020-01-14T09:40:52Z</time>
      </trkpt>
      <trkpt lat="43.4651" lon="3.77243">
        <ele>2</ele>
        <time>2020-01-14T09:40:54Z</time>
      </trkpt>
      <trkpt lat="43.46512" lon="3.77244">
        <ele>2</ele>
        <time>2020-01-14T09:40:56Z</time>
      </trkpt>
      <trkpt lat="43.46514" lon="3.77245">
        <ele>2</ele>
        <time>2020-01-14T09:40:58Z</time>
      </trkpt>
      <trkpt lat="43.46516" lon="3.77247">
        <ele>2</ele>
        <time>2020-01-14T09:41:00Z</time>
      </trkpt>
      <trkpt lat="43.46518" lon="3.77248">
        <ele>2</ele>
        <time>2020-01-14T09:41:02Z</time>
      </trkpt>
      <trkpt lat="43.4652" lon="3.7725">
        <ele>2</ele>
        <time>2020-01-14T09:41:04Z</time>
      </trkpt>
      <trkpt lat="43.46522" lon="3.77253">
        <ele>2</ele>
        <time>2020-01-14T09:41:06Z</time>
      </trkpt>
      <trkpt lat="43.46524" lon="3.77254">
        <ele>2</ele>
        <time>2020-01-14T09:41:08Z</time>
      </trkpt>
      <trkpt lat="43.46526" lon="3.77255">
        <ele>2</ele>
        <time>2020-01-14T09:41:10Z</time>
      </trkpt>
      <trkpt lat="43.46528" lon="3.77257">
        <ele>2</ele>
        <time>2020-01-14T09:41:12Z</time>
      </trkpt>
      <trkpt lat="43.4653" lon="3.77258">
        <ele>2</ele>
        <time>2020-01-14T09:41:14Z</time>
      </trkpt>
      <trkpt lat="43.46533" lon="3.7726">
        <ele>2</ele>
        <time>2020-01-14T09:41:16Z</time>
      </trkpt>
      <trkpt lat="43.46535" lon="3.77262">
        <ele>2</ele>
        <time>2020-01-14T09:41:18Z</time>
      </trkpt>
      <trkpt lat="43.46537" lon="3.77263">
        <ele>2</ele>
        <time>2020-01-14T09:41:20Z</time>
      </trkpt>
      <trkpt lat="43.46539" lon="3.77265">
        <ele>2</ele>
        <time>2020-01-14T09:41:22Z</time>
      </trkpt>
      <trkpt lat="43.46541" lon="3.77267">
        <ele>2</ele>
        <time>2020-01-14T09:41:24Z</time>
      </trkpt>
      <trkpt lat="43.46544" lon="3.77268">
        <ele>2</ele>
        <time>2020-01-14T09:41:26Z</time>
      </trkpt>
      <trkpt lat="43.46546" lon="3.7727">
        <ele>2</ele>
        <time>2020-01-14T09:41:28Z</time>
      </trkpt>
      <trkpt lat="43.46548" lon="3.77272">
        <ele>2</ele>
        <time>2020-01-14T09:41:30Z</time>
      </trkpt>
      <trkpt lat="43.4655" lon="3.77274">
        <ele>2</ele>
        <time>2020-01-14T09:41:32Z</time>
      </trkpt>
      <trkpt lat="43.46552" lon="3.77276">
        <ele>2</ele>
        <time>2020-01-14T09:41:34Z</time>
      </trkpt>
      <trkpt lat="43.46554" lon="3.77277">
        <ele>2</ele>
        <time>2020-01-14T09:41:36Z</time>
      </trkpt>
      <trkpt lat="43.46556" lon="3.77279">
        <ele>2</ele>
        <time>2020-01-14T09:41:38Z</time>
      </trkpt>
      <trkpt lat="43.46558" lon="3.7728">
        <ele>2</ele>
        <time>2020-01-14T09:41:40Z</time>
      </trkpt>
      <trkpt lat="43.4656" lon="3.77282">
        <ele>2</ele>
        <time>2020-01-14T09:41:42Z</time>
      </trkpt>
      <trkpt lat="43.46562" lon="3.77284">
        <ele>2</ele>
        <time>2020-01-14T09:41:44Z</time>
      </trkpt>
      <trkpt lat="43.46564" lon="3.77285">
        <ele>2</ele>
        <time>2020-01-14T09:41:46Z</time>
      </trkpt>
      <trkpt lat="43.46566" lon="3.77286">
        <ele>2</ele>
        <time>2020-01-14T09:41:48Z</time>
      </trkpt>
      <trkpt lat="43.4657" lon="3.77289">
        <ele>2</ele>
        <time>2020-01-14T09:41:51Z</time>
      </trkpt>
      <trkpt lat="43.46572" lon="3.7729">
        <ele>2</ele>
        <time>2020-01-14T09:41:53Z</time>
      </trkpt>
      <trkpt lat="43.46574" lon="3.77291">
        <ele>2</ele>
        <time>2020-01-14T09:41:55Z</time>
      </trkpt>
      <trkpt lat="43.46575" lon="3.77292">
        <ele>2</ele>
        <time>2020-01-14T09:41:57Z</time>
      </trkpt>
      <trkpt lat="43.46577" lon="3.77293">
        <ele>2</ele>
        <time>2020-01-14T09:41:58Z</time>
      </trkpt>
      <trkpt lat="43.46579" lon="3.77296">
        <ele>2</ele>
        <time>2020-01-14T09:41:59Z</time>
      </trkpt>
      <trkpt lat="43.46581" lon="3.77297">
        <ele>2</ele>
        <time>2020-01-14T09:42:01Z</time>
      </trkpt>
      <trkpt lat="43.46583" lon="3.77298">
        <ele>2</ele>
        <time>2020-01-14T09:42:03Z</time>
      </trkpt>
      <trkpt lat="43.46584" lon="3.773">
        <ele>2</ele>
        <time>2020-01-14T09:42:05Z</time>
      </trkpt>
      <trkpt lat="43.46586" lon="3.77301">
        <ele>2</ele>
        <time>2020-01-14T09:42:07Z</time>
      </trkpt>
      <trkpt lat="43.46587" lon="3.77303">
        <ele>2</ele>
        <time>2020-01-14T09:42:08Z</time>
      </trkpt>
      <trkpt lat="43.4659" lon="3.77305">
        <ele>2</ele>
        <time>2020-01-14T09:42:09Z</time>
      </trkpt>
      <trkpt lat="43.46592" lon="3.77306">
        <ele>2</ele>
        <time>2020-01-14T09:42:11Z</time>
      </trkpt>
      <trkpt lat="43.46593" lon="3.77307">
        <ele>2</ele>
        <time>2020-01-14T09:42:13Z</time>
      </trkpt>
      <trkpt lat="43.46595" lon="3.77308">
        <ele>2</ele>
        <time>2020-01-14T09:42:15Z</time>
      </trkpt>
      <trkpt lat="43.46596" lon="3.77309">
        <ele>2</ele>
        <time>2020-01-14T09:42:17Z</time>
      </trkpt>
      <trkpt lat="43.46598" lon="3.77311">
        <ele>2</ele>
        <time>2020-01-14T09:42:18Z</time>
      </trkpt>
      <trkpt lat="43.466" lon="3.77312">
        <ele>2</ele>
        <time>2020-01-14T09:42:19Z</time>
      </trkpt>
      <trkpt lat="43.46602" lon="3.77314">
        <ele>2</ele>
        <time>2020-01-14T09:42:21Z</time>
      </trkpt>
      <trkpt lat="43.46603" lon="3.77315">
        <ele>2</ele>
        <time>2020-01-14T09:42:23Z</time>
      </trkpt>
      <trkpt lat="43.46605" lon="3.77316">
        <ele>2</ele>
        <time>2020-01-14T09:42:25Z</time>
      </trkpt>
      <trkpt lat="43.46606" lon="3.77317">
        <ele>2</ele>
        <time>2020-01-14T09:42:27Z</time>
      </trkpt>
      <trkpt lat="43.46608" lon="3.77319">
        <ele>2</ele>
        <time>2020-01-14T09:42:28Z</time>
      </trkpt>
      <trkpt lat="43.4661" lon="3.7732">
        <ele>2</ele>
        <time>2020-01-14T09:42:29Z</time>
      </trkpt>
      <trkpt lat="43.46612" lon="3.77321">
        <ele>2</ele>
        <time>2020-01-14T09:42:31Z</time>
      </trkpt>
      <trkpt lat="43.46614" lon="3.77323">
        <ele>2</ele>
        <time>2020-01-14T09:42:33Z</time>
      </trkpt>
      <trkpt lat="43.46615" lon="3.77324">
        <ele>2</ele>
        <time>2020-01-14T09:42:35Z</time>
      </trkpt>
      <trkpt lat="43.46617" lon="3.77325">
        <ele>2</ele>
        <time>2020-01-14T09:42:37Z</time>
      </trkpt>
      <trkpt lat="43.46618" lon="3.77326">
        <ele>2</ele>
        <time>2020-01-14T09:42:38Z</time>
      </trkpt>
      <trkpt lat="43.46621" lon="3.77328">
        <ele>2</ele>
        <time>2020-01-14T09:42:39Z</time>
      </trkpt>
      <trkpt lat="43.46622" lon="3.77329">
        <ele>2</ele>
        <time>2020-01-14T09:42:41Z</time>
      </trkpt>
      <trkpt lat="43.46624" lon="3.7733">
        <ele>2</ele>
        <time>2020-01-14T09:42:43Z</time>
      </trkpt>
      <trkpt lat="43.46625" lon="3.77331">
        <ele>2</ele>
        <time>2020-01-14T09:42:45Z</time>
      </trkpt>
      <trkpt lat="43.46626" lon="3.77332">
        <ele>2</ele>
        <time>2020-01-14T09:42:47Z</time>
      </trkpt>
      <trkpt lat="43.46628" lon="3.77333">
        <ele>2</ele>
        <time>2020-01-14T09:42:48Z</time>
      </trkpt>
      <trkpt lat="43.4663" lon="3.77335">
        <ele>2</ele>
        <time>2020-01-14T09:42:49Z</time>
      </trkpt>
      <trkpt lat="43.46632" lon="3.77336">
        <ele>2</ele>
        <time>2020-01-14T09:42:51Z</time>
      </trkpt>
      <trkpt lat="43.46633" lon="3.77338">
        <ele>2</ele>
        <time>2020-01-14T09:42:53Z</time>
      </trkpt>
      <trkpt lat="43.46635" lon="3.77339">
        <ele>2</ele>
        <time>2020-01-14T09:42:55Z</time>
      </trkpt>
      <trkpt lat="43.46636" lon="3.7734">
        <ele>2</ele>
        <time>2020-01-14T09:42:57Z</time>
      </trkpt>
      <trkpt lat="43.46638" lon="3.77341">
        <ele>2</ele>
        <time>2020-01-14T09:42:58Z</time>
      </trkpt>
      <trkpt lat="43.4664" lon="3.77343">
        <ele>2</ele>
        <time>2020-01-14T09:42:59Z</time>
      </trkpt>
      <trkpt lat="43.46641" lon="3.77345">
        <ele>2</ele>
        <time>2020-01-14T09:43:01Z</time>
      </trkpt>
      <trkpt lat="43.46643" lon="3.77346">
        <ele>2</ele>
        <time>2020-01-14T09:43:03Z</time>
      </trkpt>
      <trkpt lat="43.46644" lon="3.77347">
        <ele>2</ele>
        <time>2020-01-14T09:43:05Z</time>
      </trkpt>
      <trkpt lat="43.46645" lon="3.77348">
        <ele>2</ele>
        <time>2020-01-14T09:43:07Z</time>
      </trkpt>
      <trkpt lat="43.46647" lon="3.77349">
        <ele>2</ele>
        <time>2020-01-14T09:43:08Z</time>
      </trkpt>
      <trkpt lat="43.46649" lon="3.77351">
        <ele>2</ele>
        <time>2020-01-14T09:43:09Z</time>
      </trkpt>
      <trkpt lat="43.4665" lon="3.77352">
        <ele>2</ele>
        <time>2020-01-14T09:43:11Z</time>
      </trkpt>
      <trkpt lat="43.46652" lon="3.77353">
        <ele>2</ele>
        <time>2020-01-14T09:43:13Z</time>
      </trkpt>
      <trkpt lat="43.46653" lon="3.77354">
        <ele>2</ele>
        <time>2020-01-14T09:43:15Z</time>
      </trkpt>
      <trkpt lat="43.46655" lon="3.77355">
        <ele>2</ele>
        <time>2020-01-14T09:43:17Z</time>
      </trkpt>
      <trkpt lat="43.46656" lon="3.77356">
        <ele>2</ele>
        <time>2020-01-14T09:43:18Z</time>
      </trkpt>
      <trkpt lat="43.46659" lon="3.77357">
        <ele>2</ele>
        <time>2020-01-14T09:43:19Z</time>
      </trkpt>
      <trkpt lat="43.4666" lon="3.77359">
        <ele>2</ele>
        <time>2020-01-14T09:43:21Z</time>
      </trkpt>
      <trkpt lat="43.46662" lon="3.7736">
        <ele>2</ele>
        <time>2020-01-14T09:43:23Z</time>
      </trkpt>
      <trkpt lat="43.46663" lon="3.77361">
        <ele>2</ele>
        <time>2020-01-14T09:43:25Z</time>
      </trkpt>
      <trkpt lat="43.46665" lon="3.77362">
        <ele>2</ele>
        <time>2020-01-14T09:43:27Z</time>
      </trkpt>
      <trkpt lat="43.46666" lon="3.77364">
        <ele>2</ele>
        <time>2020-01-14T09:43:28Z</time>
      </trkpt>
      <trkpt lat="43.46667" lon="3.77365">
        <ele>2</ele>
        <time>2020-01-14T09:43:29Z</time>
      </trkpt>
      <trkpt lat="43.46669" lon="3.77367">
        <ele>2</ele>
        <time>2020-01-14T09:43:31Z</time>
      </trkpt>
      <trkpt lat="43.4667" lon="3.77369">
        <ele>2</ele>
        <time>2020-01-14T09:43:33Z</time>
      </trkpt>
      <trkpt lat="43.4667" lon="3.77372">
        <ele>2</ele>
        <time>2020-01-14T09:43:35Z</time>
      </trkpt>
      <trkpt lat="43.46671" lon="3.77376">
        <ele>2</ele>
        <time>2020-01-14T09:43:38Z</time>
      </trkpt>
      <trkpt lat="43.4667" lon="3.77378">
        <ele>2</ele>
        <time>2020-01-14T09:43:40Z</time>
      </trkpt>
      <trkpt lat="43.4667" lon="3.77381">
        <ele>2</ele>
        <time>2020-01-14T09:43:42Z</time>
      </trkpt>
      <trkpt lat="43.46668" lon="3.77383">
        <ele>2</ele>
        <time>2020-01-14T09:43:44Z</time>
      </trkpt>
      <trkpt lat="43.46667" lon="3.77386">
        <ele>2</ele>
        <time>2020-01-14T09:43:46Z</time>
      </trkpt>
      <trkpt lat="43.46665" lon="3.77388">
        <ele>2</ele>
        <time>2020-01-14T09:43:48Z</time>
      </trkpt>
      <trkpt lat="43.46662" lon="3.77391">
        <ele>2</ele>
        <time>2020-01-14T09:43:50Z</time>
      </trkpt>
      <trkpt lat="43.46661" lon="3.77393">
        <ele>2</ele>
        <time>2020-01-14T09:43:52Z</time>
      </trkpt>
      <trkpt lat="43.4666" lon="3.77396">
        <ele>2</ele>
        <time>2020-01-14T09:43:54Z</time>
      </trkpt>
      <trkpt lat="43.46658" lon="3.77398">
        <ele>2</ele>
        <time>2020-01-14T09:43:56Z</time>
      </trkpt>
      <trkpt lat="43.46656" lon="3.77401">
        <ele>2</ele>
        <time>2020-01-14T09:43:58Z</time>
      </trkpt>
      <trkpt lat="43.46655" lon="3.77403">
        <ele>2</ele>
        <time>2020-01-14T09:44:00Z</time>
      </trkpt>
      <trkpt lat="43.46653" lon="3.77405">
        <ele>2</ele>
        <time>2020-01-14T09:44:02Z</time>
      </trkpt>
      <trkpt lat="43.46652" lon="3.77407">
        <ele>2</ele>
        <time>2020-01-14T09:44:04Z</time>
      </trkpt>
      <trkpt lat="43.46651" lon="3.77409">
        <ele>2</ele>
        <time>2020-01-14T09:44:06Z</time>
      </trkpt>
      <trkpt lat="43.4665" lon="3.77411">
        <ele>2</ele>
        <time>2020-01-14T09:44:08Z</time>
      </trkpt>
      <trkpt lat="43.46648" lon="3.77414">
        <ele>2</ele>
        <time>2020-01-14T09:44:10Z</time>
      </trkpt>
      <trkpt lat="43.46647" lon="3.77416">
        <ele>2</ele>
        <time>2020-01-14T09:44:12Z</time>
      </trkpt>
      <trkpt lat="43.46645" lon="3.77419">
        <ele>2</ele>
        <time>2020-01-14T09:44:14Z</time>
      </trkpt>
      <trkpt lat="43.46644" lon="3.77421">
        <ele>2</ele>
        <time>2020-01-14T09:44:16Z</time>
      </trkpt>
      <trkpt lat="43.46642" lon="3.77423">
        <ele>2</ele>
        <time>2020-01-14T09:44:18Z</time>
      </trkpt>
      <trkpt lat="43.46641" lon="3.77425">
        <ele>2</ele>
        <time>2020-01-14T09:44:20Z</time>
      </trkpt>
      <trkpt lat="43.46639" lon="3.77427">
        <ele>2</ele>
        <time>2020-01-14T09:44:22Z</time>
      </trkpt>
      <trkpt lat="43.46637" lon="3.77429">
        <ele>2</ele>
        <time>2020-01-14T09:44:24Z</time>
      </trkpt>
      <trkpt lat="43.46635" lon="3.77432">
        <ele>2</ele>
        <time>2020-01-14T09:44:26Z</time>
      </trkpt>
      <trkpt lat="43.46634" lon="3.77434">
        <ele>2</ele>
        <time>2020-01-14T09:44:28Z</time>
      </trkpt>
      <trkpt lat="43.46632" lon="3.77436">
        <ele>2</ele>
        <time>2020-01-14T09:44:30Z</time>
      </trkpt>
      <trkpt lat="43.46631" lon="3.77438">
        <ele>2</ele>
        <time>2020-01-14T09:44:32Z</time>
      </trkpt>
      <trkpt lat="43.4663" lon="3.77441">
        <ele>2</ele>
        <time>2020-01-14T09:44:34Z</time>
      </trkpt>
      <trkpt lat="43.46628" lon="3.77443">
        <ele>2</ele>
        <time>2020-01-14T09:44:36Z</time>
      </trkpt>
      <trkpt lat="43.46626" lon="3.77445">
        <ele>2</ele>
        <time>2020-01-14T09:44:38Z</time>
      </trkpt>
      <trkpt lat="43.46624" lon="3.77447">
        <ele>2</ele>
        <time>2020-01-14T09:44:40Z</time>
      </trkpt>
      <trkpt lat="43.46622" lon="3.77449">
        <ele>2</ele>
        <time>2020-01-14T09:44:42Z</time>
      </trkpt>
      <trkpt lat="43.46621" lon="3.77451">
        <ele>2</ele>
        <time>2020-01-14T09:44:44Z</time>
      </trkpt>
      <trkpt lat="43.46619" lon="3.77454">
        <ele>2</ele>
        <time>2020-01-14T09:44:46Z</time>
      </trkpt>
      <trkpt lat="43.46618" lon="3.77456">
        <ele>2</ele>
        <time>2020-01-14T09:44:48Z</time>
      </trkpt>
      <trkpt lat="43.46617" lon="3.77458">
        <ele>2</ele>
        <time>2020-01-14T09:44:50Z</time>
      </trkpt>
      <trkpt lat="43.46615" lon="3.7746">
        <ele>2</ele>
        <time>2020-01-14T09:44:52Z</time>
      </trkpt>
      <trkpt lat="43.46613" lon="3.77462">
        <ele>2</ele>
        <time>2020-01-14T09:44:54Z</time>
      </trkpt>
      <trkpt lat="43.46611" lon="3.77464">
        <ele>2</ele>
        <time>2020-01-14T09:44:56Z</time>
      </trkpt>
      <trkpt lat="43.4661" lon="3.77466">
        <ele>2</ele>
        <time>2020-01-14T09:44:58Z</time>
      </trkpt>
      <trkpt lat="43.46608" lon="3.77469">
        <ele>2</ele>
        <time>2020-01-14T09:45:00Z</time>
      </trkpt>
      <trkpt lat="43.46607" lon="3.77471">
        <ele>2</ele>
        <time>2020-01-14T09:45:02Z</time>
      </trkpt>
      <trkpt lat="43.46605" lon="3.77474">
        <ele>2</ele>
        <time>2020-01-14T09:45:04Z</time>
      </trkpt>
      <trkpt lat="43.46603" lon="3.77476">
        <ele>2</ele>
        <time>2020-01-14T09:45:06Z</time>
      </trkpt>
      <trkpt lat="43.46601" lon="3.77478">
        <ele>2</ele>
        <time>2020-01-14T09:45:08Z</time>
      </trkpt>
      <trkpt lat="43.466" lon="3.7748">
        <ele>2</ele>
        <time>2020-01-14T09:45:10Z</time>
      </trkpt>
      <trkpt lat="43.46598" lon="3.77483">
        <ele>2</ele>
        <time>2020-01-14T09:45:12Z</time>
      </trkpt>
      <trkpt lat="43.46596" lon="3.77485">
        <ele>2</ele>
        <time>2020-01-14T09:45:14Z</time>
      </trkpt>
      <trkpt lat="43.46595" lon="3.77487">
        <ele>2</ele>
        <time>2020-01-14T09:45:16Z</time>
      </trkpt>
      <trkpt lat="43.46593" lon="3.7749">
        <ele>2</ele>
        <time>2020-01-14T09:45:18Z</time>
      </trkpt>
      <trkpt lat="43.46591" lon="3.77493">
        <ele>2</ele>
        <time>2020-01-14T09:45:20Z</time>
      </trkpt>
      <trkpt lat="43.46589" lon="3.77495">
        <ele>2</ele>
        <time>2020-01-14T09:45:22Z</time>
      </trkpt>
      <trkpt lat="43.46587" lon="3.77498">
        <ele>2</ele>
        <time>2020-01-14T09:45:24Z</time>
      </trkpt>
      <trkpt lat="43.46585" lon="3.775">
        <ele>2</ele>
        <time>2020-01-14T09:45:26Z</time>
      </trkpt>
      <trkpt lat="43.46584" lon="3.77503">
        <ele>2</ele>
        <time>2020-01-14T09:45:28Z</time>
      </trkpt>
      <trkpt lat="43.46583" lon="3.77505">
        <ele>2</ele>
        <time>2020-01-14T09:45:30Z</time>
      </trkpt>
      <trkpt lat="43.46581" lon="3.77508">
        <ele>2</ele>
        <time>2020-01-14T09:45:32Z</time>
      </trkpt>
      <trkpt lat="43.46579" lon="3.7751">
        <ele>2</ele>
        <time>2020-01-14T09:45:34Z</time>
      </trkpt>
      <trkpt lat="43.46577" lon="3.77513">
        <ele>2</ele>
        <time>2020-01-14T09:45:36Z</time>
      </trkpt>
      <trkpt lat="43.46575" lon="3.77515">
        <ele>2</ele>
        <time>2020-01-14T09:45:38Z</time>
      </trkpt>
      <trkpt lat="43.46574" lon="3.77518">
        <ele>2</ele>
        <time>2020-01-14T09:45:40Z</time>
      </trkpt>
      <trkpt lat="43.46572" lon="3.7752">
        <ele>2</ele>
        <time>2020-01-14T09:45:42Z</time>
      </trkpt>
      <trkpt lat="43.4657" lon="3.77523">
        <ele>2</ele>
        <time>2020-01-14T09:45:44Z</time>
      </trkpt>
      <trkpt lat="43.46568" lon="3.77525">
        <ele>2</ele>
        <time>2020-01-14T09:45:46Z</time>
      </trkpt>
      <trkpt lat="43.46567" lon="3.77527">
        <ele>2</ele>
        <time>2020-01-14T09:45:48Z</time>
      </trkpt>
      <trkpt lat="43.46565" lon="3.7753">
        <ele>2</ele>
        <time>2020-01-14T09:45:50Z</time>
      </trkpt>
      <trkpt lat="43.46564" lon="3.77532">
        <ele>2</ele>
        <time>2020-01-14T09:45:52Z</time>
      </trkpt>
      <trkpt lat="43.46562" lon="3.77535">
        <ele>2</ele>
        <time>2020-01-14T09:45:54Z</time>
      </trkpt>
      <trkpt lat="43.4656" lon="3.77537">
        <ele>2</ele>
        <time>2020-01-14T09:45:56Z</time>
      </trkpt>
      <trkpt lat="43.46558" lon="3.77539">
        <ele>2</ele>
        <time>2020-01-14T09:45:58Z</time>
      </trkpt>
      <trkpt lat="43.46557" lon="3.77541">
        <ele>2</ele>
        <time>2020-01-14T09:46:00Z</time>
      </trkpt>
      <trkpt lat="43.46555" lon="3.77543">
        <ele>2</ele>
        <time>2020-01-14T09:46:02Z</time>
      </trkpt>
      <trkpt lat="43.46554" lon="3.77546">
        <ele>2</ele>
        <time>2020-01-14T09:46:04Z</time>
      </trkpt>
      <trkpt lat="43.46552" lon="3.77549">
        <ele>2</ele>
        <time>2020-01-14T09:46:06Z</time>
      </trkpt>
      <trkpt lat="43.46551" lon="3.77551">
        <ele>2</ele>
        <time>2020-01-14T09:46:08Z</time>
      </trkpt>
      <trkpt lat="43.4655" lon="3.77553">
        <ele>2</ele>
        <time>2020-01-14T09:46:10Z</time>
      </trkpt>
      <trkpt lat="43.46548" lon="3.77555">
        <ele>2</ele>
        <time>2020-01-14T09:46:12Z</time>
      </trkpt>
      <trkpt lat="43.46547" lon="3.77557">
        <ele>2</ele>
        <time>2020-01-14T09:46:14Z</time>
      </trkpt>
      <trkpt lat="43.46545" lon="3.7756">
        <ele>2</ele>
        <time>2020-01-14T09:46:16Z</time>
      </trkpt>
      <trkpt lat="43.46544" lon="3.77562">
        <ele>2</ele>
        <time>2020-01-14T09:46:18Z</time>
      </trkpt>
      <trkpt lat="43.46542" lon="3.77564">
        <ele>2</ele>
        <time>2020-01-14T09:46:20Z</time>
      </trkpt>
      <trkpt lat="43.4654" lon="3.77566">
        <ele>2</ele>
        <time>2020-01-14T09:46:22Z</time>
      </trkpt>
      <trkpt lat="43.46539" lon="3.77567">
        <ele>2</ele>
        <time>2020-01-14T09:46:24Z</time>
      </trkpt>
      <trkpt lat="43.46537" lon="3.77569">
        <ele>2</ele>
        <time>2020-01-14T09:46:26Z</time>
      </trkpt>
      <trkpt lat="43.46536" lon="3.77572">
        <ele>2</ele>
        <time>2020-01-14T09:46:28Z</time>
      </trkpt>
      <trkpt lat="43.46534" lon="3.77574">
        <ele>2</ele>
        <time>2020-01-14T09:46:32Z</time>
      </trkpt>
      <trkpt lat="43.46532" lon="3.77577">
        <ele>2</ele>
        <time>2020-01-14T09:46:34Z</time>
      </trkpt>
      <trkpt lat="43.4653" lon="3.77579">
        <ele>2</ele>
        <time>2020-01-14T09:46:36Z</time>
      </trkpt>
      <trkpt lat="43.46528" lon="3.77582">
        <ele>2</ele>
        <time>2020-01-14T09:46:38Z</time>
      </trkpt>
      <trkpt lat="43.46526" lon="3.77584">
        <ele>2</ele>
        <time>2020-01-14T09:46:40Z</time>
      </trkpt>
      <trkpt lat="43.46525" lon="3.77587">
        <ele>2</ele>
        <time>2020-01-14T09:46:42Z</time>
      </trkpt>
      <trkpt lat="43.46523" lon="3.7759">
        <ele>2</ele>
        <time>2020-01-14T09:46:44Z</time>
      </trkpt>
      <trkpt lat="43.46521" lon="3.77592">
        <ele>2</ele>
        <time>2020-01-14T09:46:46Z</time>
      </trkpt>
      <trkpt lat="43.4652" lon="3.77595">
        <ele>2</ele>
        <time>2020-01-14T09:46:48Z</time>
      </trkpt>
      <trkpt lat="43.46518" lon="3.77597">
        <ele>2</ele>
        <time>2020-01-14T09:46:50Z</time>
      </trkpt>
      <trkpt lat="43.46517" lon="3.77599">
        <ele>2</ele>
        <time>2020-01-14T09:46:52Z</time>
      </trkpt>
      <trkpt lat="43.46515" lon="3.77602">
        <ele>2</ele>
        <time>2020-01-14T09:46:54Z</time>
      </trkpt>
      <trkpt lat="43.46515" lon="3.77602">
        <ele>2</ele>
        <time>2020-01-14T09:46:58Z</time>
      </trkpt>
      <trkpt lat="43.46511" lon="3.77606">
        <ele>2</ele>
        <time>2020-01-14T09:46:59Z</time>
      </trkpt>
      <trkpt lat="43.4651" lon="3.77608">
        <ele>2</ele>
        <time>2020-01-14T09:47:01Z</time>
      </trkpt>
      <trkpt lat="43.46509" lon="3.7761">
        <ele>2</ele>
        <time>2020-01-14T09:47:03Z</time>
      </trkpt>
      <trkpt lat="43.46507" lon="3.77612">
        <ele>2</ele>
        <time>2020-01-14T09:47:05Z</time>
      </trkpt>
      <trkpt lat="43.46506" lon="3.77613">
        <ele>2</ele>
        <time>2020-01-14T09:47:07Z</time>
      </trkpt>
      <trkpt lat="43.46504" lon="3.77615">
        <ele>2</ele>
        <time>2020-01-14T09:47:08Z</time>
      </trkpt>
      <trkpt lat="43.46502" lon="3.77618">
        <ele>2</ele>
        <time>2020-01-14T09:47:09Z</time>
      </trkpt>
      <trkpt lat="43.46501" lon="3.7762">
        <ele>2</ele>
        <time>2020-01-14T09:47:11Z</time>
      </trkpt>
      <trkpt lat="43.465" lon="3.77622">
        <ele>2</ele>
        <time>2020-01-14T09:47:13Z</time>
      </trkpt>
      <trkpt lat="43.46498" lon="3.77624">
        <ele>2</ele>
        <time>2020-01-14T09:47:15Z</time>
      </trkpt>
      <trkpt lat="43.46497" lon="3.77626">
        <ele>2</ele>
        <time>2020-01-14T09:47:17Z</time>
      </trkpt>
      <trkpt lat="43.46496" lon="3.77628">
        <ele>2</ele>
        <time>2020-01-14T09:47:18Z</time>
      </trkpt>
      <trkpt lat="43.46495" lon="3.7763">
        <ele>2</ele>
        <time>2020-01-14T09:47:19Z</time>
      </trkpt>
      <trkpt lat="43.46493" lon="3.77633">
        <ele>2</ele>
        <time>2020-01-14T09:47:21Z</time>
      </trkpt>
      <trkpt lat="43.46491" lon="3.77635">
        <ele>2</ele>
        <time>2020-01-14T09:47:23Z</time>
      </trkpt>
      <trkpt lat="43.46489" lon="3.77637">
        <ele>2</ele>
        <time>2020-01-14T09:47:26Z</time>
      </trkpt>
      <trkpt lat="43.46487" lon="3.7764">
        <ele>2</ele>
        <time>2020-01-14T09:47:28Z</time>
      </trkpt>
      <trkpt lat="43.46486" lon="3.77642">
        <ele>2</ele>
        <time>2020-01-14T09:47:30Z</time>
      </trkpt>
      <trkpt lat="43.46484" lon="3.77645">
        <ele>2</ele>
        <time>2020-01-14T09:47:32Z</time>
      </trkpt>
      <trkpt lat="43.46483" lon="3.77648">
        <ele>2</ele>
        <time>2020-01-14T09:47:34Z</time>
      </trkpt>
      <trkpt lat="43.46481" lon="3.7765">
        <ele>2</ele>
        <time>2020-01-14T09:47:36Z</time>
      </trkpt>
      <trkpt lat="43.46479" lon="3.77652">
        <ele>2</ele>
        <time>2020-01-14T09:47:38Z</time>
      </trkpt>
      <trkpt lat="43.46477" lon="3.77654">
        <ele>2</ele>
        <time>2020-01-14T09:47:40Z</time>
      </trkpt>
      <trkpt lat="43.46475" lon="3.77656">
        <ele>2</ele>
        <time>2020-01-14T09:47:42Z</time>
      </trkpt>
      <trkpt lat="43.46474" lon="3.77658">
        <ele>2</ele>
        <time>2020-01-14T09:47:44Z</time>
      </trkpt>
      <trkpt lat="43.46472" lon="3.7766">
        <ele>2</ele>
        <time>2020-01-14T09:47:46Z</time>
      </trkpt>
      <trkpt lat="43.46471" lon="3.77662">
        <ele>2</ele>
        <time>2020-01-14T09:47:48Z</time>
      </trkpt>
      <trkpt lat="43.46469" lon="3.77665">
        <ele>2</ele>
        <time>2020-01-14T09:47:50Z</time>
      </trkpt>
      <trkpt lat="43.46468" lon="3.77667">
        <ele>2</ele>
        <time>2020-01-14T09:47:52Z</time>
      </trkpt>
      <trkpt lat="43.46467" lon="3.77669">
        <ele>2</ele>
        <time>2020-01-14T09:47:54Z</time>
      </trkpt>
      <trkpt lat="43.46465" lon="3.77672">
        <ele>2</ele>
        <time>2020-01-14T09:47:56Z</time>
      </trkpt>
      <trkpt lat="43.46464" lon="3.77674">
        <ele>2</ele>
        <time>2020-01-14T09:47:58Z</time>
      </trkpt>
      <trkpt lat="43.4646" lon="3.77677">
        <ele>2</ele>
        <time>2020-01-14T09:48:00Z</time>
      </trkpt>
      <trkpt lat="43.46459" lon="3.77679">
        <ele>2</ele>
        <time>2020-01-14T09:48:05Z</time>
      </trkpt>
      <trkpt lat="43.46458" lon="3.7768">
        <ele>2</ele>
        <time>2020-01-14T09:48:07Z</time>
      </trkpt>
      <trkpt lat="43.46457" lon="3.77682">
        <ele>2</ele>
        <time>2020-01-14T09:48:08Z</time>
      </trkpt>
      <trkpt lat="43.46454" lon="3.77685">
        <ele>2</ele>
        <time>2020-01-14T09:48:09Z</time>
      </trkpt>
      <trkpt lat="43.46453" lon="3.77686">
        <ele>2</ele>
        <time>2020-01-14T09:48:11Z</time>
      </trkpt>
      <trkpt lat="43.46451" lon="3.77688">
        <ele>2</ele>
        <time>2020-01-14T09:48:13Z</time>
      </trkpt>
      <trkpt lat="43.4645" lon="3.7769">
        <ele>2</ele>
        <time>2020-01-14T09:48:15Z</time>
      </trkpt>
      <trkpt lat="43.46448" lon="3.77691">
        <ele>2</ele>
        <time>2020-01-14T09:48:17Z</time>
      </trkpt>
      <trkpt lat="43.46447" lon="3.77693">
        <ele>2</ele>
        <time>2020-01-14T09:48:18Z</time>
      </trkpt>
      <trkpt lat="43.46445" lon="3.77696">
        <ele>2</ele>
        <time>2020-01-14T09:48:19Z</time>
      </trkpt>
      <trkpt lat="43.46444" lon="3.77697">
        <ele>2</ele>
        <time>2020-01-14T09:48:21Z</time>
      </trkpt>
      <trkpt lat="43.46442" lon="3.77699">
        <ele>2</ele>
        <time>2020-01-14T09:48:23Z</time>
      </trkpt>
      <trkpt lat="43.46441" lon="3.777">
        <ele>2</ele>
        <time>2020-01-14T09:48:25Z</time>
      </trkpt>
      <trkpt lat="43.4644" lon="3.77702">
        <ele>2</ele>
        <time>2020-01-14T09:48:27Z</time>
      </trkpt>
      <trkpt lat="43.46438" lon="3.77703">
        <ele>2</ele>
        <time>2020-01-14T09:48:28Z</time>
      </trkpt>
      <trkpt lat="43.46437" lon="3.77707">
        <ele>2</ele>
        <time>2020-01-14T09:48:29Z</time>
      </trkpt>
      <trkpt lat="43.46436" lon="3.77709">
        <ele>2</ele>
        <time>2020-01-14T09:48:31Z</time>
      </trkpt>
      <trkpt lat="43.46435" lon="3.77711">
        <ele>2</ele>
        <time>2020-01-14T09:48:33Z</time>
      </trkpt>
      <trkpt lat="43.46434" lon="3.77713">
        <ele>2</ele>
        <time>2020-01-14T09:48:35Z</time>
      </trkpt>
      <trkpt lat="43.46433" lon="3.77715">
        <ele>2</ele>
        <time>2020-01-14T09:48:37Z</time>
      </trkpt>
      <trkpt lat="43.46431" lon="3.77717">
        <ele>2</ele>
        <time>2020-01-14T09:48:38Z</time>
      </trkpt>
      <trkpt lat="43.46431" lon="3.77718">
        <ele>2</ele>
        <time>2020-01-14T09:48:39Z</time>
      </trkpt>
      <trkpt lat="43.46429" lon="3.77721">
        <ele>2</ele>
        <time>2020-01-14T09:48:41Z</time>
      </trkpt>
      <trkpt lat="43.46427" lon="3.77724">
        <ele>2</ele>
        <time>2020-01-14T09:48:43Z</time>
      </trkpt>
      <trkpt lat="43.46426" lon="3.77727">
        <ele>2</ele>
        <time>2020-01-14T09:48:45Z</time>
      </trkpt>
      <trkpt lat="43.46426" lon="3.77727">
        <ele>2</ele>
        <time>2020-01-14T09:48:48Z</time>
      </trkpt>
      <trkpt lat="43.46423" lon="3.77731">
        <ele>2</ele>
        <time>2020-01-14T09:48:49Z</time>
      </trkpt>
      <trkpt lat="43.46422" lon="3.77732">
        <ele>2</ele>
        <time>2020-01-14T09:48:51Z</time>
      </trkpt>
      <trkpt lat="43.4642" lon="3.77734">
        <ele>2</ele>
        <time>2020-01-14T09:48:53Z</time>
      </trkpt>
      <trkpt lat="43.46419" lon="3.77736">
        <ele>2</ele>
        <time>2020-01-14T09:48:55Z</time>
      </trkpt>
      <trkpt lat="43.46418" lon="3.77738">
        <ele>2</ele>
        <time>2020-01-14T09:48:57Z</time>
      </trkpt>
      <trkpt lat="43.46417" lon="3.7774">
        <ele>2</ele>
        <time>2020-01-14T09:48:58Z</time>
      </trkpt>
      <trkpt lat="43.46415" lon="3.77744">
        <ele>2</ele>
        <time>2020-01-14T09:48:59Z</time>
      </trkpt>
      <trkpt lat="43.46414" lon="3.77746">
        <ele>2</ele>
        <time>2020-01-14T09:49:01Z</time>
      </trkpt>
      <trkpt lat="43.46413" lon="3.77748">
        <ele>2</ele>
        <time>2020-01-14T09:49:03Z</time>
      </trkpt>
      <trkpt lat="43.46411" lon="3.7775">
        <ele>2</ele>
        <time>2020-01-14T09:49:05Z</time>
      </trkpt>
      <trkpt lat="43.4641" lon="3.77752">
        <ele>2</ele>
        <time>2020-01-14T09:49:07Z</time>
      </trkpt>
      <trkpt lat="43.46409" lon="3.77755">
        <ele>2</ele>
        <time>2020-01-14T09:49:08Z</time>
      </trkpt>
      <trkpt lat="43.46407" lon="3.77757">
        <ele>2</ele>
        <time>2020-01-14T09:49:09Z</time>
      </trkpt>
      <trkpt lat="43.46406" lon="3.77759">
        <ele>2</ele>
        <time>2020-01-14T09:49:11Z</time>
      </trkpt>
      <trkpt lat="43.46404" lon="3.77761">
        <ele>2</ele>
        <time>2020-01-14T09:49:13Z</time>
      </trkpt>
      <trkpt lat="43.46403" lon="3.77762">
        <ele>2</ele>
        <time>2020-01-14T09:49:15Z</time>
      </trkpt>
      <trkpt lat="43.46402" lon="3.77764">
        <ele>2</ele>
        <time>2020-01-14T09:49:17Z</time>
      </trkpt>
      <trkpt lat="43.464" lon="3.77766">
        <ele>2</ele>
        <time>2020-01-14T09:49:18Z</time>
      </trkpt>
      <trkpt lat="43.46398" lon="3.77769">
        <ele>2</ele>
        <time>2020-01-14T09:49:19Z</time>
      </trkpt>
      <trkpt lat="43.46396" lon="3.7777">
        <ele>2</ele>
        <time>2020-01-14T09:49:21Z</time>
      </trkpt>
      <trkpt lat="43.46395" lon="3.77772">
        <ele>2</ele>
        <time>2020-01-14T09:49:23Z</time>
      </trkpt>
      <trkpt lat="43.46393" lon="3.77773">
        <ele>2</ele>
        <time>2020-01-14T09:49:25Z</time>
      </trkpt>
      <trkpt lat="43.46392" lon="3.77775">
        <ele>2</ele>
        <time>2020-01-14T09:49:27Z</time>
      </trkpt>
      <trkpt lat="43.4639" lon="3.77777">
        <ele>2</ele>
        <time>2020-01-14T09:49:28Z</time>
      </trkpt>
      <trkpt lat="43.46388" lon="3.77779">
        <ele>2</ele>
        <time>2020-01-14T09:49:29Z</time>
      </trkpt>
      <trkpt lat="43.46387" lon="3.77781">
        <ele>2</ele>
        <time>2020-01-14T09:49:31Z</time>
      </trkpt>
      <trkpt lat="43.46386" lon="3.77783">
        <ele>2</ele>
        <time>2020-01-14T09:49:33Z</time>
      </trkpt>
      <trkpt lat="43.46384" lon="3.77785">
        <ele>2</ele>
        <time>2020-01-14T09:49:35Z</time>
      </trkpt>
      <trkpt lat="43.46383" lon="3.77786">
        <ele>2</ele>
        <time>2020-01-14T09:49:37Z</time>
      </trkpt>
      <trkpt lat="43.46382" lon="3.77788">
        <ele>2</ele>
        <time>2020-01-14T09:49:38Z</time>
      </trkpt>
      <trkpt lat="43.4638" lon="3.77791">
        <ele>2</ele>
        <time>2020-01-14T09:49:39Z</time>
      </trkpt>
      <trkpt lat="43.46378" lon="3.77793">
        <ele>2</ele>
        <time>2020-01-14T09:49:41Z</time>
      </trkpt>
      <trkpt lat="43.46377" lon="3.77795">
        <ele>2</ele>
        <time>2020-01-14T09:49:43Z</time>
      </trkpt>
      <trkpt lat="43.46375" lon="3.77797">
        <ele>2</ele>
        <time>2020-01-14T09:49:45Z</time>
      </trkpt>
      <trkpt lat="43.46374" lon="3.77799">
        <ele>2</ele>
        <time>2020-01-14T09:49:47Z</time>
      </trkpt>
      <trkpt lat="43.46373" lon="3.77801">
        <ele>2</ele>
        <time>2020-01-14T09:49:48Z</time>
      </trkpt>
      <trkpt lat="43.4637" lon="3.77804">
        <ele>2</ele>
        <time>2020-01-14T09:49:49Z</time>
      </trkpt>
      <trkpt lat="43.46369" lon="3.77805">
        <ele>2</ele>
        <time>2020-01-14T09:49:51Z</time>
      </trkpt>
      <trkpt lat="43.46368" lon="3.77807">
        <ele>2</ele>
        <time>2020-01-14T09:49:53Z</time>
      </trkpt>
      <trkpt lat="43.46366" lon="3.77809">
        <ele>2</ele>
        <time>2020-01-14T09:49:55Z</time>
      </trkpt>
      <trkpt lat="43.46365" lon="3.77811">
        <ele>2</ele>
        <time>2020-01-14T09:49:57Z</time>
      </trkpt>
      <trkpt lat="43.46364" lon="3.77813">
        <ele>2</ele>
        <time>2020-01-14T09:49:58Z</time>
      </trkpt>
      <trkpt lat="43.46362" lon="3.77816">
        <ele>2</ele>
        <time>2020-01-14T09:49:59Z</time>
      </trkpt>
      <trkpt lat="43.46361" lon="3.77817">
        <ele>2</ele>
        <time>2020-01-14T09:50:01Z</time>
      </trkpt>
      <trkpt lat="43.46359" lon="3.77819">
        <ele>2</ele>
        <time>2020-01-14T09:50:03Z</time>
      </trkpt>
      <trkpt lat="43.46358" lon="3.7782">
        <ele>2</ele>
        <time>2020-01-14T09:50:05Z</time>
      </trkpt>
      <trkpt lat="43.46357" lon="3.77821">
        <ele>2</ele>
        <time>2020-01-14T09:50:07Z</time>
      </trkpt>
      <trkpt lat="43.46356" lon="3.77823">
        <ele>2</ele>
        <time>2020-01-14T09:50:08Z</time>
      </trkpt>
      <trkpt lat="43.46354" lon="3.77825">
        <ele>2</ele>
        <time>2020-01-14T09:50:10Z</time>
      </trkpt>
      <trkpt lat="43.46352" lon="3.77828">
        <ele>2</ele>
        <time>2020-01-14T09:50:12Z</time>
      </trkpt>
      <trkpt lat="43.46351" lon="3.77831">
        <ele>2</ele>
        <time>2020-01-14T09:50:14Z</time>
      </trkpt>
      <trkpt lat="43.46349" lon="3.77834">
        <ele>2</ele>
        <time>2020-01-14T09:50:16Z</time>
      </trkpt>
      <trkpt lat="43.46348" lon="3.77836">
        <ele>2</ele>
        <time>2020-01-14T09:50:18Z</time>
      </trkpt>
      <trkpt lat="43.46345" lon="3.77839">
        <ele>2</ele>
        <time>2020-01-14T09:50:20Z</time>
      </trkpt>
      <trkpt lat="43.46343" lon="3.77841">
        <ele>2</ele>
        <time>2020-01-14T09:50:22Z</time>
      </trkpt>
      <trkpt lat="43.46341" lon="3.77844">
        <ele>2</ele>
        <time>2020-01-14T09:50:24Z</time>
      </trkpt>
      <trkpt lat="43.46339" lon="3.77846">
        <ele>2</ele>
        <time>2020-01-14T09:50:26Z</time>
      </trkpt>
      <trkpt lat="43.46337" lon="3.77849">
        <ele>2</ele>
        <time>2020-01-14T09:50:28Z</time>
      </trkpt>
      <trkpt lat="43.46336" lon="3.77851">
        <ele>2</ele>
        <time>2020-01-14T09:50:30Z</time>
      </trkpt>
      <trkpt lat="43.46334" lon="3.77854">
        <ele>2</ele>
        <time>2020-01-14T09:50:32Z</time>
      </trkpt>
      <trkpt lat="43.46333" lon="3.77856">
        <ele>2</ele>
        <time>2020-01-14T09:50:34Z</time>
      </trkpt>
      <trkpt lat="43.46331" lon="3.77858">
        <ele>2</ele>
        <time>2020-01-14T09:50:36Z</time>
      </trkpt>
      <trkpt lat="43.46329" lon="3.7786">
        <ele>2</ele>
        <time>2020-01-14T09:50:38Z</time>
      </trkpt>
      <trkpt lat="43.46327" lon="3.77863">
        <ele>2</ele>
        <time>2020-01-14T09:50:40Z</time>
      </trkpt>
      <trkpt lat="43.46326" lon="3.77865">
        <ele>2</ele>
        <time>2020-01-14T09:50:42Z</time>
      </trkpt>
      <trkpt lat="43.46324" lon="3.77867">
        <ele>2</ele>
        <time>2020-01-14T09:50:44Z</time>
      </trkpt>
      <trkpt lat="43.46323" lon="3.77869">
        <ele>2</ele>
        <time>2020-01-14T09:50:46Z</time>
      </trkpt>
      <trkpt lat="43.46321" lon="3.77871">
        <ele>2</ele>
        <time>2020-01-14T09:50:48Z</time>
      </trkpt>
      <trkpt lat="43.4632" lon="3.77874">
        <ele>2</ele>
        <time>2020-01-14T09:50:50Z</time>
      </trkpt>
      <trkpt lat="43.46318" lon="3.77876">
        <ele>2</ele>
        <time>2020-01-14T09:50:52Z</time>
      </trkpt>
      <trkpt lat="43.46316" lon="3.77879">
        <ele>2</ele>
        <time>2020-01-14T09:50:54Z</time>
      </trkpt>
      <trkpt lat="43.46314" lon="3.77882">
        <ele>2</ele>
        <time>2020-01-14T09:50:56Z</time>
      </trkpt>
      <trkpt lat="43.46313" lon="3.77885">
        <ele>2</ele>
        <time>2020-01-14T09:50:58Z</time>
      </trkpt>
      <trkpt lat="43.4631" lon="3.77888">
        <ele>2</ele>
        <time>2020-01-14T09:51:00Z</time>
      </trkpt>
      <trkpt lat="43.46309" lon="3.7789">
        <ele>2</ele>
        <time>2020-01-14T09:51:03Z</time>
      </trkpt>
      <trkpt lat="43.46308" lon="3.77891">
        <ele>2</ele>
        <time>2020-01-14T09:51:05Z</time>
      </trkpt>
      <trkpt lat="43.46306" lon="3.77893">
        <ele>2</ele>
        <time>2020-01-14T09:51:07Z</time>
      </trkpt>
      <trkpt lat="43.46305" lon="3.77894">
        <ele>2</ele>
        <time>2020-01-14T09:51:08Z</time>
      </trkpt>
      <trkpt lat="43.46303" lon="3.77897">
        <ele>2</ele>
        <time>2020-01-14T09:51:09Z</time>
      </trkpt>
      <trkpt lat="43.46302" lon="3.77899">
        <ele>2</ele>
        <time>2020-01-14T09:51:11Z</time>
      </trkpt>
      <trkpt lat="43.46301" lon="3.779">
        <ele>2</ele>
        <time>2020-01-14T09:51:13Z</time>
      </trkpt>
      <trkpt lat="43.463" lon="3.77902">
        <ele>2</ele>
        <time>2020-01-14T09:51:15Z</time>
      </trkpt>
      <trkpt lat="43.46299" lon="3.77904">
        <ele>2</ele>
        <time>2020-01-14T09:51:17Z</time>
      </trkpt>
      <trkpt lat="43.46298" lon="3.77905">
        <ele>2</ele>
        <time>2020-01-14T09:51:18Z</time>
      </trkpt>
      <trkpt lat="43.46297" lon="3.77907">
        <ele>2</ele>
        <time>2020-01-14T09:51:19Z</time>
      </trkpt>
      <trkpt lat="43.46295" lon="3.7791">
        <ele>2</ele>
        <time>2020-01-14T09:51:22Z</time>
      </trkpt>
      <trkpt lat="43.46293" lon="3.77912">
        <ele>2</ele>
        <time>2020-01-14T09:51:24Z</time>
      </trkpt>
      <trkpt lat="43.46291" lon="3.77914">
        <ele>2</ele>
        <time>2020-01-14T09:51:26Z</time>
      </trkpt>
      <trkpt lat="43.46289" lon="3.77916">
        <ele>2</ele>
        <time>2020-01-14T09:51:28Z</time>
      </trkpt>
      <trkpt lat="43.46287" lon="3.77918">
        <ele>2</ele>
        <time>2020-01-14T09:51:30Z</time>
      </trkpt>
      <trkpt lat="43.46285" lon="3.7792">
        <ele>2</ele>
        <time>2020-01-14T09:51:32Z</time>
      </trkpt>
      <trkpt lat="43.46284" lon="3.77923">
        <ele>2</ele>
        <time>2020-01-14T09:51:34Z</time>
      </trkpt>
      <trkpt lat="43.46282" lon="3.77925">
        <ele>2</ele>
        <time>2020-01-14T09:51:36Z</time>
      </trkpt>
      <trkpt lat="43.4628" lon="3.77926">
        <ele>2</ele>
        <time>2020-01-14T09:51:38Z</time>
      </trkpt>
      <trkpt lat="43.46278" lon="3.77928">
        <ele>2</ele>
        <time>2020-01-14T09:51:40Z</time>
      </trkpt>
      <trkpt lat="43.46275" lon="3.77928">
        <ele>2</ele>
        <time>2020-01-14T09:51:42Z</time>
      </trkpt>
      <trkpt lat="43.46272" lon="3.77929">
        <ele>2</ele>
        <time>2020-01-14T09:51:44Z</time>
      </trkpt>
      <trkpt lat="43.46269" lon="3.77928">
        <ele>2</ele>
        <time>2020-01-14T09:51:46Z</time>
      </trkpt>
      <trkpt lat="43.46267" lon="3.77927">
        <ele>2</ele>
        <time>2020-01-14T09:51:48Z</time>
      </trkpt>
      <trkpt lat="43.46264" lon="3.77927">
        <ele>2</ele>
        <time>2020-01-14T09:51:50Z</time>
      </trkpt>
      <trkpt lat="43.46261" lon="3.77927">
        <ele>2</ele>
        <time>2020-01-14T09:51:52Z</time>
      </trkpt>
      <trkpt lat="43.46259" lon="3.77926">
        <ele>2</ele>
        <time>2020-01-14T09:51:54Z</time>
      </trkpt>
      <trkpt lat="43.46256" lon="3.77926">
        <ele>2</ele>
        <time>2020-01-14T09:51:56Z</time>
      </trkpt>
      <trkpt lat="43.46254" lon="3.77925">
        <ele>2</ele>
        <time>2020-01-14T09:51:58Z</time>
      </trkpt>
      <trkpt lat="43.46252" lon="3.77925">
        <ele>2</ele>
        <time>2020-01-14T09:52:00Z</time>
      </trkpt>
      <trkpt lat="43.46249" lon="3.77925">
        <ele>2</ele>
        <time>2020-01-14T09:52:02Z</time>
      </trkpt>
      <trkpt lat="43.46246" lon="3.77924">
        <ele>2</ele>
        <time>2020-01-14T09:52:04Z</time>
      </trkpt>
      <trkpt lat="43.46243" lon="3.77924">
        <ele>2</ele>
        <time>2020-01-14T09:52:06Z</time>
      </trkpt>
      <trkpt lat="43.4624" lon="3.77924">
        <ele>2</ele>
        <time>2020-01-14T09:52:08Z</time>
      </trkpt>
      <trkpt lat="43.46237" lon="3.77923">
        <ele>2</ele>
        <time>2020-01-14T09:52:10Z</time>
      </trkpt>
      <trkpt lat="43.46235" lon="3.77922">
        <ele>2</ele>
        <time>2020-01-14T09:52:12Z</time>
      </trkpt>
      <trkpt lat="43.46233" lon="3.77922">
        <ele>2</ele>
        <time>2020-01-14T09:52:14Z</time>
      </trkpt>
      <trkpt lat="43.4623" lon="3.77921">
        <ele>2</ele>
        <time>2020-01-14T09:52:16Z</time>
      </trkpt>
      <trkpt lat="43.46228" lon="3.7792">
        <ele>2</ele>
        <time>2020-01-14T09:52:18Z</time>
      </trkpt>
      <trkpt lat="43.46226" lon="3.7792">
        <ele>2</ele>
        <time>2020-01-14T09:52:20Z</time>
      </trkpt>
      <trkpt lat="43.46224" lon="3.77919">
        <ele>2</ele>
        <time>2020-01-14T09:52:22Z</time>
      </trkpt>
      <trkpt lat="43.46221" lon="3.77919">
        <ele>2</ele>
        <time>2020-01-14T09:52:24Z</time>
      </trkpt>
      <trkpt lat="43.46219" lon="3.77918">
        <ele>2</ele>
        <time>2020-01-14T09:52:26Z</time>
      </trkpt>
      <trkpt lat="43.46217" lon="3.77917">
        <ele>2</ele>
        <time>2020-01-14T09:52:28Z</time>
      </trkpt>
      <trkpt lat="43.46214" lon="3.77916">
        <ele>2</ele>
        <time>2020-01-14T09:52:30Z</time>
      </trkpt>
      <trkpt lat="43.46212" lon="3.77916">
        <ele>2</ele>
        <time>2020-01-14T09:52:32Z</time>
      </trkpt>
      <trkpt lat="43.46209" lon="3.77915">
        <ele>2</ele>
        <time>2020-01-14T09:52:34Z</time>
      </trkpt>
      <trkpt lat="43.46207" lon="3.77914">
        <ele>2</ele>
        <time>2020-01-14T09:52:36Z</time>
      </trkpt>
      <trkpt lat="43.46204" lon="3.77913">
        <ele>2</ele>
        <time>2020-01-14T09:52:38Z</time>
      </trkpt>
      <trkpt lat="43.46201" lon="3.77913">
        <ele>2</ele>
        <time>2020-01-14T09:52:40Z</time>
      </trkpt>
      <trkpt lat="43.46199" lon="3.77912">
        <ele>2</ele>
        <time>2020-01-14T09:52:42Z</time>
      </trkpt>
      <trkpt lat="43.46197" lon="3.77912">
        <ele>2</ele>
        <time>2020-01-14T09:52:44Z</time>
      </trkpt>
      <trkpt lat="43.46194" lon="3.77911">
        <ele>2</ele>
        <time>2020-01-14T09:52:46Z</time>
      </trkpt>
      <trkpt lat="43.46192" lon="3.7791">
        <ele>2</ele>
        <time>2020-01-14T09:52:48Z</time>
      </trkpt>
      <trkpt lat="43.4619" lon="3.7791">
        <ele>2</ele>
        <time>2020-01-14T09:52:50Z</time>
      </trkpt>
      <trkpt lat="43.46188" lon="3.7791">
        <ele>2</ele>
        <time>2020-01-14T09:52:52Z</time>
      </trkpt>
      <trkpt lat="43.46186" lon="3.77909">
        <ele>2</ele>
        <time>2020-01-14T09:52:54Z</time>
      </trkpt>
      <trkpt lat="43.46184" lon="3.77908">
        <ele>2</ele>
        <time>2020-01-14T09:52:56Z</time>
      </trkpt>
      <trkpt lat="43.46182" lon="3.77907">
        <ele>2</ele>
        <time>2020-01-14T09:52:58Z</time>
      </trkpt>
      <trkpt lat="43.46179" lon="3.77907">
        <ele>2</ele>
        <time>2020-01-14T09:53:01Z</time>
      </trkpt>
      <trkpt lat="43.46179" lon="3.77907">
        <ele>2</ele>
        <time>2020-01-14T09:53:08Z</time>
      </trkpt>
      <trkpt lat="43.46179" lon="3.77907">
        <ele>2</ele>
        <time>2020-01-14T09:53:09Z</time>
      </trkpt>
      <trkpt lat="43.46178" lon="3.77907">
        <ele>2</ele>
        <time>2020-01-14T09:53:10Z</time>
      </trkpt>
      <trkpt lat="43.46178" lon="3.77907">
        <ele>2</ele>
        <time>2020-01-14T09:53:57Z</time>
      </trkpt>
      <trkpt lat="43.46173" lon="3.77908">
        <ele>2</ele>
        <time>2020-01-14T09:53:58Z</time>
      </trkpt>
      <trkpt lat="43.46171" lon="3.7791">
        <ele>2</ele>
        <time>2020-01-14T09:54:01Z</time>
      </trkpt>
      <trkpt lat="43.46169" lon="3.77912">
        <ele>2</ele>
        <time>2020-01-14T09:54:04Z</time>
      </trkpt>
      <trkpt lat="43.46169" lon="3.77912">
        <ele>2</ele>
        <time>2020-01-14T09:54:06Z</time>
      </trkpt>
      <trkpt lat="43.46166" lon="3.77916">
        <ele>2</ele>
        <time>2020-01-14T09:54:07Z</time>
      </trkpt>
      <trkpt lat="43.46164" lon="3.77917">
        <ele>2</ele>
        <time>2020-01-14T09:54:09Z</time>
      </trkpt>
      <trkpt lat="43.46163" lon="3.77919">
        <ele>2</ele>
        <time>2020-01-14T09:54:11Z</time>
      </trkpt>
      <trkpt lat="43.46162" lon="3.77921">
        <ele>2</ele>
        <time>2020-01-14T09:54:13Z</time>
      </trkpt>
      <trkpt lat="43.46161" lon="3.77922">
        <ele>2</ele>
        <time>2020-01-14T09:54:15Z</time>
      </trkpt>
      <trkpt lat="43.46159" lon="3.77924">
        <ele>2</ele>
        <time>2020-01-14T09:54:16Z</time>
      </trkpt>
      <trkpt lat="43.46159" lon="3.77925">
        <ele>2</ele>
        <time>2020-01-14T09:54:17Z</time>
      </trkpt>
      <trkpt lat="43.46157" lon="3.77927">
        <ele>2</ele>
        <time>2020-01-14T09:54:19Z</time>
      </trkpt>
      <trkpt lat="43.46156" lon="3.77929">
        <ele>2</ele>
        <time>2020-01-14T09:54:21Z</time>
      </trkpt>
      <trkpt lat="43.46154" lon="3.77932">
        <ele>2</ele>
        <time>2020-01-14T09:54:24Z</time>
      </trkpt>
      <trkpt lat="43.46153" lon="3.77934">
        <ele>2</ele>
        <time>2020-01-14T09:54:26Z</time>
      </trkpt>
      <trkpt lat="43.46151" lon="3.77936">
        <ele>2</ele>
        <time>2020-01-14T09:54:28Z</time>
      </trkpt>
      <trkpt lat="43.4615" lon="3.77938">
        <ele>2</ele>
        <time>2020-01-14T09:54:30Z</time>
      </trkpt>
      <trkpt lat="43.46149" lon="3.7794">
        <ele>2</ele>
        <time>2020-01-14T09:54:32Z</time>
      </trkpt>
      <trkpt lat="43.46147" lon="3.77943">
        <ele>2</ele>
        <time>2020-01-14T09:54:34Z</time>
      </trkpt>
      <trkpt lat="43.46145" lon="3.77944">
        <ele>2</ele>
        <time>2020-01-14T09:54:36Z</time>
      </trkpt>
      <trkpt lat="43.46143" lon="3.77948">
        <ele>2</ele>
        <time>2020-01-14T09:54:38Z</time>
      </trkpt>
      <trkpt lat="43.46142" lon="3.7795">
        <ele>2</ele>
        <time>2020-01-14T09:54:40Z</time>
      </trkpt>
      <trkpt lat="43.46142" lon="3.77952">
        <ele>2</ele>
        <time>2020-01-14T09:54:43Z</time>
      </trkpt>
      <trkpt lat="43.46141" lon="3.77954">
        <ele>2</ele>
        <time>2020-01-14T09:54:45Z</time>
      </trkpt>
      <trkpt lat="43.4614" lon="3.77956">
        <ele>2</ele>
        <time>2020-01-14T09:54:46Z</time>
      </trkpt>
      <trkpt lat="43.46138" lon="3.77959">
        <ele>2</ele>
        <time>2020-01-14T09:54:47Z</time>
      </trkpt>
      <trkpt lat="43.46137" lon="3.7796">
        <ele>2</ele>
        <time>2020-01-14T09:54:49Z</time>
      </trkpt>
      <trkpt lat="43.46135" lon="3.77962">
        <ele>2</ele>
        <time>2020-01-14T09:54:51Z</time>
      </trkpt>
      <trkpt lat="43.46134" lon="3.77964">
        <ele>2</ele>
        <time>2020-01-14T09:54:53Z</time>
      </trkpt>
      <trkpt lat="43.46133" lon="3.77965">
        <ele>2</ele>
        <time>2020-01-14T09:54:55Z</time>
      </trkpt>
      <trkpt lat="43.46131" lon="3.77967">
        <ele>2</ele>
        <time>2020-01-14T09:54:56Z</time>
      </trkpt>
      <trkpt lat="43.4613" lon="3.7797">
        <ele>2</ele>
        <time>2020-01-14T09:54:57Z</time>
      </trkpt>
      <trkpt lat="43.46129" lon="3.77972">
        <ele>2</ele>
        <time>2020-01-14T09:54:59Z</time>
      </trkpt>
      <trkpt lat="43.46128" lon="3.77974">
        <ele>2</ele>
        <time>2020-01-14T09:55:01Z</time>
      </trkpt>
      <trkpt lat="43.46127" lon="3.77976">
        <ele>2</ele>
        <time>2020-01-14T09:55:03Z</time>
      </trkpt>
      <trkpt lat="43.46126" lon="3.77978">
        <ele>2</ele>
        <time>2020-01-14T09:55:05Z</time>
      </trkpt>
      <trkpt lat="43.46125" lon="3.7798">
        <ele>2</ele>
        <time>2020-01-14T09:55:06Z</time>
      </trkpt>
      <trkpt lat="43.46123" lon="3.77982">
        <ele>2</ele>
        <time>2020-01-14T09:55:07Z</time>
      </trkpt>
      <trkpt lat="43.46122" lon="3.77984">
        <ele>2</ele>
        <time>2020-01-14T09:55:09Z</time>
      </trkpt>
      <trkpt lat="43.46121" lon="3.77986">
        <ele>2</ele>
        <time>2020-01-14T09:55:11Z</time>
      </trkpt>
      <trkpt lat="43.4612" lon="3.77988">
        <ele>2</ele>
        <time>2020-01-14T09:55:13Z</time>
      </trkpt>
      <trkpt lat="43.46119" lon="3.77989">
        <ele>2</ele>
        <time>2020-01-14T09:55:15Z</time>
      </trkpt>
      <trkpt lat="43.46117" lon="3.77991">
        <ele>2</ele>
        <time>2020-01-14T09:55:16Z</time>
      </trkpt>
      <trkpt lat="43.46117" lon="3.77992">
        <ele>2</ele>
        <time>2020-01-14T09:55:17Z</time>
      </trkpt>
      <trkpt lat="43.46115" lon="3.77994">
        <ele>2</ele>
        <time>2020-01-14T09:55:19Z</time>
      </trkpt>
      <trkpt lat="43.46114" lon="3.77997">
        <ele>2</ele>
        <time>2020-01-14T09:55:22Z</time>
      </trkpt>
      <trkpt lat="43.46113" lon="3.77999">
        <ele>2</ele>
        <time>2020-01-14T09:55:24Z</time>
      </trkpt>
      <trkpt lat="43.46111" lon="3.78001">
        <ele>2</ele>
        <time>2020-01-14T09:55:26Z</time>
      </trkpt>
      <trkpt lat="43.46109" lon="3.78002">
        <ele>2</ele>
        <time>2020-01-14T09:55:28Z</time>
      </trkpt>
      <trkpt lat="43.46107" lon="3.78003">
        <ele>2</ele>
        <time>2020-01-14T09:55:30Z</time>
      </trkpt>
      <trkpt lat="43.46105" lon="3.78006">
        <ele>2</ele>
        <time>2020-01-14T09:55:32Z</time>
      </trkpt>
      <trkpt lat="43.46103" lon="3.78008">
        <ele>2</ele>
        <time>2020-01-14T09:55:34Z</time>
      </trkpt>
      <trkpt lat="43.46102" lon="3.7801">
        <ele>2</ele>
        <time>2020-01-14T09:55:36Z</time>
      </trkpt>
      <trkpt lat="43.461" lon="3.78013">
        <ele>2</ele>
        <time>2020-01-14T09:55:38Z</time>
      </trkpt>
      <trkpt lat="43.46099" lon="3.78016">
        <ele>2</ele>
        <time>2020-01-14T09:55:40Z</time>
      </trkpt>
      <trkpt lat="43.46098" lon="3.78018">
        <ele>2</ele>
        <time>2020-01-14T09:55:42Z</time>
      </trkpt>
      <trkpt lat="43.46098" lon="3.78021">
        <ele>2</ele>
        <time>2020-01-14T09:55:44Z</time>
      </trkpt>
      <trkpt lat="43.46097" lon="3.78024">
        <ele>2</ele>
        <time>2020-01-14T09:55:46Z</time>
      </trkpt>
      <trkpt lat="43.46096" lon="3.78027">
        <ele>2</ele>
        <time>2020-01-14T09:55:48Z</time>
      </trkpt>
      <trkpt lat="43.46095" lon="3.7803">
        <ele>2</ele>
        <time>2020-01-14T09:55:50Z</time>
      </trkpt>
      <trkpt lat="43.46094" lon="3.78033">
        <ele>2</ele>
        <time>2020-01-14T09:55:52Z</time>
      </trkpt>
      <trkpt lat="43.46093" lon="3.78037">
        <ele>2</ele>
        <time>2020-01-14T09:55:54Z</time>
      </trkpt>
      <trkpt lat="43.46093" lon="3.7804">
        <ele>2</ele>
        <time>2020-01-14T09:55:56Z</time>
      </trkpt>
      <trkpt lat="43.46091" lon="3.78043">
        <ele>2</ele>
        <time>2020-01-14T09:55:58Z</time>
      </trkpt>
      <trkpt lat="43.4609" lon="3.78046">
        <ele>2</ele>
        <time>2020-01-14T09:56:00Z</time>
      </trkpt>
      <trkpt lat="43.46089" lon="3.78049">
        <ele>2</ele>
        <time>2020-01-14T09:56:02Z</time>
      </trkpt>
      <trkpt lat="43.46088" lon="3.78052">
        <ele>2</ele>
        <time>2020-01-14T09:56:04Z</time>
      </trkpt>
      <trkpt lat="43.46088" lon="3.78055">
        <ele>2</ele>
        <time>2020-01-14T09:56:06Z</time>
      </trkpt>
      <trkpt lat="43.46087" lon="3.7806">
        <ele>2</ele>
        <time>2020-01-14T09:56:08Z</time>
      </trkpt>
      <trkpt lat="43.46086" lon="3.78062">
        <ele>2</ele>
        <time>2020-01-14T09:56:10Z</time>
      </trkpt>
      <trkpt lat="43.46086" lon="3.78064">
        <ele>2</ele>
        <time>2020-01-14T09:56:12Z</time>
      </trkpt>
      <trkpt lat="43.46085" lon="3.78066">
        <ele>2</ele>
        <time>2020-01-14T09:56:14Z</time>
      </trkpt>
      <trkpt lat="43.46084" lon="3.78069">
        <ele>2</ele>
        <time>2020-01-14T09:56:16Z</time>
      </trkpt>
      <trkpt lat="43.46084" lon="3.78071">
        <ele>2</ele>
        <time>2020-01-14T09:56:17Z</time>
      </trkpt>
      <trkpt lat="43.46083" lon="3.78072">
        <ele>2</ele>
        <time>2020-01-14T09:56:18Z</time>
      </trkpt>
      <trkpt lat="43.46082" lon="3.78075">
        <ele>2</ele>
        <time>2020-01-14T09:56:20Z</time>
      </trkpt>
      <trkpt lat="43.46081" lon="3.78077">
        <ele>2</ele>
        <time>2020-01-14T09:56:22Z</time>
      </trkpt>
      <trkpt lat="43.4608" lon="3.78081">
        <ele>2</ele>
        <time>2020-01-14T09:56:24Z</time>
      </trkpt>
      <trkpt lat="43.46079" lon="3.78083">
        <ele>2</ele>
        <time>2020-01-14T09:56:26Z</time>
      </trkpt>
      <trkpt lat="43.46078" lon="3.78086">
        <ele>2</ele>
        <time>2020-01-14T09:56:28Z</time>
      </trkpt>
      <trkpt lat="43.46078" lon="3.78088">
        <ele>2</ele>
        <time>2020-01-14T09:56:30Z</time>
      </trkpt>
      <trkpt lat="43.46077" lon="3.78091">
        <ele>2</ele>
        <time>2020-01-14T09:56:32Z</time>
      </trkpt>
      <trkpt lat="43.46076" lon="3.78094">
        <ele>2</ele>
        <time>2020-01-14T09:56:34Z</time>
      </trkpt>
      <trkpt lat="43.46075" lon="3.78097">
        <ele>2</ele>
        <time>2020-01-14T09:56:36Z</time>
      </trkpt>
      <trkpt lat="43.46074" lon="3.781">
        <ele>2</ele>
        <time>2020-01-14T09:56:38Z</time>
      </trkpt>
      <trkpt lat="43.46072" lon="3.78102">
        <ele>2</ele>
        <time>2020-01-14T09:56:40Z</time>
      </trkpt>
      <trkpt lat="43.46071" lon="3.78104">
        <ele>2</ele>
        <time>2020-01-14T09:56:42Z</time>
      </trkpt>
      <trkpt lat="43.4607" lon="3.78106">
        <ele>2</ele>
        <time>2020-01-14T09:56:44Z</time>
      </trkpt>
      <trkpt lat="43.46069" lon="3.78109">
        <ele>2</ele>
        <time>2020-01-14T09:56:46Z</time>
      </trkpt>
      <trkpt lat="43.46068" lon="3.78114">
        <ele>2</ele>
        <time>2020-01-14T09:56:48Z</time>
      </trkpt>
      <trkpt lat="43.46067" lon="3.78117">
        <ele>2</ele>
        <time>2020-01-14T09:56:50Z</time>
      </trkpt>
      <trkpt lat="43.46067" lon="3.78119">
        <ele>2</ele>
        <time>2020-01-14T09:56:53Z</time>
      </trkpt>
      <trkpt lat="43.46066" lon="3.78121">
        <ele>2</ele>
        <time>2020-01-14T09:56:55Z</time>
      </trkpt>
      <trkpt lat="43.46066" lon="3.78123">
        <ele>2</ele>
        <time>2020-01-14T09:56:56Z</time>
      </trkpt>
      <trkpt lat="43.46065" lon="3.78124">
        <ele>2</ele>
        <time>2020-01-14T09:56:57Z</time>
      </trkpt>
      <trkpt lat="43.46065" lon="3.78127">
        <ele>2</ele>
        <time>2020-01-14T09:57:00Z</time>
      </trkpt>
      <trkpt lat="43.46065" lon="3.7813">
        <ele>2</ele>
        <time>2020-01-14T09:57:02Z</time>
      </trkpt>
      <trkpt lat="43.46065" lon="3.78133">
        <ele>2</ele>
        <time>2020-01-14T09:57:04Z</time>
      </trkpt>
      <trkpt lat="43.46064" lon="3.78137">
        <ele>2</ele>
        <time>2020-01-14T09:57:06Z</time>
      </trkpt>
      <trkpt lat="43.46063" lon="3.7814">
        <ele>2</ele>
        <time>2020-01-14T09:57:08Z</time>
      </trkpt>
      <trkpt lat="43.46063" lon="3.78142">
        <ele>2</ele>
        <time>2020-01-14T09:57:10Z</time>
      </trkpt>
      <trkpt lat="43.46063" lon="3.78145">
        <ele>2</ele>
        <time>2020-01-14T09:57:12Z</time>
      </trkpt>
      <trkpt lat="43.46062" lon="3.78148">
        <ele>2</ele>
        <time>2020-01-14T09:57:14Z</time>
      </trkpt>
      <trkpt lat="43.46061" lon="3.78151">
        <ele>2</ele>
        <time>2020-01-14T09:57:16Z</time>
      </trkpt>
      <trkpt lat="43.4606" lon="3.78153">
        <ele>2</ele>
        <time>2020-01-14T09:57:18Z</time>
      </trkpt>
      <trkpt lat="43.46059" lon="3.78156">
        <ele>2</ele>
        <time>2020-01-14T09:57:20Z</time>
      </trkpt>
      <trkpt lat="43.46058" lon="3.78159">
        <ele>2</ele>
        <time>2020-01-14T09:57:22Z</time>
      </trkpt>
      <trkpt lat="43.46057" lon="3.78163">
        <ele>2</ele>
        <time>2020-01-14T09:57:24Z</time>
      </trkpt>
      <trkpt lat="43.46057" lon="3.78165">
        <ele>2</ele>
        <time>2020-01-14T09:57:26Z</time>
      </trkpt>
      <trkpt lat="43.46057" lon="3.7817">
        <ele>2</ele>
        <time>2020-01-14T09:57:29Z</time>
      </trkpt>
      <trkpt lat="43.46058" lon="3.78171">
        <ele>2</ele>
        <time>2020-01-14T09:57:31Z</time>
      </trkpt>
      <trkpt lat="43.46059" lon="3.78172">
        <ele>2</ele>
        <time>2020-01-14T09:57:33Z</time>
      </trkpt>
      <trkpt lat="43.46059" lon="3.78173">
        <ele>2</ele>
        <time>2020-01-14T09:57:35Z</time>
      </trkpt>
      <trkpt lat="43.4606" lon="3.78174">
        <ele>2</ele>
        <time>2020-01-14T09:57:36Z</time>
      </trkpt>
      <trkpt lat="43.46063" lon="3.78177">
        <ele>2</ele>
        <time>2020-01-14T09:57:37Z</time>
      </trkpt>
      <trkpt lat="43.46064" lon="3.78179">
        <ele>2</ele>
        <time>2020-01-14T09:57:39Z</time>
      </trkpt>
      <trkpt lat="43.46066" lon="3.78181">
        <ele>2</ele>
        <time>2020-01-14T09:57:41Z</time>
      </trkpt>
      <trkpt lat="43.46067" lon="3.78182">
        <ele>2</ele>
        <time>2020-01-14T09:57:43Z</time>
      </trkpt>
      <trkpt lat="43.46068" lon="3.78184">
        <ele>2</ele>
        <time>2020-01-14T09:57:45Z</time>
      </trkpt>
      <trkpt lat="43.46069" lon="3.78186">
        <ele>2</ele>
        <time>2020-01-14T09:57:46Z</time>
      </trkpt>
      <trkpt lat="43.46069" lon="3.7819">
        <ele>2</ele>
        <time>2020-01-14T09:57:47Z</time>
      </trkpt>
      <trkpt lat="43.46069" lon="3.78192">
        <ele>2</ele>
        <time>2020-01-14T09:57:49Z</time>
      </trkpt>
      <trkpt lat="43.46068" lon="3.78194">
        <ele>2</ele>
        <time>2020-01-14T09:57:51Z</time>
      </trkpt>
      <trkpt lat="43.46068" lon="3.78196">
        <ele>2</ele>
        <time>2020-01-14T09:57:53Z</time>
      </trkpt>
      <trkpt lat="43.46068" lon="3.78198">
        <ele>2</ele>
        <time>2020-01-14T09:57:55Z</time>
      </trkpt>
      <trkpt lat="43.46067" lon="3.78201">
        <ele>2</ele>
        <time>2020-01-14T09:57:56Z</time>
      </trkpt>
      <trkpt lat="43.46067" lon="3.78205">
        <ele>2</ele>
        <time>2020-01-14T09:57:57Z</time>
      </trkpt>
      <trkpt lat="43.46067" lon="3.78207">
        <ele>2</ele>
        <time>2020-01-14T09:57:59Z</time>
      </trkpt>
      <trkpt lat="43.46067" lon="3.7821">
        <ele>2</ele>
        <time>2020-01-14T09:58:01Z</time>
      </trkpt>
      <trkpt lat="43.46067" lon="3.78213">
        <ele>2</ele>
        <time>2020-01-14T09:58:03Z</time>
      </trkpt>
      <trkpt lat="43.46067" lon="3.78215">
        <ele>2</ele>
        <time>2020-01-14T09:58:05Z</time>
      </trkpt>
      <trkpt lat="43.46067" lon="3.78218">
        <ele>2</ele>
        <time>2020-01-14T09:58:06Z</time>
      </trkpt>
      <trkpt lat="43.46067" lon="3.78219">
        <ele>2</ele>
        <time>2020-01-14T09:58:07Z</time>
      </trkpt>
      <trkpt lat="43.46067" lon="3.78223">
        <ele>2</ele>
        <time>2020-01-14T09:58:09Z</time>
      </trkpt>
      <trkpt lat="43.46067" lon="3.78225">
        <ele>2</ele>
        <time>2020-01-14T09:58:11Z</time>
      </trkpt>
      <trkpt lat="43.46067" lon="3.78225">
        <ele>2</ele>
        <time>2020-01-14T09:58:16Z</time>
      </trkpt>
      <trkpt lat="43.46067" lon="3.78225">
        <ele>2</ele>
        <time>2020-01-14T09:58:17Z</time>
      </trkpt>
      <trkpt lat="43.46067" lon="3.78227">
        <ele>2</ele>
        <time>2020-01-14T09:58:18Z</time>
      </trkpt>
      <trkpt lat="43.46067" lon="3.78227">
        <ele>2</ele>
        <time>2020-01-14T09:58:25Z</time>
      </trkpt>
      <trkpt lat="43.46068" lon="3.78233">
        <ele>2</ele>
        <time>2020-01-14T09:58:26Z</time>
      </trkpt>
      <trkpt lat="43.4607" lon="3.78236">
        <ele>2</ele>
        <time>2020-01-14T09:58:28Z</time>
      </trkpt>
      <trkpt lat="43.46071" lon="3.78239">
        <ele>2</ele>
        <time>2020-01-14T09:58:30Z</time>
      </trkpt>
      <trkpt lat="43.46071" lon="3.78242">
        <ele>2</ele>
        <time>2020-01-14T09:58:32Z</time>
      </trkpt>
      <trkpt lat="43.46072" lon="3.78244">
        <ele>2</ele>
        <time>2020-01-14T09:58:34Z</time>
      </trkpt>
      <trkpt lat="43.46072" lon="3.78248">
        <ele>2</ele>
        <time>2020-01-14T09:58:36Z</time>
      </trkpt>
      <trkpt lat="43.46073" lon="3.78251">
        <ele>2</ele>
        <time>2020-01-14T09:58:38Z</time>
      </trkpt>
      <trkpt lat="43.46074" lon="3.78254">
        <ele>2</ele>
        <time>2020-01-14T09:58:40Z</time>
      </trkpt>
      <trkpt lat="43.46074" lon="3.78257">
        <ele>2</ele>
        <time>2020-01-14T09:58:42Z</time>
      </trkpt>
      <trkpt lat="43.46074" lon="3.7826">
        <ele>2</ele>
        <time>2020-01-14T09:58:44Z</time>
      </trkpt>
      <trkpt lat="43.46074" lon="3.78264">
        <ele>2</ele>
        <time>2020-01-14T09:58:47Z</time>
      </trkpt>
      <trkpt lat="43.46074" lon="3.78267">
        <ele>2</ele>
        <time>2020-01-14T09:58:50Z</time>
      </trkpt>
      <trkpt lat="43.46074" lon="3.7827">
        <ele>2</ele>
        <time>2020-01-14T09:58:52Z</time>
      </trkpt>
      <trkpt lat="43.46074" lon="3.78273">
        <ele>2</ele>
        <time>2020-01-14T09:58:54Z</time>
      </trkpt>
      <trkpt lat="43.46074" lon="3.78276">
        <ele>2</ele>
        <time>2020-01-14T09:58:56Z</time>
      </trkpt>
      <trkpt lat="43.46074" lon="3.78279">
        <ele>2</ele>
        <time>2020-01-14T09:58:58Z</time>
      </trkpt>
      <trkpt lat="43.46074" lon="3.78282">
        <ele>2</ele>
        <time>2020-01-14T09:59:00Z</time>
      </trkpt>
      <trkpt lat="43.46074" lon="3.78285">
        <ele>2</ele>
        <time>2020-01-14T09:59:02Z</time>
      </trkpt>
      <trkpt lat="43.46074" lon="3.78288">
        <ele>2</ele>
        <time>2020-01-14T09:59:04Z</time>
      </trkpt>
      <trkpt lat="43.46074" lon="3.7829">
        <ele>2</ele>
        <time>2020-01-14T09:59:06Z</time>
      </trkpt>
      <trkpt lat="43.46074" lon="3.78293">
        <ele>2</ele>
        <time>2020-01-14T09:59:08Z</time>
      </trkpt>
      <trkpt lat="43.46073" lon="3.78296">
        <ele>2</ele>
        <time>2020-01-14T09:59:10Z</time>
      </trkpt>
      <trkpt lat="43.46073" lon="3.78298">
        <ele>2</ele>
        <time>2020-01-14T09:59:12Z</time>
      </trkpt>
      <trkpt lat="43.46073" lon="3.78302">
        <ele>2</ele>
        <time>2020-01-14T09:59:14Z</time>
      </trkpt>
      <trkpt lat="43.46073" lon="3.78305">
        <ele>2</ele>
        <time>2020-01-14T09:59:16Z</time>
      </trkpt>
      <trkpt lat="43.46072" lon="3.78308">
        <ele>2</ele>
        <time>2020-01-14T09:59:18Z</time>
      </trkpt>
      <trkpt lat="43.46072" lon="3.78311">
        <ele>2</ele>
        <time>2020-01-14T09:59:20Z</time>
      </trkpt>
      <trkpt lat="43.46072" lon="3.78314">
        <ele>2</ele>
        <time>2020-01-14T09:59:22Z</time>
      </trkpt>
      <trkpt lat="43.46071" lon="3.78317">
        <ele>2</ele>
        <time>2020-01-14T09:59:24Z</time>
      </trkpt>
      <trkpt lat="43.46071" lon="3.7832">
        <ele>2</ele>
        <time>2020-01-14T09:59:26Z</time>
      </trkpt>
      <trkpt lat="43.46071" lon="3.78323">
        <ele>2</ele>
        <time>2020-01-14T09:59:28Z</time>
      </trkpt>
      <trkpt lat="43.46071" lon="3.78326">
        <ele>2</ele>
        <time>2020-01-14T09:59:30Z</time>
      </trkpt>
      <trkpt lat="43.46071" lon="3.78329">
        <ele>2</ele>
        <time>2020-01-14T09:59:32Z</time>
      </trkpt>
      <trkpt lat="43.4607" lon="3.78332">
        <ele>2</ele>
        <time>2020-01-14T09:59:34Z</time>
      </trkpt>
      <trkpt lat="43.4607" lon="3.78338">
        <ele>2</ele>
        <time>2020-01-14T09:59:36Z</time>
      </trkpt>
      <trkpt lat="43.4607" lon="3.7834">
        <ele>2</ele>
        <time>2020-01-14T09:59:38Z</time>
      </trkpt>
      <trkpt lat="43.4607" lon="3.78343">
        <ele>2</ele>
        <time>2020-01-14T09:59:41Z</time>
      </trkpt>
      <trkpt lat="43.4607" lon="3.78345">
        <ele>2</ele>
        <time>2020-01-14T09:59:43Z</time>
      </trkpt>
      <trkpt lat="43.4607" lon="3.78348">
        <ele>2</ele>
        <time>2020-01-14T09:59:44Z</time>
      </trkpt>
      <trkpt lat="43.4607" lon="3.78349">
        <ele>2</ele>
        <time>2020-01-14T09:59:45Z</time>
      </trkpt>
      <trkpt lat="43.4607" lon="3.78353">
        <ele>2</ele>
        <time>2020-01-14T09:59:48Z</time>
      </trkpt>
      <trkpt lat="43.46069" lon="3.78356">
        <ele>2</ele>
        <time>2020-01-14T09:59:50Z</time>
      </trkpt>
      <trkpt lat="43.46069" lon="3.78359">
        <ele>2</ele>
        <time>2020-01-14T09:59:52Z</time>
      </trkpt>
      <trkpt lat="43.46069" lon="3.78362">
        <ele>2</ele>
        <time>2020-01-14T09:59:54Z</time>
      </trkpt>
      <trkpt lat="43.46069" lon="3.78365">
        <ele>2</ele>
        <time>2020-01-14T09:59:56Z</time>
      </trkpt>
      <trkpt lat="43.46069" lon="3.78368">
        <ele>2</ele>
        <time>2020-01-14T09:59:58Z</time>
      </trkpt>
      <trkpt lat="43.46069" lon="3.78372">
        <ele>2</ele>
        <time>2020-01-14T10:00:01Z</time>
      </trkpt>
      <trkpt lat="43.46069" lon="3.78375">
        <ele>2</ele>
        <time>2020-01-14T10:00:04Z</time>
      </trkpt>
      <trkpt lat="43.46069" lon="3.78379">
        <ele>2</ele>
        <time>2020-01-14T10:00:09Z</time>
      </trkpt>
      <trkpt lat="43.4607" lon="3.7838">
        <ele>2</ele>
        <time>2020-01-14T10:00:14Z</time>
      </trkpt>
      <trkpt lat="43.46071" lon="3.78381">
        <ele>2</ele>
        <time>2020-01-14T10:00:15Z</time>
      </trkpt>
      <trkpt lat="43.46072" lon="3.78382">
        <ele>2</ele>
        <time>2020-01-14T10:00:24Z</time>
      </trkpt>
      <trkpt lat="43.46073" lon="3.78383">
        <ele>2</ele>
        <time>2020-01-14T10:00:28Z</time>
      </trkpt>
      <trkpt lat="43.46074" lon="3.78385">
        <ele>2</ele>
        <time>2020-01-14T10:00:30Z</time>
      </trkpt>
      <trkpt lat="43.46076" lon="3.78386">
        <ele>2</ele>
        <time>2020-01-14T10:03:28Z</time>
      </trkpt>
      <trkpt lat="43.46077" lon="3.78387">
        <ele>2</ele>
        <time>2020-01-14T10:03:29Z</time>
      </trkpt>
      <trkpt lat="43.46078" lon="3.78388">
        <ele>2</ele>
        <time>2020-01-14T10:03:31Z</time>
      </trkpt>
      <trkpt lat="43.46079" lon="3.7839">
        <ele>2</ele>
        <time>2020-01-14T10:03:33Z</time>
      </trkpt>
      <trkpt lat="43.4608" lon="3.78391">
        <ele>2</ele>
        <time>2020-01-14T10:03:36Z</time>
      </trkpt>
      <trkpt lat="43.46081" lon="3.78392">
        <ele>2</ele>
        <time>2020-01-14T10:03:37Z</time>
      </trkpt>
      <trkpt lat="43.46082" lon="3.78395">
        <ele>2</ele>
        <time>2020-01-14T10:03:39Z</time>
      </trkpt>
      <trkpt lat="43.46083" lon="3.78398">
        <ele>2</ele>
        <time>2020-01-14T10:03:41Z</time>
      </trkpt>
      <trkpt lat="43.46084" lon="3.784">
        <ele>2</ele>
        <time>2020-01-14T10:03:43Z</time>
      </trkpt>
      <trkpt lat="43.46085" lon="3.78402">
        <ele>2</ele>
        <time>2020-01-14T10:03:45Z</time>
      </trkpt>
      <trkpt lat="43.46086" lon="3.78404">
        <ele>2</ele>
        <time>2020-01-14T10:03:47Z</time>
      </trkpt>
      <trkpt lat="43.46089" lon="3.78408">
        <ele>2</ele>
        <time>2020-01-14T10:03:50Z</time>
      </trkpt>
      <trkpt lat="43.4609" lon="3.7841">
        <ele>2</ele>
        <time>2020-01-14T10:03:52Z</time>
      </trkpt>
      <trkpt lat="43.4609" lon="3.78412">
        <ele>2</ele>
        <time>2020-01-14T10:03:54Z</time>
      </trkpt>
      <trkpt lat="43.46091" lon="3.78413">
        <ele>2</ele>
        <time>2020-01-14T10:03:56Z</time>
      </trkpt>
      <trkpt lat="43.46092" lon="3.78415">
        <ele>2</ele>
        <time>2020-01-14T10:03:57Z</time>
      </trkpt>
      <trkpt lat="43.46093" lon="3.78418">
        <ele>2</ele>
        <time>2020-01-14T10:03:58Z</time>
      </trkpt>
      <trkpt lat="43.46093" lon="3.78419">
        <ele>2</ele>
        <time>2020-01-14T10:04:00Z</time>
      </trkpt>
      <trkpt lat="43.46094" lon="3.78421">
        <ele>2</ele>
        <time>2020-01-14T10:04:02Z</time>
      </trkpt>
      <trkpt lat="43.46094" lon="3.78423">
        <ele>2</ele>
        <time>2020-01-14T10:04:04Z</time>
      </trkpt>
      <trkpt lat="43.46095" lon="3.78424">
        <ele>2</ele>
        <time>2020-01-14T10:04:06Z</time>
      </trkpt>
      <trkpt lat="43.46095" lon="3.78426">
        <ele>2</ele>
        <time>2020-01-14T10:04:07Z</time>
      </trkpt>
      <trkpt lat="43.46096" lon="3.7843">
        <ele>2</ele>
        <time>2020-01-14T10:04:08Z</time>
      </trkpt>
      <trkpt lat="43.46096" lon="3.78432">
        <ele>2</ele>
        <time>2020-01-14T10:04:10Z</time>
      </trkpt>
      <trkpt lat="43.46096" lon="3.78434">
        <ele>2</ele>
        <time>2020-01-14T10:04:12Z</time>
      </trkpt>
      <trkpt lat="43.46096" lon="3.78436">
        <ele>2</ele>
        <time>2020-01-14T10:04:14Z</time>
      </trkpt>
      <trkpt lat="43.46096" lon="3.78438">
        <ele>2</ele>
        <time>2020-01-14T10:04:16Z</time>
      </trkpt>
      <trkpt lat="43.46096" lon="3.78439">
        <ele>2</ele>
        <time>2020-01-14T10:04:17Z</time>
      </trkpt>
      <trkpt lat="43.46096" lon="3.78444">
        <ele>2</ele>
        <time>2020-01-14T10:04:18Z</time>
      </trkpt>
      <trkpt lat="43.46096" lon="3.78446">
        <ele>2</ele>
        <time>2020-01-14T10:04:20Z</time>
      </trkpt>
      <trkpt lat="43.46096" lon="3.78448">
        <ele>2</ele>
        <time>2020-01-14T10:04:22Z</time>
      </trkpt>
      <trkpt lat="43.46096" lon="3.7845">
        <ele>2</ele>
        <time>2020-01-14T10:04:24Z</time>
      </trkpt>
      <trkpt lat="43.46096" lon="3.78452">
        <ele>2</ele>
        <time>2020-01-14T10:04:26Z</time>
      </trkpt>
      <trkpt lat="43.46096" lon="3.78454">
        <ele>2</ele>
        <time>2020-01-14T10:04:27Z</time>
      </trkpt>
      <trkpt lat="43.46095" lon="3.78459">
        <ele>2</ele>
        <time>2020-01-14T10:04:28Z</time>
      </trkpt>
      <trkpt lat="43.46095" lon="3.78461">
        <ele>2</ele>
        <time>2020-01-14T10:04:31Z</time>
      </trkpt>
      <trkpt lat="43.46095" lon="3.78463">
        <ele>2</ele>
        <time>2020-01-14T10:04:33Z</time>
      </trkpt>
      <trkpt lat="43.46095" lon="3.78465">
        <ele>2</ele>
        <time>2020-01-14T10:04:36Z</time>
      </trkpt>
      <trkpt lat="43.46095" lon="3.78467">
        <ele>2</ele>
        <time>2020-01-14T10:04:37Z</time>
      </trkpt>
      <trkpt lat="43.46094" lon="3.78472">
        <ele>2</ele>
        <time>2020-01-14T10:04:38Z</time>
      </trkpt>
      <trkpt lat="43.46094" lon="3.78475">
        <ele>2</ele>
        <time>2020-01-14T10:04:40Z</time>
      </trkpt>
      <trkpt lat="43.46094" lon="3.78477">
        <ele>2</ele>
        <time>2020-01-14T10:04:42Z</time>
      </trkpt>
      <trkpt lat="43.46093" lon="3.78479">
        <ele>2</ele>
        <time>2020-01-14T10:04:44Z</time>
      </trkpt>
      <trkpt lat="43.46093" lon="3.78481">
        <ele>2</ele>
        <time>2020-01-14T10:04:46Z</time>
      </trkpt>
      <trkpt lat="43.46093" lon="3.78483">
        <ele>2</ele>
        <time>2020-01-14T10:04:47Z</time>
      </trkpt>
      <trkpt lat="43.46093" lon="3.78485">
        <ele>2</ele>
        <time>2020-01-14T10:04:48Z</time>
      </trkpt>
      <trkpt lat="43.46092" lon="3.78488">
        <ele>2</ele>
        <time>2020-01-14T10:04:50Z</time>
      </trkpt>
      <trkpt lat="43.46092" lon="3.78491">
        <ele>2</ele>
        <time>2020-01-14T10:04:52Z</time>
      </trkpt>
      <trkpt lat="43.46091" lon="3.78494">
        <ele>2</ele>
        <time>2020-01-14T10:04:54Z</time>
      </trkpt>
      <trkpt lat="43.46091" lon="3.78497">
        <ele>2</ele>
        <time>2020-01-14T10:04:57Z</time>
      </trkpt>
      <trkpt lat="43.4609" lon="3.785">
        <ele>2</ele>
        <time>2020-01-14T10:04:59Z</time>
      </trkpt>
      <trkpt lat="43.4609" lon="3.78503">
        <ele>2</ele>
        <time>2020-01-14T10:05:01Z</time>
      </trkpt>
      <trkpt lat="43.46089" lon="3.78506">
        <ele>2</ele>
        <time>2020-01-14T10:05:03Z</time>
      </trkpt>
      <trkpt lat="43.46089" lon="3.78509">
        <ele>2</ele>
        <time>2020-01-14T10:05:05Z</time>
      </trkpt>
      <trkpt lat="43.46088" lon="3.78511">
        <ele>2</ele>
        <time>2020-01-14T10:05:07Z</time>
      </trkpt>
      <trkpt lat="43.46088" lon="3.78514">
        <ele>2</ele>
        <time>2020-01-14T10:05:09Z</time>
      </trkpt>
      <trkpt lat="43.46087" lon="3.78517">
        <ele>2</ele>
        <time>2020-01-14T10:05:11Z</time>
      </trkpt>
      <trkpt lat="43.46086" lon="3.7852">
        <ele>2</ele>
        <time>2020-01-14T10:05:13Z</time>
      </trkpt>
      <trkpt lat="43.46085" lon="3.78524">
        <ele>2</ele>
        <time>2020-01-14T10:05:15Z</time>
      </trkpt>
      <trkpt lat="43.46085" lon="3.78527">
        <ele>2</ele>
        <time>2020-01-14T10:05:17Z</time>
      </trkpt>
      <trkpt lat="43.46084" lon="3.78529">
        <ele>2</ele>
        <time>2020-01-14T10:05:19Z</time>
      </trkpt>
      <trkpt lat="43.46083" lon="3.78532">
        <ele>2</ele>
        <time>2020-01-14T10:05:21Z</time>
      </trkpt>
      <trkpt lat="43.46082" lon="3.78535">
        <ele>2</ele>
        <time>2020-01-14T10:05:23Z</time>
      </trkpt>
      <trkpt lat="43.46082" lon="3.78538">
        <ele>2</ele>
        <time>2020-01-14T10:05:25Z</time>
      </trkpt>
      <trkpt lat="43.46081" lon="3.7854">
        <ele>2</ele>
        <time>2020-01-14T10:05:27Z</time>
      </trkpt>
      <trkpt lat="43.4608" lon="3.78543">
        <ele>2</ele>
        <time>2020-01-14T10:05:29Z</time>
      </trkpt>
      <trkpt lat="43.46079" lon="3.78546">
        <ele>2</ele>
        <time>2020-01-14T10:05:31Z</time>
      </trkpt>
      <trkpt lat="43.46079" lon="3.78549">
        <ele>2</ele>
        <time>2020-01-14T10:05:33Z</time>
      </trkpt>
      <trkpt lat="43.46079" lon="3.78552">
        <ele>2</ele>
        <time>2020-01-14T10:05:35Z</time>
      </trkpt>
      <trkpt lat="43.46078" lon="3.78554">
        <ele>2</ele>
        <time>2020-01-14T10:05:37Z</time>
      </trkpt>
      <trkpt lat="43.46077" lon="3.78557">
        <ele>2</ele>
        <time>2020-01-14T10:05:39Z</time>
      </trkpt>
      <trkpt lat="43.46077" lon="3.7856">
        <ele>2</ele>
        <time>2020-01-14T10:05:41Z</time>
      </trkpt>
      <trkpt lat="43.46077" lon="3.78563">
        <ele>2</ele>
        <time>2020-01-14T10:05:43Z</time>
      </trkpt>
      <trkpt lat="43.46077" lon="3.78566">
        <ele>2</ele>
        <time>2020-01-14T10:05:45Z</time>
      </trkpt>
      <trkpt lat="43.46077" lon="3.78569">
        <ele>2</ele>
        <time>2020-01-14T10:05:47Z</time>
      </trkpt>
      <trkpt lat="43.46076" lon="3.78574">
        <ele>2</ele>
        <time>2020-01-14T10:05:49Z</time>
      </trkpt>
      <trkpt lat="43.46076" lon="3.78577">
        <ele>2</ele>
        <time>2020-01-14T10:05:52Z</time>
      </trkpt>
      <trkpt lat="43.46075" lon="3.78579">
        <ele>2</ele>
        <time>2020-01-14T10:05:54Z</time>
      </trkpt>
      <trkpt lat="43.46075" lon="3.78582">
        <ele>2</ele>
        <time>2020-01-14T10:05:56Z</time>
      </trkpt>
      <trkpt lat="43.46074" lon="3.78584">
        <ele>2</ele>
        <time>2020-01-14T10:05:57Z</time>
      </trkpt>
      <trkpt lat="43.46074" lon="3.78587">
        <ele>2</ele>
        <time>2020-01-14T10:05:58Z</time>
      </trkpt>
      <trkpt lat="43.46073" lon="3.78589">
        <ele>2</ele>
        <time>2020-01-14T10:06:00Z</time>
      </trkpt>
      <trkpt lat="43.46073" lon="3.78592">
        <ele>2</ele>
        <time>2020-01-14T10:06:02Z</time>
      </trkpt>
      <trkpt lat="43.46072" lon="3.78594">
        <ele>2</ele>
        <time>2020-01-14T10:06:04Z</time>
      </trkpt>
      <trkpt lat="43.46072" lon="3.78596">
        <ele>2</ele>
        <time>2020-01-14T10:06:06Z</time>
      </trkpt>
      <trkpt lat="43.46071" lon="3.78598">
        <ele>2</ele>
        <time>2020-01-14T10:06:07Z</time>
      </trkpt>
      <trkpt lat="43.46071" lon="3.78602">
        <ele>2</ele>
        <time>2020-01-14T10:06:08Z</time>
      </trkpt>
      <trkpt lat="43.4607" lon="3.78604">
        <ele>2</ele>
        <time>2020-01-14T10:06:10Z</time>
      </trkpt>
      <trkpt lat="43.46069" lon="3.78606">
        <ele>2</ele>
        <time>2020-01-14T10:06:12Z</time>
      </trkpt>
      <trkpt lat="43.46069" lon="3.78609">
        <ele>2</ele>
        <time>2020-01-14T10:06:14Z</time>
      </trkpt>
      <trkpt lat="43.46068" lon="3.78611">
        <ele>2</ele>
        <time>2020-01-14T10:06:16Z</time>
      </trkpt>
      <trkpt lat="43.46068" lon="3.78614">
        <ele>2</ele>
        <time>2020-01-14T10:06:17Z</time>
      </trkpt>
      <trkpt lat="43.46067" lon="3.78618">
        <ele>2</ele>
        <time>2020-01-14T10:06:18Z</time>
      </trkpt>
      <trkpt lat="43.46066" lon="3.7862">
        <ele>2</ele>
        <time>2020-01-14T10:06:20Z</time>
      </trkpt>
      <trkpt lat="43.46066" lon="3.78623">
        <ele>2</ele>
        <time>2020-01-14T10:06:22Z</time>
      </trkpt>
      <trkpt lat="43.46065" lon="3.78625">
        <ele>2</ele>
        <time>2020-01-14T10:06:24Z</time>
      </trkpt>
      <trkpt lat="43.46065" lon="3.78628">
        <ele>2</ele>
        <time>2020-01-14T10:06:26Z</time>
      </trkpt>
      <trkpt lat="43.46065" lon="3.7863">
        <ele>2</ele>
        <time>2020-01-14T10:06:27Z</time>
      </trkpt>
      <trkpt lat="43.46064" lon="3.78634">
        <ele>2</ele>
        <time>2020-01-14T10:06:28Z</time>
      </trkpt>
      <trkpt lat="43.46064" lon="3.78636">
        <ele>2</ele>
        <time>2020-01-14T10:06:30Z</time>
      </trkpt>
      <trkpt lat="43.46064" lon="3.78639">
        <ele>2</ele>
        <time>2020-01-14T10:06:32Z</time>
      </trkpt>
      <trkpt lat="43.46063" lon="3.78641">
        <ele>2</ele>
        <time>2020-01-14T10:06:34Z</time>
      </trkpt>
      <trkpt lat="43.46063" lon="3.78643">
        <ele>2</ele>
        <time>2020-01-14T10:06:36Z</time>
      </trkpt>
      <trkpt lat="43.46063" lon="3.78646">
        <ele>2</ele>
        <time>2020-01-14T10:06:37Z</time>
      </trkpt>
      <trkpt lat="43.46063" lon="3.7865">
        <ele>2</ele>
        <time>2020-01-14T10:06:38Z</time>
      </trkpt>
      <trkpt lat="43.46062" lon="3.78652">
        <ele>2</ele>
        <time>2020-01-14T10:06:40Z</time>
      </trkpt>
      <trkpt lat="43.46062" lon="3.78654">
        <ele>2</ele>
        <time>2020-01-14T10:06:42Z</time>
      </trkpt>
      <trkpt lat="43.46062" lon="3.78657">
        <ele>2</ele>
        <time>2020-01-14T10:06:44Z</time>
      </trkpt>
      <trkpt lat="43.46062" lon="3.78659">
        <ele>2</ele>
        <time>2020-01-14T10:06:46Z</time>
      </trkpt>
      <trkpt lat="43.46062" lon="3.78662">
        <ele>2</ele>
        <time>2020-01-14T10:06:47Z</time>
      </trkpt>
      <trkpt lat="43.46061" lon="3.78666">
        <ele>2</ele>
        <time>2020-01-14T10:06:48Z</time>
      </trkpt>
      <trkpt lat="43.46061" lon="3.78668">
        <ele>2</ele>
        <time>2020-01-14T10:06:50Z</time>
      </trkpt>
      <trkpt lat="43.4606" lon="3.7867">
        <ele>2</ele>
        <time>2020-01-14T10:06:52Z</time>
      </trkpt>
      <trkpt lat="43.4606" lon="3.78672">
        <ele>2</ele>
        <time>2020-01-14T10:06:54Z</time>
      </trkpt>
      <trkpt lat="43.46059" lon="3.78675">
        <ele>2</ele>
        <time>2020-01-14T10:06:56Z</time>
      </trkpt>
      <trkpt lat="43.46059" lon="3.78677">
        <ele>2</ele>
        <time>2020-01-14T10:06:57Z</time>
      </trkpt>
      <trkpt lat="43.46058" lon="3.78678">
        <ele>2</ele>
        <time>2020-01-14T10:06:58Z</time>
      </trkpt>
      <trkpt lat="43.46057" lon="3.78681">
        <ele>2</ele>
        <time>2020-01-14T10:07:00Z</time>
      </trkpt>
      <trkpt lat="43.46056" lon="3.78684">
        <ele>2</ele>
        <time>2020-01-14T10:07:02Z</time>
      </trkpt>
      <trkpt lat="43.46055" lon="3.78687">
        <ele>2</ele>
        <time>2020-01-14T10:07:04Z</time>
      </trkpt>
      <trkpt lat="43.46055" lon="3.78691">
        <ele>2</ele>
        <time>2020-01-14T10:07:07Z</time>
      </trkpt>
      <trkpt lat="43.46054" lon="3.78694">
        <ele>2</ele>
        <time>2020-01-14T10:07:09Z</time>
      </trkpt>
      <trkpt lat="43.46053" lon="3.78697">
        <ele>2</ele>
        <time>2020-01-14T10:07:11Z</time>
      </trkpt>
      <trkpt lat="43.46051" lon="3.787">
        <ele>2</ele>
        <time>2020-01-14T10:07:13Z</time>
      </trkpt>
      <trkpt lat="43.4605" lon="3.78702">
        <ele>2</ele>
        <time>2020-01-14T10:07:15Z</time>
      </trkpt>
      <trkpt lat="43.4605" lon="3.78702">
        <ele>2</ele>
        <time>2020-01-14T10:07:17Z</time>
      </trkpt>
      <trkpt lat="43.46049" lon="3.78708">
        <ele>2</ele>
        <time>2020-01-14T10:07:18Z</time>
      </trkpt>
      <trkpt lat="43.46048" lon="3.78711">
        <ele>2</ele>
        <time>2020-01-14T10:07:20Z</time>
      </trkpt>
      <trkpt lat="43.46047" lon="3.78713">
        <ele>2</ele>
        <time>2020-01-14T10:07:22Z</time>
      </trkpt>
      <trkpt lat="43.46046" lon="3.78716">
        <ele>2</ele>
        <time>2020-01-14T10:07:24Z</time>
      </trkpt>
      <trkpt lat="43.46045" lon="3.78718">
        <ele>2</ele>
        <time>2020-01-14T10:07:26Z</time>
      </trkpt>
      <trkpt lat="43.46044" lon="3.78721">
        <ele>2</ele>
        <time>2020-01-14T10:07:27Z</time>
      </trkpt>
      <trkpt lat="43.46043" lon="3.78724">
        <ele>2</ele>
        <time>2020-01-14T10:07:28Z</time>
      </trkpt>
      <trkpt lat="43.46042" lon="3.78727">
        <ele>2</ele>
        <time>2020-01-14T10:07:30Z</time>
      </trkpt>
      <trkpt lat="43.46041" lon="3.78729">
        <ele>2</ele>
        <time>2020-01-14T10:07:32Z</time>
      </trkpt>
      <trkpt lat="43.4604" lon="3.78731">
        <ele>2</ele>
        <time>2020-01-14T10:07:34Z</time>
      </trkpt>
      <trkpt lat="43.46038" lon="3.78733">
        <ele>2</ele>
        <time>2020-01-14T10:07:36Z</time>
      </trkpt>
      <trkpt lat="43.46037" lon="3.78735">
        <ele>2</ele>
        <time>2020-01-14T10:07:37Z</time>
      </trkpt>
      <trkpt lat="43.46036" lon="3.78738">
        <ele>2</ele>
        <time>2020-01-14T10:07:38Z</time>
      </trkpt>
      <trkpt lat="43.46035" lon="3.78739">
        <ele>2</ele>
        <time>2020-01-14T10:07:43Z</time>
      </trkpt>
      <trkpt lat="43.46034" lon="3.7874">
        <ele>2</ele>
        <time>2020-01-14T10:07:44Z</time>
      </trkpt>
      <trkpt lat="43.46034" lon="3.78741">
        <ele>2</ele>
        <time>2020-01-14T10:07:46Z</time>
      </trkpt>
      <trkpt lat="43.46033" lon="3.78743">
        <ele>2</ele>
        <time>2020-01-14T10:07:47Z</time>
      </trkpt>
      <trkpt lat="43.46029" lon="3.78748">
        <ele>2</ele>
        <time>2020-01-14T10:07:48Z</time>
      </trkpt>
      <trkpt lat="43.46027" lon="3.7875">
        <ele>2</ele>
        <time>2020-01-14T10:07:50Z</time>
      </trkpt>
      <trkpt lat="43.46026" lon="3.78752">
        <ele>2</ele>
        <time>2020-01-14T10:07:52Z</time>
      </trkpt>
      <trkpt lat="43.46024" lon="3.78754">
        <ele>2</ele>
        <time>2020-01-14T10:07:54Z</time>
      </trkpt>
      <trkpt lat="43.46022" lon="3.78756">
        <ele>2</ele>
        <time>2020-01-14T10:07:56Z</time>
      </trkpt>
      <trkpt lat="43.46021" lon="3.78758">
        <ele>2</ele>
        <time>2020-01-14T10:07:57Z</time>
      </trkpt>
      <trkpt lat="43.46018" lon="3.78761">
        <ele>2</ele>
        <time>2020-01-14T10:07:58Z</time>
      </trkpt>
      <trkpt lat="43.46017" lon="3.78762">
        <ele>2</ele>
        <time>2020-01-14T10:08:00Z</time>
      </trkpt>
      <trkpt lat="43.46015" lon="3.78764">
        <ele>2</ele>
        <time>2020-01-14T10:08:02Z</time>
      </trkpt>
      <trkpt lat="43.46013" lon="3.78766">
        <ele>2</ele>
        <time>2020-01-14T10:08:04Z</time>
      </trkpt>
      <trkpt lat="43.46012" lon="3.78767">
        <ele>2</ele>
        <time>2020-01-14T10:08:06Z</time>
      </trkpt>
      <trkpt lat="43.4601" lon="3.78769">
        <ele>2</ele>
        <time>2020-01-14T10:08:07Z</time>
      </trkpt>
      <trkpt lat="43.4601" lon="3.7877">
        <ele>2</ele>
        <time>2020-01-14T10:08:08Z</time>
      </trkpt>
      <trkpt lat="43.46008" lon="3.78772">
        <ele>2</ele>
        <time>2020-01-14T10:08:10Z</time>
      </trkpt>
      <trkpt lat="43.46006" lon="3.78774">
        <ele>2</ele>
        <time>2020-01-14T10:08:15Z</time>
      </trkpt>
      <trkpt lat="43.46004" lon="3.78776">
        <ele>2</ele>
        <time>2020-01-14T10:08:17Z</time>
      </trkpt>
      <trkpt lat="43.45999" lon="3.7878">
        <ele>2</ele>
        <time>2020-01-14T10:08:19Z</time>
      </trkpt>
      <trkpt lat="43.45997" lon="3.78782">
        <ele>2</ele>
        <time>2020-01-14T10:08:21Z</time>
      </trkpt>
      <trkpt lat="43.45995" lon="3.78784">
        <ele>2</ele>
        <time>2020-01-14T10:08:23Z</time>
      </trkpt>
      <trkpt lat="43.45993" lon="3.78786">
        <ele>2</ele>
        <time>2020-01-14T10:08:25Z</time>
      </trkpt>
      <trkpt lat="43.45991" lon="3.78788">
        <ele>2</ele>
        <time>2020-01-14T10:08:27Z</time>
      </trkpt>
      <trkpt lat="43.45989" lon="3.78789">
        <ele>2</ele>
        <time>2020-01-14T10:08:29Z</time>
      </trkpt>
      <trkpt lat="43.45986" lon="3.78791">
        <ele>2</ele>
        <time>2020-01-14T10:08:31Z</time>
      </trkpt>
      <trkpt lat="43.45984" lon="3.78793">
        <ele>2</ele>
        <time>2020-01-14T10:08:33Z</time>
      </trkpt>
      <trkpt lat="43.45982" lon="3.78795">
        <ele>2</ele>
        <time>2020-01-14T10:08:35Z</time>
      </trkpt>
      <trkpt lat="43.4598" lon="3.78797">
        <ele>2</ele>
        <time>2020-01-14T10:08:37Z</time>
      </trkpt>
      <trkpt lat="43.45978" lon="3.788">
        <ele>2</ele>
        <time>2020-01-14T10:08:39Z</time>
      </trkpt>
      <trkpt lat="43.45976" lon="3.78802">
        <ele>2</ele>
        <time>2020-01-14T10:08:41Z</time>
      </trkpt>
      <trkpt lat="43.45975" lon="3.78804">
        <ele>2</ele>
        <time>2020-01-14T10:08:43Z</time>
      </trkpt>
      <trkpt lat="43.45973" lon="3.78806">
        <ele>2</ele>
        <time>2020-01-14T10:08:45Z</time>
      </trkpt>
      <trkpt lat="43.45971" lon="3.78808">
        <ele>2</ele>
        <time>2020-01-14T10:08:47Z</time>
      </trkpt>
      <trkpt lat="43.45969" lon="3.7881">
        <ele>2</ele>
        <time>2020-01-14T10:08:49Z</time>
      </trkpt>
      <trkpt lat="43.45967" lon="3.78813">
        <ele>2</ele>
        <time>2020-01-14T10:08:51Z</time>
      </trkpt>
      <trkpt lat="43.45965" lon="3.78815">
        <ele>2</ele>
        <time>2020-01-14T10:08:53Z</time>
      </trkpt>
      <trkpt lat="43.45963" lon="3.78817">
        <ele>2</ele>
        <time>2020-01-14T10:08:55Z</time>
      </trkpt>
      <trkpt lat="43.45962" lon="3.7882">
        <ele>2</ele>
        <time>2020-01-14T10:08:57Z</time>
      </trkpt>
      <trkpt lat="43.4596" lon="3.78822">
        <ele>2</ele>
        <time>2020-01-14T10:08:59Z</time>
      </trkpt>
      <trkpt lat="43.45959" lon="3.78824">
        <ele>2</ele>
        <time>2020-01-14T10:09:01Z</time>
      </trkpt>
      <trkpt lat="43.45957" lon="3.78826">
        <ele>2</ele>
        <time>2020-01-14T10:09:03Z</time>
      </trkpt>
      <trkpt lat="43.45956" lon="3.78828">
        <ele>2</ele>
        <time>2020-01-14T10:09:05Z</time>
      </trkpt>
      <trkpt lat="43.45954" lon="3.78831">
        <ele>2</ele>
        <time>2020-01-14T10:09:07Z</time>
      </trkpt>
      <trkpt lat="43.45952" lon="3.78833">
        <ele>2</ele>
        <time>2020-01-14T10:09:09Z</time>
      </trkpt>
      <trkpt lat="43.4595" lon="3.78835">
        <ele>2</ele>
        <time>2020-01-14T10:09:11Z</time>
      </trkpt>
      <trkpt lat="43.45949" lon="3.78836">
        <ele>2</ele>
        <time>2020-01-14T10:09:13Z</time>
      </trkpt>
      <trkpt lat="43.45947" lon="3.78838">
        <ele>2</ele>
        <time>2020-01-14T10:09:15Z</time>
      </trkpt>
      <trkpt lat="43.45945" lon="3.7884">
        <ele>2</ele>
        <time>2020-01-14T10:09:17Z</time>
      </trkpt>
      <trkpt lat="43.45943" lon="3.78842">
        <ele>2</ele>
        <time>2020-01-14T10:09:19Z</time>
      </trkpt>
      <trkpt lat="43.45941" lon="3.78845">
        <ele>2</ele>
        <time>2020-01-14T10:09:21Z</time>
      </trkpt>
      <trkpt lat="43.45939" lon="3.78847">
        <ele>2</ele>
        <time>2020-01-14T10:09:23Z</time>
      </trkpt>
      <trkpt lat="43.45937" lon="3.78849">
        <ele>2</ele>
        <time>2020-01-14T10:09:25Z</time>
      </trkpt>
      <trkpt lat="43.45935" lon="3.78851">
        <ele>2</ele>
        <time>2020-01-14T10:09:27Z</time>
      </trkpt>
      <trkpt lat="43.45933" lon="3.78853">
        <ele>2</ele>
        <time>2020-01-14T10:09:29Z</time>
      </trkpt>
      <trkpt lat="43.45931" lon="3.78855">
        <ele>2</ele>
        <time>2020-01-14T10:09:31Z</time>
      </trkpt>
      <trkpt lat="43.45929" lon="3.78856">
        <ele>2</ele>
        <time>2020-01-14T10:09:33Z</time>
      </trkpt>
      <trkpt lat="43.45927" lon="3.78858">
        <ele>2</ele>
        <time>2020-01-14T10:09:35Z</time>
      </trkpt>
      <trkpt lat="43.45925" lon="3.7886">
        <ele>2</ele>
        <time>2020-01-14T10:09:37Z</time>
      </trkpt>
      <trkpt lat="43.45923" lon="3.78861">
        <ele>2</ele>
        <time>2020-01-14T10:09:39Z</time>
      </trkpt>
      <trkpt lat="43.45921" lon="3.78862">
        <ele>2</ele>
        <time>2020-01-14T10:09:41Z</time>
      </trkpt>
      <trkpt lat="43.4592" lon="3.78864">
        <ele>2</ele>
        <time>2020-01-14T10:09:43Z</time>
      </trkpt>
      <trkpt lat="43.45918" lon="3.78866">
        <ele>2</ele>
        <time>2020-01-14T10:09:45Z</time>
      </trkpt>
      <trkpt lat="43.45917" lon="3.78868">
        <ele>2</ele>
        <time>2020-01-14T10:09:47Z</time>
      </trkpt>
      <trkpt lat="43.45916" lon="3.7887">
        <ele>2</ele>
        <time>2020-01-14T10:09:49Z</time>
      </trkpt>
      <trkpt lat="43.45914" lon="3.78871">
        <ele>2</ele>
        <time>2020-01-14T10:09:51Z</time>
      </trkpt>
      <trkpt lat="43.45913" lon="3.78873">
        <ele>2</ele>
        <time>2020-01-14T10:09:53Z</time>
      </trkpt>
      <trkpt lat="43.45911" lon="3.78875">
        <ele>2</ele>
        <time>2020-01-14T10:09:55Z</time>
      </trkpt>
      <trkpt lat="43.45909" lon="3.78877">
        <ele>2</ele>
        <time>2020-01-14T10:09:57Z</time>
      </trkpt>
      <trkpt lat="43.45907" lon="3.7888">
        <ele>2</ele>
        <time>2020-01-14T10:09:59Z</time>
      </trkpt>
      <trkpt lat="43.45905" lon="3.78882">
        <ele>2</ele>
        <time>2020-01-14T10:10:01Z</time>
      </trkpt>
      <trkpt lat="43.45903" lon="3.78885">
        <ele>2</ele>
        <time>2020-01-14T10:10:03Z</time>
      </trkpt>
      <trkpt lat="43.45902" lon="3.78888">
        <ele>2</ele>
        <time>2020-01-14T10:10:05Z</time>
      </trkpt>
      <trkpt lat="43.459" lon="3.7889">
        <ele>2</ele>
        <time>2020-01-14T10:10:07Z</time>
      </trkpt>
      <trkpt lat="43.45899" lon="3.78893">
        <ele>2</ele>
        <time>2020-01-14T10:10:09Z</time>
      </trkpt>
      <trkpt lat="43.45897" lon="3.78895">
        <ele>2</ele>
        <time>2020-01-14T10:10:11Z</time>
      </trkpt>
      <trkpt lat="43.45896" lon="3.78897">
        <ele>2</ele>
        <time>2020-01-14T10:10:13Z</time>
      </trkpt>
      <trkpt lat="43.45894" lon="3.78899">
        <ele>2</ele>
        <time>2020-01-14T10:10:15Z</time>
      </trkpt>
      <trkpt lat="43.45893" lon="3.789">
        <ele>2</ele>
        <time>2020-01-14T10:10:17Z</time>
      </trkpt>
      <trkpt lat="43.45891" lon="3.78902">
        <ele>2</ele>
        <time>2020-01-14T10:10:19Z</time>
      </trkpt>
      <trkpt lat="43.45888" lon="3.78904">
        <ele>2</ele>
        <time>2020-01-14T10:10:21Z</time>
      </trkpt>
      <trkpt lat="43.45886" lon="3.78906">
        <ele>2</ele>
        <time>2020-01-14T10:10:23Z</time>
      </trkpt>
      <trkpt lat="43.45884" lon="3.78907">
        <ele>2</ele>
        <time>2020-01-14T10:10:25Z</time>
      </trkpt>
      <trkpt lat="43.45882" lon="3.78909">
        <ele>2</ele>
        <time>2020-01-14T10:10:27Z</time>
      </trkpt>
      <trkpt lat="43.4588" lon="3.78912">
        <ele>2</ele>
        <time>2020-01-14T10:10:29Z</time>
      </trkpt>
      <trkpt lat="43.45879" lon="3.78914">
        <ele>2</ele>
        <time>2020-01-14T10:10:31Z</time>
      </trkpt>
      <trkpt lat="43.45878" lon="3.78917">
        <ele>2</ele>
        <time>2020-01-14T10:10:33Z</time>
      </trkpt>
      <trkpt lat="43.45876" lon="3.7892">
        <ele>2</ele>
        <time>2020-01-14T10:10:35Z</time>
      </trkpt>
      <trkpt lat="43.45875" lon="3.78922">
        <ele>2</ele>
        <time>2020-01-14T10:10:37Z</time>
      </trkpt>
      <trkpt lat="43.45874" lon="3.78924">
        <ele>2</ele>
        <time>2020-01-14T10:10:39Z</time>
      </trkpt>
      <trkpt lat="43.45872" lon="3.78927">
        <ele>2</ele>
        <time>2020-01-14T10:10:41Z</time>
      </trkpt>
      <trkpt lat="43.45871" lon="3.78929">
        <ele>2</ele>
        <time>2020-01-14T10:10:43Z</time>
      </trkpt>
      <trkpt lat="43.45869" lon="3.78932">
        <ele>2</ele>
        <time>2020-01-14T10:10:45Z</time>
      </trkpt>
      <trkpt lat="43.45867" lon="3.78935">
        <ele>2</ele>
        <time>2020-01-14T10:10:47Z</time>
      </trkpt>
      <trkpt lat="43.45866" lon="3.78937">
        <ele>2</ele>
        <time>2020-01-14T10:10:49Z</time>
      </trkpt>
      <trkpt lat="43.45864" lon="3.78939">
        <ele>2</ele>
        <time>2020-01-14T10:10:51Z</time>
      </trkpt>
      <trkpt lat="43.45862" lon="3.78942">
        <ele>2</ele>
        <time>2020-01-14T10:10:53Z</time>
      </trkpt>
      <trkpt lat="43.4586" lon="3.78944">
        <ele>2</ele>
        <time>2020-01-14T10:10:55Z</time>
      </trkpt>
      <trkpt lat="43.45858" lon="3.78945">
        <ele>2</ele>
        <time>2020-01-14T10:10:57Z</time>
      </trkpt>
      <trkpt lat="43.45856" lon="3.78945">
        <ele>2</ele>
        <time>2020-01-14T10:10:59Z</time>
      </trkpt>
      <trkpt lat="43.45853" lon="3.78945">
        <ele>2</ele>
        <time>2020-01-14T10:11:01Z</time>
      </trkpt>
      <trkpt lat="43.4585" lon="3.78945">
        <ele>2</ele>
        <time>2020-01-14T10:11:03Z</time>
      </trkpt>
      <trkpt lat="43.45848" lon="3.78944">
        <ele>2</ele>
        <time>2020-01-14T10:11:05Z</time>
      </trkpt>
      <trkpt lat="43.45845" lon="3.78943">
        <ele>2</ele>
        <time>2020-01-14T10:11:07Z</time>
      </trkpt>
      <trkpt lat="43.45843" lon="3.78944">
        <ele>2</ele>
        <time>2020-01-14T10:11:09Z</time>
      </trkpt>
      <trkpt lat="43.4584" lon="3.78945">
        <ele>2</ele>
        <time>2020-01-14T10:11:11Z</time>
      </trkpt>
      <trkpt lat="43.45838" lon="3.78946">
        <ele>2</ele>
        <time>2020-01-14T10:11:13Z</time>
      </trkpt>
      <trkpt lat="43.45836" lon="3.78948">
        <ele>2</ele>
        <time>2020-01-14T10:11:15Z</time>
      </trkpt>
      <trkpt lat="43.45835" lon="3.7895">
        <ele>2</ele>
        <time>2020-01-14T10:11:17Z</time>
      </trkpt>
      <trkpt lat="43.45833" lon="3.78951">
        <ele>2</ele>
        <time>2020-01-14T10:11:19Z</time>
      </trkpt>
      <trkpt lat="43.45831" lon="3.78953">
        <ele>2</ele>
        <time>2020-01-14T10:11:21Z</time>
      </trkpt>
      <trkpt lat="43.45829" lon="3.78955">
        <ele>2</ele>
        <time>2020-01-14T10:11:23Z</time>
      </trkpt>
      <trkpt lat="43.45827" lon="3.78957">
        <ele>2</ele>
        <time>2020-01-14T10:11:25Z</time>
      </trkpt>
      <trkpt lat="43.45826" lon="3.7896">
        <ele>2</ele>
        <time>2020-01-14T10:11:27Z</time>
      </trkpt>
      <trkpt lat="43.45825" lon="3.78963">
        <ele>2</ele>
        <time>2020-01-14T10:11:29Z</time>
      </trkpt>
      <trkpt lat="43.45825" lon="3.78965">
        <ele>2</ele>
        <time>2020-01-14T10:11:31Z</time>
      </trkpt>
      <trkpt lat="43.45825" lon="3.78968">
        <ele>2</ele>
        <time>2020-01-14T10:11:33Z</time>
      </trkpt>
      <trkpt lat="43.45824" lon="3.78971">
        <ele>2</ele>
        <time>2020-01-14T10:11:35Z</time>
      </trkpt>
      <trkpt lat="43.45825" lon="3.78974">
        <ele>2</ele>
        <time>2020-01-14T10:11:37Z</time>
      </trkpt>
      <trkpt lat="43.45825" lon="3.78977">
        <ele>2</ele>
        <time>2020-01-14T10:11:39Z</time>
      </trkpt>
      <trkpt lat="43.45826" lon="3.7898">
        <ele>2</ele>
        <time>2020-01-14T10:11:41Z</time>
      </trkpt>
      <trkpt lat="43.45827" lon="3.78982">
        <ele>2</ele>
        <time>2020-01-14T10:11:43Z</time>
      </trkpt>
      <trkpt lat="43.45828" lon="3.78984">
        <ele>2</ele>
        <time>2020-01-14T10:11:45Z</time>
      </trkpt>
      <trkpt lat="43.45829" lon="3.78986">
        <ele>2</ele>
        <time>2020-01-14T10:11:47Z</time>
      </trkpt>
      <trkpt lat="43.45831" lon="3.78988">
        <ele>2</ele>
        <time>2020-01-14T10:11:50Z</time>
      </trkpt>
      <trkpt lat="43.45833" lon="3.7899">
        <ele>2</ele>
        <time>2020-01-14T10:11:53Z</time>
      </trkpt>
      <trkpt lat="43.45835" lon="3.78991">
        <ele>2</ele>
        <time>2020-01-14T10:11:55Z</time>
      </trkpt>
      <trkpt lat="43.45837" lon="3.7899">
        <ele>2</ele>
        <time>2020-01-14T10:11:57Z</time>
      </trkpt>
      <trkpt lat="43.4584" lon="3.78991">
        <ele>2</ele>
        <time>2020-01-14T10:11:59Z</time>
      </trkpt>
      <trkpt lat="43.45842" lon="3.78992">
        <ele>2</ele>
        <time>2020-01-14T10:12:01Z</time>
      </trkpt>
      <trkpt lat="43.45844" lon="3.78993">
        <ele>2</ele>
        <time>2020-01-14T10:12:04Z</time>
      </trkpt>
      <trkpt lat="43.45845" lon="3.78993">
        <ele>2</ele>
        <time>2020-01-14T10:12:06Z</time>
      </trkpt>
      <trkpt lat="43.45847" lon="3.78994">
        <ele>2</ele>
        <time>2020-01-14T10:12:07Z</time>
      </trkpt>
      <trkpt lat="43.45847" lon="3.78995">
        <ele>2</ele>
        <time>2020-01-14T10:12:08Z</time>
      </trkpt>
      <trkpt lat="43.45849" lon="3.78998">
        <ele>2</ele>
        <time>2020-01-14T10:12:11Z</time>
      </trkpt>
      <trkpt lat="43.45849" lon="3.79001">
        <ele>2</ele>
        <time>2020-01-14T10:12:13Z</time>
      </trkpt>
      <trkpt lat="43.4585" lon="3.79004">
        <ele>2</ele>
        <time>2020-01-14T10:12:15Z</time>
      </trkpt>
      <trkpt lat="43.45851" lon="3.79006">
        <ele>2</ele>
        <time>2020-01-14T10:12:17Z</time>
      </trkpt>
      <trkpt lat="43.45852" lon="3.79008">
        <ele>2</ele>
        <time>2020-01-14T10:12:19Z</time>
      </trkpt>
      <trkpt lat="43.45854" lon="3.79011">
        <ele>2</ele>
        <time>2020-01-14T10:12:21Z</time>
      </trkpt>
      <trkpt lat="43.45856" lon="3.79013">
        <ele>2</ele>
        <time>2020-01-14T10:12:23Z</time>
      </trkpt>
      <trkpt lat="43.45857" lon="3.79015">
        <ele>2</ele>
        <time>2020-01-14T10:12:25Z</time>
      </trkpt>
      <trkpt lat="43.45859" lon="3.79017">
        <ele>2</ele>
        <time>2020-01-14T10:12:27Z</time>
      </trkpt>
      <trkpt lat="43.45861" lon="3.79019">
        <ele>2</ele>
        <time>2020-01-14T10:12:29Z</time>
      </trkpt>
      <trkpt lat="43.45862" lon="3.79022">
        <ele>2</ele>
        <time>2020-01-14T10:12:31Z</time>
      </trkpt>
      <trkpt lat="43.45862" lon="3.79024">
        <ele>2</ele>
        <time>2020-01-14T10:12:33Z</time>
      </trkpt>
      <trkpt lat="43.45863" lon="3.79027">
        <ele>2</ele>
        <time>2020-01-14T10:12:35Z</time>
      </trkpt>
      <trkpt lat="43.45864" lon="3.7903">
        <ele>2</ele>
        <time>2020-01-14T10:12:37Z</time>
      </trkpt>
      <trkpt lat="43.45865" lon="3.79034">
        <ele>2</ele>
        <time>2020-01-14T10:12:39Z</time>
      </trkpt>
      <trkpt lat="43.45866" lon="3.79037">
        <ele>2</ele>
        <time>2020-01-14T10:12:41Z</time>
      </trkpt>
      <trkpt lat="43.45866" lon="3.7904">
        <ele>2</ele>
        <time>2020-01-14T10:12:43Z</time>
      </trkpt>
      <trkpt lat="43.45867" lon="3.79043">
        <ele>2</ele>
        <time>2020-01-14T10:12:45Z</time>
      </trkpt>
      <trkpt lat="43.45866" lon="3.79046">
        <ele>2</ele>
        <time>2020-01-14T10:12:47Z</time>
      </trkpt>
      <trkpt lat="43.45867" lon="3.79051">
        <ele>2</ele>
        <time>2020-01-14T10:12:49Z</time>
      </trkpt>
      <trkpt lat="43.45867" lon="3.79054">
        <ele>2</ele>
        <time>2020-01-14T10:12:52Z</time>
      </trkpt>
      <trkpt lat="43.45868" lon="3.79056">
        <ele>2</ele>
        <time>2020-01-14T10:12:54Z</time>
      </trkpt>
      <trkpt lat="43.45868" lon="3.79058">
        <ele>2</ele>
        <time>2020-01-14T10:12:56Z</time>
      </trkpt>
      <trkpt lat="43.45869" lon="3.7906">
        <ele>2</ele>
        <time>2020-01-14T10:12:57Z</time>
      </trkpt>
      <trkpt lat="43.4587" lon="3.79063">
        <ele>2</ele>
        <time>2020-01-14T10:12:58Z</time>
      </trkpt>
      <trkpt lat="43.45871" lon="3.79065">
        <ele>2</ele>
        <time>2020-01-14T10:13:00Z</time>
      </trkpt>
      <trkpt lat="43.45872" lon="3.79066">
        <ele>2</ele>
        <time>2020-01-14T10:13:02Z</time>
      </trkpt>
      <trkpt lat="43.45873" lon="3.79068">
        <ele>2</ele>
        <time>2020-01-14T10:13:04Z</time>
      </trkpt>
      <trkpt lat="43.45873" lon="3.7907">
        <ele>2</ele>
        <time>2020-01-14T10:13:06Z</time>
      </trkpt>
      <trkpt lat="43.45874" lon="3.79071">
        <ele>2</ele>
        <time>2020-01-14T10:13:07Z</time>
      </trkpt>
      <trkpt lat="43.45875" lon="3.79072">
        <ele>2</ele>
        <time>2020-01-14T10:13:08Z</time>
      </trkpt>
      <trkpt lat="43.45877" lon="3.79074">
        <ele>2</ele>
        <time>2020-01-14T10:13:10Z</time>
      </trkpt>
      <trkpt lat="43.45879" lon="3.79076">
        <ele>2</ele>
        <time>2020-01-14T10:13:12Z</time>
      </trkpt>
      <trkpt lat="43.45881" lon="3.79077">
        <ele>2</ele>
        <time>2020-01-14T10:13:14Z</time>
      </trkpt>
      <trkpt lat="43.45883" lon="3.79079">
        <ele>2</ele>
        <time>2020-01-14T10:13:17Z</time>
      </trkpt>
      <trkpt lat="43.45884" lon="3.79081">
        <ele>2</ele>
        <time>2020-01-14T10:13:19Z</time>
      </trkpt>
      <trkpt lat="43.45886" lon="3.79084">
        <ele>2</ele>
        <time>2020-01-14T10:13:21Z</time>
      </trkpt>
      <trkpt lat="43.45887" lon="3.79087">
        <ele>2</ele>
        <time>2020-01-14T10:13:23Z</time>
      </trkpt>
      <trkpt lat="43.45888" lon="3.7909">
        <ele>2</ele>
        <time>2020-01-14T10:13:25Z</time>
      </trkpt>
      <trkpt lat="43.45888" lon="3.79094">
        <ele>2</ele>
        <time>2020-01-14T10:13:27Z</time>
      </trkpt>
      <trkpt lat="43.45889" lon="3.79097">
        <ele>2</ele>
        <time>2020-01-14T10:13:29Z</time>
      </trkpt>
      <trkpt lat="43.4589" lon="3.791">
        <ele>2</ele>
        <time>2020-01-14T10:13:31Z</time>
      </trkpt>
      <trkpt lat="43.45891" lon="3.79102">
        <ele>2</ele>
        <time>2020-01-14T10:13:33Z</time>
      </trkpt>
      <trkpt lat="43.45891" lon="3.79105">
        <ele>2</ele>
        <time>2020-01-14T10:13:35Z</time>
      </trkpt>
      <trkpt lat="43.45893" lon="3.79108">
        <ele>2</ele>
        <time>2020-01-14T10:13:37Z</time>
      </trkpt>
      <trkpt lat="43.45896" lon="3.79112">
        <ele>2</ele>
        <time>2020-01-14T10:13:39Z</time>
      </trkpt>
      <trkpt lat="43.45897" lon="3.79113">
        <ele>2</ele>
        <time>2020-01-14T10:13:41Z</time>
      </trkpt>
      <trkpt lat="43.45898" lon="3.79114">
        <ele>2</ele>
        <time>2020-01-14T10:13:43Z</time>
      </trkpt>
      <trkpt lat="43.45899" lon="3.79115">
        <ele>2</ele>
        <time>2020-01-14T10:13:46Z</time>
      </trkpt>
      <trkpt lat="43.45901" lon="3.79116">
        <ele>2</ele>
        <time>2020-01-14T10:13:47Z</time>
      </trkpt>
      <trkpt lat="43.45902" lon="3.79119">
        <ele>2</ele>
        <time>2020-01-14T10:13:49Z</time>
      </trkpt>
      <trkpt lat="43.45903" lon="3.79121">
        <ele>2</ele>
        <time>2020-01-14T10:13:51Z</time>
      </trkpt>
      <trkpt lat="43.45905" lon="3.79123">
        <ele>2</ele>
        <time>2020-01-14T10:13:53Z</time>
      </trkpt>
      <trkpt lat="43.45906" lon="3.79125">
        <ele>2</ele>
        <time>2020-01-14T10:13:55Z</time>
      </trkpt>
      <trkpt lat="43.45908" lon="3.79127">
        <ele>2</ele>
        <time>2020-01-14T10:13:57Z</time>
      </trkpt>
      <trkpt lat="43.45911" lon="3.79131">
        <ele>2</ele>
        <time>2020-01-14T10:13:59Z</time>
      </trkpt>
      <trkpt lat="43.45912" lon="3.79132">
        <ele>2</ele>
        <time>2020-01-14T10:14:02Z</time>
      </trkpt>
      <trkpt lat="43.45913" lon="3.79133">
        <ele>2</ele>
        <time>2020-01-14T10:14:04Z</time>
      </trkpt>
      <trkpt lat="43.45914" lon="3.79134">
        <ele>2</ele>
        <time>2020-01-14T10:14:06Z</time>
      </trkpt>
      <trkpt lat="43.45916" lon="3.79136">
        <ele>2</ele>
        <time>2020-01-14T10:14:07Z</time>
      </trkpt>
      <trkpt lat="43.45917" lon="3.79138">
        <ele>2</ele>
        <time>2020-01-14T10:14:08Z</time>
      </trkpt>
      <trkpt lat="43.45918" lon="3.79141">
        <ele>2</ele>
        <time>2020-01-14T10:14:10Z</time>
      </trkpt>
      <trkpt lat="43.45919" lon="3.79143">
        <ele>2</ele>
        <time>2020-01-14T10:14:12Z</time>
      </trkpt>
      <trkpt lat="43.4592" lon="3.79145">
        <ele>2</ele>
        <time>2020-01-14T10:14:14Z</time>
      </trkpt>
      <trkpt lat="43.45921" lon="3.79148">
        <ele>2</ele>
        <time>2020-01-14T10:14:16Z</time>
      </trkpt>
      <trkpt lat="43.45922" lon="3.7915">
        <ele>2</ele>
        <time>2020-01-14T10:14:17Z</time>
      </trkpt>
      <trkpt lat="43.45922" lon="3.79152">
        <ele>2</ele>
        <time>2020-01-14T10:14:19Z</time>
      </trkpt>
      <trkpt lat="43.45922" lon="3.79155">
        <ele>2</ele>
        <time>2020-01-14T10:14:21Z</time>
      </trkpt>
      <trkpt lat="43.45923" lon="3.79158">
        <ele>2</ele>
        <time>2020-01-14T10:14:23Z</time>
      </trkpt>
      <trkpt lat="43.45925" lon="3.79161">
        <ele>2</ele>
        <time>2020-01-14T10:14:25Z</time>
      </trkpt>
      <trkpt lat="43.45927" lon="3.79163">
        <ele>2</ele>
        <time>2020-01-14T10:14:27Z</time>
      </trkpt>
      <trkpt lat="43.45928" lon="3.79166">
        <ele>2</ele>
        <time>2020-01-14T10:14:29Z</time>
      </trkpt>
      <trkpt lat="43.45929" lon="3.79169">
        <ele>2</ele>
        <time>2020-01-14T10:14:31Z</time>
      </trkpt>
      <trkpt lat="43.45931" lon="3.79172">
        <ele>2</ele>
        <time>2020-01-14T10:14:33Z</time>
      </trkpt>
      <trkpt lat="43.45932" lon="3.79174">
        <ele>2</ele>
        <time>2020-01-14T10:14:35Z</time>
      </trkpt>
      <trkpt lat="43.45933" lon="3.79176">
        <ele>2</ele>
        <time>2020-01-14T10:14:37Z</time>
      </trkpt>
      <trkpt lat="43.45936" lon="3.7918">
        <ele>2</ele>
        <time>2020-01-14T10:14:39Z</time>
      </trkpt>
      <trkpt lat="43.45936" lon="3.79181">
        <ele>2</ele>
        <time>2020-01-14T10:14:41Z</time>
      </trkpt>
      <trkpt lat="43.45937" lon="3.79183">
        <ele>2</ele>
        <time>2020-01-14T10:14:43Z</time>
      </trkpt>
      <trkpt lat="43.45938" lon="3.79184">
        <ele>2</ele>
        <time>2020-01-14T10:14:46Z</time>
      </trkpt>
      <trkpt lat="43.45939" lon="3.79186">
        <ele>2</ele>
        <time>2020-01-14T10:14:47Z</time>
      </trkpt>
      <trkpt lat="43.45941" lon="3.79188">
        <ele>2</ele>
        <time>2020-01-14T10:14:49Z</time>
      </trkpt>
      <trkpt lat="43.45943" lon="3.7919">
        <ele>2</ele>
        <time>2020-01-14T10:14:51Z</time>
      </trkpt>
      <trkpt lat="43.45944" lon="3.79191">
        <ele>2</ele>
        <time>2020-01-14T10:14:53Z</time>
      </trkpt>
      <trkpt lat="43.45946" lon="3.79193">
        <ele>2</ele>
        <time>2020-01-14T10:14:55Z</time>
      </trkpt>
      <trkpt lat="43.45947" lon="3.79196">
        <ele>2</ele>
        <time>2020-01-14T10:14:57Z</time>
      </trkpt>
      <trkpt lat="43.45948" lon="3.79199">
        <ele>2</ele>
        <time>2020-01-14T10:14:59Z</time>
      </trkpt>
      <trkpt lat="43.45949" lon="3.792">
        <ele>2</ele>
        <time>2020-01-14T10:15:01Z</time>
      </trkpt>
      <trkpt lat="43.45951" lon="3.79202">
        <ele>2</ele>
        <time>2020-01-14T10:15:03Z</time>
      </trkpt>
      <trkpt lat="43.45952" lon="3.79204">
        <ele>2</ele>
        <time>2020-01-14T10:15:05Z</time>
      </trkpt>
      <trkpt lat="43.45952" lon="3.79204">
        <ele>2</ele>
        <time>2020-01-14T10:15:07Z</time>
      </trkpt>
      <trkpt lat="43.45954" lon="3.79208">
        <ele>2</ele>
        <time>2020-01-14T10:15:08Z</time>
      </trkpt>
      <trkpt lat="43.45955" lon="3.7921">
        <ele>2</ele>
        <time>2020-01-14T10:15:10Z</time>
      </trkpt>
      <trkpt lat="43.45956" lon="3.79212">
        <ele>2</ele>
        <time>2020-01-14T10:15:12Z</time>
      </trkpt>
      <trkpt lat="43.45956" lon="3.79214">
        <ele>2</ele>
        <time>2020-01-14T10:15:14Z</time>
      </trkpt>
      <trkpt lat="43.45957" lon="3.79216">
        <ele>2</ele>
        <time>2020-01-14T10:15:16Z</time>
      </trkpt>
      <trkpt lat="43.45958" lon="3.79218">
        <ele>2</ele>
        <time>2020-01-14T10:15:17Z</time>
      </trkpt>
      <trkpt lat="43.45958" lon="3.7922">
        <ele>2</ele>
        <time>2020-01-14T10:15:18Z</time>
      </trkpt>
      <trkpt lat="43.45959" lon="3.79222">
        <ele>2</ele>
        <time>2020-01-14T10:15:20Z</time>
      </trkpt>
      <trkpt lat="43.45959" lon="3.79225">
        <ele>2</ele>
        <time>2020-01-14T10:15:22Z</time>
      </trkpt>
      <trkpt lat="43.4596" lon="3.79227">
        <ele>2</ele>
        <time>2020-01-14T10:15:24Z</time>
      </trkpt>
      <trkpt lat="43.45962" lon="3.79229">
        <ele>2</ele>
        <time>2020-01-14T10:15:27Z</time>
      </trkpt>
      <trkpt lat="43.45964" lon="3.7923">
        <ele>2</ele>
        <time>2020-01-14T10:15:29Z</time>
      </trkpt>
      <trkpt lat="43.45966" lon="3.79231">
        <ele>2</ele>
        <time>2020-01-14T10:15:31Z</time>
      </trkpt>
      <trkpt lat="43.45968" lon="3.79231">
        <ele>2</ele>
        <time>2020-01-14T10:15:33Z</time>
      </trkpt>
      <trkpt lat="43.45969" lon="3.79234">
        <ele>2</ele>
        <time>2020-01-14T10:15:35Z</time>
      </trkpt>
      <trkpt lat="43.4597" lon="3.79236">
        <ele>2</ele>
        <time>2020-01-14T10:15:37Z</time>
      </trkpt>
      <trkpt lat="43.45971" lon="3.79238">
        <ele>2</ele>
        <time>2020-01-14T10:15:39Z</time>
      </trkpt>
      <trkpt lat="43.45972" lon="3.79241">
        <ele>2</ele>
        <time>2020-01-14T10:15:41Z</time>
      </trkpt>
      <trkpt lat="43.45973" lon="3.79244">
        <ele>2</ele>
        <time>2020-01-14T10:15:43Z</time>
      </trkpt>
      <trkpt lat="43.45973" lon="3.79247">
        <ele>2</ele>
        <time>2020-01-14T10:15:45Z</time>
      </trkpt>
      <trkpt lat="43.45974" lon="3.7925">
        <ele>2</ele>
        <time>2020-01-14T10:15:47Z</time>
      </trkpt>
      <trkpt lat="43.45976" lon="3.79254">
        <ele>2</ele>
        <time>2020-01-14T10:15:49Z</time>
      </trkpt>
      <trkpt lat="43.45976" lon="3.79257">
        <ele>2</ele>
        <time>2020-01-14T10:15:52Z</time>
      </trkpt>
      <trkpt lat="43.45977" lon="3.79259">
        <ele>2</ele>
        <time>2020-01-14T10:15:54Z</time>
      </trkpt>
      <trkpt lat="43.45977" lon="3.79261">
        <ele>2</ele>
        <time>2020-01-14T10:15:56Z</time>
      </trkpt>
      <trkpt lat="43.45978" lon="3.79263">
        <ele>2</ele>
        <time>2020-01-14T10:15:57Z</time>
      </trkpt>
      <trkpt lat="43.45978" lon="3.79267">
        <ele>2</ele>
        <time>2020-01-14T10:15:58Z</time>
      </trkpt>
      <trkpt lat="43.45978" lon="3.79269">
        <ele>2</ele>
        <time>2020-01-14T10:16:01Z</time>
      </trkpt>
      <trkpt lat="43.45979" lon="3.79271">
        <ele>2</ele>
        <time>2020-01-14T10:16:04Z</time>
      </trkpt>
      <trkpt lat="43.45979" lon="3.79272">
        <ele>2</ele>
        <time>2020-01-14T10:16:06Z</time>
      </trkpt>
      <trkpt lat="43.45979" lon="3.79274">
        <ele>2</ele>
        <time>2020-01-14T10:16:07Z</time>
      </trkpt>
      <trkpt lat="43.45981" lon="3.79277">
        <ele>2</ele>
        <time>2020-01-14T10:16:08Z</time>
      </trkpt>
      <trkpt lat="43.45982" lon="3.7928">
        <ele>2</ele>
        <time>2020-01-14T10:16:11Z</time>
      </trkpt>
      <trkpt lat="43.45983" lon="3.79282">
        <ele>2</ele>
        <time>2020-01-14T10:16:13Z</time>
      </trkpt>
      <trkpt lat="43.45985" lon="3.79284">
        <ele>2</ele>
        <time>2020-01-14T10:16:15Z</time>
      </trkpt>
      <trkpt lat="43.45986" lon="3.79287">
        <ele>2</ele>
        <time>2020-01-14T10:16:17Z</time>
      </trkpt>
      <trkpt lat="43.45987" lon="3.7929">
        <ele>2</ele>
        <time>2020-01-14T10:16:19Z</time>
      </trkpt>
      <trkpt lat="43.45988" lon="3.79292">
        <ele>2</ele>
        <time>2020-01-14T10:16:21Z</time>
      </trkpt>
      <trkpt lat="43.45988" lon="3.79295">
        <ele>2</ele>
        <time>2020-01-14T10:16:23Z</time>
      </trkpt>
      <trkpt lat="43.4599" lon="3.79297">
        <ele>2</ele>
        <time>2020-01-14T10:16:25Z</time>
      </trkpt>
      <trkpt lat="43.45991" lon="3.79299">
        <ele>2</ele>
        <time>2020-01-14T10:16:27Z</time>
      </trkpt>
      <trkpt lat="43.45994" lon="3.79303">
        <ele>2</ele>
        <time>2020-01-14T10:16:29Z</time>
      </trkpt>
      <trkpt lat="43.45995" lon="3.79305">
        <ele>2</ele>
        <time>2020-01-14T10:16:31Z</time>
      </trkpt>
      <trkpt lat="43.45996" lon="3.79306">
        <ele>2</ele>
        <time>2020-01-14T10:16:33Z</time>
      </trkpt>
      <trkpt lat="43.45997" lon="3.79308">
        <ele>2</ele>
        <time>2020-01-14T10:16:36Z</time>
      </trkpt>
      <trkpt lat="43.45998" lon="3.7931">
        <ele>2</ele>
        <time>2020-01-14T10:16:37Z</time>
      </trkpt>
      <trkpt lat="43.45998" lon="3.79311">
        <ele>2</ele>
        <time>2020-01-14T10:16:38Z</time>
      </trkpt>
      <trkpt lat="43.46" lon="3.79313">
        <ele>2</ele>
        <time>2020-01-14T10:16:41Z</time>
      </trkpt>
      <trkpt lat="43.46002" lon="3.79316">
        <ele>2</ele>
        <time>2020-01-14T10:16:43Z</time>
      </trkpt>
      <trkpt lat="43.46002" lon="3.79319">
        <ele>2</ele>
        <time>2020-01-14T10:16:45Z</time>
      </trkpt>
      <trkpt lat="43.46003" lon="3.79322">
        <ele>2</ele>
        <time>2020-01-14T10:16:47Z</time>
      </trkpt>
      <trkpt lat="43.46005" lon="3.79325">
        <ele>2</ele>
        <time>2020-01-14T10:16:49Z</time>
      </trkpt>
      <trkpt lat="43.46006" lon="3.79327">
        <ele>2</ele>
        <time>2020-01-14T10:16:51Z</time>
      </trkpt>
      <trkpt lat="43.46007" lon="3.79328">
        <ele>2</ele>
        <time>2020-01-14T10:16:53Z</time>
      </trkpt>
      <trkpt lat="43.46009" lon="3.79329">
        <ele>2</ele>
        <time>2020-01-14T10:16:56Z</time>
      </trkpt>
      <trkpt lat="43.4601" lon="3.7933">
        <ele>2</ele>
        <time>2020-01-14T10:16:57Z</time>
      </trkpt>
      <trkpt lat="43.46012" lon="3.79332">
        <ele>2</ele>
        <time>2020-01-14T10:16:58Z</time>
      </trkpt>
      <trkpt lat="43.46013" lon="3.79333">
        <ele>2</ele>
        <time>2020-01-14T10:17:00Z</time>
      </trkpt>
      <trkpt lat="43.46015" lon="3.79335">
        <ele>2</ele>
        <time>2020-01-14T10:17:02Z</time>
      </trkpt>
      <trkpt lat="43.46016" lon="3.79336">
        <ele>2</ele>
        <time>2020-01-14T10:17:04Z</time>
      </trkpt>
      <trkpt lat="43.46017" lon="3.79337">
        <ele>2</ele>
        <time>2020-01-14T10:17:06Z</time>
      </trkpt>
      <trkpt lat="43.46019" lon="3.79338">
        <ele>2</ele>
        <time>2020-01-14T10:17:07Z</time>
      </trkpt>
      <trkpt lat="43.46021" lon="3.79341">
        <ele>2</ele>
        <time>2020-01-14T10:17:08Z</time>
      </trkpt>
      <trkpt lat="43.46022" lon="3.79343">
        <ele>2</ele>
        <time>2020-01-14T10:17:10Z</time>
      </trkpt>
      <trkpt lat="43.46023" lon="3.79345">
        <ele>2</ele>
        <time>2020-01-14T10:17:12Z</time>
      </trkpt>
      <trkpt lat="43.46024" lon="3.79347">
        <ele>2</ele>
        <time>2020-01-14T10:17:14Z</time>
      </trkpt>
      <trkpt lat="43.46025" lon="3.79349">
        <ele>2</ele>
        <time>2020-01-14T10:17:16Z</time>
      </trkpt>
      <trkpt lat="43.46026" lon="3.79351">
        <ele>2</ele>
        <time>2020-01-14T10:17:17Z</time>
      </trkpt>
      <trkpt lat="43.46027" lon="3.79354">
        <ele>2</ele>
        <time>2020-01-14T10:17:18Z</time>
      </trkpt>
      <trkpt lat="43.46028" lon="3.79356">
        <ele>2</ele>
        <time>2020-01-14T10:17:20Z</time>
      </trkpt>
      <trkpt lat="43.46029" lon="3.79357">
        <ele>2</ele>
        <time>2020-01-14T10:17:22Z</time>
      </trkpt>
      <trkpt lat="43.46029" lon="3.79359">
        <ele>2</ele>
        <time>2020-01-14T10:17:24Z</time>
      </trkpt>
      <trkpt lat="43.4603" lon="3.79361">
        <ele>2</ele>
        <time>2020-01-14T10:17:26Z</time>
      </trkpt>
      <trkpt lat="43.46031" lon="3.79363">
        <ele>2</ele>
        <time>2020-01-14T10:17:27Z</time>
      </trkpt>
      <trkpt lat="43.46031" lon="3.79364">
        <ele>2</ele>
        <time>2020-01-14T10:17:28Z</time>
      </trkpt>
      <trkpt lat="43.46032" lon="3.79367">
        <ele>2</ele>
        <time>2020-01-14T10:17:30Z</time>
      </trkpt>
      <trkpt lat="43.46034" lon="3.7937">
        <ele>2</ele>
        <time>2020-01-14T10:17:32Z</time>
      </trkpt>
      <trkpt lat="43.46035" lon="3.79372">
        <ele>2</ele>
        <time>2020-01-14T10:17:34Z</time>
      </trkpt>
      <trkpt lat="43.46036" lon="3.79376">
        <ele>2</ele>
        <time>2020-01-14T10:17:37Z</time>
      </trkpt>
      <trkpt lat="43.46037" lon="3.79381">
        <ele>2</ele>
        <time>2020-01-14T10:17:39Z</time>
      </trkpt>
      <trkpt lat="43.46038" lon="3.79383">
        <ele>2</ele>
        <time>2020-01-14T10:17:41Z</time>
      </trkpt>
      <trkpt lat="43.46038" lon="3.79385">
        <ele>2</ele>
        <time>2020-01-14T10:17:43Z</time>
      </trkpt>
      <trkpt lat="43.46038" lon="3.79387">
        <ele>2</ele>
        <time>2020-01-14T10:17:46Z</time>
      </trkpt>
      <trkpt lat="43.46039" lon="3.79389">
        <ele>2</ele>
        <time>2020-01-14T10:17:47Z</time>
      </trkpt>
      <trkpt lat="43.46039" lon="3.7939">
        <ele>2</ele>
        <time>2020-01-14T10:17:48Z</time>
      </trkpt>
      <trkpt lat="43.46039" lon="3.79393">
        <ele>2</ele>
        <time>2020-01-14T10:17:50Z</time>
      </trkpt>
      <trkpt lat="43.4604" lon="3.79395">
        <ele>2</ele>
        <time>2020-01-14T10:17:52Z</time>
      </trkpt>
      <trkpt lat="43.46041" lon="3.79399">
        <ele>2</ele>
        <time>2020-01-14T10:17:55Z</time>
      </trkpt>
      <trkpt lat="43.46041" lon="3.79402">
        <ele>2</ele>
        <time>2020-01-14T10:17:57Z</time>
      </trkpt>
      <trkpt lat="43.46043" lon="3.79406">
        <ele>2</ele>
        <time>2020-01-14T10:17:59Z</time>
      </trkpt>
      <trkpt lat="43.46044" lon="3.79408">
        <ele>2</ele>
        <time>2020-01-14T10:18:01Z</time>
      </trkpt>
      <trkpt lat="43.46044" lon="3.79409">
        <ele>2</ele>
        <time>2020-01-14T10:18:03Z</time>
      </trkpt>
      <trkpt lat="43.46045" lon="3.79411">
        <ele>2</ele>
        <time>2020-01-14T10:18:06Z</time>
      </trkpt>
      <trkpt lat="43.46046" lon="3.79413">
        <ele>2</ele>
        <time>2020-01-14T10:18:07Z</time>
      </trkpt>
      <trkpt lat="43.46047" lon="3.79415">
        <ele>2</ele>
        <time>2020-01-14T10:18:09Z</time>
      </trkpt>
      <trkpt lat="43.46049" lon="3.79416">
        <ele>2</ele>
        <time>2020-01-14T10:18:11Z</time>
      </trkpt>
      <trkpt lat="43.46051" lon="3.79418">
        <ele>2</ele>
        <time>2020-01-14T10:18:13Z</time>
      </trkpt>
      <trkpt lat="43.46052" lon="3.79421">
        <ele>2</ele>
        <time>2020-01-14T10:18:15Z</time>
      </trkpt>
      <trkpt lat="43.46054" lon="3.79425">
        <ele>2</ele>
        <time>2020-01-14T10:18:17Z</time>
      </trkpt>
      <trkpt lat="43.46056" lon="3.79429">
        <ele>2</ele>
        <time>2020-01-14T10:18:19Z</time>
      </trkpt>
      <trkpt lat="43.46057" lon="3.79431">
        <ele>2</ele>
        <time>2020-01-14T10:18:21Z</time>
      </trkpt>
      <trkpt lat="43.46058" lon="3.79432">
        <ele>2</ele>
        <time>2020-01-14T10:18:23Z</time>
      </trkpt>
      <trkpt lat="43.46059" lon="3.79434">
        <ele>2</ele>
        <time>2020-01-14T10:18:26Z</time>
      </trkpt>
      <trkpt lat="43.4606" lon="3.79435">
        <ele>2</ele>
        <time>2020-01-14T10:18:27Z</time>
      </trkpt>
      <trkpt lat="43.46061" lon="3.79438">
        <ele>2</ele>
        <time>2020-01-14T10:18:28Z</time>
      </trkpt>
      <trkpt lat="43.46062" lon="3.79439">
        <ele>2</ele>
        <time>2020-01-14T10:18:31Z</time>
      </trkpt>
      <trkpt lat="43.46063" lon="3.79441">
        <ele>2</ele>
        <time>2020-01-14T10:18:34Z</time>
      </trkpt>
      <trkpt lat="43.46064" lon="3.79442">
        <ele>2</ele>
        <time>2020-01-14T10:18:36Z</time>
      </trkpt>
      <trkpt lat="43.46065" lon="3.79443">
        <ele>2</ele>
        <time>2020-01-14T10:18:37Z</time>
      </trkpt>
      <trkpt lat="43.46067" lon="3.79446">
        <ele>2</ele>
        <time>2020-01-14T10:18:41Z</time>
      </trkpt>
      <trkpt lat="43.46068" lon="3.79448">
        <ele>2</ele>
        <time>2020-01-14T10:18:43Z</time>
      </trkpt>
      <trkpt lat="43.4607" lon="3.79451">
        <ele>2</ele>
        <time>2020-01-14T10:18:45Z</time>
      </trkpt>
      <trkpt lat="43.46071" lon="3.79454">
        <ele>2</ele>
        <time>2020-01-14T10:18:47Z</time>
      </trkpt>
      <trkpt lat="43.46073" lon="3.79459">
        <ele>2</ele>
        <time>2020-01-14T10:18:49Z</time>
      </trkpt>
      <trkpt lat="43.46074" lon="3.79461">
        <ele>2</ele>
        <time>2020-01-14T10:18:51Z</time>
      </trkpt>
      <trkpt lat="43.46075" lon="3.79462">
        <ele>2</ele>
        <time>2020-01-14T10:18:54Z</time>
      </trkpt>
      <trkpt lat="43.46076" lon="3.79464">
        <ele>2</ele>
        <time>2020-01-14T10:18:56Z</time>
      </trkpt>
      <trkpt lat="43.46077" lon="3.79466">
        <ele>2</ele>
        <time>2020-01-14T10:18:57Z</time>
      </trkpt>
      <trkpt lat="43.46077" lon="3.79467">
        <ele>2</ele>
        <time>2020-01-14T10:18:58Z</time>
      </trkpt>
      <trkpt lat="43.4608" lon="3.79468">
        <ele>2</ele>
        <time>2020-01-14T10:19:01Z</time>
      </trkpt>
      <trkpt lat="43.46083" lon="3.79468">
        <ele>2</ele>
        <time>2020-01-14T10:19:03Z</time>
      </trkpt>
      <trkpt lat="43.46085" lon="3.79469">
        <ele>2</ele>
        <time>2020-01-14T10:19:05Z</time>
      </trkpt>
      <trkpt lat="43.46087" lon="3.79469">
        <ele>2</ele>
        <time>2020-01-14T10:19:07Z</time>
      </trkpt>
      <trkpt lat="43.4609" lon="3.79471">
        <ele>2</ele>
        <time>2020-01-14T10:19:10Z</time>
      </trkpt>
      <trkpt lat="43.46091" lon="3.79472">
        <ele>2</ele>
        <time>2020-01-14T10:19:13Z</time>
      </trkpt>
      <trkpt lat="43.46091" lon="3.79474">
        <ele>2</ele>
        <time>2020-01-14T10:19:16Z</time>
      </trkpt>
      <trkpt lat="43.46092" lon="3.79475">
        <ele>2</ele>
        <time>2020-01-14T10:19:17Z</time>
      </trkpt>
      <trkpt lat="43.46094" lon="3.79479">
        <ele>2</ele>
        <time>2020-01-14T10:19:18Z</time>
      </trkpt>
      <trkpt lat="43.46095" lon="3.79481">
        <ele>2</ele>
        <time>2020-01-14T10:19:20Z</time>
      </trkpt>
      <trkpt lat="43.46096" lon="3.79483">
        <ele>2</ele>
        <time>2020-01-14T10:19:22Z</time>
      </trkpt>
      <trkpt lat="43.46097" lon="3.79485">
        <ele>2</ele>
        <time>2020-01-14T10:19:24Z</time>
      </trkpt>
      <trkpt lat="43.46098" lon="3.79487">
        <ele>2</ele>
        <time>2020-01-14T10:19:26Z</time>
      </trkpt>
      <trkpt lat="43.46099" lon="3.79489">
        <ele>2</ele>
        <time>2020-01-14T10:19:27Z</time>
      </trkpt>
      <trkpt lat="43.461" lon="3.79492">
        <ele>2</ele>
        <time>2020-01-14T10:19:28Z</time>
      </trkpt>
      <trkpt lat="43.46101" lon="3.79494">
        <ele>2</ele>
        <time>2020-01-14T10:19:30Z</time>
      </trkpt>
      <trkpt lat="43.46102" lon="3.79496">
        <ele>2</ele>
        <time>2020-01-14T10:19:32Z</time>
      </trkpt>
      <trkpt lat="43.46103" lon="3.79498">
        <ele>2</ele>
        <time>2020-01-14T10:19:34Z</time>
      </trkpt>
      <trkpt lat="43.46103" lon="3.795">
        <ele>2</ele>
        <time>2020-01-14T10:19:36Z</time>
      </trkpt>
      <trkpt lat="43.46104" lon="3.79502">
        <ele>2</ele>
        <time>2020-01-14T10:19:37Z</time>
      </trkpt>
      <trkpt lat="43.46105" lon="3.79503">
        <ele>2</ele>
        <time>2020-01-14T10:19:38Z</time>
      </trkpt>
      <trkpt lat="43.46105" lon="3.79506">
        <ele>2</ele>
        <time>2020-01-14T10:19:40Z</time>
      </trkpt>
      <trkpt lat="43.46105" lon="3.79508">
        <ele>2</ele>
        <time>2020-01-14T10:19:42Z</time>
      </trkpt>
      <trkpt lat="43.46105" lon="3.79512">
        <ele>2</ele>
        <time>2020-01-14T10:19:44Z</time>
      </trkpt>
      <trkpt lat="43.46105" lon="3.79515">
        <ele>2</ele>
        <time>2020-01-14T10:19:45Z</time>
      </trkpt>
      <trkpt lat="43.46105" lon="3.79519">
        <ele>2</ele>
        <time>2020-01-14T10:19:47Z</time>
      </trkpt>
      <trkpt lat="43.46105" lon="3.79522">
        <ele>2</ele>
        <time>2020-01-14T10:19:49Z</time>
      </trkpt>
      <trkpt lat="43.46104" lon="3.79525">
        <ele>2</ele>
        <time>2020-01-14T10:19:51Z</time>
      </trkpt>
      <trkpt lat="43.46104" lon="3.79528">
        <ele>2</ele>
        <time>2020-01-14T10:19:53Z</time>
      </trkpt>
      <trkpt lat="43.46104" lon="3.79531">
        <ele>2</ele>
        <time>2020-01-14T10:19:55Z</time>
      </trkpt>
      <trkpt lat="43.46104" lon="3.79535">
        <ele>2</ele>
        <time>2020-01-14T10:19:57Z</time>
      </trkpt>
      <trkpt lat="43.46104" lon="3.79538">
        <ele>2</ele>
        <time>2020-01-14T10:19:59Z</time>
      </trkpt>
      <trkpt lat="43.46103" lon="3.79542">
        <ele>2</ele>
        <time>2020-01-14T10:20:01Z</time>
      </trkpt>
      <trkpt lat="43.46103" lon="3.79546">
        <ele>2</ele>
        <time>2020-01-14T10:20:03Z</time>
      </trkpt>
      <trkpt lat="43.46104" lon="3.79549">
        <ele>2</ele>
        <time>2020-01-14T10:20:05Z</time>
      </trkpt>
      <trkpt lat="43.46104" lon="3.79552">
        <ele>2</ele>
        <time>2020-01-14T10:20:07Z</time>
      </trkpt>
      <trkpt lat="43.46104" lon="3.79556">
        <ele>2</ele>
        <time>2020-01-14T10:20:09Z</time>
      </trkpt>
      <trkpt lat="43.46104" lon="3.79559">
        <ele>2</ele>
        <time>2020-01-14T10:20:11Z</time>
      </trkpt>
      <trkpt lat="43.46105" lon="3.79563">
        <ele>2</ele>
        <time>2020-01-14T10:20:13Z</time>
      </trkpt>
      <trkpt lat="43.46105" lon="3.79566">
        <ele>2</ele>
        <time>2020-01-14T10:20:15Z</time>
      </trkpt>
      <trkpt lat="43.46105" lon="3.79569">
        <ele>2</ele>
        <time>2020-01-14T10:20:17Z</time>
      </trkpt>
      <trkpt lat="43.46105" lon="3.79575">
        <ele>2</ele>
        <time>2020-01-14T10:20:19Z</time>
      </trkpt>
      <trkpt lat="43.46105" lon="3.79578">
        <ele>2</ele>
        <time>2020-01-14T10:20:21Z</time>
      </trkpt>
      <trkpt lat="43.46105" lon="3.7958">
        <ele>2</ele>
        <time>2020-01-14T10:20:23Z</time>
      </trkpt>
      <trkpt lat="43.46105" lon="3.79583">
        <ele>2</ele>
        <time>2020-01-14T10:20:26Z</time>
      </trkpt>
      <trkpt lat="43.46105" lon="3.79585">
        <ele>2</ele>
        <time>2020-01-14T10:20:27Z</time>
      </trkpt>
      <trkpt lat="43.46105" lon="3.79586">
        <ele>2</ele>
        <time>2020-01-14T10:20:28Z</time>
      </trkpt>
      <trkpt lat="43.46104" lon="3.79589">
        <ele>2</ele>
        <time>2020-01-14T10:20:30Z</time>
      </trkpt>
      <trkpt lat="43.46103" lon="3.79593">
        <ele>2</ele>
        <time>2020-01-14T10:20:33Z</time>
      </trkpt>
      <trkpt lat="43.46102" lon="3.79595">
        <ele>2</ele>
        <time>2020-01-14T10:20:35Z</time>
      </trkpt>
      <trkpt lat="43.46101" lon="3.79599">
        <ele>2</ele>
        <time>2020-01-14T10:20:37Z</time>
      </trkpt>
      <trkpt lat="43.461" lon="3.79601">
        <ele>2</ele>
        <time>2020-01-14T10:20:39Z</time>
      </trkpt>
      <trkpt lat="43.46099" lon="3.79605">
        <ele>2</ele>
        <time>2020-01-14T10:20:41Z</time>
      </trkpt>
      <trkpt lat="43.46097" lon="3.79608">
        <ele>2</ele>
        <time>2020-01-14T10:20:43Z</time>
      </trkpt>
      <trkpt lat="43.46095" lon="3.7961">
        <ele>2</ele>
        <time>2020-01-14T10:20:45Z</time>
      </trkpt>
      <trkpt lat="43.46094" lon="3.79613">
        <ele>2</ele>
        <time>2020-01-14T10:20:47Z</time>
      </trkpt>
      <trkpt lat="43.46093" lon="3.79617">
        <ele>2</ele>
        <time>2020-01-14T10:20:49Z</time>
      </trkpt>
      <trkpt lat="43.46093" lon="3.7962">
        <ele>2</ele>
        <time>2020-01-14T10:20:51Z</time>
      </trkpt>
      <trkpt lat="43.46093" lon="3.79624">
        <ele>2</ele>
        <time>2020-01-14T10:20:53Z</time>
      </trkpt>
      <trkpt lat="43.46091" lon="3.79627">
        <ele>2</ele>
        <time>2020-01-14T10:20:55Z</time>
      </trkpt>
      <trkpt lat="43.4609" lon="3.79631">
        <ele>2</ele>
        <time>2020-01-14T10:20:57Z</time>
      </trkpt>
      <trkpt lat="43.46088" lon="3.79634">
        <ele>2</ele>
        <time>2020-01-14T10:20:59Z</time>
      </trkpt>
      <trkpt lat="43.46087" lon="3.79637">
        <ele>2</ele>
        <time>2020-01-14T10:21:01Z</time>
      </trkpt>
      <trkpt lat="43.46085" lon="3.7964">
        <ele>2</ele>
        <time>2020-01-14T10:21:03Z</time>
      </trkpt>
      <trkpt lat="43.46084" lon="3.79643">
        <ele>2</ele>
        <time>2020-01-14T10:21:05Z</time>
      </trkpt>
      <trkpt lat="43.46083" lon="3.79646">
        <ele>2</ele>
        <time>2020-01-14T10:21:07Z</time>
      </trkpt>
      <trkpt lat="43.46082" lon="3.79651">
        <ele>2</ele>
        <time>2020-01-14T10:21:10Z</time>
      </trkpt>
      <trkpt lat="43.46082" lon="3.79654">
        <ele>2</ele>
        <time>2020-01-14T10:21:12Z</time>
      </trkpt>
      <trkpt lat="43.46081" lon="3.79656">
        <ele>2</ele>
        <time>2020-01-14T10:21:14Z</time>
      </trkpt>
      <trkpt lat="43.46081" lon="3.79658">
        <ele>2</ele>
        <time>2020-01-14T10:21:16Z</time>
      </trkpt>
      <trkpt lat="43.46081" lon="3.79661">
        <ele>2</ele>
        <time>2020-01-14T10:21:17Z</time>
      </trkpt>
      <trkpt lat="43.46081" lon="3.79665">
        <ele>2</ele>
        <time>2020-01-14T10:21:18Z</time>
      </trkpt>
      <trkpt lat="43.46081" lon="3.79668">
        <ele>2</ele>
        <time>2020-01-14T10:21:20Z</time>
      </trkpt>
      <trkpt lat="43.46081" lon="3.7967">
        <ele>2</ele>
        <time>2020-01-14T10:21:22Z</time>
      </trkpt>
      <trkpt lat="43.46081" lon="3.79672">
        <ele>2</ele>
        <time>2020-01-14T10:21:24Z</time>
      </trkpt>
      <trkpt lat="43.46081" lon="3.79674">
        <ele>2</ele>
        <time>2020-01-14T10:21:26Z</time>
      </trkpt>
      <trkpt lat="43.4608" lon="3.79677">
        <ele>2</ele>
        <time>2020-01-14T10:21:27Z</time>
      </trkpt>
      <trkpt lat="43.4608" lon="3.79681">
        <ele>2</ele>
        <time>2020-01-14T10:21:28Z</time>
      </trkpt>
      <trkpt lat="43.4608" lon="3.79683">
        <ele>2</ele>
        <time>2020-01-14T10:21:30Z</time>
      </trkpt>
      <trkpt lat="43.46079" lon="3.79685">
        <ele>2</ele>
        <time>2020-01-14T10:21:32Z</time>
      </trkpt>
      <trkpt lat="43.46079" lon="3.79688">
        <ele>2</ele>
        <time>2020-01-14T10:21:34Z</time>
      </trkpt>
      <trkpt lat="43.46078" lon="3.7969">
        <ele>2</ele>
        <time>2020-01-14T10:21:36Z</time>
      </trkpt>
      <trkpt lat="43.46078" lon="3.79692">
        <ele>2</ele>
        <time>2020-01-14T10:21:37Z</time>
      </trkpt>
      <trkpt lat="43.46078" lon="3.79697">
        <ele>2</ele>
        <time>2020-01-14T10:21:38Z</time>
      </trkpt>
      <trkpt lat="43.46077" lon="3.79699">
        <ele>2</ele>
        <time>2020-01-14T10:21:40Z</time>
      </trkpt>
      <trkpt lat="43.46077" lon="3.79702">
        <ele>2</ele>
        <time>2020-01-14T10:21:42Z</time>
      </trkpt>
      <trkpt lat="43.46077" lon="3.79705">
        <ele>2</ele>
        <time>2020-01-14T10:21:44Z</time>
      </trkpt>
      <trkpt lat="43.46077" lon="3.79708">
        <ele>2</ele>
        <time>2020-01-14T10:21:46Z</time>
      </trkpt>
      <trkpt lat="43.46076" lon="3.7971">
        <ele>2</ele>
        <time>2020-01-14T10:21:47Z</time>
      </trkpt>
      <trkpt lat="43.46076" lon="3.79715">
        <ele>2</ele>
        <time>2020-01-14T10:21:48Z</time>
      </trkpt>
      <trkpt lat="43.46076" lon="3.79717">
        <ele>2</ele>
        <time>2020-01-14T10:21:50Z</time>
      </trkpt>
      <trkpt lat="43.46076" lon="3.7972">
        <ele>2</ele>
        <time>2020-01-14T10:21:52Z</time>
      </trkpt>
      <trkpt lat="43.46075" lon="3.79723">
        <ele>2</ele>
        <time>2020-01-14T10:21:54Z</time>
      </trkpt>
      <trkpt lat="43.46075" lon="3.79726">
        <ele>2</ele>
        <time>2020-01-14T10:21:56Z</time>
      </trkpt>
      <trkpt lat="43.46075" lon="3.79728">
        <ele>2</ele>
        <time>2020-01-14T10:21:57Z</time>
      </trkpt>
      <trkpt lat="43.46075" lon="3.79732">
        <ele>2</ele>
        <time>2020-01-14T10:21:58Z</time>
      </trkpt>
      <trkpt lat="43.46074" lon="3.79735">
        <ele>2</ele>
        <time>2020-01-14T10:22:00Z</time>
      </trkpt>
      <trkpt lat="43.46074" lon="3.79737">
        <ele>2</ele>
        <time>2020-01-14T10:22:02Z</time>
      </trkpt>
      <trkpt lat="43.46073" lon="3.79739">
        <ele>2</ele>
        <time>2020-01-14T10:22:04Z</time>
      </trkpt>
      <trkpt lat="43.46072" lon="3.79742">
        <ele>2</ele>
        <time>2020-01-14T10:22:06Z</time>
      </trkpt>
      <trkpt lat="43.46072" lon="3.79744">
        <ele>2</ele>
        <time>2020-01-14T10:22:07Z</time>
      </trkpt>
      <trkpt lat="43.46072" lon="3.79746">
        <ele>2</ele>
        <time>2020-01-14T10:22:08Z</time>
      </trkpt>
      <trkpt lat="43.46072" lon="3.79749">
        <ele>2</ele>
        <time>2020-01-14T10:22:11Z</time>
      </trkpt>
      <trkpt lat="43.46072" lon="3.79752">
        <ele>2</ele>
        <time>2020-01-14T10:22:13Z</time>
      </trkpt>
      <trkpt lat="43.46073" lon="3.79755">
        <ele>2</ele>
        <time>2020-01-14T10:22:15Z</time>
      </trkpt>
      <trkpt lat="43.46073" lon="3.79759">
        <ele>2</ele>
        <time>2020-01-14T10:22:17Z</time>
      </trkpt>
      <trkpt lat="43.46074" lon="3.79763">
        <ele>2</ele>
        <time>2020-01-14T10:22:19Z</time>
      </trkpt>
      <trkpt lat="43.46075" lon="3.79767">
        <ele>2</ele>
        <time>2020-01-14T10:22:21Z</time>
      </trkpt>
      <trkpt lat="43.46076" lon="3.79771">
        <ele>2</ele>
        <time>2020-01-14T10:22:23Z</time>
      </trkpt>
      <trkpt lat="43.46077" lon="3.79775">
        <ele>2</ele>
        <time>2020-01-14T10:22:25Z</time>
      </trkpt>
      <trkpt lat="43.46078" lon="3.79777">
        <ele>2</ele>
        <time>2020-01-14T10:22:27Z</time>
      </trkpt>
      <trkpt lat="43.4608" lon="3.79779">
        <ele>2</ele>
        <time>2020-01-14T10:22:29Z</time>
      </trkpt>
      <trkpt lat="43.4608" lon="3.79783">
        <ele>2</ele>
        <time>2020-01-14T10:22:31Z</time>
      </trkpt>
      <trkpt lat="43.46081" lon="3.79786">
        <ele>2</ele>
        <time>2020-01-14T10:22:33Z</time>
      </trkpt>
      <trkpt lat="43.46082" lon="3.79788">
        <ele>2</ele>
        <time>2020-01-14T10:22:35Z</time>
      </trkpt>
      <trkpt lat="43.46083" lon="3.79791">
        <ele>2</ele>
        <time>2020-01-14T10:22:37Z</time>
      </trkpt>
      <trkpt lat="43.46085" lon="3.79793">
        <ele>2</ele>
        <time>2020-01-14T10:22:39Z</time>
      </trkpt>
      <trkpt lat="43.46087" lon="3.79796">
        <ele>2</ele>
        <time>2020-01-14T10:22:41Z</time>
      </trkpt>
      <trkpt lat="43.46087" lon="3.79799">
        <ele>2</ele>
        <time>2020-01-14T10:22:43Z</time>
      </trkpt>
      <trkpt lat="43.46088" lon="3.79802">
        <ele>2</ele>
        <time>2020-01-14T10:22:45Z</time>
      </trkpt>
      <trkpt lat="43.46089" lon="3.79805">
        <ele>2</ele>
        <time>2020-01-14T10:22:47Z</time>
      </trkpt>
      <trkpt lat="43.46091" lon="3.79809">
        <ele>2</ele>
        <time>2020-01-14T10:22:49Z</time>
      </trkpt>
      <trkpt lat="43.46092" lon="3.79811">
        <ele>2</ele>
        <time>2020-01-14T10:22:51Z</time>
      </trkpt>
      <trkpt lat="43.46093" lon="3.79814">
        <ele>2</ele>
        <time>2020-01-14T10:22:53Z</time>
      </trkpt>
      <trkpt lat="43.46095" lon="3.79816">
        <ele>2</ele>
        <time>2020-01-14T10:22:55Z</time>
      </trkpt>
      <trkpt lat="43.46096" lon="3.79819">
        <ele>2</ele>
        <time>2020-01-14T10:22:57Z</time>
      </trkpt>
      <trkpt lat="43.46097" lon="3.79823">
        <ele>2</ele>
        <time>2020-01-14T10:23:00Z</time>
      </trkpt>
      <trkpt lat="43.46098" lon="3.79826">
        <ele>2</ele>
        <time>2020-01-14T10:23:03Z</time>
      </trkpt>
      <trkpt lat="43.46099" lon="3.79829">
        <ele>2</ele>
        <time>2020-01-14T10:23:05Z</time>
      </trkpt>
      <trkpt lat="43.46101" lon="3.79833">
        <ele>2</ele>
        <time>2020-01-14T10:23:07Z</time>
      </trkpt>
      <trkpt lat="43.46103" lon="3.79835">
        <ele>2</ele>
        <time>2020-01-14T10:23:09Z</time>
      </trkpt>
      <trkpt lat="43.46104" lon="3.79838">
        <ele>2</ele>
        <time>2020-01-14T10:23:11Z</time>
      </trkpt>
      <trkpt lat="43.46105" lon="3.79841">
        <ele>2</ele>
        <time>2020-01-14T10:23:13Z</time>
      </trkpt>
      <trkpt lat="43.46106" lon="3.79844">
        <ele>2</ele>
        <time>2020-01-14T10:23:15Z</time>
      </trkpt>
      <trkpt lat="43.46107" lon="3.79847">
        <ele>2</ele>
        <time>2020-01-14T10:23:17Z</time>
      </trkpt>
      <trkpt lat="43.46108" lon="3.7985">
        <ele>2</ele>
        <time>2020-01-14T10:23:19Z</time>
      </trkpt>
      <trkpt lat="43.46109" lon="3.79853">
        <ele>2</ele>
        <time>2020-01-14T10:23:21Z</time>
      </trkpt>
      <trkpt lat="43.4611" lon="3.79856">
        <ele>2</ele>
        <time>2020-01-14T10:23:23Z</time>
      </trkpt>
      <trkpt lat="43.4611" lon="3.79858">
        <ele>2</ele>
        <time>2020-01-14T10:23:25Z</time>
      </trkpt>
      <trkpt lat="43.46111" lon="3.79861">
        <ele>2</ele>
        <time>2020-01-14T10:23:27Z</time>
      </trkpt>
      <trkpt lat="43.46112" lon="3.79864">
        <ele>2</ele>
        <time>2020-01-14T10:23:29Z</time>
      </trkpt>
      <trkpt lat="43.46113" lon="3.79868">
        <ele>2</ele>
        <time>2020-01-14T10:23:31Z</time>
      </trkpt>
      <trkpt lat="43.46114" lon="3.79871">
        <ele>2</ele>
        <time>2020-01-14T10:23:33Z</time>
      </trkpt>
      <trkpt lat="43.46116" lon="3.79874">
        <ele>2</ele>
        <time>2020-01-14T10:23:35Z</time>
      </trkpt>
      <trkpt lat="43.46116" lon="3.79877">
        <ele>2</ele>
        <time>2020-01-14T10:23:37Z</time>
      </trkpt>
      <trkpt lat="43.46118" lon="3.7988">
        <ele>2</ele>
        <time>2020-01-14T10:23:39Z</time>
      </trkpt>
      <trkpt lat="43.46119" lon="3.79883">
        <ele>2</ele>
        <time>2020-01-14T10:23:41Z</time>
      </trkpt>
      <trkpt lat="43.46121" lon="3.79886">
        <ele>2</ele>
        <time>2020-01-14T10:23:43Z</time>
      </trkpt>
      <trkpt lat="43.46122" lon="3.79889">
        <ele>2</ele>
        <time>2020-01-14T10:23:45Z</time>
      </trkpt>
      <trkpt lat="43.46123" lon="3.79892">
        <ele>2</ele>
        <time>2020-01-14T10:23:47Z</time>
      </trkpt>
      <trkpt lat="43.46123" lon="3.79894">
        <ele>2</ele>
        <time>2020-01-14T10:23:49Z</time>
      </trkpt>
      <trkpt lat="43.46124" lon="3.79897">
        <ele>2</ele>
        <time>2020-01-14T10:23:51Z</time>
      </trkpt>
      <trkpt lat="43.46126" lon="3.79899">
        <ele>2</ele>
        <time>2020-01-14T10:23:53Z</time>
      </trkpt>
      <trkpt lat="43.46127" lon="3.79903">
        <ele>2</ele>
        <time>2020-01-14T10:23:55Z</time>
      </trkpt>
      <trkpt lat="43.46129" lon="3.79906">
        <ele>2</ele>
        <time>2020-01-14T10:23:57Z</time>
      </trkpt>
      <trkpt lat="43.4613" lon="3.7991">
        <ele>2</ele>
        <time>2020-01-14T10:23:59Z</time>
      </trkpt>
      <trkpt lat="43.46132" lon="3.79913">
        <ele>2</ele>
        <time>2020-01-14T10:24:01Z</time>
      </trkpt>
      <trkpt lat="43.46133" lon="3.79916">
        <ele>2</ele>
        <time>2020-01-14T10:24:03Z</time>
      </trkpt>
      <trkpt lat="43.46134" lon="3.79918">
        <ele>2</ele>
        <time>2020-01-14T10:24:05Z</time>
      </trkpt>
      <trkpt lat="43.46135" lon="3.79922">
        <ele>2</ele>
        <time>2020-01-14T10:24:07Z</time>
      </trkpt>
      <trkpt lat="43.46138" lon="3.79926">
        <ele>2</ele>
        <time>2020-01-14T10:24:09Z</time>
      </trkpt>
      <trkpt lat="43.46138" lon="3.79928">
        <ele>2</ele>
        <time>2020-01-14T10:24:11Z</time>
      </trkpt>
      <trkpt lat="43.46139" lon="3.79929">
        <ele>2</ele>
        <time>2020-01-14T10:24:13Z</time>
      </trkpt>
      <trkpt lat="43.4614" lon="3.79931">
        <ele>2</ele>
        <time>2020-01-14T10:24:16Z</time>
      </trkpt>
      <trkpt lat="43.46141" lon="3.79933">
        <ele>2</ele>
        <time>2020-01-14T10:24:17Z</time>
      </trkpt>
      <trkpt lat="43.46142" lon="3.79936">
        <ele>2</ele>
        <time>2020-01-14T10:24:18Z</time>
      </trkpt>
      <trkpt lat="43.46143" lon="3.79938">
        <ele>2</ele>
        <time>2020-01-14T10:24:20Z</time>
      </trkpt>
      <trkpt lat="43.46144" lon="3.7994">
        <ele>2</ele>
        <time>2020-01-14T10:24:22Z</time>
      </trkpt>
      <trkpt lat="43.46145" lon="3.79942">
        <ele>2</ele>
        <time>2020-01-14T10:24:24Z</time>
      </trkpt>
      <trkpt lat="43.46146" lon="3.79944">
        <ele>2</ele>
        <time>2020-01-14T10:24:26Z</time>
      </trkpt>
      <trkpt lat="43.46147" lon="3.79946">
        <ele>2</ele>
        <time>2020-01-14T10:24:27Z</time>
      </trkpt>
      <trkpt lat="43.46148" lon="3.79949">
        <ele>2</ele>
        <time>2020-01-14T10:24:28Z</time>
      </trkpt>
      <trkpt lat="43.46149" lon="3.79951">
        <ele>2</ele>
        <time>2020-01-14T10:24:32Z</time>
      </trkpt>
      <trkpt lat="43.46149" lon="3.79952">
        <ele>2</ele>
        <time>2020-01-14T10:24:34Z</time>
      </trkpt>
      <trkpt lat="43.4615" lon="3.79954">
        <ele>2</ele>
        <time>2020-01-14T10:24:36Z</time>
      </trkpt>
      <trkpt lat="43.4615" lon="3.79955">
        <ele>2</ele>
        <time>2020-01-14T10:24:37Z</time>
      </trkpt>
      <trkpt lat="43.46152" lon="3.79961">
        <ele>2</ele>
        <time>2020-01-14T10:24:38Z</time>
      </trkpt>
      <trkpt lat="43.46153" lon="3.79963">
        <ele>2</ele>
        <time>2020-01-14T10:24:40Z</time>
      </trkpt>
      <trkpt lat="43.46154" lon="3.79965">
        <ele>2</ele>
        <time>2020-01-14T10:24:42Z</time>
      </trkpt>
      <trkpt lat="43.46154" lon="3.79967">
        <ele>2</ele>
        <time>2020-01-14T10:24:44Z</time>
      </trkpt>
      <trkpt lat="43.46155" lon="3.79969">
        <ele>2</ele>
        <time>2020-01-14T10:24:46Z</time>
      </trkpt>
      <trkpt lat="43.46156" lon="3.79971">
        <ele>2</ele>
        <time>2020-01-14T10:24:47Z</time>
      </trkpt>
      <trkpt lat="43.46157" lon="3.79975">
        <ele>2</ele>
        <time>2020-01-14T10:24:48Z</time>
      </trkpt>
      <trkpt lat="43.46158" lon="3.79978">
        <ele>2</ele>
        <time>2020-01-14T10:24:50Z</time>
      </trkpt>
      <trkpt lat="43.46159" lon="3.7998">
        <ele>2</ele>
        <time>2020-01-14T10:24:52Z</time>
      </trkpt>
      <trkpt lat="43.46159" lon="3.79983">
        <ele>2</ele>
        <time>2020-01-14T10:24:54Z</time>
      </trkpt>
      <trkpt lat="43.4616" lon="3.79985">
        <ele>2</ele>
        <time>2020-01-14T10:24:56Z</time>
      </trkpt>
      <trkpt lat="43.46161" lon="3.79988">
        <ele>2</ele>
        <time>2020-01-14T10:24:57Z</time>
      </trkpt>
      <trkpt lat="43.46163" lon="3.79992">
        <ele>2</ele>
        <time>2020-01-14T10:24:58Z</time>
      </trkpt>
      <trkpt lat="43.46164" lon="3.79994">
        <ele>2</ele>
        <time>2020-01-14T10:25:00Z</time>
      </trkpt>
      <trkpt lat="43.46165" lon="3.79996">
        <ele>2</ele>
        <time>2020-01-14T10:25:02Z</time>
      </trkpt>
      <trkpt lat="43.46166" lon="3.79999">
        <ele>2</ele>
        <time>2020-01-14T10:25:04Z</time>
      </trkpt>
      <trkpt lat="43.46167" lon="3.80001">
        <ele>2</ele>
        <time>2020-01-14T10:25:06Z</time>
      </trkpt>
      <trkpt lat="43.46168" lon="3.80004">
        <ele>2</ele>
        <time>2020-01-14T10:25:07Z</time>
      </trkpt>
      <trkpt lat="43.46169" lon="3.80007">
        <ele>2</ele>
        <time>2020-01-14T10:25:08Z</time>
      </trkpt>
      <trkpt lat="43.4617" lon="3.8001">
        <ele>2</ele>
        <time>2020-01-14T10:25:10Z</time>
      </trkpt>
      <trkpt lat="43.46171" lon="3.80012">
        <ele>2</ele>
        <time>2020-01-14T10:25:12Z</time>
      </trkpt>
      <trkpt lat="43.46172" lon="3.80014">
        <ele>2</ele>
        <time>2020-01-14T10:25:14Z</time>
      </trkpt>
      <trkpt lat="43.46172" lon="3.80016">
        <ele>2</ele>
        <time>2020-01-14T10:25:16Z</time>
      </trkpt>
      <trkpt lat="43.46173" lon="3.80019">
        <ele>2</ele>
        <time>2020-01-14T10:25:17Z</time>
      </trkpt>
      <trkpt lat="43.46174" lon="3.8002">
        <ele>2</ele>
        <time>2020-01-14T10:25:18Z</time>
      </trkpt>
      <trkpt lat="43.46175" lon="3.80023">
        <ele>2</ele>
        <time>2020-01-14T10:25:20Z</time>
      </trkpt>
      <trkpt lat="43.46176" lon="3.80025">
        <ele>2</ele>
        <time>2020-01-14T10:25:22Z</time>
      </trkpt>
      <trkpt lat="43.46178" lon="3.80027">
        <ele>2</ele>
        <time>2020-01-14T10:25:24Z</time>
      </trkpt>
      <trkpt lat="43.46178" lon="3.80031">
        <ele>2</ele>
        <time>2020-01-14T10:25:27Z</time>
      </trkpt>
      <trkpt lat="43.46179" lon="3.80034">
        <ele>2</ele>
        <time>2020-01-14T10:25:29Z</time>
      </trkpt>
      <trkpt lat="43.4618" lon="3.80037">
        <ele>2</ele>
        <time>2020-01-14T10:25:31Z</time>
      </trkpt>
      <trkpt lat="43.46182" lon="3.80039">
        <ele>2</ele>
        <time>2020-01-14T10:25:33Z</time>
      </trkpt>
      <trkpt lat="43.46182" lon="3.80039">
        <ele>2</ele>
        <time>2020-01-14T10:25:37Z</time>
      </trkpt>
      <trkpt lat="43.46182" lon="3.80039">
        <ele>2</ele>
        <time>2020-01-14T10:25:42Z</time>
      </trkpt>
      <trkpt lat="43.46183" lon="3.8004">
        <ele>2</ele>
        <time>2020-01-14T10:25:43Z</time>
      </trkpt>
      <trkpt lat="43.46183" lon="3.8004">
        <ele>2</ele>
        <time>2020-01-14T10:27:51Z</time>
      </trkpt>
      <trkpt lat="43.46188" lon="3.80055">
        <ele>2</ele>
        <time>2020-01-14T10:27:52Z</time>
      </trkpt>
      <trkpt lat="43.46189" lon="3.80056">
        <ele>2</ele>
        <time>2020-01-14T10:27:53Z</time>
      </trkpt>
      <trkpt lat="43.4619" lon="3.80058">
        <ele>2</ele>
        <time>2020-01-14T10:27:55Z</time>
      </trkpt>
      <trkpt lat="43.46191" lon="3.80061">
        <ele>2</ele>
        <time>2020-01-14T10:27:58Z</time>
      </trkpt>
      <trkpt lat="43.46191" lon="3.80061">
        <ele>2</ele>
        <time>2020-01-14T10:28:00Z</time>
      </trkpt>
      <trkpt lat="43.46192" lon="3.80063">
        <ele>2</ele>
        <time>2020-01-14T10:28:02Z</time>
      </trkpt>
      <trkpt lat="43.46192" lon="3.80065">
        <ele>2</ele>
        <time>2020-01-14T10:28:05Z</time>
      </trkpt>
      <trkpt lat="43.46192" lon="3.80068">
        <ele>2</ele>
        <time>2020-01-14T10:28:07Z</time>
      </trkpt>
      <trkpt lat="43.46191" lon="3.80072">
        <ele>2</ele>
        <time>2020-01-14T10:28:10Z</time>
      </trkpt>
      <trkpt lat="43.46192" lon="3.80077">
        <ele>2</ele>
        <time>2020-01-14T10:28:12Z</time>
      </trkpt>
      <trkpt lat="43.46193" lon="3.80079">
        <ele>2</ele>
        <time>2020-01-14T10:28:14Z</time>
      </trkpt>
      <trkpt lat="43.46193" lon="3.80081">
        <ele>2</ele>
        <time>2020-01-14T10:28:16Z</time>
      </trkpt>
      <trkpt lat="43.46193" lon="3.80082">
        <ele>2</ele>
        <time>2020-01-14T10:28:19Z</time>
      </trkpt>
      <trkpt lat="43.46193" lon="3.80084">
        <ele>2</ele>
        <time>2020-01-14T10:28:20Z</time>
      </trkpt>
      <trkpt lat="43.46193" lon="3.80086">
        <ele>2</ele>
        <time>2020-01-14T10:28:21Z</time>
      </trkpt>
      <trkpt lat="43.46193" lon="3.80089">
        <ele>2</ele>
        <time>2020-01-14T10:28:24Z</time>
      </trkpt>
      <trkpt lat="43.46195" lon="3.80092">
        <ele>2</ele>
        <time>2020-01-14T10:28:26Z</time>
      </trkpt>
      <trkpt lat="43.46196" lon="3.80095">
        <ele>2</ele>
        <time>2020-01-14T10:28:28Z</time>
      </trkpt>
      <trkpt lat="43.46198" lon="3.80098">
        <ele>2</ele>
        <time>2020-01-14T10:28:30Z</time>
      </trkpt>
      <trkpt lat="43.462" lon="3.80103">
        <ele>2</ele>
        <time>2020-01-14T10:28:33Z</time>
      </trkpt>
      <trkpt lat="43.462" lon="3.80105">
        <ele>2</ele>
        <time>2020-01-14T10:28:35Z</time>
      </trkpt>
      <trkpt lat="43.46201" lon="3.80107">
        <ele>2</ele>
        <time>2020-01-14T10:28:37Z</time>
      </trkpt>
      <trkpt lat="43.46202" lon="3.80109">
        <ele>2</ele>
        <time>2020-01-14T10:28:39Z</time>
      </trkpt>
      <trkpt lat="43.46203" lon="3.80111">
        <ele>2</ele>
        <time>2020-01-14T10:28:40Z</time>
      </trkpt>
      <trkpt lat="43.46204" lon="3.80115">
        <ele>2</ele>
        <time>2020-01-14T10:28:41Z</time>
      </trkpt>
      <trkpt lat="43.46204" lon="3.80116">
        <ele>2</ele>
        <time>2020-01-14T10:28:43Z</time>
      </trkpt>
      <trkpt lat="43.46205" lon="3.80118">
        <ele>2</ele>
        <time>2020-01-14T10:28:45Z</time>
      </trkpt>
      <trkpt lat="43.46206" lon="3.8012">
        <ele>2</ele>
        <time>2020-01-14T10:28:47Z</time>
      </trkpt>
      <trkpt lat="43.46207" lon="3.80121">
        <ele>2</ele>
        <time>2020-01-14T10:28:49Z</time>
      </trkpt>
      <trkpt lat="43.46208" lon="3.80123">
        <ele>2</ele>
        <time>2020-01-14T10:28:50Z</time>
      </trkpt>
      <trkpt lat="43.4621" lon="3.80127">
        <ele>2</ele>
        <time>2020-01-14T10:28:54Z</time>
      </trkpt>
      <trkpt lat="43.46211" lon="3.80132">
        <ele>2</ele>
        <time>2020-01-14T10:28:56Z</time>
      </trkpt>
      <trkpt lat="43.46211" lon="3.80136">
        <ele>2</ele>
        <time>2020-01-14T10:28:58Z</time>
      </trkpt>
      <trkpt lat="43.46213" lon="3.8014">
        <ele>2</ele>
        <time>2020-01-14T10:29:00Z</time>
      </trkpt>
      <trkpt lat="43.46213" lon="3.80144">
        <ele>2</ele>
        <time>2020-01-14T10:29:03Z</time>
      </trkpt>
      <trkpt lat="43.46214" lon="3.80147">
        <ele>2</ele>
        <time>2020-01-14T10:29:06Z</time>
      </trkpt>
      <trkpt lat="43.46215" lon="3.8015">
        <ele>2</ele>
        <time>2020-01-14T10:29:08Z</time>
      </trkpt>
      <trkpt lat="43.46216" lon="3.80152">
        <ele>2</ele>
        <time>2020-01-14T10:29:10Z</time>
      </trkpt>
      <trkpt lat="43.46218" lon="3.80155">
        <ele>2</ele>
        <time>2020-01-14T10:29:12Z</time>
      </trkpt>
      <trkpt lat="43.4622" lon="3.80158">
        <ele>2</ele>
        <time>2020-01-14T10:29:14Z</time>
      </trkpt>
      <trkpt lat="43.46221" lon="3.8016">
        <ele>2</ele>
        <time>2020-01-14T10:29:16Z</time>
      </trkpt>
      <trkpt lat="43.46222" lon="3.80163">
        <ele>2</ele>
        <time>2020-01-14T10:29:18Z</time>
      </trkpt>
      <trkpt lat="43.46222" lon="3.80166">
        <ele>2</ele>
        <time>2020-01-14T10:29:20Z</time>
      </trkpt>
      <trkpt lat="43.46223" lon="3.8017">
        <ele>2</ele>
        <time>2020-01-14T10:29:22Z</time>
      </trkpt>
      <trkpt lat="43.46224" lon="3.80173">
        <ele>2</ele>
        <time>2020-01-14T10:29:24Z</time>
      </trkpt>
      <trkpt lat="43.46226" lon="3.80176">
        <ele>2</ele>
        <time>2020-01-14T10:29:26Z</time>
      </trkpt>
      <trkpt lat="43.46227" lon="3.80178">
        <ele>2</ele>
        <time>2020-01-14T10:29:28Z</time>
      </trkpt>
      <trkpt lat="43.46228" lon="3.80181">
        <ele>2</ele>
        <time>2020-01-14T10:29:30Z</time>
      </trkpt>
      <trkpt lat="43.4623" lon="3.80184">
        <ele>2</ele>
        <time>2020-01-14T10:29:32Z</time>
      </trkpt>
      <trkpt lat="43.46232" lon="3.80188">
        <ele>2</ele>
        <time>2020-01-14T10:29:34Z</time>
      </trkpt>
      <trkpt lat="43.46234" lon="3.80191">
        <ele>2</ele>
        <time>2020-01-14T10:29:36Z</time>
      </trkpt>
      <trkpt lat="43.46235" lon="3.80194">
        <ele>2</ele>
        <time>2020-01-14T10:29:38Z</time>
      </trkpt>
      <trkpt lat="43.46236" lon="3.80196">
        <ele>2</ele>
        <time>2020-01-14T10:29:40Z</time>
      </trkpt>
      <trkpt lat="43.46236" lon="3.80199">
        <ele>2</ele>
        <time>2020-01-14T10:29:42Z</time>
      </trkpt>
      <trkpt lat="43.46237" lon="3.80203">
        <ele>2</ele>
        <time>2020-01-14T10:29:44Z</time>
      </trkpt>
      <trkpt lat="43.46238" lon="3.80206">
        <ele>2</ele>
        <time>2020-01-14T10:29:47Z</time>
      </trkpt>
      <trkpt lat="43.46238" lon="3.80208">
        <ele>2</ele>
        <time>2020-01-14T10:29:50Z</time>
      </trkpt>
      <trkpt lat="43.4624" lon="3.80212">
        <ele>2</ele>
        <time>2020-01-14T10:29:52Z</time>
      </trkpt>
      <trkpt lat="43.46241" lon="3.80214">
        <ele>2</ele>
        <time>2020-01-14T10:29:54Z</time>
      </trkpt>
      <trkpt lat="43.46242" lon="3.80216">
        <ele>2</ele>
        <time>2020-01-14T10:29:56Z</time>
      </trkpt>
      <trkpt lat="43.46243" lon="3.80217">
        <ele>2</ele>
        <time>2020-01-14T10:29:59Z</time>
      </trkpt>
      <trkpt lat="43.46244" lon="3.80219">
        <ele>2</ele>
        <time>2020-01-14T10:30:00Z</time>
      </trkpt>
      <trkpt lat="43.46245" lon="3.80223">
        <ele>2</ele>
        <time>2020-01-14T10:30:01Z</time>
      </trkpt>
      <trkpt lat="43.46246" lon="3.80225">
        <ele>2</ele>
        <time>2020-01-14T10:30:03Z</time>
      </trkpt>
      <trkpt lat="43.46247" lon="3.80228">
        <ele>2</ele>
        <time>2020-01-14T10:30:05Z</time>
      </trkpt>
      <trkpt lat="43.46248" lon="3.8023">
        <ele>2</ele>
        <time>2020-01-14T10:30:07Z</time>
      </trkpt>
      <trkpt lat="43.46249" lon="3.80232">
        <ele>2</ele>
        <time>2020-01-14T10:30:09Z</time>
      </trkpt>
      <trkpt lat="43.4625" lon="3.80235">
        <ele>2</ele>
        <time>2020-01-14T10:30:10Z</time>
      </trkpt>
      <trkpt lat="43.46251" lon="3.80238">
        <ele>2</ele>
        <time>2020-01-14T10:30:11Z</time>
      </trkpt>
      <trkpt lat="43.46252" lon="3.80241">
        <ele>2</ele>
        <time>2020-01-14T10:30:13Z</time>
      </trkpt>
      <trkpt lat="43.46253" lon="3.80243">
        <ele>2</ele>
        <time>2020-01-14T10:30:15Z</time>
      </trkpt>
      <trkpt lat="43.46254" lon="3.80245">
        <ele>2</ele>
        <time>2020-01-14T10:30:17Z</time>
      </trkpt>
      <trkpt lat="43.46254" lon="3.80248">
        <ele>2</ele>
        <time>2020-01-14T10:30:19Z</time>
      </trkpt>
      <trkpt lat="43.46255" lon="3.8025">
        <ele>2</ele>
        <time>2020-01-14T10:30:20Z</time>
      </trkpt>
      <trkpt lat="43.46256" lon="3.80253">
        <ele>2</ele>
        <time>2020-01-14T10:30:21Z</time>
      </trkpt>
      <trkpt lat="43.46257" lon="3.80255">
        <ele>2</ele>
        <time>2020-01-14T10:30:23Z</time>
      </trkpt>
      <trkpt lat="43.46258" lon="3.80257">
        <ele>2</ele>
        <time>2020-01-14T10:30:25Z</time>
      </trkpt>
      <trkpt lat="43.46259" lon="3.80259">
        <ele>2</ele>
        <time>2020-01-14T10:30:27Z</time>
      </trkpt>
      <trkpt lat="43.4626" lon="3.80261">
        <ele>2</ele>
        <time>2020-01-14T10:30:29Z</time>
      </trkpt>
      <trkpt lat="43.46261" lon="3.80263">
        <ele>2</ele>
        <time>2020-01-14T10:30:30Z</time>
      </trkpt>
      <trkpt lat="43.46261" lon="3.80267">
        <ele>2</ele>
        <time>2020-01-14T10:30:31Z</time>
      </trkpt>
      <trkpt lat="43.46262" lon="3.80269">
        <ele>2</ele>
        <time>2020-01-14T10:30:33Z</time>
      </trkpt>
      <trkpt lat="43.46262" lon="3.80271">
        <ele>2</ele>
        <time>2020-01-14T10:30:36Z</time>
      </trkpt>
      <trkpt lat="43.46263" lon="3.80273">
        <ele>2</ele>
        <time>2020-01-14T10:30:39Z</time>
      </trkpt>
      <trkpt lat="43.46263" lon="3.80275">
        <ele>2</ele>
        <time>2020-01-14T10:30:40Z</time>
      </trkpt>
      <trkpt lat="43.46265" lon="3.80279">
        <ele>2</ele>
        <time>2020-01-14T10:30:41Z</time>
      </trkpt>
      <trkpt lat="43.46266" lon="3.80281">
        <ele>2</ele>
        <time>2020-01-14T10:30:43Z</time>
      </trkpt>
      <trkpt lat="43.46267" lon="3.80283">
        <ele>2</ele>
        <time>2020-01-14T10:30:45Z</time>
      </trkpt>
      <trkpt lat="43.46268" lon="3.80285">
        <ele>2</ele>
        <time>2020-01-14T10:30:47Z</time>
      </trkpt>
      <trkpt lat="43.46269" lon="3.80287">
        <ele>2</ele>
        <time>2020-01-14T10:30:49Z</time>
      </trkpt>
      <trkpt lat="43.4627" lon="3.80288">
        <ele>2</ele>
        <time>2020-01-14T10:30:50Z</time>
      </trkpt>
      <trkpt lat="43.46272" lon="3.80292">
        <ele>2</ele>
        <time>2020-01-14T10:30:51Z</time>
      </trkpt>
      <trkpt lat="43.46273" lon="3.80294">
        <ele>2</ele>
        <time>2020-01-14T10:30:53Z</time>
      </trkpt>
      <trkpt lat="43.46274" lon="3.80296">
        <ele>2</ele>
        <time>2020-01-14T10:30:55Z</time>
      </trkpt>
      <trkpt lat="43.46274" lon="3.80298">
        <ele>2</ele>
        <time>2020-01-14T10:30:57Z</time>
      </trkpt>
      <trkpt lat="43.46275" lon="3.80299">
        <ele>2</ele>
        <time>2020-01-14T10:30:59Z</time>
      </trkpt>
      <trkpt lat="43.46276" lon="3.80301">
        <ele>2</ele>
        <time>2020-01-14T10:31:00Z</time>
      </trkpt>
      <trkpt lat="43.46277" lon="3.80305">
        <ele>2</ele>
        <time>2020-01-14T10:31:01Z</time>
      </trkpt>
      <trkpt lat="43.46278" lon="3.80307">
        <ele>2</ele>
        <time>2020-01-14T10:31:03Z</time>
      </trkpt>
      <trkpt lat="43.46279" lon="3.80309">
        <ele>2</ele>
        <time>2020-01-14T10:31:05Z</time>
      </trkpt>
      <trkpt lat="43.4628" lon="3.80311">
        <ele>2</ele>
        <time>2020-01-14T10:31:07Z</time>
      </trkpt>
      <trkpt lat="43.46281" lon="3.80313">
        <ele>2</ele>
        <time>2020-01-14T10:31:09Z</time>
      </trkpt>
      <trkpt lat="43.46282" lon="3.80315">
        <ele>2</ele>
        <time>2020-01-14T10:31:10Z</time>
      </trkpt>
      <trkpt lat="43.46284" lon="3.80318">
        <ele>2</ele>
        <time>2020-01-14T10:31:11Z</time>
      </trkpt>
      <trkpt lat="43.46285" lon="3.8032">
        <ele>2</ele>
        <time>2020-01-14T10:31:13Z</time>
      </trkpt>
      <trkpt lat="43.46285" lon="3.80322">
        <ele>2</ele>
        <time>2020-01-14T10:31:15Z</time>
      </trkpt>
      <trkpt lat="43.46286" lon="3.80324">
        <ele>2</ele>
        <time>2020-01-14T10:31:17Z</time>
      </trkpt>
      <trkpt lat="43.46287" lon="3.80326">
        <ele>2</ele>
        <time>2020-01-14T10:31:19Z</time>
      </trkpt>
      <trkpt lat="43.46287" lon="3.80328">
        <ele>2</ele>
        <time>2020-01-14T10:31:20Z</time>
      </trkpt>
      <trkpt lat="43.46289" lon="3.80331">
        <ele>2</ele>
        <time>2020-01-14T10:31:21Z</time>
      </trkpt>
      <trkpt lat="43.4629" lon="3.80333">
        <ele>2</ele>
        <time>2020-01-14T10:31:23Z</time>
      </trkpt>
      <trkpt lat="43.46291" lon="3.80335">
        <ele>2</ele>
        <time>2020-01-14T10:31:25Z</time>
      </trkpt>
      <trkpt lat="43.46292" lon="3.80337">
        <ele>2</ele>
        <time>2020-01-14T10:31:27Z</time>
      </trkpt>
      <trkpt lat="43.46293" lon="3.80339">
        <ele>2</ele>
        <time>2020-01-14T10:31:29Z</time>
      </trkpt>
      <trkpt lat="43.46294" lon="3.8034">
        <ele>2</ele>
        <time>2020-01-14T10:31:30Z</time>
      </trkpt>
      <trkpt lat="43.46296" lon="3.80344">
        <ele>2</ele>
        <time>2020-01-14T10:31:31Z</time>
      </trkpt>
      <trkpt lat="43.46296" lon="3.80347">
        <ele>2</ele>
        <time>2020-01-14T10:31:33Z</time>
      </trkpt>
      <trkpt lat="43.46297" lon="3.80349">
        <ele>2</ele>
        <time>2020-01-14T10:31:35Z</time>
      </trkpt>
      <trkpt lat="43.46298" lon="3.80352">
        <ele>2</ele>
        <time>2020-01-14T10:31:37Z</time>
      </trkpt>
      <trkpt lat="43.46298" lon="3.80354">
        <ele>2</ele>
        <time>2020-01-14T10:31:39Z</time>
      </trkpt>
      <trkpt lat="43.46299" lon="3.80356">
        <ele>2</ele>
        <time>2020-01-14T10:31:40Z</time>
      </trkpt>
      <trkpt lat="43.463" lon="3.80361">
        <ele>2</ele>
        <time>2020-01-14T10:31:41Z</time>
      </trkpt>
      <trkpt lat="43.463" lon="3.80363">
        <ele>2</ele>
        <time>2020-01-14T10:31:43Z</time>
      </trkpt>
      <trkpt lat="43.463" lon="3.80365">
        <ele>2</ele>
        <time>2020-01-14T10:31:45Z</time>
      </trkpt>
      <trkpt lat="43.46301" lon="3.80367">
        <ele>2</ele>
        <time>2020-01-14T10:31:47Z</time>
      </trkpt>
      <trkpt lat="43.46301" lon="3.8037">
        <ele>2</ele>
        <time>2020-01-14T10:31:49Z</time>
      </trkpt>
      <trkpt lat="43.46301" lon="3.80372">
        <ele>2</ele>
        <time>2020-01-14T10:31:50Z</time>
      </trkpt>
      <trkpt lat="43.46302" lon="3.80375">
        <ele>2</ele>
        <time>2020-01-14T10:31:51Z</time>
      </trkpt>
      <trkpt lat="43.46303" lon="3.80378">
        <ele>2</ele>
        <time>2020-01-14T10:31:53Z</time>
      </trkpt>
      <trkpt lat="43.46304" lon="3.8038">
        <ele>2</ele>
        <time>2020-01-14T10:31:55Z</time>
      </trkpt>
      <trkpt lat="43.46305" lon="3.80382">
        <ele>2</ele>
        <time>2020-01-14T10:31:57Z</time>
      </trkpt>
      <trkpt lat="43.46305" lon="3.80384">
        <ele>2</ele>
        <time>2020-01-14T10:31:59Z</time>
      </trkpt>
      <trkpt lat="43.46306" lon="3.80386">
        <ele>2</ele>
        <time>2020-01-14T10:32:00Z</time>
      </trkpt>
      <trkpt lat="43.46306" lon="3.80388">
        <ele>2</ele>
        <time>2020-01-14T10:32:01Z</time>
      </trkpt>
      <trkpt lat="43.46307" lon="3.8039">
        <ele>2</ele>
        <time>2020-01-14T10:32:03Z</time>
      </trkpt>
      <trkpt lat="43.46308" lon="3.80393">
        <ele>2</ele>
        <time>2020-01-14T10:32:05Z</time>
      </trkpt>
      <trkpt lat="43.46309" lon="3.80396">
        <ele>2</ele>
        <time>2020-01-14T10:32:07Z</time>
      </trkpt>
      <trkpt lat="43.46311" lon="3.80399">
        <ele>2</ele>
        <time>2020-01-14T10:32:10Z</time>
      </trkpt>
      <trkpt lat="43.46311" lon="3.80406">
        <ele>2</ele>
        <time>2020-01-14T10:32:12Z</time>
      </trkpt>
      <trkpt lat="43.46312" lon="3.80408">
        <ele>2</ele>
        <time>2020-01-14T10:32:14Z</time>
      </trkpt>
      <trkpt lat="43.46313" lon="3.8041">
        <ele>2</ele>
        <time>2020-01-14T10:32:15Z</time>
      </trkpt>
      <trkpt lat="43.46313" lon="3.80412">
        <ele>2</ele>
        <time>2020-01-14T10:32:17Z</time>
      </trkpt>
      <trkpt lat="43.46314" lon="3.80415">
        <ele>2</ele>
        <time>2020-01-14T10:32:19Z</time>
      </trkpt>
      <trkpt lat="43.46315" lon="3.80417">
        <ele>2</ele>
        <time>2020-01-14T10:32:20Z</time>
      </trkpt>
      <trkpt lat="43.46316" lon="3.80421">
        <ele>2</ele>
        <time>2020-01-14T10:32:21Z</time>
      </trkpt>
      <trkpt lat="43.46317" lon="3.80423">
        <ele>2</ele>
        <time>2020-01-14T10:32:23Z</time>
      </trkpt>
      <trkpt lat="43.46317" lon="3.80425">
        <ele>2</ele>
        <time>2020-01-14T10:32:25Z</time>
      </trkpt>
      <trkpt lat="43.46318" lon="3.80427">
        <ele>2</ele>
        <time>2020-01-14T10:32:27Z</time>
      </trkpt>
      <trkpt lat="43.46318" lon="3.8043">
        <ele>2</ele>
        <time>2020-01-14T10:32:29Z</time>
      </trkpt>
      <trkpt lat="43.46318" lon="3.80432">
        <ele>2</ele>
        <time>2020-01-14T10:32:30Z</time>
      </trkpt>
      <trkpt lat="43.4632" lon="3.80435">
        <ele>2</ele>
        <time>2020-01-14T10:32:31Z</time>
      </trkpt>
      <trkpt lat="43.46321" lon="3.80437">
        <ele>2</ele>
        <time>2020-01-14T10:32:33Z</time>
      </trkpt>
      <trkpt lat="43.46322" lon="3.8044">
        <ele>2</ele>
        <time>2020-01-14T10:32:35Z</time>
      </trkpt>
      <trkpt lat="43.46323" lon="3.80442">
        <ele>2</ele>
        <time>2020-01-14T10:32:37Z</time>
      </trkpt>
      <trkpt lat="43.46324" lon="3.80444">
        <ele>2</ele>
        <time>2020-01-14T10:32:39Z</time>
      </trkpt>
      <trkpt lat="43.46324" lon="3.80447">
        <ele>2</ele>
        <time>2020-01-14T10:32:40Z</time>
      </trkpt>
      <trkpt lat="43.46327" lon="3.8045">
        <ele>2</ele>
        <time>2020-01-14T10:32:41Z</time>
      </trkpt>
      <trkpt lat="43.46328" lon="3.80452">
        <ele>2</ele>
        <time>2020-01-14T10:32:43Z</time>
      </trkpt>
      <trkpt lat="43.46329" lon="3.80454">
        <ele>2</ele>
        <time>2020-01-14T10:32:45Z</time>
      </trkpt>
      <trkpt lat="43.46331" lon="3.80456">
        <ele>2</ele>
        <time>2020-01-14T10:32:47Z</time>
      </trkpt>
      <trkpt lat="43.46332" lon="3.80458">
        <ele>2</ele>
        <time>2020-01-14T10:32:49Z</time>
      </trkpt>
      <trkpt lat="43.46334" lon="3.8046">
        <ele>2</ele>
        <time>2020-01-14T10:32:50Z</time>
      </trkpt>
      <trkpt lat="43.46335" lon="3.80464">
        <ele>2</ele>
        <time>2020-01-14T10:32:51Z</time>
      </trkpt>
      <trkpt lat="43.46335" lon="3.80465">
        <ele>2</ele>
        <time>2020-01-14T10:32:53Z</time>
      </trkpt>
      <trkpt lat="43.46336" lon="3.80467">
        <ele>2</ele>
        <time>2020-01-14T10:32:55Z</time>
      </trkpt>
      <trkpt lat="43.46336" lon="3.80469">
        <ele>2</ele>
        <time>2020-01-14T10:32:57Z</time>
      </trkpt>
      <trkpt lat="43.46337" lon="3.80471">
        <ele>2</ele>
        <time>2020-01-14T10:32:59Z</time>
      </trkpt>
      <trkpt lat="43.46337" lon="3.80473">
        <ele>2</ele>
        <time>2020-01-14T10:33:00Z</time>
      </trkpt>
      <trkpt lat="43.46339" lon="3.80478">
        <ele>2</ele>
        <time>2020-01-14T10:33:02Z</time>
      </trkpt>
      <trkpt lat="43.4634" lon="3.80479">
        <ele>2</ele>
        <time>2020-01-14T10:33:04Z</time>
      </trkpt>
      <trkpt lat="43.46341" lon="3.80481">
        <ele>2</ele>
        <time>2020-01-14T10:33:07Z</time>
      </trkpt>
      <trkpt lat="43.46342" lon="3.80483">
        <ele>2</ele>
        <time>2020-01-14T10:33:09Z</time>
      </trkpt>
      <trkpt lat="43.46343" lon="3.80484">
        <ele>2</ele>
        <time>2020-01-14T10:33:10Z</time>
      </trkpt>
      <trkpt lat="43.46344" lon="3.80487">
        <ele>2</ele>
        <time>2020-01-14T10:33:11Z</time>
      </trkpt>
      <trkpt lat="43.46345" lon="3.80489">
        <ele>2</ele>
        <time>2020-01-14T10:33:13Z</time>
      </trkpt>
      <trkpt lat="43.46346" lon="3.80491">
        <ele>2</ele>
        <time>2020-01-14T10:33:15Z</time>
      </trkpt>
      <trkpt lat="43.46347" lon="3.80493">
        <ele>2</ele>
        <time>2020-01-14T10:33:17Z</time>
      </trkpt>
      <trkpt lat="43.46348" lon="3.80495">
        <ele>2</ele>
        <time>2020-01-14T10:33:19Z</time>
      </trkpt>
      <trkpt lat="43.46349" lon="3.80497">
        <ele>2</ele>
        <time>2020-01-14T10:33:20Z</time>
      </trkpt>
      <trkpt lat="43.4635" lon="3.80501">
        <ele>2</ele>
        <time>2020-01-14T10:33:21Z</time>
      </trkpt>
      <trkpt lat="43.46351" lon="3.80503">
        <ele>2</ele>
        <time>2020-01-14T10:33:23Z</time>
      </trkpt>
      <trkpt lat="43.46352" lon="3.80504">
        <ele>2</ele>
        <time>2020-01-14T10:33:25Z</time>
      </trkpt>
      <trkpt lat="43.46353" lon="3.80506">
        <ele>2</ele>
        <time>2020-01-14T10:33:27Z</time>
      </trkpt>
      <trkpt lat="43.46354" lon="3.80508">
        <ele>2</ele>
        <time>2020-01-14T10:33:29Z</time>
      </trkpt>
      <trkpt lat="43.46354" lon="3.8051">
        <ele>2</ele>
        <time>2020-01-14T10:33:30Z</time>
      </trkpt>
      <trkpt lat="43.46355" lon="3.80512">
        <ele>2</ele>
        <time>2020-01-14T10:33:31Z</time>
      </trkpt>
      <trkpt lat="43.46355" lon="3.80514">
        <ele>2</ele>
        <time>2020-01-14T10:33:33Z</time>
      </trkpt>
      <trkpt lat="43.46356" lon="3.80518">
        <ele>2</ele>
        <time>2020-01-14T10:33:36Z</time>
      </trkpt>
      <trkpt lat="43.46357" lon="3.80521">
        <ele>2</ele>
        <time>2020-01-14T10:33:38Z</time>
      </trkpt>
      <trkpt lat="43.46359" lon="3.80524">
        <ele>2</ele>
        <time>2020-01-14T10:33:40Z</time>
      </trkpt>
      <trkpt lat="43.4636" lon="3.80528">
        <ele>2</ele>
        <time>2020-01-14T10:33:43Z</time>
      </trkpt>
      <trkpt lat="43.4636" lon="3.80531">
        <ele>2</ele>
        <time>2020-01-14T10:33:45Z</time>
      </trkpt>
      <trkpt lat="43.46361" lon="3.80534">
        <ele>2</ele>
        <time>2020-01-14T10:33:48Z</time>
      </trkpt>
      <trkpt lat="43.46364" lon="3.80538">
        <ele>2</ele>
        <time>2020-01-14T10:33:50Z</time>
      </trkpt>
      <trkpt lat="43.46365" lon="3.80541">
        <ele>2</ele>
        <time>2020-01-14T10:33:52Z</time>
      </trkpt>
      <trkpt lat="43.46367" lon="3.80544">
        <ele>2</ele>
        <time>2020-01-14T10:33:54Z</time>
      </trkpt>
      <trkpt lat="43.46368" lon="3.80547">
        <ele>2</ele>
        <time>2020-01-14T10:33:56Z</time>
      </trkpt>
      <trkpt lat="43.4637" lon="3.8055">
        <ele>2</ele>
        <time>2020-01-14T10:33:58Z</time>
      </trkpt>
      <trkpt lat="43.46372" lon="3.80553">
        <ele>2</ele>
        <time>2020-01-14T10:34:00Z</time>
      </trkpt>
      <trkpt lat="43.46374" lon="3.80557">
        <ele>2</ele>
        <time>2020-01-14T10:34:02Z</time>
      </trkpt>
      <trkpt lat="43.46375" lon="3.8056">
        <ele>2</ele>
        <time>2020-01-14T10:34:04Z</time>
      </trkpt>
      <trkpt lat="43.46378" lon="3.80563">
        <ele>2</ele>
        <time>2020-01-14T10:34:06Z</time>
      </trkpt>
      <trkpt lat="43.46379" lon="3.80566">
        <ele>2</ele>
        <time>2020-01-14T10:34:08Z</time>
      </trkpt>
      <trkpt lat="43.4638" lon="3.80569">
        <ele>2</ele>
        <time>2020-01-14T10:34:10Z</time>
      </trkpt>
      <trkpt lat="43.46381" lon="3.80573">
        <ele>2</ele>
        <time>2020-01-14T10:34:12Z</time>
      </trkpt>
      <trkpt lat="43.46384" lon="3.80576">
        <ele>2</ele>
        <time>2020-01-14T10:34:14Z</time>
      </trkpt>
      <trkpt lat="43.46386" lon="3.80578">
        <ele>2</ele>
        <time>2020-01-14T10:34:16Z</time>
      </trkpt>
      <trkpt lat="43.46388" lon="3.8058">
        <ele>2</ele>
        <time>2020-01-14T10:34:18Z</time>
      </trkpt>
      <trkpt lat="43.46389" lon="3.80582">
        <ele>2</ele>
        <time>2020-01-14T10:34:20Z</time>
      </trkpt>
      <trkpt lat="43.4639" lon="3.80585">
        <ele>2</ele>
        <time>2020-01-14T10:34:22Z</time>
      </trkpt>
      <trkpt lat="43.46391" lon="3.80588">
        <ele>2</ele>
        <time>2020-01-14T10:34:24Z</time>
      </trkpt>
      <trkpt lat="43.46393" lon="3.80591">
        <ele>2</ele>
        <time>2020-01-14T10:34:26Z</time>
      </trkpt>
      <trkpt lat="43.46395" lon="3.80593">
        <ele>2</ele>
        <time>2020-01-14T10:34:28Z</time>
      </trkpt>
      <trkpt lat="43.46396" lon="3.80596">
        <ele>2</ele>
        <time>2020-01-14T10:34:30Z</time>
      </trkpt>
      <trkpt lat="43.46398" lon="3.80601">
        <ele>2</ele>
        <time>2020-01-14T10:34:32Z</time>
      </trkpt>
      <trkpt lat="43.46399" lon="3.80603">
        <ele>2</ele>
        <time>2020-01-14T10:34:34Z</time>
      </trkpt>
      <trkpt lat="43.464" lon="3.80605">
        <ele>2</ele>
        <time>2020-01-14T10:34:36Z</time>
      </trkpt>
      <trkpt lat="43.46401" lon="3.80607">
        <ele>2</ele>
        <time>2020-01-14T10:34:39Z</time>
      </trkpt>
      <trkpt lat="43.46402" lon="3.80609">
        <ele>2</ele>
        <time>2020-01-14T10:34:40Z</time>
      </trkpt>
      <trkpt lat="43.46404" lon="3.80612">
        <ele>2</ele>
        <time>2020-01-14T10:34:41Z</time>
      </trkpt>
      <trkpt lat="43.46405" lon="3.80614">
        <ele>2</ele>
        <time>2020-01-14T10:34:43Z</time>
      </trkpt>
      <trkpt lat="43.46406" lon="3.80616">
        <ele>2</ele>
        <time>2020-01-14T10:34:45Z</time>
      </trkpt>
      <trkpt lat="43.46407" lon="3.80618">
        <ele>2</ele>
        <time>2020-01-14T10:34:47Z</time>
      </trkpt>
      <trkpt lat="43.46408" lon="3.8062">
        <ele>2</ele>
        <time>2020-01-14T10:34:49Z</time>
      </trkpt>
      <trkpt lat="43.46409" lon="3.80622">
        <ele>2</ele>
        <time>2020-01-14T10:34:50Z</time>
      </trkpt>
      <trkpt lat="43.46411" lon="3.80625">
        <ele>2</ele>
        <time>2020-01-14T10:34:51Z</time>
      </trkpt>
      <trkpt lat="43.46411" lon="3.80627">
        <ele>2</ele>
        <time>2020-01-14T10:34:53Z</time>
      </trkpt>
      <trkpt lat="43.46412" lon="3.80629">
        <ele>2</ele>
        <time>2020-01-14T10:34:55Z</time>
      </trkpt>
      <trkpt lat="43.46413" lon="3.80631">
        <ele>2</ele>
        <time>2020-01-14T10:34:57Z</time>
      </trkpt>
      <trkpt lat="43.46414" lon="3.80633">
        <ele>2</ele>
        <time>2020-01-14T10:34:59Z</time>
      </trkpt>
      <trkpt lat="43.46415" lon="3.80635">
        <ele>2</ele>
        <time>2020-01-14T10:35:00Z</time>
      </trkpt>
      <trkpt lat="43.46416" lon="3.80639">
        <ele>2</ele>
        <time>2020-01-14T10:35:01Z</time>
      </trkpt>
      <trkpt lat="43.46417" lon="3.80641">
        <ele>2</ele>
        <time>2020-01-14T10:35:03Z</time>
      </trkpt>
      <trkpt lat="43.46418" lon="3.80643">
        <ele>2</ele>
        <time>2020-01-14T10:35:05Z</time>
      </trkpt>
      <trkpt lat="43.46419" lon="3.80645">
        <ele>2</ele>
        <time>2020-01-14T10:35:07Z</time>
      </trkpt>
      <trkpt lat="43.4642" lon="3.80647">
        <ele>2</ele>
        <time>2020-01-14T10:35:09Z</time>
      </trkpt>
      <trkpt lat="43.46421" lon="3.80649">
        <ele>2</ele>
        <time>2020-01-14T10:35:10Z</time>
      </trkpt>
      <trkpt lat="43.46423" lon="3.80653">
        <ele>2</ele>
        <time>2020-01-14T10:35:11Z</time>
      </trkpt>
      <trkpt lat="43.46424" lon="3.80655">
        <ele>2</ele>
        <time>2020-01-14T10:35:13Z</time>
      </trkpt>
      <trkpt lat="43.46425" lon="3.80657">
        <ele>2</ele>
        <time>2020-01-14T10:35:15Z</time>
      </trkpt>
      <trkpt lat="43.46425" lon="3.80659">
        <ele>2</ele>
        <time>2020-01-14T10:35:17Z</time>
      </trkpt>
      <trkpt lat="43.46426" lon="3.80661">
        <ele>2</ele>
        <time>2020-01-14T10:35:19Z</time>
      </trkpt>
      <trkpt lat="43.46427" lon="3.80663">
        <ele>2</ele>
        <time>2020-01-14T10:35:20Z</time>
      </trkpt>
      <trkpt lat="43.46429" lon="3.80666">
        <ele>2</ele>
        <time>2020-01-14T10:35:21Z</time>
      </trkpt>
      <trkpt lat="43.4643" lon="3.80669">
        <ele>2</ele>
        <time>2020-01-14T10:35:23Z</time>
      </trkpt>
      <trkpt lat="43.46431" lon="3.80671">
        <ele>2</ele>
        <time>2020-01-14T10:35:25Z</time>
      </trkpt>
      <trkpt lat="43.46432" lon="3.80673">
        <ele>2</ele>
        <time>2020-01-14T10:35:27Z</time>
      </trkpt>
      <trkpt lat="43.46433" lon="3.80675">
        <ele>2</ele>
        <time>2020-01-14T10:35:29Z</time>
      </trkpt>
      <trkpt lat="43.46434" lon="3.80677">
        <ele>2</ele>
        <time>2020-01-14T10:35:30Z</time>
      </trkpt>
      <trkpt lat="43.46435" lon="3.80681">
        <ele>2</ele>
        <time>2020-01-14T10:35:31Z</time>
      </trkpt>
      <trkpt lat="43.46436" lon="3.80683">
        <ele>2</ele>
        <time>2020-01-14T10:35:34Z</time>
      </trkpt>
      <trkpt lat="43.46437" lon="3.80685">
        <ele>2</ele>
        <time>2020-01-14T10:35:36Z</time>
      </trkpt>
      <trkpt lat="43.46437" lon="3.80687">
        <ele>2</ele>
        <time>2020-01-14T10:35:37Z</time>
      </trkpt>
      <trkpt lat="43.46438" lon="3.80689">
        <ele>2</ele>
        <time>2020-01-14T10:35:39Z</time>
      </trkpt>
      <trkpt lat="43.46439" lon="3.80691">
        <ele>2</ele>
        <time>2020-01-14T10:35:40Z</time>
      </trkpt>
      <trkpt lat="43.46441" lon="3.80695">
        <ele>2</ele>
        <time>2020-01-14T10:35:41Z</time>
      </trkpt>
      <trkpt lat="43.46442" lon="3.80697">
        <ele>2</ele>
        <time>2020-01-14T10:35:43Z</time>
      </trkpt>
      <trkpt lat="43.46443" lon="3.80699">
        <ele>2</ele>
        <time>2020-01-14T10:35:45Z</time>
      </trkpt>
      <trkpt lat="43.46444" lon="3.80701">
        <ele>2</ele>
        <time>2020-01-14T10:35:47Z</time>
      </trkpt>
      <trkpt lat="43.46444" lon="3.80703">
        <ele>2</ele>
        <time>2020-01-14T10:35:49Z</time>
      </trkpt>
      <trkpt lat="43.46445" lon="3.80704">
        <ele>2</ele>
        <time>2020-01-14T10:35:50Z</time>
      </trkpt>
      <trkpt lat="43.46447" lon="3.80707">
        <ele>2</ele>
        <time>2020-01-14T10:35:51Z</time>
      </trkpt>
      <trkpt lat="43.46448" lon="3.80709">
        <ele>2</ele>
        <time>2020-01-14T10:35:53Z</time>
      </trkpt>
      <trkpt lat="43.46449" lon="3.8071">
        <ele>2</ele>
        <time>2020-01-14T10:35:55Z</time>
      </trkpt>
      <trkpt lat="43.46449" lon="3.80711">
        <ele>2</ele>
        <time>2020-01-14T10:35:57Z</time>
      </trkpt>
      <trkpt lat="43.4645" lon="3.80713">
        <ele>2</ele>
        <time>2020-01-14T10:35:59Z</time>
      </trkpt>
      <trkpt lat="43.46451" lon="3.80714">
        <ele>2</ele>
        <time>2020-01-14T10:36:00Z</time>
      </trkpt>
      <trkpt lat="43.46453" lon="3.80716">
        <ele>2</ele>
        <time>2020-01-14T10:36:02Z</time>
      </trkpt>
      <trkpt lat="43.46455" lon="3.80719">
        <ele>2</ele>
        <time>2020-01-14T10:36:04Z</time>
      </trkpt>
      <trkpt lat="43.46457" lon="3.80723">
        <ele>2</ele>
        <time>2020-01-14T10:36:06Z</time>
      </trkpt>
      <trkpt lat="43.46457" lon="3.80726">
        <ele>2</ele>
        <time>2020-01-14T10:36:08Z</time>
      </trkpt>
      <trkpt lat="43.46457" lon="3.80728">
        <ele>2</ele>
        <time>2020-01-14T10:36:10Z</time>
      </trkpt>
      <trkpt lat="43.46457" lon="3.80731">
        <ele>2</ele>
        <time>2020-01-14T10:36:12Z</time>
      </trkpt>
      <trkpt lat="43.46458" lon="3.80734">
        <ele>2</ele>
        <time>2020-01-14T10:36:15Z</time>
      </trkpt>
      <trkpt lat="43.46458" lon="3.80737">
        <ele>2</ele>
        <time>2020-01-14T10:36:18Z</time>
      </trkpt>
      <trkpt lat="43.46459" lon="3.8074">
        <ele>2</ele>
        <time>2020-01-14T10:36:20Z</time>
      </trkpt>
      <trkpt lat="43.4646" lon="3.80742">
        <ele>2</ele>
        <time>2020-01-14T10:36:22Z</time>
      </trkpt>
      <trkpt lat="43.46462" lon="3.80744">
        <ele>2</ele>
        <time>2020-01-14T10:36:24Z</time>
      </trkpt>
      <trkpt lat="43.46463" lon="3.80746">
        <ele>2</ele>
        <time>2020-01-14T10:36:26Z</time>
      </trkpt>
      <trkpt lat="43.46465" lon="3.80747">
        <ele>2</ele>
        <time>2020-01-14T10:36:28Z</time>
      </trkpt>
      <trkpt lat="43.46465" lon="3.8075">
        <ele>2</ele>
        <time>2020-01-14T10:36:30Z</time>
      </trkpt>
      <trkpt lat="43.46464" lon="3.80753">
        <ele>2</ele>
        <time>2020-01-14T10:36:32Z</time>
      </trkpt>
      <trkpt lat="43.46463" lon="3.80755">
        <ele>2</ele>
        <time>2020-01-14T10:36:35Z</time>
      </trkpt>
      <trkpt lat="43.46462" lon="3.80757">
        <ele>2</ele>
        <time>2020-01-14T10:36:38Z</time>
      </trkpt>
      <trkpt lat="43.46462" lon="3.80757">
        <ele>2</ele>
        <time>2020-01-14T10:36:40Z</time>
      </trkpt>
      <trkpt lat="43.46462" lon="3.80757">
        <ele>2</ele>
        <time>2020-01-14T10:36:42Z</time>
      </trkpt>
      <trkpt lat="43.46462" lon="3.80756">
        <ele>2</ele>
        <time>2020-01-14T10:36:43Z</time>
      </trkpt>
      <trkpt lat="43.46462" lon="3.80756">
        <ele>2</ele>
        <time>2020-01-14T10:37:01Z</time>
      </trkpt>
      <trkpt lat="43.46456" lon="3.80762">
        <ele>2</ele>
        <time>2020-01-14T10:37:02Z</time>
      </trkpt>
      <trkpt lat="43.46456" lon="3.80762">
        <ele>2</ele>
        <time>2020-01-14T10:37:07Z</time>
      </trkpt>
      <trkpt lat="43.46456" lon="3.80762">
        <ele>2</ele>
        <time>2020-01-14T10:37:08Z</time>
      </trkpt>
      <trkpt lat="43.46439" lon="3.8078">
        <ele>2</ele>
        <time>2020-01-14T10:37:55Z</time>
      </trkpt>
      <trkpt lat="43.46438" lon="3.80781">
        <ele>2</ele>
        <time>2020-01-14T10:37:56Z</time>
      </trkpt>
      <trkpt lat="43.46437" lon="3.80783">
        <ele>2</ele>
        <time>2020-01-14T10:37:59Z</time>
      </trkpt>
      <trkpt lat="43.46435" lon="3.80784">
        <ele>2</ele>
        <time>2020-01-14T10:38:01Z</time>
      </trkpt>
      <trkpt lat="43.46433" lon="3.80785">
        <ele>2</ele>
        <time>2020-01-14T10:38:04Z</time>
      </trkpt>
      <trkpt lat="43.46432" lon="3.80786">
        <ele>2</ele>
        <time>2020-01-14T10:38:06Z</time>
      </trkpt>
      <trkpt lat="43.46429" lon="3.80788">
        <ele>2</ele>
        <time>2020-01-14T10:38:08Z</time>
      </trkpt>
      <trkpt lat="43.46427" lon="3.8079">
        <ele>2</ele>
        <time>2020-01-14T10:38:10Z</time>
      </trkpt>
      <trkpt lat="43.46425" lon="3.80791">
        <ele>2</ele>
        <time>2020-01-14T10:38:12Z</time>
      </trkpt>
      <trkpt lat="43.46423" lon="3.80791">
        <ele>2</ele>
        <time>2020-01-14T10:38:14Z</time>
      </trkpt>
      <trkpt lat="43.4642" lon="3.80794">
        <ele>2</ele>
        <time>2020-01-14T10:38:16Z</time>
      </trkpt>
      <trkpt lat="43.46419" lon="3.80795">
        <ele>2</ele>
        <time>2020-01-14T10:38:18Z</time>
      </trkpt>
      <trkpt lat="43.46418" lon="3.80796">
        <ele>2</ele>
        <time>2020-01-14T10:38:21Z</time>
      </trkpt>
      <trkpt lat="43.46416" lon="3.80797">
        <ele>2</ele>
        <time>2020-01-14T10:38:23Z</time>
      </trkpt>
      <trkpt lat="43.46415" lon="3.80798">
        <ele>2</ele>
        <time>2020-01-14T10:38:24Z</time>
      </trkpt>
      <trkpt lat="43.46413" lon="3.808">
        <ele>2</ele>
        <time>2020-01-14T10:38:25Z</time>
      </trkpt>
      <trkpt lat="43.46411" lon="3.80802">
        <ele>2</ele>
        <time>2020-01-14T10:38:27Z</time>
      </trkpt>
      <trkpt lat="43.4641" lon="3.80803">
        <ele>2</ele>
        <time>2020-01-14T10:38:29Z</time>
      </trkpt>
      <trkpt lat="43.46408" lon="3.80805">
        <ele>2</ele>
        <time>2020-01-14T10:38:31Z</time>
      </trkpt>
      <trkpt lat="43.46407" lon="3.80806">
        <ele>2</ele>
        <time>2020-01-14T10:38:33Z</time>
      </trkpt>
      <trkpt lat="43.46405" lon="3.80807">
        <ele>2</ele>
        <time>2020-01-14T10:38:34Z</time>
      </trkpt>
      <trkpt lat="43.46404" lon="3.80808">
        <ele>2</ele>
        <time>2020-01-14T10:38:35Z</time>
      </trkpt>
      <trkpt lat="43.46402" lon="3.80811">
        <ele>2</ele>
        <time>2020-01-14T10:38:38Z</time>
      </trkpt>
      <trkpt lat="43.464" lon="3.80813">
        <ele>2</ele>
        <time>2020-01-14T10:38:40Z</time>
      </trkpt>
      <trkpt lat="43.46398" lon="3.80816">
        <ele>2</ele>
        <time>2020-01-14T10:38:42Z</time>
      </trkpt>
      <trkpt lat="43.46397" lon="3.80818">
        <ele>2</ele>
        <time>2020-01-14T10:38:44Z</time>
      </trkpt>
      <trkpt lat="43.46395" lon="3.80821">
        <ele>2</ele>
        <time>2020-01-14T10:38:46Z</time>
      </trkpt>
      <trkpt lat="43.46394" lon="3.80825">
        <ele>2</ele>
        <time>2020-01-14T10:38:48Z</time>
      </trkpt>
      <trkpt lat="43.46394" lon="3.80828">
        <ele>2</ele>
        <time>2020-01-14T10:38:50Z</time>
      </trkpt>
      <trkpt lat="43.46394" lon="3.80832">
        <ele>2</ele>
        <time>2020-01-14T10:38:52Z</time>
      </trkpt>
      <trkpt lat="43.46396" lon="3.80834">
        <ele>2</ele>
        <time>2020-01-14T10:38:54Z</time>
      </trkpt>
      <trkpt lat="43.46398" lon="3.80836">
        <ele>2</ele>
        <time>2020-01-14T10:38:56Z</time>
      </trkpt>
      <trkpt lat="43.46398" lon="3.80839">
        <ele>2</ele>
        <time>2020-01-14T10:38:58Z</time>
      </trkpt>
      <trkpt lat="43.46398" lon="3.80842">
        <ele>2</ele>
        <time>2020-01-14T10:39:00Z</time>
      </trkpt>
      <trkpt lat="43.46398" lon="3.80845">
        <ele>2</ele>
        <time>2020-01-14T10:39:02Z</time>
      </trkpt>
      <trkpt lat="43.46398" lon="3.80848">
        <ele>2</ele>
        <time>2020-01-14T10:39:04Z</time>
      </trkpt>
      <trkpt lat="43.46398" lon="3.80851">
        <ele>2</ele>
        <time>2020-01-14T10:39:06Z</time>
      </trkpt>
      <trkpt lat="43.46398" lon="3.80854">
        <ele>2</ele>
        <time>2020-01-14T10:39:08Z</time>
      </trkpt>
      <trkpt lat="43.46398" lon="3.80856">
        <ele>2</ele>
        <time>2020-01-14T10:39:10Z</time>
      </trkpt>
      <trkpt lat="43.46397" lon="3.80859">
        <ele>2</ele>
        <time>2020-01-14T10:39:12Z</time>
      </trkpt>
      <trkpt lat="43.46397" lon="3.80862">
        <ele>2</ele>
        <time>2020-01-14T10:39:14Z</time>
      </trkpt>
      <trkpt lat="43.46396" lon="3.80865">
        <ele>2</ele>
        <time>2020-01-14T10:39:16Z</time>
      </trkpt>
      <trkpt lat="43.46395" lon="3.80867">
        <ele>2</ele>
        <time>2020-01-14T10:39:18Z</time>
      </trkpt>
      <trkpt lat="43.46394" lon="3.8087">
        <ele>2</ele>
        <time>2020-01-14T10:39:20Z</time>
      </trkpt>
      <trkpt lat="43.46394" lon="3.80873">
        <ele>2</ele>
        <time>2020-01-14T10:39:22Z</time>
      </trkpt>
      <trkpt lat="43.46394" lon="3.80876">
        <ele>2</ele>
        <time>2020-01-14T10:39:24Z</time>
      </trkpt>
      <trkpt lat="43.46393" lon="3.80879">
        <ele>2</ele>
        <time>2020-01-14T10:39:26Z</time>
      </trkpt>
      <trkpt lat="43.46393" lon="3.80882">
        <ele>2</ele>
        <time>2020-01-14T10:39:28Z</time>
      </trkpt>
      <trkpt lat="43.46392" lon="3.80885">
        <ele>2</ele>
        <time>2020-01-14T10:39:30Z</time>
      </trkpt>
      <trkpt lat="43.4639" lon="3.80888">
        <ele>2</ele>
        <time>2020-01-14T10:39:32Z</time>
      </trkpt>
      <trkpt lat="43.4639" lon="3.80892">
        <ele>2</ele>
        <time>2020-01-14T10:39:34Z</time>
      </trkpt>
      <trkpt lat="43.46389" lon="3.80895">
        <ele>2</ele>
        <time>2020-01-14T10:39:36Z</time>
      </trkpt>
      <trkpt lat="43.4639" lon="3.80898">
        <ele>2</ele>
        <time>2020-01-14T10:39:38Z</time>
      </trkpt>
      <trkpt lat="43.46389" lon="3.80901">
        <ele>2</ele>
        <time>2020-01-14T10:39:40Z</time>
      </trkpt>
      <trkpt lat="43.4639" lon="3.80904">
        <ele>2</ele>
        <time>2020-01-14T10:39:42Z</time>
      </trkpt>
      <trkpt lat="43.4639" lon="3.80904">
        <ele>2</ele>
        <time>2020-01-14T10:39:44Z</time>
      </trkpt>
      <trkpt lat="43.4639" lon="3.80909">
        <ele>2</ele>
        <time>2020-01-14T10:39:45Z</time>
      </trkpt>
      <trkpt lat="43.4639" lon="3.80911">
        <ele>2</ele>
        <time>2020-01-14T10:39:47Z</time>
      </trkpt>
      <trkpt lat="43.4639" lon="3.80913">
        <ele>2</ele>
        <time>2020-01-14T10:39:49Z</time>
      </trkpt>
      <trkpt lat="43.4639" lon="3.80915">
        <ele>2</ele>
        <time>2020-01-14T10:39:51Z</time>
      </trkpt>
      <trkpt lat="43.4639" lon="3.80916">
        <ele>2</ele>
        <time>2020-01-14T10:39:53Z</time>
      </trkpt>
      <trkpt lat="43.4639" lon="3.80918">
        <ele>2</ele>
        <time>2020-01-14T10:39:54Z</time>
      </trkpt>
      <trkpt lat="43.46392" lon="3.80923">
        <ele>2</ele>
        <time>2020-01-14T10:39:55Z</time>
      </trkpt>
      <trkpt lat="43.46393" lon="3.80924">
        <ele>2</ele>
        <time>2020-01-14T10:39:57Z</time>
      </trkpt>
      <trkpt lat="43.46394" lon="3.80926">
        <ele>2</ele>
        <time>2020-01-14T10:39:59Z</time>
      </trkpt>
      <trkpt lat="43.46395" lon="3.80928">
        <ele>2</ele>
        <time>2020-01-14T10:40:01Z</time>
      </trkpt>
      <trkpt lat="43.46396" lon="3.80929">
        <ele>2</ele>
        <time>2020-01-14T10:40:03Z</time>
      </trkpt>
      <trkpt lat="43.46397" lon="3.80931">
        <ele>2</ele>
        <time>2020-01-14T10:40:04Z</time>
      </trkpt>
      <trkpt lat="43.46398" lon="3.80932">
        <ele>2</ele>
        <time>2020-01-14T10:40:05Z</time>
      </trkpt>
      <trkpt lat="43.464" lon="3.80933">
        <ele>2</ele>
        <time>2020-01-14T10:40:07Z</time>
      </trkpt>
      <trkpt lat="43.46403" lon="3.80936">
        <ele>2</ele>
        <time>2020-01-14T10:40:10Z</time>
      </trkpt>
      <trkpt lat="43.46405" lon="3.80937">
        <ele>2</ele>
        <time>2020-01-14T10:40:12Z</time>
      </trkpt>
      <trkpt lat="43.46406" lon="3.80938">
        <ele>2</ele>
        <time>2020-01-14T10:40:14Z</time>
      </trkpt>
      <trkpt lat="43.46408" lon="3.80939">
        <ele>2</ele>
        <time>2020-01-14T10:40:16Z</time>
      </trkpt>
      <trkpt lat="43.4641" lon="3.80941">
        <ele>2</ele>
        <time>2020-01-14T10:40:18Z</time>
      </trkpt>
      <trkpt lat="43.46412" lon="3.80942">
        <ele>2</ele>
        <time>2020-01-14T10:40:20Z</time>
      </trkpt>
      <trkpt lat="43.46414" lon="3.80943">
        <ele>2</ele>
        <time>2020-01-14T10:40:22Z</time>
      </trkpt>
      <trkpt lat="43.46416" lon="3.80945">
        <ele>2</ele>
        <time>2020-01-14T10:40:24Z</time>
      </trkpt>
      <trkpt lat="43.46419" lon="3.80948">
        <ele>2</ele>
        <time>2020-01-14T10:40:26Z</time>
      </trkpt>
      <trkpt lat="43.46421" lon="3.80949">
        <ele>2</ele>
        <time>2020-01-14T10:40:29Z</time>
      </trkpt>
      <trkpt lat="43.46422" lon="3.80951">
        <ele>2</ele>
        <time>2020-01-14T10:40:31Z</time>
      </trkpt>
      <trkpt lat="43.46423" lon="3.80952">
        <ele>2</ele>
        <time>2020-01-14T10:40:33Z</time>
      </trkpt>
      <trkpt lat="43.46425" lon="3.80953">
        <ele>2</ele>
        <time>2020-01-14T10:40:34Z</time>
      </trkpt>
      <trkpt lat="43.46427" lon="3.80955">
        <ele>2</ele>
        <time>2020-01-14T10:40:35Z</time>
      </trkpt>
      <trkpt lat="43.46428" lon="3.80957">
        <ele>2</ele>
        <time>2020-01-14T10:40:37Z</time>
      </trkpt>
      <trkpt lat="43.46429" lon="3.80958">
        <ele>2</ele>
        <time>2020-01-14T10:40:39Z</time>
      </trkpt>
      <trkpt lat="43.4643" lon="3.80959">
        <ele>2</ele>
        <time>2020-01-14T10:40:41Z</time>
      </trkpt>
      <trkpt lat="43.46431" lon="3.80961">
        <ele>2</ele>
        <time>2020-01-14T10:40:43Z</time>
      </trkpt>
      <trkpt lat="43.46433" lon="3.80962">
        <ele>2</ele>
        <time>2020-01-14T10:40:44Z</time>
      </trkpt>
      <trkpt lat="43.46435" lon="3.80965">
        <ele>2</ele>
        <time>2020-01-14T10:40:45Z</time>
      </trkpt>
      <trkpt lat="43.46436" lon="3.80967">
        <ele>2</ele>
        <time>2020-01-14T10:40:47Z</time>
      </trkpt>
      <trkpt lat="43.46437" lon="3.80968">
        <ele>2</ele>
        <time>2020-01-14T10:40:49Z</time>
      </trkpt>
      <trkpt lat="43.46438" lon="3.8097">
        <ele>2</ele>
        <time>2020-01-14T10:40:51Z</time>
      </trkpt>
      <trkpt lat="43.46439" lon="3.80971">
        <ele>2</ele>
        <time>2020-01-14T10:40:53Z</time>
      </trkpt>
      <trkpt lat="43.4644" lon="3.80973">
        <ele>2</ele>
        <time>2020-01-14T10:40:54Z</time>
      </trkpt>
      <trkpt lat="43.46442" lon="3.80976">
        <ele>2</ele>
        <time>2020-01-14T10:40:55Z</time>
      </trkpt>
      <trkpt lat="43.46443" lon="3.80978">
        <ele>2</ele>
        <time>2020-01-14T10:40:57Z</time>
      </trkpt>
      <trkpt lat="43.46444" lon="3.8098">
        <ele>2</ele>
        <time>2020-01-14T10:40:59Z</time>
      </trkpt>
      <trkpt lat="43.46445" lon="3.80981">
        <ele>2</ele>
        <time>2020-01-14T10:41:01Z</time>
      </trkpt>
      <trkpt lat="43.46446" lon="3.80983">
        <ele>2</ele>
        <time>2020-01-14T10:41:03Z</time>
      </trkpt>
      <trkpt lat="43.46447" lon="3.80985">
        <ele>2</ele>
        <time>2020-01-14T10:41:04Z</time>
      </trkpt>
      <trkpt lat="43.46448" lon="3.80989">
        <ele>2</ele>
        <time>2020-01-14T10:41:05Z</time>
      </trkpt>
      <trkpt lat="43.46448" lon="3.80991">
        <ele>2</ele>
        <time>2020-01-14T10:41:07Z</time>
      </trkpt>
      <trkpt lat="43.46449" lon="3.80993">
        <ele>2</ele>
        <time>2020-01-14T10:41:09Z</time>
      </trkpt>
      <trkpt lat="43.4645" lon="3.80995">
        <ele>2</ele>
        <time>2020-01-14T10:41:11Z</time>
      </trkpt>
      <trkpt lat="43.46451" lon="3.80997">
        <ele>2</ele>
        <time>2020-01-14T10:41:13Z</time>
      </trkpt>
      <trkpt lat="43.46451" lon="3.80999">
        <ele>2</ele>
        <time>2020-01-14T10:41:14Z</time>
      </trkpt>
      <trkpt lat="43.46452" lon="3.81001">
        <ele>2</ele>
        <time>2020-01-14T10:41:15Z</time>
      </trkpt>
      <trkpt lat="43.46453" lon="3.81004">
        <ele>2</ele>
        <time>2020-01-14T10:41:17Z</time>
      </trkpt>
      <trkpt lat="43.46454" lon="3.81007">
        <ele>2</ele>
        <time>2020-01-14T10:41:20Z</time>
      </trkpt>
      <trkpt lat="43.46455" lon="3.8101">
        <ele>2</ele>
        <time>2020-01-14T10:41:22Z</time>
      </trkpt>
      <trkpt lat="43.46457" lon="3.81012">
        <ele>2</ele>
        <time>2020-01-14T10:41:24Z</time>
      </trkpt>
      <trkpt lat="43.46458" lon="3.81014">
        <ele>2</ele>
        <time>2020-01-14T10:41:26Z</time>
      </trkpt>
      <trkpt lat="43.46459" lon="3.81017">
        <ele>2</ele>
        <time>2020-01-14T10:41:28Z</time>
      </trkpt>
      <trkpt lat="43.46461" lon="3.8102">
        <ele>2</ele>
        <time>2020-01-14T10:41:30Z</time>
      </trkpt>
      <trkpt lat="43.46462" lon="3.81022">
        <ele>2</ele>
        <time>2020-01-14T10:41:32Z</time>
      </trkpt>
      <trkpt lat="43.46463" lon="3.81025">
        <ele>2</ele>
        <time>2020-01-14T10:41:34Z</time>
      </trkpt>
      <trkpt lat="43.46464" lon="3.81028">
        <ele>2</ele>
        <time>2020-01-14T10:41:36Z</time>
      </trkpt>
      <trkpt lat="43.46464" lon="3.81031">
        <ele>2</ele>
        <time>2020-01-14T10:41:38Z</time>
      </trkpt>
      <trkpt lat="43.46465" lon="3.81034">
        <ele>2</ele>
        <time>2020-01-14T10:41:40Z</time>
      </trkpt>
      <trkpt lat="43.46464" lon="3.81036">
        <ele>2</ele>
        <time>2020-01-14T10:41:42Z</time>
      </trkpt>
      <trkpt lat="43.46465" lon="3.81039">
        <ele>2</ele>
        <time>2020-01-14T10:41:44Z</time>
      </trkpt>
      <trkpt lat="43.46465" lon="3.81044">
        <ele>2</ele>
        <time>2020-01-14T10:41:46Z</time>
      </trkpt>
      <trkpt lat="43.46466" lon="3.81046">
        <ele>2</ele>
        <time>2020-01-14T10:41:49Z</time>
      </trkpt>
      <trkpt lat="43.46466" lon="3.81049">
        <ele>2</ele>
        <time>2020-01-14T10:41:51Z</time>
      </trkpt>
      <trkpt lat="43.46466" lon="3.81051">
        <ele>2</ele>
        <time>2020-01-14T10:41:53Z</time>
      </trkpt>
      <trkpt lat="43.46467" lon="3.81053">
        <ele>2</ele>
        <time>2020-01-14T10:41:54Z</time>
      </trkpt>
      <trkpt lat="43.46466" lon="3.81054">
        <ele>2</ele>
        <time>2020-01-14T10:41:55Z</time>
      </trkpt>
      <trkpt lat="43.46467" lon="3.81058">
        <ele>2</ele>
        <time>2020-01-14T10:41:58Z</time>
      </trkpt>
      <trkpt lat="43.46466" lon="3.81061">
        <ele>2</ele>
        <time>2020-01-14T10:42:00Z</time>
      </trkpt>
      <trkpt lat="43.46466" lon="3.81064">
        <ele>2</ele>
        <time>2020-01-14T10:42:02Z</time>
      </trkpt>
      <trkpt lat="43.46466" lon="3.81067">
        <ele>2</ele>
        <time>2020-01-14T10:42:04Z</time>
      </trkpt>
      <trkpt lat="43.46466" lon="3.81073">
        <ele>2</ele>
        <time>2020-01-14T10:42:07Z</time>
      </trkpt>
      <trkpt lat="43.46466" lon="3.81075">
        <ele>2</ele>
        <time>2020-01-14T10:42:09Z</time>
      </trkpt>
      <trkpt lat="43.46466" lon="3.81077">
        <ele>2</ele>
        <time>2020-01-14T10:42:11Z</time>
      </trkpt>
      <trkpt lat="43.46466" lon="3.81079">
        <ele>2</ele>
        <time>2020-01-14T10:42:13Z</time>
      </trkpt>
      <trkpt lat="43.46466" lon="3.81081">
        <ele>2</ele>
        <time>2020-01-14T10:42:14Z</time>
      </trkpt>
      <trkpt lat="43.46466" lon="3.81084">
        <ele>2</ele>
        <time>2020-01-14T10:42:15Z</time>
      </trkpt>
      <trkpt lat="43.46466" lon="3.81086">
        <ele>2</ele>
        <time>2020-01-14T10:42:17Z</time>
      </trkpt>
      <trkpt lat="43.46466" lon="3.81088">
        <ele>2</ele>
        <time>2020-01-14T10:42:19Z</time>
      </trkpt>
      <trkpt lat="43.46466" lon="3.8109">
        <ele>2</ele>
        <time>2020-01-14T10:42:21Z</time>
      </trkpt>
      <trkpt lat="43.46466" lon="3.81092">
        <ele>2</ele>
        <time>2020-01-14T10:42:23Z</time>
      </trkpt>
      <trkpt lat="43.46466" lon="3.81093">
        <ele>2</ele>
        <time>2020-01-14T10:42:24Z</time>
      </trkpt>
      <trkpt lat="43.46468" lon="3.81098">
        <ele>2</ele>
        <time>2020-01-14T10:42:25Z</time>
      </trkpt>
      <trkpt lat="43.46468" lon="3.811">
        <ele>2</ele>
        <time>2020-01-14T10:42:27Z</time>
      </trkpt>
      <trkpt lat="43.46469" lon="3.81102">
        <ele>2</ele>
        <time>2020-01-14T10:42:29Z</time>
      </trkpt>
      <trkpt lat="43.4647" lon="3.81104">
        <ele>2</ele>
        <time>2020-01-14T10:42:31Z</time>
      </trkpt>
      <trkpt lat="43.46471" lon="3.81106">
        <ele>2</ele>
        <time>2020-01-14T10:42:33Z</time>
      </trkpt>
      <trkpt lat="43.46471" lon="3.81108">
        <ele>2</ele>
        <time>2020-01-14T10:42:34Z</time>
      </trkpt>
      <trkpt lat="43.46473" lon="3.8111">
        <ele>2</ele>
        <time>2020-01-14T10:42:35Z</time>
      </trkpt>
      <trkpt lat="43.46474" lon="3.81111">
        <ele>2</ele>
        <time>2020-01-14T10:42:37Z</time>
      </trkpt>
      <trkpt lat="43.46475" lon="3.81112">
        <ele>2</ele>
        <time>2020-01-14T10:42:39Z</time>
      </trkpt>
      <trkpt lat="43.46476" lon="3.81113">
        <ele>2</ele>
        <time>2020-01-14T10:42:41Z</time>
      </trkpt>
      <trkpt lat="43.46477" lon="3.81114">
        <ele>2</ele>
        <time>2020-01-14T10:42:43Z</time>
      </trkpt>
      <trkpt lat="43.46478" lon="3.81115">
        <ele>2</ele>
        <time>2020-01-14T10:42:44Z</time>
      </trkpt>
      <trkpt lat="43.4648" lon="3.81117">
        <ele>2</ele>
        <time>2020-01-14T10:42:45Z</time>
      </trkpt>
      <trkpt lat="43.46482" lon="3.8112">
        <ele>2</ele>
        <time>2020-01-14T10:42:47Z</time>
      </trkpt>
      <trkpt lat="43.46483" lon="3.81122">
        <ele>2</ele>
        <time>2020-01-14T10:42:49Z</time>
      </trkpt>
      <trkpt lat="43.46483" lon="3.81126">
        <ele>2</ele>
        <time>2020-01-14T10:42:52Z</time>
      </trkpt>
      <trkpt lat="43.46484" lon="3.81129">
        <ele>2</ele>
        <time>2020-01-14T10:42:54Z</time>
      </trkpt>
      <trkpt lat="43.46484" lon="3.81132">
        <ele>2</ele>
        <time>2020-01-14T10:42:56Z</time>
      </trkpt>
      <trkpt lat="43.46484" lon="3.81135">
        <ele>2</ele>
        <time>2020-01-14T10:42:58Z</time>
      </trkpt>
      <trkpt lat="43.46484" lon="3.81138">
        <ele>2</ele>
        <time>2020-01-14T10:43:00Z</time>
      </trkpt>
      <trkpt lat="43.46484" lon="3.81141">
        <ele>2</ele>
        <time>2020-01-14T10:43:02Z</time>
      </trkpt>
      <trkpt lat="43.46483" lon="3.81144">
        <ele>2</ele>
        <time>2020-01-14T10:43:04Z</time>
      </trkpt>
      <trkpt lat="43.46483" lon="3.81151">
        <ele>2</ele>
        <time>2020-01-14T10:43:06Z</time>
      </trkpt>
      <trkpt lat="43.46482" lon="3.81156">
        <ele>2</ele>
        <time>2020-01-14T10:43:13Z</time>
      </trkpt>
      <trkpt lat="43.46482" lon="3.81161">
        <ele>2</ele>
        <time>2020-01-14T10:43:14Z</time>
      </trkpt>
      <trkpt lat="43.46482" lon="3.81163">
        <ele>2</ele>
        <time>2020-01-14T10:43:16Z</time>
      </trkpt>
      <trkpt lat="43.46482" lon="3.81166">
        <ele>2</ele>
        <time>2020-01-14T10:43:18Z</time>
      </trkpt>
      <trkpt lat="43.46482" lon="3.81169">
        <ele>2</ele>
        <time>2020-01-14T10:43:20Z</time>
      </trkpt>
      <trkpt lat="43.46482" lon="3.81172">
        <ele>2</ele>
        <time>2020-01-14T10:43:22Z</time>
      </trkpt>
      <trkpt lat="43.46481" lon="3.81175">
        <ele>2</ele>
        <time>2020-01-14T10:43:24Z</time>
      </trkpt>
      <trkpt lat="43.4648" lon="3.81178">
        <ele>2</ele>
        <time>2020-01-14T10:43:26Z</time>
      </trkpt>
      <trkpt lat="43.46481" lon="3.81181">
        <ele>2</ele>
        <time>2020-01-14T10:43:28Z</time>
      </trkpt>
      <trkpt lat="43.46481" lon="3.81184">
        <ele>2</ele>
        <time>2020-01-14T10:43:30Z</time>
      </trkpt>
      <trkpt lat="43.4648" lon="3.81187">
        <ele>2</ele>
        <time>2020-01-14T10:43:32Z</time>
      </trkpt>
      <trkpt lat="43.4648" lon="3.8119">
        <ele>2</ele>
        <time>2020-01-14T10:43:34Z</time>
      </trkpt>
      <trkpt lat="43.46481" lon="3.81195">
        <ele>2</ele>
        <time>2020-01-14T10:43:36Z</time>
      </trkpt>
      <trkpt lat="43.46481" lon="3.81197">
        <ele>2</ele>
        <time>2020-01-14T10:43:39Z</time>
      </trkpt>
      <trkpt lat="43.46481" lon="3.81199">
        <ele>2</ele>
        <time>2020-01-14T10:43:41Z</time>
      </trkpt>
      <trkpt lat="43.46481" lon="3.81201">
        <ele>2</ele>
        <time>2020-01-14T10:43:43Z</time>
      </trkpt>
      <trkpt lat="43.46481" lon="3.81203">
        <ele>2</ele>
        <time>2020-01-14T10:43:44Z</time>
      </trkpt>
      <trkpt lat="43.46481" lon="3.81207">
        <ele>2</ele>
        <time>2020-01-14T10:43:45Z</time>
      </trkpt>
      <trkpt lat="43.46481" lon="3.81209">
        <ele>2</ele>
        <time>2020-01-14T10:43:47Z</time>
      </trkpt>
      <trkpt lat="43.46481" lon="3.81211">
        <ele>2</ele>
        <time>2020-01-14T10:43:49Z</time>
      </trkpt>
      <trkpt lat="43.46481" lon="3.81213">
        <ele>2</ele>
        <time>2020-01-14T10:43:51Z</time>
      </trkpt>
      <trkpt lat="43.46481" lon="3.81215">
        <ele>2</ele>
        <time>2020-01-14T10:43:53Z</time>
      </trkpt>
      <trkpt lat="43.46481" lon="3.81218">
        <ele>2</ele>
        <time>2020-01-14T10:43:54Z</time>
      </trkpt>
      <trkpt lat="43.46482" lon="3.81221">
        <ele>2</ele>
        <time>2020-01-14T10:43:55Z</time>
      </trkpt>
      <trkpt lat="43.46483" lon="3.81223">
        <ele>2</ele>
        <time>2020-01-14T10:43:57Z</time>
      </trkpt>
      <trkpt lat="43.46484" lon="3.81225">
        <ele>2</ele>
        <time>2020-01-14T10:43:59Z</time>
      </trkpt>
      <trkpt lat="43.46485" lon="3.81227">
        <ele>2</ele>
        <time>2020-01-14T10:44:01Z</time>
      </trkpt>
      <trkpt lat="43.46486" lon="3.81228">
        <ele>2</ele>
        <time>2020-01-14T10:44:03Z</time>
      </trkpt>
      <trkpt lat="43.46487" lon="3.8123">
        <ele>2</ele>
        <time>2020-01-14T10:44:04Z</time>
      </trkpt>
      <trkpt lat="43.46489" lon="3.81233">
        <ele>2</ele>
        <time>2020-01-14T10:44:05Z</time>
      </trkpt>
      <trkpt lat="43.4649" lon="3.81235">
        <ele>2</ele>
        <time>2020-01-14T10:44:07Z</time>
      </trkpt>
      <trkpt lat="43.46491" lon="3.81236">
        <ele>2</ele>
        <time>2020-01-14T10:44:09Z</time>
      </trkpt>
      <trkpt lat="43.46492" lon="3.81238">
        <ele>2</ele>
        <time>2020-01-14T10:44:11Z</time>
      </trkpt>
      <trkpt lat="43.46494" lon="3.81239">
        <ele>2</ele>
        <time>2020-01-14T10:44:13Z</time>
      </trkpt>
      <trkpt lat="43.46495" lon="3.81241">
        <ele>2</ele>
        <time>2020-01-14T10:44:14Z</time>
      </trkpt>
      <trkpt lat="43.46496" lon="3.81242">
        <ele>2</ele>
        <time>2020-01-14T10:44:15Z</time>
      </trkpt>
      <trkpt lat="43.46498" lon="3.81244">
        <ele>2</ele>
        <time>2020-01-14T10:44:17Z</time>
      </trkpt>
      <trkpt lat="43.465" lon="3.81246">
        <ele>2</ele>
        <time>2020-01-14T10:44:20Z</time>
      </trkpt>
      <trkpt lat="43.46502" lon="3.81248">
        <ele>2</ele>
        <time>2020-01-14T10:44:22Z</time>
      </trkpt>
      <trkpt lat="43.46504" lon="3.8125">
        <ele>2</ele>
        <time>2020-01-14T10:44:24Z</time>
      </trkpt>
      <trkpt lat="43.46506" lon="3.81252">
        <ele>2</ele>
        <time>2020-01-14T10:44:26Z</time>
      </trkpt>
      <trkpt lat="43.46508" lon="3.81254">
        <ele>2</ele>
        <time>2020-01-14T10:44:28Z</time>
      </trkpt>
      <trkpt lat="43.4651" lon="3.81256">
        <ele>2</ele>
        <time>2020-01-14T10:44:30Z</time>
      </trkpt>
      <trkpt lat="43.46512" lon="3.81258">
        <ele>2</ele>
        <time>2020-01-14T10:44:32Z</time>
      </trkpt>
      <trkpt lat="43.46513" lon="3.81261">
        <ele>2</ele>
        <time>2020-01-14T10:44:34Z</time>
      </trkpt>
      <trkpt lat="43.46514" lon="3.81263">
        <ele>2</ele>
        <time>2020-01-14T10:44:36Z</time>
      </trkpt>
      <trkpt lat="43.46516" lon="3.81265">
        <ele>2</ele>
        <time>2020-01-14T10:44:38Z</time>
      </trkpt>
      <trkpt lat="43.46518" lon="3.81266">
        <ele>2</ele>
        <time>2020-01-14T10:44:40Z</time>
      </trkpt>
      <trkpt lat="43.4652" lon="3.81268">
        <ele>2</ele>
        <time>2020-01-14T10:44:42Z</time>
      </trkpt>
      <trkpt lat="43.46521" lon="3.8127">
        <ele>2</ele>
        <time>2020-01-14T10:44:44Z</time>
      </trkpt>
      <trkpt lat="43.46524" lon="3.81275">
        <ele>2</ele>
        <time>2020-01-14T10:44:47Z</time>
      </trkpt>
      <trkpt lat="43.46525" lon="3.81276">
        <ele>2</ele>
        <time>2020-01-14T10:44:49Z</time>
      </trkpt>
      <trkpt lat="43.46526" lon="3.81278">
        <ele>2</ele>
        <time>2020-01-14T10:44:51Z</time>
      </trkpt>
      <trkpt lat="43.46527" lon="3.81279">
        <ele>2</ele>
        <time>2020-01-14T10:44:53Z</time>
      </trkpt>
      <trkpt lat="43.46528" lon="3.81281">
        <ele>2</ele>
        <time>2020-01-14T10:44:54Z</time>
      </trkpt>
      <trkpt lat="43.4653" lon="3.81283">
        <ele>2</ele>
        <time>2020-01-14T10:44:55Z</time>
      </trkpt>
      <trkpt lat="43.46532" lon="3.81285">
        <ele>2</ele>
        <time>2020-01-14T10:44:57Z</time>
      </trkpt>
      <trkpt lat="43.46533" lon="3.81287">
        <ele>2</ele>
        <time>2020-01-14T10:44:59Z</time>
      </trkpt>
      <trkpt lat="43.46534" lon="3.81288">
        <ele>2</ele>
        <time>2020-01-14T10:45:01Z</time>
      </trkpt>
      <trkpt lat="43.46535" lon="3.8129">
        <ele>2</ele>
        <time>2020-01-14T10:45:03Z</time>
      </trkpt>
      <trkpt lat="43.46537" lon="3.81292">
        <ele>2</ele>
        <time>2020-01-14T10:45:04Z</time>
      </trkpt>
      <trkpt lat="43.46538" lon="3.81293">
        <ele>2</ele>
        <time>2020-01-14T10:45:05Z</time>
      </trkpt>
      <trkpt lat="43.46539" lon="3.81296">
        <ele>2</ele>
        <time>2020-01-14T10:45:08Z</time>
      </trkpt>
      <trkpt lat="43.4654" lon="3.81299">
        <ele>2</ele>
        <time>2020-01-14T10:45:10Z</time>
      </trkpt>
      <trkpt lat="43.46541" lon="3.81301">
        <ele>2</ele>
        <time>2020-01-14T10:45:12Z</time>
      </trkpt>
      <trkpt lat="43.46543" lon="3.81303">
        <ele>2</ele>
        <time>2020-01-14T10:45:14Z</time>
      </trkpt>
      <trkpt lat="43.46544" lon="3.81306">
        <ele>2</ele>
        <time>2020-01-14T10:45:16Z</time>
      </trkpt>
      <trkpt lat="43.46545" lon="3.81308">
        <ele>2</ele>
        <time>2020-01-14T10:45:18Z</time>
      </trkpt>
      <trkpt lat="43.46546" lon="3.81311">
        <ele>2</ele>
        <time>2020-01-14T10:45:20Z</time>
      </trkpt>
      <trkpt lat="43.46548" lon="3.81313">
        <ele>2</ele>
        <time>2020-01-14T10:45:22Z</time>
      </trkpt>
      <trkpt lat="43.46549" lon="3.81316">
        <ele>2</ele>
        <time>2020-01-14T10:45:24Z</time>
      </trkpt>
      <trkpt lat="43.46552" lon="3.8132">
        <ele>2</ele>
        <time>2020-01-14T10:45:26Z</time>
      </trkpt>
      <trkpt lat="43.46553" lon="3.81322">
        <ele>2</ele>
        <time>2020-01-14T10:45:28Z</time>
      </trkpt>
      <trkpt lat="43.46554" lon="3.81324">
        <ele>2</ele>
        <time>2020-01-14T10:45:30Z</time>
      </trkpt>
      <trkpt lat="43.46556" lon="3.81325">
        <ele>2</ele>
        <time>2020-01-14T10:45:33Z</time>
      </trkpt>
      <trkpt lat="43.46557" lon="3.81327">
        <ele>2</ele>
        <time>2020-01-14T10:45:34Z</time>
      </trkpt>
      <trkpt lat="43.4656" lon="3.81331">
        <ele>2</ele>
        <time>2020-01-14T10:45:36Z</time>
      </trkpt>
      <trkpt lat="43.46562" lon="3.81333">
        <ele>2</ele>
        <time>2020-01-14T10:45:38Z</time>
      </trkpt>
      <trkpt lat="43.46563" lon="3.81335">
        <ele>2</ele>
        <time>2020-01-14T10:45:41Z</time>
      </trkpt>
      <trkpt lat="43.46564" lon="3.81336">
        <ele>2</ele>
        <time>2020-01-14T10:45:43Z</time>
      </trkpt>
      <trkpt lat="43.46565" lon="3.81338">
        <ele>2</ele>
        <time>2020-01-14T10:45:44Z</time>
      </trkpt>
      <trkpt lat="43.46567" lon="3.8134">
        <ele>2</ele>
        <time>2020-01-14T10:45:45Z</time>
      </trkpt>
      <trkpt lat="43.46568" lon="3.81342">
        <ele>2</ele>
        <time>2020-01-14T10:45:47Z</time>
      </trkpt>
      <trkpt lat="43.46569" lon="3.81343">
        <ele>2</ele>
        <time>2020-01-14T10:45:49Z</time>
      </trkpt>
      <trkpt lat="43.4657" lon="3.81344">
        <ele>2</ele>
        <time>2020-01-14T10:45:51Z</time>
      </trkpt>
      <trkpt lat="43.46571" lon="3.81345">
        <ele>2</ele>
        <time>2020-01-14T10:45:53Z</time>
      </trkpt>
      <trkpt lat="43.46572" lon="3.81346">
        <ele>2</ele>
        <time>2020-01-14T10:45:54Z</time>
      </trkpt>
      <trkpt lat="43.46573" lon="3.81349">
        <ele>2</ele>
        <time>2020-01-14T10:45:55Z</time>
      </trkpt>
      <trkpt lat="43.46574" lon="3.8135">
        <ele>2</ele>
        <time>2020-01-14T10:45:57Z</time>
      </trkpt>
      <trkpt lat="43.46576" lon="3.81352">
        <ele>2</ele>
        <time>2020-01-14T10:46:00Z</time>
      </trkpt>
      <trkpt lat="43.46578" lon="3.81354">
        <ele>2</ele>
        <time>2020-01-14T10:46:02Z</time>
      </trkpt>
      <trkpt lat="43.4658" lon="3.81357">
        <ele>2</ele>
        <time>2020-01-14T10:46:04Z</time>
      </trkpt>
      <trkpt lat="43.46582" lon="3.8136">
        <ele>2</ele>
        <time>2020-01-14T10:46:08Z</time>
      </trkpt>
      <trkpt lat="43.46584" lon="3.81362">
        <ele>2</ele>
        <time>2020-01-14T10:46:10Z</time>
      </trkpt>
      <trkpt lat="43.46585" lon="3.81365">
        <ele>2</ele>
        <time>2020-01-14T10:46:12Z</time>
      </trkpt>
      <trkpt lat="43.46585" lon="3.81365">
        <ele>2</ele>
        <time>2020-01-14T10:46:14Z</time>
      </trkpt>
      <trkpt lat="43.46588" lon="3.81369">
        <ele>2</ele>
        <time>2020-01-14T10:46:15Z</time>
      </trkpt>
      <trkpt lat="43.46589" lon="3.8137">
        <ele>2</ele>
        <time>2020-01-14T10:46:17Z</time>
      </trkpt>
      <trkpt lat="43.4659" lon="3.81372">
        <ele>2</ele>
        <time>2020-01-14T10:46:19Z</time>
      </trkpt>
      <trkpt lat="43.46592" lon="3.81374">
        <ele>2</ele>
        <time>2020-01-14T10:46:21Z</time>
      </trkpt>
      <trkpt lat="43.46593" lon="3.81375">
        <ele>2</ele>
        <time>2020-01-14T10:46:23Z</time>
      </trkpt>
      <trkpt lat="43.46594" lon="3.81377">
        <ele>2</ele>
        <time>2020-01-14T10:46:24Z</time>
      </trkpt>
      <trkpt lat="43.46596" lon="3.8138">
        <ele>2</ele>
        <time>2020-01-14T10:46:25Z</time>
      </trkpt>
      <trkpt lat="43.46598" lon="3.81381">
        <ele>2</ele>
        <time>2020-01-14T10:46:27Z</time>
      </trkpt>
      <trkpt lat="43.46599" lon="3.81383">
        <ele>2</ele>
        <time>2020-01-14T10:46:29Z</time>
      </trkpt>
      <trkpt lat="43.466" lon="3.81385">
        <ele>2</ele>
        <time>2020-01-14T10:46:31Z</time>
      </trkpt>
      <trkpt lat="43.46601" lon="3.81386">
        <ele>2</ele>
        <time>2020-01-14T10:46:33Z</time>
      </trkpt>
      <trkpt lat="43.46602" lon="3.81388">
        <ele>2</ele>
        <time>2020-01-14T10:46:34Z</time>
      </trkpt>
      <trkpt lat="43.46604" lon="3.81391">
        <ele>2</ele>
        <time>2020-01-14T10:46:35Z</time>
      </trkpt>
      <trkpt lat="43.46605" lon="3.81392">
        <ele>2</ele>
        <time>2020-01-14T10:46:37Z</time>
      </trkpt>
      <trkpt lat="43.46606" lon="3.81394">
        <ele>2</ele>
        <time>2020-01-14T10:46:39Z</time>
      </trkpt>
      <trkpt lat="43.46607" lon="3.81396">
        <ele>2</ele>
        <time>2020-01-14T10:46:41Z</time>
      </trkpt>
      <trkpt lat="43.46608" lon="3.81397">
        <ele>2</ele>
        <time>2020-01-14T10:46:43Z</time>
      </trkpt>
      <trkpt lat="43.46609" lon="3.81399">
        <ele>2</ele>
        <time>2020-01-14T10:46:44Z</time>
      </trkpt>
      <trkpt lat="43.46611" lon="3.81401">
        <ele>2</ele>
        <time>2020-01-14T10:46:45Z</time>
      </trkpt>
      <trkpt lat="43.46612" lon="3.81403">
        <ele>2</ele>
        <time>2020-01-14T10:46:47Z</time>
      </trkpt>
      <trkpt lat="43.46613" lon="3.81404">
        <ele>2</ele>
        <time>2020-01-14T10:46:49Z</time>
      </trkpt>
      <trkpt lat="43.46614" lon="3.81405">
        <ele>2</ele>
        <time>2020-01-14T10:46:51Z</time>
      </trkpt>
      <trkpt lat="43.46615" lon="3.81407">
        <ele>2</ele>
        <time>2020-01-14T10:46:53Z</time>
      </trkpt>
      <trkpt lat="43.46616" lon="3.81408">
        <ele>2</ele>
        <time>2020-01-14T10:46:54Z</time>
      </trkpt>
      <trkpt lat="43.46617" lon="3.8141">
        <ele>2</ele>
        <time>2020-01-14T10:46:55Z</time>
      </trkpt>
      <trkpt lat="43.46619" lon="3.81412">
        <ele>2</ele>
        <time>2020-01-14T10:46:58Z</time>
      </trkpt>
      <trkpt lat="43.4662" lon="3.81414">
        <ele>2</ele>
        <time>2020-01-14T10:47:00Z</time>
      </trkpt>
      <trkpt lat="43.46621" lon="3.81416">
        <ele>2</ele>
        <time>2020-01-14T10:47:02Z</time>
      </trkpt>
      <trkpt lat="43.46622" lon="3.81419">
        <ele>2</ele>
        <time>2020-01-14T10:47:04Z</time>
      </trkpt>
      <trkpt lat="43.46624" lon="3.81421">
        <ele>2</ele>
        <time>2020-01-14T10:47:06Z</time>
      </trkpt>
      <trkpt lat="43.46625" lon="3.81423">
        <ele>2</ele>
        <time>2020-01-14T10:47:08Z</time>
      </trkpt>
      <trkpt lat="43.46627" lon="3.81426">
        <ele>2</ele>
        <time>2020-01-14T10:47:10Z</time>
      </trkpt>
      <trkpt lat="43.46628" lon="3.81428">
        <ele>2</ele>
        <time>2020-01-14T10:47:12Z</time>
      </trkpt>
      <trkpt lat="43.4663" lon="3.81429">
        <ele>2</ele>
        <time>2020-01-14T10:47:14Z</time>
      </trkpt>
      <trkpt lat="43.46631" lon="3.81431">
        <ele>2</ele>
        <time>2020-01-14T10:47:16Z</time>
      </trkpt>
      <trkpt lat="43.46634" lon="3.81433">
        <ele>2</ele>
        <time>2020-01-14T10:47:19Z</time>
      </trkpt>
      <trkpt lat="43.46636" lon="3.81435">
        <ele>2</ele>
        <time>2020-01-14T10:47:22Z</time>
      </trkpt>
      <trkpt lat="43.46636" lon="3.81435">
        <ele>2</ele>
        <time>2020-01-14T10:47:24Z</time>
      </trkpt>
      <trkpt lat="43.46638" lon="3.81436">
        <ele>2</ele>
        <time>2020-01-14T10:47:25Z</time>
      </trkpt>
      <trkpt lat="43.4664" lon="3.81436">
        <ele>2</ele>
        <time>2020-01-14T10:47:28Z</time>
      </trkpt>
      <trkpt lat="43.46641" lon="3.81438">
        <ele>2</ele>
        <time>2020-01-14T10:47:31Z</time>
      </trkpt>
      <trkpt lat="43.46642" lon="3.81441">
        <ele>2</ele>
        <time>2020-01-14T10:47:34Z</time>
      </trkpt>
      <trkpt lat="43.46644" lon="3.81444">
        <ele>2</ele>
        <time>2020-01-14T10:47:37Z</time>
      </trkpt>
      <trkpt lat="43.46645" lon="3.81447">
        <ele>2</ele>
        <time>2020-01-14T10:47:40Z</time>
      </trkpt>
      <trkpt lat="43.46646" lon="3.8145">
        <ele>2</ele>
        <time>2020-01-14T10:47:43Z</time>
      </trkpt>
      <trkpt lat="43.46646" lon="3.8145">
        <ele>2</ele>
        <time>2020-01-14T10:47:45Z</time>
      </trkpt>
      <trkpt lat="43.46647" lon="3.81453">
        <ele>2</ele>
        <time>2020-01-14T10:47:47Z</time>
      </trkpt>
      <trkpt lat="43.46647" lon="3.81454">
        <ele>2</ele>
        <time>2020-01-14T10:47:53Z</time>
      </trkpt>
      <trkpt lat="43.46647" lon="3.81455">
        <ele>2</ele>
        <time>2020-01-14T10:47:54Z</time>
      </trkpt>
      <trkpt lat="43.46646" lon="3.81458">
        <ele>2</ele>
        <time>2020-01-14T10:47:55Z</time>
      </trkpt>
      <trkpt lat="43.46645" lon="3.81461">
        <ele>2</ele>
        <time>2020-01-14T10:47:58Z</time>
      </trkpt>
      <trkpt lat="43.46646" lon="3.81463">
        <ele>2</ele>
        <time>2020-01-14T10:48:01Z</time>
      </trkpt>
      <trkpt lat="43.46649" lon="3.81462">
        <ele>2</ele>
        <time>2020-01-14T10:48:04Z</time>
      </trkpt>
      <trkpt lat="43.46651" lon="3.8146">
        <ele>2</ele>
        <time>2020-01-14T10:48:07Z</time>
      </trkpt>
      <trkpt lat="43.46652" lon="3.81459">
        <ele>2</ele>
        <time>2020-01-14T10:48:10Z</time>
      </trkpt>
      <trkpt lat="43.46653" lon="3.81458">
        <ele>2</ele>
        <time>2020-01-14T10:48:13Z</time>
      </trkpt>
      <trkpt lat="43.46654" lon="3.81457">
        <ele>2</ele>
        <time>2020-01-14T10:48:14Z</time>
      </trkpt>
      <trkpt lat="43.46655" lon="3.81455">
        <ele>2</ele>
        <time>2020-01-14T10:48:16Z</time>
      </trkpt>
      <trkpt lat="43.46655" lon="3.81455">
        <ele>2</ele>
        <time>2020-01-14T10:48:22Z</time>
      </trkpt>
    </trkseg>
  </trk>
</gpx>